<?xml version="1.0" encoding="UTF-8" standalone="no" ?>
<gpx xmlns="http://www.topografix.com/GPX/1/1" xmlns:xsi="http://www.w3.org/2001/XMLSchema-instance" xsi:schemaLocation="http://www.topografix.com/GPX/1/1 http://www.topografix.com/GPX/1/1/gpx.xsd" version="1.1" creator="VisuGPX - https://www.visugpx.com">
  <metadata>
    <name>Boréon - lacs Scluos et Tavels</name>
    <desc><![CDATA[Du Boréon au lac des Scluos, puis de Tavels.
Sur sentier jusqu'aux deux lacs des Scluos (bifurcation vers le lac des Scluos indiquée par un gros cairn, pas de panneau). Puis hors sentier dans un grand pierrier (gros blocs avec parfois quelques passages sur herbe). Compter une bonne heure pour la traversée du pierrier. 
Descente facile en suivant le torrent du lac de Tavels (au début masqué par les pierres). On rejoint le sentier vers le col de Salèse à la borne 265.
 ]]></desc>
  </metadata>
  <trk>
    <name><![CDATA[Boréon - lacs Scluos et Tavels_1]]></name>
    <trkseg>
      <trkpt lat="44.12595" lon="7.26215">
        <ele>1686</ele>
        <time>2016-09-25T10:01:37Z</time>
      </trkpt>
      <trkpt lat="44.12595" lon="7.26215">
        <ele>1686</ele>
        <time>2016-09-25T10:01:42Z</time>
      </trkpt>
      <trkpt lat="44.12595" lon="7.26215">
        <ele>1686</ele>
        <time>2016-09-25T10:01:47Z</time>
      </trkpt>
      <trkpt lat="44.12595" lon="7.26215">
        <ele>1686</ele>
        <time>2016-09-25T10:02:02Z</time>
      </trkpt>
      <trkpt lat="44.12595" lon="7.26215">
        <ele>1686</ele>
        <time>2016-09-25T10:02:07Z</time>
      </trkpt>
      <trkpt lat="44.12595" lon="7.26215">
        <ele>1686</ele>
        <time>2016-09-25T10:02:17Z</time>
      </trkpt>
      <trkpt lat="44.12595" lon="7.26215">
        <ele>1686</ele>
        <time>2016-09-25T10:02:22Z</time>
      </trkpt>
      <trkpt lat="44.12595" lon="7.26215">
        <ele>1686</ele>
        <time>2016-09-25T10:02:32Z</time>
      </trkpt>
      <trkpt lat="44.12595" lon="7.26215">
        <ele>1686</ele>
        <time>2016-09-25T10:02:37Z</time>
      </trkpt>
      <trkpt lat="44.12595" lon="7.26215">
        <ele>1686</ele>
        <time>2016-09-25T10:02:47Z</time>
      </trkpt>
      <trkpt lat="44.12595" lon="7.26215">
        <ele>1686</ele>
        <time>2016-09-25T10:02:52Z</time>
      </trkpt>
      <trkpt lat="44.12595" lon="7.26215">
        <ele>1686</ele>
        <time>2016-09-25T10:03:02Z</time>
      </trkpt>
      <trkpt lat="44.12595" lon="7.26215">
        <ele>1686</ele>
        <time>2016-09-25T10:03:07Z</time>
      </trkpt>
      <trkpt lat="44.12595" lon="7.26215">
        <ele>1686</ele>
        <time>2016-09-25T10:03:17Z</time>
      </trkpt>
      <trkpt lat="44.12595" lon="7.26215">
        <ele>1686</ele>
        <time>2016-09-25T10:03:22Z</time>
      </trkpt>
      <trkpt lat="44.12595" lon="7.26215">
        <ele>1686</ele>
        <time>2016-09-25T10:03:32Z</time>
      </trkpt>
      <trkpt lat="44.12595" lon="7.26215">
        <ele>1686</ele>
        <time>2016-09-25T10:03:37Z</time>
      </trkpt>
      <trkpt lat="44.12595" lon="7.26215">
        <ele>1686</ele>
        <time>2016-09-25T10:03:47Z</time>
      </trkpt>
      <trkpt lat="44.12595" lon="7.26215">
        <ele>1686</ele>
        <time>2016-09-25T10:03:52Z</time>
      </trkpt>
      <trkpt lat="44.12594" lon="7.26215">
        <ele>1686</ele>
        <time>2016-09-25T10:04:02Z</time>
      </trkpt>
      <trkpt lat="44.12594" lon="7.26215">
        <ele>1686</ele>
        <time>2016-09-25T10:04:07Z</time>
      </trkpt>
      <trkpt lat="44.12594" lon="7.26215">
        <ele>1686</ele>
        <time>2016-09-25T10:04:17Z</time>
      </trkpt>
      <trkpt lat="44.12594" lon="7.26215">
        <ele>1686</ele>
        <time>2016-09-25T10:04:22Z</time>
      </trkpt>
      <trkpt lat="44.12594" lon="7.26215">
        <ele>1686</ele>
        <time>2016-09-25T10:04:32Z</time>
      </trkpt>
      <trkpt lat="44.12594" lon="7.26214">
        <ele>1686</ele>
        <time>2016-09-25T10:04:37Z</time>
      </trkpt>
      <trkpt lat="44.12594" lon="7.26214">
        <ele>1686</ele>
        <time>2016-09-25T10:04:47Z</time>
      </trkpt>
      <trkpt lat="44.12594" lon="7.26214">
        <ele>1686</ele>
        <time>2016-09-25T10:04:52Z</time>
      </trkpt>
      <trkpt lat="44.12594" lon="7.26214">
        <ele>1686</ele>
        <time>2016-09-25T10:05:07Z</time>
      </trkpt>
      <trkpt lat="44.12594" lon="7.26214">
        <ele>1686</ele>
        <time>2016-09-25T10:05:12Z</time>
      </trkpt>
      <trkpt lat="44.12594" lon="7.26214">
        <ele>1686</ele>
        <time>2016-09-25T10:05:22Z</time>
      </trkpt>
      <trkpt lat="44.12594" lon="7.26214">
        <ele>1686</ele>
        <time>2016-09-25T10:05:27Z</time>
      </trkpt>
      <trkpt lat="44.12594" lon="7.26214">
        <ele>1686</ele>
        <time>2016-09-25T10:05:37Z</time>
      </trkpt>
      <trkpt lat="44.12594" lon="7.26214">
        <ele>1686</ele>
        <time>2016-09-25T10:05:42Z</time>
      </trkpt>
      <trkpt lat="44.12594" lon="7.26214">
        <ele>1686</ele>
        <time>2016-09-25T10:05:52Z</time>
      </trkpt>
      <trkpt lat="44.12594" lon="7.26214">
        <ele>1686</ele>
        <time>2016-09-25T10:05:57Z</time>
      </trkpt>
      <trkpt lat="44.12594" lon="7.26214">
        <ele>1686</ele>
        <time>2016-09-25T10:06:07Z</time>
      </trkpt>
      <trkpt lat="44.12594" lon="7.26214">
        <ele>1686</ele>
        <time>2016-09-25T10:06:12Z</time>
      </trkpt>
      <trkpt lat="44.12594" lon="7.26214">
        <ele>1686</ele>
        <time>2016-09-25T10:06:22Z</time>
      </trkpt>
      <trkpt lat="44.12594" lon="7.26214">
        <ele>1686</ele>
        <time>2016-09-25T10:06:27Z</time>
      </trkpt>
      <trkpt lat="44.12594" lon="7.26214">
        <ele>1686</ele>
        <time>2016-09-25T10:06:37Z</time>
      </trkpt>
      <trkpt lat="44.12594" lon="7.26214">
        <ele>1686</ele>
        <time>2016-09-25T10:06:42Z</time>
      </trkpt>
      <trkpt lat="44.12594" lon="7.26214">
        <ele>1686</ele>
        <time>2016-09-25T10:06:52Z</time>
      </trkpt>
      <trkpt lat="44.12594" lon="7.26214">
        <ele>1686</ele>
        <time>2016-09-25T10:06:57Z</time>
      </trkpt>
      <trkpt lat="44.12594" lon="7.26214">
        <ele>1686</ele>
        <time>2016-09-25T10:07:12Z</time>
      </trkpt>
      <trkpt lat="44.12594" lon="7.26214">
        <ele>1686</ele>
        <time>2016-09-25T10:07:17Z</time>
      </trkpt>
      <trkpt lat="44.12594" lon="7.26214">
        <ele>1686</ele>
        <time>2016-09-25T10:07:27Z</time>
      </trkpt>
      <trkpt lat="44.12593" lon="7.26201">
        <ele>1682.1674327677</ele>
        <time>2016-09-25T10:07:32Z</time>
      </trkpt>
      <trkpt lat="44.12593" lon="7.26182">
        <ele>1688.5340435942</ele>
        <time>2016-09-25T10:07:42Z</time>
      </trkpt>
      <trkpt lat="44.12593" lon="7.26171">
        <ele>1688.5340435942</ele>
        <time>2016-09-25T10:07:47Z</time>
      </trkpt>
      <trkpt lat="44.12596" lon="7.26147">
        <ele>1695.5464974197</ele>
        <time>2016-09-25T10:07:57Z</time>
      </trkpt>
      <trkpt lat="44.12597" lon="7.26136">
        <ele>1695.5464974197</ele>
        <time>2016-09-25T10:08:02Z</time>
      </trkpt>
      <trkpt lat="44.12595" lon="7.26117">
        <ele>1703.8854493567</ele>
        <time>2016-09-25T10:08:12Z</time>
      </trkpt>
      <trkpt lat="44.12598" lon="7.2611">
        <ele>1703.8854493567</ele>
        <time>2016-09-25T10:08:17Z</time>
      </trkpt>
      <trkpt lat="44.126" lon="7.26093">
        <ele>1710.9211382071</ele>
        <time>2016-09-25T10:08:27Z</time>
      </trkpt>
      <trkpt lat="44.12604" lon="7.26087">
        <ele>1710.9211382071</ele>
        <time>2016-09-25T10:08:32Z</time>
      </trkpt>
      <trkpt lat="44.12619" lon="7.26074">
        <ele>1718.2644937636</ele>
        <time>2016-09-25T10:08:47Z</time>
      </trkpt>
      <trkpt lat="44.12596" lon="7.26076">
        <ele>1723.5903882301</ele>
        <time>2016-09-25T10:08:52Z</time>
      </trkpt>
      <trkpt lat="44.12595" lon="7.26072">
        <ele>1723.5903882301</ele>
        <time>2016-09-25T10:08:57Z</time>
      </trkpt>
      <trkpt lat="44.12594" lon="7.26072">
        <ele>1723.5903882301</ele>
        <time>2016-09-25T10:09:02Z</time>
      </trkpt>
      <trkpt lat="44.12594" lon="7.26072">
        <ele>1723.5903882301</ele>
        <time>2016-09-25T10:09:07Z</time>
      </trkpt>
      <trkpt lat="44.12594" lon="7.26072">
        <ele>1723.5903882301</ele>
        <time>2016-09-25T10:09:12Z</time>
      </trkpt>
      <trkpt lat="44.12594" lon="7.26072">
        <ele>1723.5903882301</ele>
        <time>2016-09-25T10:09:17Z</time>
      </trkpt>
      <trkpt lat="44.12594" lon="7.26072">
        <ele>1723.5903882301</ele>
        <time>2016-09-25T10:09:27Z</time>
      </trkpt>
      <trkpt lat="44.12594" lon="7.26072">
        <ele>1723.5903882301</ele>
        <time>2016-09-25T10:09:32Z</time>
      </trkpt>
      <trkpt lat="44.12596" lon="7.26068">
        <ele>1723.5903882301</ele>
        <time>2016-09-25T10:09:42Z</time>
      </trkpt>
      <trkpt lat="44.12598" lon="7.26065">
        <ele>1727.9618238281</ele>
        <time>2016-09-25T10:09:47Z</time>
      </trkpt>
      <trkpt lat="44.126" lon="7.26063">
        <ele>1727.9618238281</ele>
        <time>2016-09-25T10:09:57Z</time>
      </trkpt>
      <trkpt lat="44.12599" lon="7.26063">
        <ele>1727.9618238281</ele>
        <time>2016-09-25T10:10:02Z</time>
      </trkpt>
      <trkpt lat="44.126" lon="7.26063">
        <ele>1727.9618238281</ele>
        <time>2016-09-25T10:10:12Z</time>
      </trkpt>
      <trkpt lat="44.126" lon="7.26063">
        <ele>1727.9618238281</ele>
        <time>2016-09-25T10:10:17Z</time>
      </trkpt>
      <trkpt lat="44.126" lon="7.26063">
        <ele>1727.9618238281</ele>
        <time>2016-09-25T10:10:27Z</time>
      </trkpt>
      <trkpt lat="44.126" lon="7.26063">
        <ele>1727.9618238281</ele>
        <time>2016-09-25T10:10:32Z</time>
      </trkpt>
      <trkpt lat="44.126" lon="7.26063">
        <ele>1727.9618238281</ele>
        <time>2016-09-25T10:10:42Z</time>
      </trkpt>
      <trkpt lat="44.126" lon="7.26063">
        <ele>1727.9618238281</ele>
        <time>2016-09-25T10:10:47Z</time>
      </trkpt>
      <trkpt lat="44.12601" lon="7.2606">
        <ele>1727.9618238281</ele>
        <time>2016-09-25T10:11:02Z</time>
      </trkpt>
      <trkpt lat="44.12598" lon="7.26048">
        <ele>1731.8554841292</ele>
        <time>2016-09-25T10:11:07Z</time>
      </trkpt>
      <trkpt lat="44.126" lon="7.26037">
        <ele>1731.8554841292</ele>
        <time>2016-09-25T10:11:17Z</time>
      </trkpt>
      <trkpt lat="44.126" lon="7.26037">
        <ele>1731.8554841292</ele>
        <time>2016-09-25T10:11:22Z</time>
      </trkpt>
      <trkpt lat="44.126" lon="7.26036">
        <ele>1731.8554841292</ele>
        <time>2016-09-25T10:11:32Z</time>
      </trkpt>
      <trkpt lat="44.12603" lon="7.26034">
        <ele>1735.1595768695</ele>
        <time>2016-09-25T10:11:37Z</time>
      </trkpt>
      <trkpt lat="44.12619" lon="7.26016">
        <ele>1736.453427478</ele>
        <time>2016-09-25T10:11:47Z</time>
      </trkpt>
      <trkpt lat="44.12618" lon="7.26004">
        <ele>1736.453427478</ele>
        <time>2016-09-25T10:11:52Z</time>
      </trkpt>
      <trkpt lat="44.12626" lon="7.2599">
        <ele>1738.4836028865</ele>
        <time>2016-09-25T10:12:02Z</time>
      </trkpt>
      <trkpt lat="44.12627" lon="7.25979">
        <ele>1738.4836028865</ele>
        <time>2016-09-25T10:12:07Z</time>
      </trkpt>
      <trkpt lat="44.12628" lon="7.25963">
        <ele>1740.0787159357</ele>
        <time>2016-09-25T10:12:17Z</time>
      </trkpt>
      <trkpt lat="44.12626" lon="7.25954">
        <ele>1740.0787159357</ele>
        <time>2016-09-25T10:12:22Z</time>
      </trkpt>
      <trkpt lat="44.12635" lon="7.25945">
        <ele>1740.8178428928</ele>
        <time>2016-09-25T10:12:32Z</time>
      </trkpt>
      <trkpt lat="44.12634" lon="7.2594">
        <ele>1740.8178428928</ele>
        <time>2016-09-25T10:12:37Z</time>
      </trkpt>
      <trkpt lat="44.12634" lon="7.25923">
        <ele>1740.7450336363</ele>
        <time>2016-09-25T10:12:52Z</time>
      </trkpt>
      <trkpt lat="44.12632" lon="7.25919">
        <ele>1740.7450336363</ele>
        <time>2016-09-25T10:12:57Z</time>
      </trkpt>
      <trkpt lat="44.12628" lon="7.25914">
        <ele>1740.7450336363</ele>
        <time>2016-09-25T10:13:07Z</time>
      </trkpt>
      <trkpt lat="44.12629" lon="7.25909">
        <ele>1740.8934578696</ele>
        <time>2016-09-25T10:13:12Z</time>
      </trkpt>
      <trkpt lat="44.12623" lon="7.25902">
        <ele>1740.8934578696</ele>
        <time>2016-09-25T10:13:22Z</time>
      </trkpt>
      <trkpt lat="44.12621" lon="7.25897">
        <ele>1740.7827272131</ele>
        <time>2016-09-25T10:13:27Z</time>
      </trkpt>
      <trkpt lat="44.12621" lon="7.25885">
        <ele>1740.7827272131</ele>
        <time>2016-09-25T10:13:37Z</time>
      </trkpt>
      <trkpt lat="44.12624" lon="7.25879">
        <ele>1740.4920002232</ele>
        <time>2016-09-25T10:13:42Z</time>
      </trkpt>
      <trkpt lat="44.12616" lon="7.25874">
        <ele>1740.4920002232</ele>
        <time>2016-09-25T10:13:52Z</time>
      </trkpt>
      <trkpt lat="44.12616" lon="7.25871">
        <ele>1740.6847857724</ele>
        <time>2016-09-25T10:13:57Z</time>
      </trkpt>
      <trkpt lat="44.12615" lon="7.25866">
        <ele>1740.6847857724</ele>
        <time>2016-09-25T10:14:07Z</time>
      </trkpt>
      <trkpt lat="44.12615" lon="7.25867">
        <ele>1740.6847857724</ele>
        <time>2016-09-25T10:14:12Z</time>
      </trkpt>
      <trkpt lat="44.12615" lon="7.25866">
        <ele>1740.6847857724</ele>
        <time>2016-09-25T10:14:27Z</time>
      </trkpt>
      <trkpt lat="44.12615" lon="7.25866">
        <ele>1740.6847857724</ele>
        <time>2016-09-25T10:14:32Z</time>
      </trkpt>
      <trkpt lat="44.12619" lon="7.25848">
        <ele>1738.364644974</ele>
        <time>2016-09-25T10:14:42Z</time>
      </trkpt>
      <trkpt lat="44.12619" lon="7.25836">
        <ele>1738.364644974</ele>
        <time>2016-09-25T10:14:47Z</time>
      </trkpt>
      <trkpt lat="44.12622" lon="7.25816">
        <ele>1734.2159157256</ele>
        <time>2016-09-25T10:14:57Z</time>
      </trkpt>
      <trkpt lat="44.12619" lon="7.25806">
        <ele>1734.2159157256</ele>
        <time>2016-09-25T10:15:02Z</time>
      </trkpt>
      <trkpt lat="44.12608" lon="7.25781">
        <ele>1731.0864101991</ele>
        <time>2016-09-25T10:15:12Z</time>
      </trkpt>
      <trkpt lat="44.12613" lon="7.25775">
        <ele>1731.0864101991</ele>
        <time>2016-09-25T10:15:17Z</time>
      </trkpt>
      <trkpt lat="44.12621" lon="7.25768">
        <ele>1729.9470620017</ele>
        <time>2016-09-25T10:15:27Z</time>
      </trkpt>
      <trkpt lat="44.12624" lon="7.25761">
        <ele>1729.9470620017</ele>
        <time>2016-09-25T10:15:32Z</time>
      </trkpt>
      <trkpt lat="44.12644" lon="7.2575">
        <ele>1730.6898603304</ele>
        <time>2016-09-25T10:15:42Z</time>
      </trkpt>
      <trkpt lat="44.1265" lon="7.25747">
        <ele>1730.6898603304</ele>
        <time>2016-09-25T10:15:47Z</time>
      </trkpt>
      <trkpt lat="44.12652" lon="7.25741">
        <ele>1731.6269401427</ele>
        <time>2016-09-25T10:15:57Z</time>
      </trkpt>
      <trkpt lat="44.12653" lon="7.25738">
        <ele>1731.6269401427</ele>
        <time>2016-09-25T10:16:02Z</time>
      </trkpt>
      <trkpt lat="44.12662" lon="7.25734">
        <ele>1733.2852890403</ele>
        <time>2016-09-25T10:16:12Z</time>
      </trkpt>
      <trkpt lat="44.12662" lon="7.25726">
        <ele>1733.2852890403</ele>
        <time>2016-09-25T10:16:17Z</time>
      </trkpt>
      <trkpt lat="44.12664" lon="7.25722">
        <ele>1735.7754041454</ele>
        <time>2016-09-25T10:16:27Z</time>
      </trkpt>
      <trkpt lat="44.12663" lon="7.25723">
        <ele>1735.7754041454</ele>
        <time>2016-09-25T10:16:32Z</time>
      </trkpt>
      <trkpt lat="44.12663" lon="7.2572">
        <ele>1735.7754041454</ele>
        <time>2016-09-25T10:16:47Z</time>
      </trkpt>
      <trkpt lat="44.12663" lon="7.2572">
        <ele>1735.7754041454</ele>
        <time>2016-09-25T10:16:52Z</time>
      </trkpt>
      <trkpt lat="44.12663" lon="7.2572">
        <ele>1735.7754041454</ele>
        <time>2016-09-25T10:17:02Z</time>
      </trkpt>
      <trkpt lat="44.12663" lon="7.2572">
        <ele>1735.7754041454</ele>
        <time>2016-09-25T10:17:07Z</time>
      </trkpt>
      <trkpt lat="44.12663" lon="7.2572">
        <ele>1735.7754041454</ele>
        <time>2016-09-25T10:17:18Z</time>
      </trkpt>
      <trkpt lat="44.12664" lon="7.25719">
        <ele>1735.7754041454</ele>
        <time>2016-09-25T10:17:22Z</time>
      </trkpt>
      <trkpt lat="44.12671" lon="7.25699">
        <ele>1738.3082245286</ele>
        <time>2016-09-25T10:17:32Z</time>
      </trkpt>
      <trkpt lat="44.12672" lon="7.25695">
        <ele>1738.3082245286</ele>
        <time>2016-09-25T10:17:38Z</time>
      </trkpt>
      <trkpt lat="44.12673" lon="7.25693">
        <ele>1738.3082245286</ele>
        <time>2016-09-25T10:17:47Z</time>
      </trkpt>
      <trkpt lat="44.12673" lon="7.25693">
        <ele>1738.3082245286</ele>
        <time>2016-09-25T10:17:53Z</time>
      </trkpt>
      <trkpt lat="44.12676" lon="7.2569">
        <ele>1738.3082245286</ele>
        <time>2016-09-25T10:18:02Z</time>
      </trkpt>
      <trkpt lat="44.12678" lon="7.25687">
        <ele>1741.0587577409</ele>
        <time>2016-09-25T10:18:07Z</time>
      </trkpt>
      <trkpt lat="44.12679" lon="7.25683">
        <ele>1741.0587577409</ele>
        <time>2016-09-25T10:18:18Z</time>
      </trkpt>
      <trkpt lat="44.12679" lon="7.25683">
        <ele>1741.0587577409</ele>
        <time>2016-09-25T10:18:22Z</time>
      </trkpt>
      <trkpt lat="44.12682" lon="7.25676">
        <ele>1741.0587577409</ele>
        <time>2016-09-25T10:18:27Z</time>
      </trkpt>
      <trkpt lat="44.1269" lon="7.25654">
        <ele>1743.6141471019</ele>
        <time>2016-09-25T10:18:38Z</time>
      </trkpt>
      <trkpt lat="44.12694" lon="7.25643">
        <ele>1743.6141471019</ele>
        <time>2016-09-25T10:18:42Z</time>
      </trkpt>
      <trkpt lat="44.12698" lon="7.25626">
        <ele>1745.4309966655</ele>
        <time>2016-09-25T10:18:53Z</time>
      </trkpt>
      <trkpt lat="44.12699" lon="7.2562">
        <ele>1745.4309966655</ele>
        <time>2016-09-25T10:18:58Z</time>
      </trkpt>
      <trkpt lat="44.127" lon="7.2561">
        <ele>1746.5908455522</ele>
        <time>2016-09-25T10:19:07Z</time>
      </trkpt>
      <trkpt lat="44.12702" lon="7.25604">
        <ele>1746.5908455522</ele>
        <time>2016-09-25T10:19:13Z</time>
      </trkpt>
      <trkpt lat="44.12706" lon="7.25595">
        <ele>1747.0279261477</ele>
        <time>2016-09-25T10:19:22Z</time>
      </trkpt>
      <trkpt lat="44.12706" lon="7.2559">
        <ele>1747.0279261477</ele>
        <time>2016-09-25T10:19:27Z</time>
      </trkpt>
      <trkpt lat="44.12706" lon="7.25577">
        <ele>1747.1385101188</ele>
        <time>2016-09-25T10:19:38Z</time>
      </trkpt>
      <trkpt lat="44.12708" lon="7.25572">
        <ele>1747.1385101188</ele>
        <time>2016-09-25T10:19:42Z</time>
      </trkpt>
      <trkpt lat="44.12708" lon="7.2556">
        <ele>1747.2098337191</ele>
        <time>2016-09-25T10:19:53Z</time>
      </trkpt>
      <trkpt lat="44.12711" lon="7.25559">
        <ele>1747.2098337191</ele>
        <time>2016-09-25T10:19:57Z</time>
      </trkpt>
      <trkpt lat="44.12711" lon="7.25562">
        <ele>1747.2098337191</ele>
        <time>2016-09-25T10:20:12Z</time>
      </trkpt>
      <trkpt lat="44.12711" lon="7.25562">
        <ele>1747.2098337191</ele>
        <time>2016-09-25T10:20:17Z</time>
      </trkpt>
      <trkpt lat="44.12711" lon="7.25562">
        <ele>1747.2098337191</ele>
        <time>2016-09-25T10:20:23Z</time>
      </trkpt>
      <trkpt lat="44.12713" lon="7.25557">
        <ele>1747.8778842672</ele>
        <time>2016-09-25T10:20:28Z</time>
      </trkpt>
      <trkpt lat="44.12712" lon="7.25553">
        <ele>1747.8778842672</ele>
        <time>2016-09-25T10:20:32Z</time>
      </trkpt>
      <trkpt lat="44.1271" lon="7.2554">
        <ele>1748.6315905068</ele>
        <time>2016-09-25T10:20:43Z</time>
      </trkpt>
      <trkpt lat="44.12711" lon="7.25518">
        <ele>1748.9320110757</ele>
        <time>2016-09-25T10:20:57Z</time>
      </trkpt>
      <trkpt lat="44.12712" lon="7.25504">
        <ele>1749.2403490073</ele>
        <time>2016-09-25T10:21:12Z</time>
      </trkpt>
      <trkpt lat="44.12712" lon="7.25498">
        <ele>1749.2403490073</ele>
        <time>2016-09-25T10:21:17Z</time>
      </trkpt>
      <trkpt lat="44.12707" lon="7.25493">
        <ele>1749.693904944</ele>
        <time>2016-09-25T10:21:28Z</time>
      </trkpt>
      <trkpt lat="44.12707" lon="7.25491">
        <ele>1749.693904944</ele>
        <time>2016-09-25T10:21:32Z</time>
      </trkpt>
      <trkpt lat="44.12703" lon="7.25485">
        <ele>1749.693904944</ele>
        <time>2016-09-25T10:21:43Z</time>
      </trkpt>
      <trkpt lat="44.12704" lon="7.25481">
        <ele>1750.1918822665</ele>
        <time>2016-09-25T10:21:48Z</time>
      </trkpt>
      <trkpt lat="44.12705" lon="7.25478">
        <ele>1750.1918822665</ele>
        <time>2016-09-25T10:21:57Z</time>
      </trkpt>
      <trkpt lat="44.12705" lon="7.25477">
        <ele>1750.1918822665</ele>
        <time>2016-09-25T10:22:03Z</time>
      </trkpt>
      <trkpt lat="44.12705" lon="7.25477">
        <ele>1750.1918822665</ele>
        <time>2016-09-25T10:22:12Z</time>
      </trkpt>
      <trkpt lat="44.12705" lon="7.25477">
        <ele>1750.1918822665</ele>
        <time>2016-09-25T10:22:17Z</time>
      </trkpt>
      <trkpt lat="44.12705" lon="7.25477">
        <ele>1750.1918822665</ele>
        <time>2016-09-25T10:22:28Z</time>
      </trkpt>
      <trkpt lat="44.12705" lon="7.25477">
        <ele>1750.1918822665</ele>
        <time>2016-09-25T10:22:32Z</time>
      </trkpt>
      <trkpt lat="44.12714" lon="7.25448">
        <ele>1750.565907428</ele>
        <time>2016-09-25T10:22:44Z</time>
      </trkpt>
      <trkpt lat="44.12718" lon="7.25443">
        <ele>1750.565907428</ele>
        <time>2016-09-25T10:22:47Z</time>
      </trkpt>
      <trkpt lat="44.12724" lon="7.25433">
        <ele>1753.01779794</ele>
        <time>2016-09-25T10:22:58Z</time>
      </trkpt>
      <trkpt lat="44.12724" lon="7.25433">
        <ele>1753.01779794</ele>
        <time>2016-09-25T10:23:03Z</time>
      </trkpt>
      <trkpt lat="44.12727" lon="7.25426">
        <ele>1753.01779794</ele>
        <time>2016-09-25T10:23:18Z</time>
      </trkpt>
      <trkpt lat="44.12739" lon="7.25405">
        <ele>1755.0498914263</ele>
        <time>2016-09-25T10:23:32Z</time>
      </trkpt>
      <trkpt lat="44.12742" lon="7.25395">
        <ele>1755.0498914263</ele>
        <time>2016-09-25T10:23:38Z</time>
      </trkpt>
      <trkpt lat="44.12742" lon="7.25376">
        <ele>1757.0458824496</ele>
        <time>2016-09-25T10:23:48Z</time>
      </trkpt>
      <trkpt lat="44.12744" lon="7.25373">
        <ele>1757.0458824496</ele>
        <time>2016-09-25T10:23:52Z</time>
      </trkpt>
      <trkpt lat="44.12747" lon="7.25372">
        <ele>1757.0458824496</ele>
        <time>2016-09-25T10:24:03Z</time>
      </trkpt>
      <trkpt lat="44.12747" lon="7.25372">
        <ele>1757.0458824496</ele>
        <time>2016-09-25T10:24:07Z</time>
      </trkpt>
      <trkpt lat="44.12749" lon="7.25368">
        <ele>1759.978590383</ele>
        <time>2016-09-25T10:24:18Z</time>
      </trkpt>
      <trkpt lat="44.1275" lon="7.25368">
        <ele>1759.978590383</ele>
        <time>2016-09-25T10:24:23Z</time>
      </trkpt>
      <trkpt lat="44.12751" lon="7.25366">
        <ele>1759.978590383</ele>
        <time>2016-09-25T10:24:38Z</time>
      </trkpt>
      <trkpt lat="44.12755" lon="7.25357">
        <ele>1763.8146466195</ele>
        <time>2016-09-25T10:24:52Z</time>
      </trkpt>
      <trkpt lat="44.12756" lon="7.25354">
        <ele>1763.8146466195</ele>
        <time>2016-09-25T10:25:07Z</time>
      </trkpt>
      <trkpt lat="44.12756" lon="7.25354">
        <ele>1763.8146466195</ele>
        <time>2016-09-25T10:25:12Z</time>
      </trkpt>
      <trkpt lat="44.12756" lon="7.25354">
        <ele>1763.8146466195</ele>
        <time>2016-09-25T10:25:23Z</time>
      </trkpt>
      <trkpt lat="44.1276" lon="7.2535">
        <ele>1763.8146466195</ele>
        <time>2016-09-25T10:25:27Z</time>
      </trkpt>
      <trkpt lat="44.12773" lon="7.25328">
        <ele>1765.8907767617</ele>
        <time>2016-09-25T10:25:39Z</time>
      </trkpt>
      <trkpt lat="44.12775" lon="7.25317">
        <ele>1765.8907767617</ele>
        <time>2016-09-25T10:25:43Z</time>
      </trkpt>
      <trkpt lat="44.12773" lon="7.25306">
        <ele>1767.2176317515</ele>
        <time>2016-09-25T10:25:52Z</time>
      </trkpt>
      <trkpt lat="44.12772" lon="7.25306">
        <ele>1767.2176317515</ele>
        <time>2016-09-25T10:25:58Z</time>
      </trkpt>
      <trkpt lat="44.12773" lon="7.25306">
        <ele>1767.2176317515</ele>
        <time>2016-09-25T10:26:07Z</time>
      </trkpt>
      <trkpt lat="44.12773" lon="7.25306">
        <ele>1767.2176317515</ele>
        <time>2016-09-25T10:26:12Z</time>
      </trkpt>
      <trkpt lat="44.12773" lon="7.25306">
        <ele>1767.2176317515</ele>
        <time>2016-09-25T10:26:22Z</time>
      </trkpt>
      <trkpt lat="44.12773" lon="7.25306">
        <ele>1767.2176317515</ele>
        <time>2016-09-25T10:26:28Z</time>
      </trkpt>
      <trkpt lat="44.12773" lon="7.25306">
        <ele>1767.2176317515</ele>
        <time>2016-09-25T10:26:42Z</time>
      </trkpt>
      <trkpt lat="44.12773" lon="7.25306">
        <ele>1767.2176317515</ele>
        <time>2016-09-25T10:26:47Z</time>
      </trkpt>
      <trkpt lat="44.12773" lon="7.25306">
        <ele>1767.2176317515</ele>
        <time>2016-09-25T10:26:52Z</time>
      </trkpt>
      <trkpt lat="44.12773" lon="7.25306">
        <ele>1767.2176317515</ele>
        <time>2016-09-25T10:26:57Z</time>
      </trkpt>
      <trkpt lat="44.12773" lon="7.25306">
        <ele>1767.2176317515</ele>
        <time>2016-09-25T10:27:02Z</time>
      </trkpt>
      <trkpt lat="44.12773" lon="7.25306">
        <ele>1767.2176317515</ele>
        <time>2016-09-25T10:27:07Z</time>
      </trkpt>
      <trkpt lat="44.12774" lon="7.25306">
        <ele>1767.2176317515</ele>
        <time>2016-09-25T10:27:22Z</time>
      </trkpt>
      <trkpt lat="44.12774" lon="7.25306">
        <ele>1767.2176317515</ele>
        <time>2016-09-25T10:27:28Z</time>
      </trkpt>
      <trkpt lat="44.12774" lon="7.25306">
        <ele>1767.2176317515</ele>
        <time>2016-09-25T10:27:38Z</time>
      </trkpt>
      <trkpt lat="44.12774" lon="7.25306">
        <ele>1767.2176317515</ele>
        <time>2016-09-25T10:27:42Z</time>
      </trkpt>
      <trkpt lat="44.12775" lon="7.25304">
        <ele>1767.2176317515</ele>
        <time>2016-09-25T10:27:53Z</time>
      </trkpt>
      <trkpt lat="44.12777" lon="7.25297">
        <ele>1770.1742288215</ele>
        <time>2016-09-25T10:27:58Z</time>
      </trkpt>
      <trkpt lat="44.1278" lon="7.25288">
        <ele>1770.1742288215</ele>
        <time>2016-09-25T10:28:07Z</time>
      </trkpt>
      <trkpt lat="44.1278" lon="7.25287">
        <ele>1770.1742288215</ele>
        <time>2016-09-25T10:28:13Z</time>
      </trkpt>
      <trkpt lat="44.1278" lon="7.25287">
        <ele>1770.1742288215</ele>
        <time>2016-09-25T10:28:22Z</time>
      </trkpt>
      <trkpt lat="44.1278" lon="7.25287">
        <ele>1770.1742288215</ele>
        <time>2016-09-25T10:28:28Z</time>
      </trkpt>
      <trkpt lat="44.12784" lon="7.25277">
        <ele>1772.6626943636</ele>
        <time>2016-09-25T10:28:37Z</time>
      </trkpt>
      <trkpt lat="44.1279" lon="7.25267">
        <ele>1772.6626943636</ele>
        <time>2016-09-25T10:28:42Z</time>
      </trkpt>
      <trkpt lat="44.12796" lon="7.25246">
        <ele>1776.1667172095</ele>
        <time>2016-09-25T10:28:53Z</time>
      </trkpt>
      <trkpt lat="44.12798" lon="7.25241">
        <ele>1776.1667172095</ele>
        <time>2016-09-25T10:28:58Z</time>
      </trkpt>
      <trkpt lat="44.12818" lon="7.25222">
        <ele>1779.9100204897</ele>
        <time>2016-09-25T10:29:13Z</time>
      </trkpt>
      <trkpt lat="44.12821" lon="7.25208">
        <ele>1783.2350706694</ele>
        <time>2016-09-25T10:29:28Z</time>
      </trkpt>
      <trkpt lat="44.12822" lon="7.25203">
        <ele>1783.2350706694</ele>
        <time>2016-09-25T10:29:33Z</time>
      </trkpt>
      <trkpt lat="44.12824" lon="7.2519">
        <ele>1787.135989814</ele>
        <time>2016-09-25T10:29:42Z</time>
      </trkpt>
      <trkpt lat="44.12834" lon="7.25188">
        <ele>1791.2154775477</ele>
        <time>2016-09-25T10:29:58Z</time>
      </trkpt>
      <trkpt lat="44.12836" lon="7.25187">
        <ele>1791.2154775477</ele>
        <time>2016-09-25T10:30:02Z</time>
      </trkpt>
      <trkpt lat="44.12837" lon="7.25185">
        <ele>1791.2154775477</ele>
        <time>2016-09-25T10:30:13Z</time>
      </trkpt>
      <trkpt lat="44.12837" lon="7.25185">
        <ele>1791.2154775477</ele>
        <time>2016-09-25T10:30:17Z</time>
      </trkpt>
      <trkpt lat="44.12838" lon="7.25184">
        <ele>1791.2154775477</ele>
        <time>2016-09-25T10:30:28Z</time>
      </trkpt>
      <trkpt lat="44.12841" lon="7.2518">
        <ele>1794.6872033816</ele>
        <time>2016-09-25T10:30:33Z</time>
      </trkpt>
      <trkpt lat="44.1284" lon="7.25173">
        <ele>1794.6872033816</ele>
        <time>2016-09-25T10:30:42Z</time>
      </trkpt>
      <trkpt lat="44.1284" lon="7.25172">
        <ele>1794.6872033816</ele>
        <time>2016-09-25T10:30:48Z</time>
      </trkpt>
      <trkpt lat="44.1284" lon="7.25172">
        <ele>1794.6872033816</ele>
        <time>2016-09-25T10:31:02Z</time>
      </trkpt>
      <trkpt lat="44.12841" lon="7.25166">
        <ele>1795.767392692</ele>
        <time>2016-09-25T10:31:13Z</time>
      </trkpt>
      <trkpt lat="44.12846" lon="7.25156">
        <ele>1795.767392692</ele>
        <time>2016-09-25T10:31:17Z</time>
      </trkpt>
      <trkpt lat="44.1285" lon="7.25139">
        <ele>1795.5980431479</ele>
        <time>2016-09-25T10:31:22Z</time>
      </trkpt>
      <trkpt lat="44.12855" lon="7.25129">
        <ele>1795.5980431479</ele>
        <time>2016-09-25T10:31:28Z</time>
      </trkpt>
      <trkpt lat="44.12859" lon="7.25124">
        <ele>1796.5588013769</ele>
        <time>2016-09-25T10:31:33Z</time>
      </trkpt>
      <trkpt lat="44.12862" lon="7.25119">
        <ele>1796.5588013769</ele>
        <time>2016-09-25T10:31:37Z</time>
      </trkpt>
      <trkpt lat="44.12871" lon="7.25094">
        <ele>1797.742460171</ele>
        <time>2016-09-25T10:31:47Z</time>
      </trkpt>
      <trkpt lat="44.12875" lon="7.25087">
        <ele>1797.742460171</ele>
        <time>2016-09-25T10:31:53Z</time>
      </trkpt>
      <trkpt lat="44.12878" lon="7.25081">
        <ele>1800.426923739</ele>
        <time>2016-09-25T10:32:03Z</time>
      </trkpt>
      <trkpt lat="44.1288" lon="7.25076">
        <ele>1800.426923739</ele>
        <time>2016-09-25T10:32:07Z</time>
      </trkpt>
      <trkpt lat="44.12886" lon="7.25071">
        <ele>1803.0067366148</ele>
        <time>2016-09-25T10:32:18Z</time>
      </trkpt>
      <trkpt lat="44.12887" lon="7.25071">
        <ele>1803.0067366148</ele>
        <time>2016-09-25T10:32:22Z</time>
      </trkpt>
      <trkpt lat="44.12887" lon="7.2507">
        <ele>1803.0067366148</ele>
        <time>2016-09-25T10:32:32Z</time>
      </trkpt>
      <trkpt lat="44.12887" lon="7.25069">
        <ele>1803.0067366148</ele>
        <time>2016-09-25T10:32:38Z</time>
      </trkpt>
      <trkpt lat="44.12887" lon="7.25069">
        <ele>1803.0067366148</ele>
        <time>2016-09-25T10:32:47Z</time>
      </trkpt>
      <trkpt lat="44.12888" lon="7.25069">
        <ele>1803.0067366148</ele>
        <time>2016-09-25T10:32:52Z</time>
      </trkpt>
      <trkpt lat="44.12887" lon="7.25055">
        <ele>1805.2978559177</ele>
        <time>2016-09-25T10:33:03Z</time>
      </trkpt>
      <trkpt lat="44.12891" lon="7.25048">
        <ele>1805.2978559177</ele>
        <time>2016-09-25T10:33:07Z</time>
      </trkpt>
      <trkpt lat="44.12898" lon="7.25036">
        <ele>1807.9434917489</ele>
        <time>2016-09-25T10:33:18Z</time>
      </trkpt>
      <trkpt lat="44.12902" lon="7.25029">
        <ele>1807.9434917489</ele>
        <time>2016-09-25T10:33:23Z</time>
      </trkpt>
      <trkpt lat="44.12913" lon="7.25012">
        <ele>1811.2232657312</ele>
        <time>2016-09-25T10:33:38Z</time>
      </trkpt>
      <trkpt lat="44.1292" lon="7.24996">
        <ele>1814.5406960536</ele>
        <time>2016-09-25T10:33:52Z</time>
      </trkpt>
      <trkpt lat="44.12929" lon="7.24986">
        <ele>1817.7879481165</ele>
        <time>2016-09-25T10:34:08Z</time>
      </trkpt>
      <trkpt lat="44.1293" lon="7.24984">
        <ele>1817.7879481165</ele>
        <time>2016-09-25T10:34:12Z</time>
      </trkpt>
      <trkpt lat="44.12931" lon="7.2497">
        <ele>1820.3399699872</ele>
        <time>2016-09-25T10:34:23Z</time>
      </trkpt>
      <trkpt lat="44.12935" lon="7.24966">
        <ele>1820.3399699872</ele>
        <time>2016-09-25T10:34:27Z</time>
      </trkpt>
      <trkpt lat="44.1294" lon="7.24958">
        <ele>1823.2291035044</ele>
        <time>2016-09-25T10:34:38Z</time>
      </trkpt>
      <trkpt lat="44.12942" lon="7.24956">
        <ele>1823.2291035044</ele>
        <time>2016-09-25T10:34:43Z</time>
      </trkpt>
      <trkpt lat="44.12938" lon="7.24948">
        <ele>1823.2291035044</ele>
        <time>2016-09-25T10:34:52Z</time>
      </trkpt>
      <trkpt lat="44.12939" lon="7.24948">
        <ele>1825.7138793154</ele>
        <time>2016-09-25T10:34:58Z</time>
      </trkpt>
      <trkpt lat="44.12941" lon="7.24948">
        <ele>1825.7138793154</ele>
        <time>2016-09-25T10:35:07Z</time>
      </trkpt>
      <trkpt lat="44.12941" lon="7.24948">
        <ele>1825.7138793154</ele>
        <time>2016-09-25T10:35:12Z</time>
      </trkpt>
      <trkpt lat="44.12945" lon="7.24944">
        <ele>1825.7138793154</ele>
        <time>2016-09-25T10:35:22Z</time>
      </trkpt>
      <trkpt lat="44.12951" lon="7.24935">
        <ele>1828.320223884</ele>
        <time>2016-09-25T10:35:28Z</time>
      </trkpt>
      <trkpt lat="44.12963" lon="7.24923">
        <ele>1831.9530624239</ele>
        <time>2016-09-25T10:35:37Z</time>
      </trkpt>
      <trkpt lat="44.12969" lon="7.24916">
        <ele>1831.9530624239</ele>
        <time>2016-09-25T10:35:42Z</time>
      </trkpt>
      <trkpt lat="44.12971" lon="7.24915">
        <ele>1835.0360666939</ele>
        <time>2016-09-25T10:35:58Z</time>
      </trkpt>
      <trkpt lat="44.12972" lon="7.24914">
        <ele>1835.0360666939</ele>
        <time>2016-09-25T10:36:13Z</time>
      </trkpt>
      <trkpt lat="44.12988" lon="7.24906">
        <ele>1838.5080759363</ele>
        <time>2016-09-25T10:36:27Z</time>
      </trkpt>
      <trkpt lat="44.13001" lon="7.2489">
        <ele>1841.0485531793</ele>
        <time>2016-09-25T10:36:42Z</time>
      </trkpt>
      <trkpt lat="44.13004" lon="7.24889">
        <ele>1841.0485531793</ele>
        <time>2016-09-25T10:36:47Z</time>
      </trkpt>
      <trkpt lat="44.13011" lon="7.24885">
        <ele>1844.1018820385</ele>
        <time>2016-09-25T10:36:58Z</time>
      </trkpt>
      <trkpt lat="44.13014" lon="7.24884">
        <ele>1844.1018820385</ele>
        <time>2016-09-25T10:37:02Z</time>
      </trkpt>
      <trkpt lat="44.13015" lon="7.24876">
        <ele>1844.1018820385</ele>
        <time>2016-09-25T10:37:13Z</time>
      </trkpt>
      <trkpt lat="44.13017" lon="7.24875">
        <ele>1846.1970047231</ele>
        <time>2016-09-25T10:37:18Z</time>
      </trkpt>
      <trkpt lat="44.13021" lon="7.24865">
        <ele>1846.1970047231</ele>
        <time>2016-09-25T10:37:33Z</time>
      </trkpt>
      <trkpt lat="44.13021" lon="7.24864">
        <ele>1846.1970047231</ele>
        <time>2016-09-25T10:37:47Z</time>
      </trkpt>
      <trkpt lat="44.13034" lon="7.24849">
        <ele>1849.9200110692</ele>
        <time>2016-09-25T10:38:02Z</time>
      </trkpt>
      <trkpt lat="44.13038" lon="7.24846">
        <ele>1849.9200110692</ele>
        <time>2016-09-25T10:38:07Z</time>
      </trkpt>
      <trkpt lat="44.13046" lon="7.24839">
        <ele>1853.9040684453</ele>
        <time>2016-09-25T10:38:18Z</time>
      </trkpt>
      <trkpt lat="44.13051" lon="7.24837">
        <ele>1853.9040684453</ele>
        <time>2016-09-25T10:38:22Z</time>
      </trkpt>
      <trkpt lat="44.13052" lon="7.24831">
        <ele>1857.2743282751</ele>
        <time>2016-09-25T10:38:33Z</time>
      </trkpt>
      <trkpt lat="44.13052" lon="7.24831">
        <ele>1857.2743282751</ele>
        <time>2016-09-25T10:38:37Z</time>
      </trkpt>
      <trkpt lat="44.13053" lon="7.2483">
        <ele>1857.2743282751</ele>
        <time>2016-09-25T10:38:47Z</time>
      </trkpt>
      <trkpt lat="44.13054" lon="7.2482">
        <ele>1857.2743282751</ele>
        <time>2016-09-25T10:38:52Z</time>
      </trkpt>
      <trkpt lat="44.13057" lon="7.24814">
        <ele>1859.742340304</ele>
        <time>2016-09-25T10:39:02Z</time>
      </trkpt>
      <trkpt lat="44.13059" lon="7.24815">
        <ele>1859.742340304</ele>
        <time>2016-09-25T10:39:07Z</time>
      </trkpt>
      <trkpt lat="44.13059" lon="7.24816">
        <ele>1859.742340304</ele>
        <time>2016-09-25T10:39:18Z</time>
      </trkpt>
      <trkpt lat="44.13059" lon="7.24816">
        <ele>1859.742340304</ele>
        <time>2016-09-25T10:39:22Z</time>
      </trkpt>
      <trkpt lat="44.13059" lon="7.24816">
        <ele>1859.742340304</ele>
        <time>2016-09-25T10:39:33Z</time>
      </trkpt>
      <trkpt lat="44.13059" lon="7.24816">
        <ele>1859.742340304</ele>
        <time>2016-09-25T10:39:38Z</time>
      </trkpt>
      <trkpt lat="44.13059" lon="7.24816">
        <ele>1859.742340304</ele>
        <time>2016-09-25T10:39:52Z</time>
      </trkpt>
      <trkpt lat="44.1306" lon="7.24811">
        <ele>1859.742340304</ele>
        <time>2016-09-25T10:40:02Z</time>
      </trkpt>
      <trkpt lat="44.13063" lon="7.24808">
        <ele>1861.7357108775</ele>
        <time>2016-09-25T10:40:07Z</time>
      </trkpt>
      <trkpt lat="44.13068" lon="7.24795">
        <ele>1862.4257619609</ele>
        <time>2016-09-25T10:40:18Z</time>
      </trkpt>
      <trkpt lat="44.13068" lon="7.24791">
        <ele>1862.4257619609</ele>
        <time>2016-09-25T10:40:22Z</time>
      </trkpt>
      <trkpt lat="44.13068" lon="7.24785">
        <ele>1862.4257619609</ele>
        <time>2016-09-25T10:40:27Z</time>
      </trkpt>
      <trkpt lat="44.13073" lon="7.24782">
        <ele>1863.7449257782</ele>
        <time>2016-09-25T10:40:33Z</time>
      </trkpt>
      <trkpt lat="44.13074" lon="7.24775">
        <ele>1863.7449257782</ele>
        <time>2016-09-25T10:40:38Z</time>
      </trkpt>
      <trkpt lat="44.13076" lon="7.24769">
        <ele>1864.7129958456</ele>
        <time>2016-09-25T10:40:42Z</time>
      </trkpt>
      <trkpt lat="44.13078" lon="7.24758">
        <ele>1864.7129958456</ele>
        <time>2016-09-25T10:40:53Z</time>
      </trkpt>
      <trkpt lat="44.1308" lon="7.24757">
        <ele>1865.9656940822</ele>
        <time>2016-09-25T10:40:58Z</time>
      </trkpt>
      <trkpt lat="44.13081" lon="7.24757">
        <ele>1865.9656940822</ele>
        <time>2016-09-25T10:41:07Z</time>
      </trkpt>
      <trkpt lat="44.13081" lon="7.24757">
        <ele>1865.9656940822</ele>
        <time>2016-09-25T10:41:13Z</time>
      </trkpt>
      <trkpt lat="44.13081" lon="7.24757">
        <ele>1865.9656940822</ele>
        <time>2016-09-25T10:41:22Z</time>
      </trkpt>
      <trkpt lat="44.13081" lon="7.24757">
        <ele>1865.9656940822</ele>
        <time>2016-09-25T10:41:27Z</time>
      </trkpt>
      <trkpt lat="44.13083" lon="7.24748">
        <ele>1865.9656940822</ele>
        <time>2016-09-25T10:41:37Z</time>
      </trkpt>
      <trkpt lat="44.13088" lon="7.24736">
        <ele>1866.130408407</ele>
        <time>2016-09-25T10:41:43Z</time>
      </trkpt>
      <trkpt lat="44.13101" lon="7.24727">
        <ele>1866.706630082</ele>
        <time>2016-09-25T10:41:52Z</time>
      </trkpt>
      <trkpt lat="44.1311" lon="7.24721">
        <ele>1867.4965662595</ele>
        <time>2016-09-25T10:41:58Z</time>
      </trkpt>
      <trkpt lat="44.13119" lon="7.24712">
        <ele>1868.4605095511</ele>
        <time>2016-09-25T10:42:07Z</time>
      </trkpt>
      <trkpt lat="44.13122" lon="7.24707">
        <ele>1868.4605095511</ele>
        <time>2016-09-25T10:42:12Z</time>
      </trkpt>
      <trkpt lat="44.13129" lon="7.24699">
        <ele>1868.8833788663</ele>
        <time>2016-09-25T10:42:22Z</time>
      </trkpt>
      <trkpt lat="44.13133" lon="7.24699">
        <ele>1868.8833788663</ele>
        <time>2016-09-25T10:42:27Z</time>
      </trkpt>
      <trkpt lat="44.13139" lon="7.24693">
        <ele>1868.9980803492</ele>
        <time>2016-09-25T10:42:38Z</time>
      </trkpt>
      <trkpt lat="44.13139" lon="7.24689">
        <ele>1868.9980803492</ele>
        <time>2016-09-25T10:42:43Z</time>
      </trkpt>
      <trkpt lat="44.13143" lon="7.24683">
        <ele>1868.9980803492</ele>
        <time>2016-09-25T10:42:58Z</time>
      </trkpt>
      <trkpt lat="44.13145" lon="7.24683">
        <ele>1870.0451918403</ele>
        <time>2016-09-25T10:43:12Z</time>
      </trkpt>
      <trkpt lat="44.13147" lon="7.24679">
        <ele>1870.0451918403</ele>
        <time>2016-09-25T10:43:27Z</time>
      </trkpt>
      <trkpt lat="44.13152" lon="7.24667">
        <ele>1870.214964298</ele>
        <time>2016-09-25T10:43:32Z</time>
      </trkpt>
      <trkpt lat="44.13163" lon="7.24651">
        <ele>1870.7174159777</ele>
        <time>2016-09-25T10:43:42Z</time>
      </trkpt>
      <trkpt lat="44.13171" lon="7.24649">
        <ele>1870.7174159777</ele>
        <time>2016-09-25T10:43:47Z</time>
      </trkpt>
      <trkpt lat="44.13175" lon="7.24649">
        <ele>1871.7063418347</ele>
        <time>2016-09-25T10:43:58Z</time>
      </trkpt>
      <trkpt lat="44.13178" lon="7.24646">
        <ele>1871.7063418347</ele>
        <time>2016-09-25T10:44:02Z</time>
      </trkpt>
      <trkpt lat="44.13188" lon="7.24639">
        <ele>1873.0198387628</ele>
        <time>2016-09-25T10:44:12Z</time>
      </trkpt>
      <trkpt lat="44.13191" lon="7.24633">
        <ele>1873.0198387628</ele>
        <time>2016-09-25T10:44:18Z</time>
      </trkpt>
      <trkpt lat="44.13205" lon="7.24629">
        <ele>1874.1750868762</ele>
        <time>2016-09-25T10:44:33Z</time>
      </trkpt>
      <trkpt lat="44.13206" lon="7.24628">
        <ele>1874.1750868762</ele>
        <time>2016-09-25T10:44:47Z</time>
      </trkpt>
      <trkpt lat="44.13206" lon="7.24628">
        <ele>1874.1750868762</ele>
        <time>2016-09-25T10:44:52Z</time>
      </trkpt>
      <trkpt lat="44.13215" lon="7.24614">
        <ele>1876.8743050024</ele>
        <time>2016-09-25T10:45:03Z</time>
      </trkpt>
      <trkpt lat="44.13219" lon="7.24606">
        <ele>1876.8743050024</ele>
        <time>2016-09-25T10:45:07Z</time>
      </trkpt>
      <trkpt lat="44.13217" lon="7.24595">
        <ele>1879.4590325156</ele>
        <time>2016-09-25T10:45:17Z</time>
      </trkpt>
      <trkpt lat="44.1322" lon="7.2459">
        <ele>1879.4590325156</ele>
        <time>2016-09-25T10:45:22Z</time>
      </trkpt>
      <trkpt lat="44.13221" lon="7.24583">
        <ele>1881.5469148866</ele>
        <time>2016-09-25T10:45:33Z</time>
      </trkpt>
      <trkpt lat="44.13221" lon="7.24583">
        <ele>1881.5469148866</ele>
        <time>2016-09-25T10:45:37Z</time>
      </trkpt>
      <trkpt lat="44.13221" lon="7.24583">
        <ele>1881.5469148866</ele>
        <time>2016-09-25T10:45:48Z</time>
      </trkpt>
      <trkpt lat="44.13223" lon="7.2458">
        <ele>1881.5469148866</ele>
        <time>2016-09-25T10:45:53Z</time>
      </trkpt>
      <trkpt lat="44.13231" lon="7.24566">
        <ele>1883.5495096335</ele>
        <time>2016-09-25T10:46:02Z</time>
      </trkpt>
      <trkpt lat="44.13229" lon="7.24558">
        <ele>1883.5495096335</ele>
        <time>2016-09-25T10:46:08Z</time>
      </trkpt>
      <trkpt lat="44.13246" lon="7.24545">
        <ele>1884.5501344778</ele>
        <time>2016-09-25T10:46:23Z</time>
      </trkpt>
      <trkpt lat="44.1325" lon="7.24527">
        <ele>1885.8802093208</ele>
        <time>2016-09-25T10:46:37Z</time>
      </trkpt>
      <trkpt lat="44.1325" lon="7.24523">
        <ele>1885.8802093208</ele>
        <time>2016-09-25T10:46:43Z</time>
      </trkpt>
      <trkpt lat="44.13251" lon="7.24518">
        <ele>1885.8802093208</ele>
        <time>2016-09-25T10:46:48Z</time>
      </trkpt>
      <trkpt lat="44.13252" lon="7.24515">
        <ele>1888.1807859483</ele>
        <time>2016-09-25T10:46:53Z</time>
      </trkpt>
      <trkpt lat="44.13254" lon="7.24514">
        <ele>1888.1807859483</ele>
        <time>2016-09-25T10:46:57Z</time>
      </trkpt>
      <trkpt lat="44.13255" lon="7.2451">
        <ele>1888.1807859483</ele>
        <time>2016-09-25T10:47:08Z</time>
      </trkpt>
      <trkpt lat="44.13255" lon="7.2451">
        <ele>1888.1807859483</ele>
        <time>2016-09-25T10:47:12Z</time>
      </trkpt>
      <trkpt lat="44.13259" lon="7.24502">
        <ele>1890.8458820056</ele>
        <time>2016-09-25T10:47:23Z</time>
      </trkpt>
      <trkpt lat="44.1326" lon="7.24494">
        <ele>1890.8458820056</ele>
        <time>2016-09-25T10:47:28Z</time>
      </trkpt>
      <trkpt lat="44.13261" lon="7.24483">
        <ele>1893.1111627575</ele>
        <time>2016-09-25T10:47:37Z</time>
      </trkpt>
      <trkpt lat="44.13264" lon="7.24477">
        <ele>1893.1111627575</ele>
        <time>2016-09-25T10:47:42Z</time>
      </trkpt>
      <trkpt lat="44.13269" lon="7.24463">
        <ele>1896.2164103303</ele>
        <time>2016-09-25T10:47:52Z</time>
      </trkpt>
      <trkpt lat="44.13274" lon="7.24458">
        <ele>1896.2164103303</ele>
        <time>2016-09-25T10:47:57Z</time>
      </trkpt>
      <trkpt lat="44.13273" lon="7.24444">
        <ele>1897.9911554344</ele>
        <time>2016-09-25T10:48:07Z</time>
      </trkpt>
      <trkpt lat="44.13275" lon="7.24437">
        <ele>1897.9911554344</ele>
        <time>2016-09-25T10:48:13Z</time>
      </trkpt>
      <trkpt lat="44.13279" lon="7.24431">
        <ele>1899.3122975218</ele>
        <time>2016-09-25T10:48:23Z</time>
      </trkpt>
      <trkpt lat="44.13278" lon="7.24429">
        <ele>1899.3122975218</ele>
        <time>2016-09-25T10:48:28Z</time>
      </trkpt>
      <trkpt lat="44.13278" lon="7.24428">
        <ele>1899.3122975218</ele>
        <time>2016-09-25T10:48:37Z</time>
      </trkpt>
      <trkpt lat="44.13279" lon="7.24427">
        <ele>1899.3122975218</ele>
        <time>2016-09-25T10:48:43Z</time>
      </trkpt>
      <trkpt lat="44.13287" lon="7.2441">
        <ele>1901.815193032</ele>
        <time>2016-09-25T10:48:53Z</time>
      </trkpt>
      <trkpt lat="44.13291" lon="7.24405">
        <ele>1901.815193032</ele>
        <time>2016-09-25T10:48:57Z</time>
      </trkpt>
      <trkpt lat="44.13294" lon="7.24386">
        <ele>1903.7530553565</ele>
        <time>2016-09-25T10:49:08Z</time>
      </trkpt>
      <trkpt lat="44.13296" lon="7.24382">
        <ele>1903.7530553565</ele>
        <time>2016-09-25T10:49:12Z</time>
      </trkpt>
      <trkpt lat="44.13305" lon="7.24379">
        <ele>1905.1095702487</ele>
        <time>2016-09-25T10:49:23Z</time>
      </trkpt>
      <trkpt lat="44.13307" lon="7.24379">
        <ele>1905.1095702487</ele>
        <time>2016-09-25T10:49:28Z</time>
      </trkpt>
      <trkpt lat="44.13309" lon="7.24379">
        <ele>1905.1095702487</ele>
        <time>2016-09-25T10:49:32Z</time>
      </trkpt>
      <trkpt lat="44.13323" lon="7.24374">
        <ele>1906.274866437</ele>
        <time>2016-09-25T10:49:43Z</time>
      </trkpt>
      <trkpt lat="44.13322" lon="7.24371">
        <ele>1906.274866437</ele>
        <time>2016-09-25T10:49:48Z</time>
      </trkpt>
      <trkpt lat="44.13322" lon="7.24368">
        <ele>1906.274866437</ele>
        <time>2016-09-25T10:49:57Z</time>
      </trkpt>
      <trkpt lat="44.13322" lon="7.24368">
        <ele>1906.274866437</ele>
        <time>2016-09-25T10:50:03Z</time>
      </trkpt>
      <trkpt lat="44.13322" lon="7.24368">
        <ele>1906.274866437</ele>
        <time>2016-09-25T10:50:12Z</time>
      </trkpt>
      <trkpt lat="44.13322" lon="7.24363">
        <ele>1906.274866437</ele>
        <time>2016-09-25T10:50:17Z</time>
      </trkpt>
      <trkpt lat="44.13318" lon="7.2434">
        <ele>1906.9477373315</ele>
        <time>2016-09-25T10:50:28Z</time>
      </trkpt>
      <trkpt lat="44.13319" lon="7.24335">
        <ele>1906.9477373315</ele>
        <time>2016-09-25T10:50:32Z</time>
      </trkpt>
      <trkpt lat="44.1332" lon="7.24329">
        <ele>1906.9477373315</ele>
        <time>2016-09-25T10:50:43Z</time>
      </trkpt>
      <trkpt lat="44.1332" lon="7.24329">
        <ele>1906.9477373315</ele>
        <time>2016-09-25T10:50:48Z</time>
      </trkpt>
      <trkpt lat="44.13323" lon="7.24323">
        <ele>1908.5514402017</ele>
        <time>2016-09-25T10:50:57Z</time>
      </trkpt>
      <trkpt lat="44.13334" lon="7.24317">
        <ele>1909.9081546452</ele>
        <time>2016-09-25T10:51:03Z</time>
      </trkpt>
      <trkpt lat="44.13343" lon="7.24309">
        <ele>1911.5849884384</ele>
        <time>2016-09-25T10:51:12Z</time>
      </trkpt>
      <trkpt lat="44.13348" lon="7.24299">
        <ele>1911.5849884384</ele>
        <time>2016-09-25T10:51:18Z</time>
      </trkpt>
      <trkpt lat="44.13359" lon="7.24287">
        <ele>1913.1983443196</ele>
        <time>2016-09-25T10:51:28Z</time>
      </trkpt>
      <trkpt lat="44.13363" lon="7.24284">
        <ele>1913.1983443196</ele>
        <time>2016-09-25T10:51:32Z</time>
      </trkpt>
      <trkpt lat="44.13368" lon="7.24283">
        <ele>1914.7100737581</ele>
        <time>2016-09-25T10:51:43Z</time>
      </trkpt>
      <trkpt lat="44.13376" lon="7.24282">
        <ele>1914.7100737581</ele>
        <time>2016-09-25T10:51:48Z</time>
      </trkpt>
      <trkpt lat="44.13382" lon="7.24272">
        <ele>1916.4309845648</ele>
        <time>2016-09-25T10:51:57Z</time>
      </trkpt>
      <trkpt lat="44.1338" lon="7.24264">
        <ele>1916.4309845648</ele>
        <time>2016-09-25T10:52:03Z</time>
      </trkpt>
      <trkpt lat="44.13385" lon="7.24259">
        <ele>1918.8790046428</ele>
        <time>2016-09-25T10:52:12Z</time>
      </trkpt>
      <trkpt lat="44.13389" lon="7.24254">
        <ele>1918.8790046428</ele>
        <time>2016-09-25T10:52:17Z</time>
      </trkpt>
      <trkpt lat="44.13395" lon="7.2425">
        <ele>1920.0530402114</ele>
        <time>2016-09-25T10:52:27Z</time>
      </trkpt>
      <trkpt lat="44.13392" lon="7.24251">
        <ele>1920.0530402114</ele>
        <time>2016-09-25T10:52:32Z</time>
      </trkpt>
      <trkpt lat="44.13395" lon="7.24248">
        <ele>1920.0530402114</ele>
        <time>2016-09-25T10:52:38Z</time>
      </trkpt>
      <trkpt lat="44.13395" lon="7.24242">
        <ele>1920.5526710251</ele>
        <time>2016-09-25T10:52:47Z</time>
      </trkpt>
      <trkpt lat="44.13393" lon="7.24233">
        <ele>1920.5526710251</ele>
        <time>2016-09-25T10:52:53Z</time>
      </trkpt>
      <trkpt lat="44.13407" lon="7.24228">
        <ele>1920.7046635436</ele>
        <time>2016-09-25T10:53:02Z</time>
      </trkpt>
      <trkpt lat="44.13415" lon="7.24228">
        <ele>1920.7046635436</ele>
        <time>2016-09-25T10:53:07Z</time>
      </trkpt>
      <trkpt lat="44.1341" lon="7.24213">
        <ele>1921.5332786354</ele>
        <time>2016-09-25T10:53:17Z</time>
      </trkpt>
      <trkpt lat="44.13413" lon="7.2421">
        <ele>1921.5332786354</ele>
        <time>2016-09-25T10:53:22Z</time>
      </trkpt>
      <trkpt lat="44.13422" lon="7.24198">
        <ele>1923.5244014961</ele>
        <time>2016-09-25T10:53:33Z</time>
      </trkpt>
      <trkpt lat="44.13428" lon="7.24197">
        <ele>1923.5244014961</ele>
        <time>2016-09-25T10:53:37Z</time>
      </trkpt>
      <trkpt lat="44.13431" lon="7.24196">
        <ele>1924.8911558684</ele>
        <time>2016-09-25T10:53:48Z</time>
      </trkpt>
      <trkpt lat="44.13431" lon="7.24194">
        <ele>1924.8911558684</ele>
        <time>2016-09-25T10:53:53Z</time>
      </trkpt>
      <trkpt lat="44.13436" lon="7.24189">
        <ele>1924.8911558684</ele>
        <time>2016-09-25T10:54:08Z</time>
      </trkpt>
      <trkpt lat="44.1344" lon="7.24181">
        <ele>1927.6977885008</ele>
        <time>2016-09-25T10:54:17Z</time>
      </trkpt>
      <trkpt lat="44.13444" lon="7.24178">
        <ele>1927.6977885008</ele>
        <time>2016-09-25T10:54:22Z</time>
      </trkpt>
      <trkpt lat="44.13449" lon="7.24172">
        <ele>1928.7368055219</ele>
        <time>2016-09-25T10:54:27Z</time>
      </trkpt>
      <trkpt lat="44.13456" lon="7.24168">
        <ele>1928.7368055219</ele>
        <time>2016-09-25T10:54:33Z</time>
      </trkpt>
      <trkpt lat="44.13464" lon="7.24162">
        <ele>1930.0563967025</ele>
        <time>2016-09-25T10:54:38Z</time>
      </trkpt>
      <trkpt lat="44.13466" lon="7.24155">
        <ele>1930.0563967025</ele>
        <time>2016-09-25T10:54:42Z</time>
      </trkpt>
      <trkpt lat="44.13468" lon="7.24144">
        <ele>1930.5270984975</ele>
        <time>2016-09-25T10:54:53Z</time>
      </trkpt>
      <trkpt lat="44.13469" lon="7.2414">
        <ele>1930.5270984975</ele>
        <time>2016-09-25T10:54:57Z</time>
      </trkpt>
      <trkpt lat="44.13474" lon="7.24127">
        <ele>1931.1223400554</ele>
        <time>2016-09-25T10:55:07Z</time>
      </trkpt>
      <trkpt lat="44.13471" lon="7.24118">
        <ele>1931.1223400554</ele>
        <time>2016-09-25T10:55:12Z</time>
      </trkpt>
      <trkpt lat="44.13472" lon="7.24104">
        <ele>1932.1816168811</ele>
        <time>2016-09-25T10:55:23Z</time>
      </trkpt>
      <trkpt lat="44.13467" lon="7.24095">
        <ele>1932.1816168811</ele>
        <time>2016-09-25T10:55:37Z</time>
      </trkpt>
      <trkpt lat="44.13466" lon="7.24095">
        <ele>1932.1816168811</ele>
        <time>2016-09-25T10:55:42Z</time>
      </trkpt>
      <trkpt lat="44.13463" lon="7.24085">
        <ele>1932.7787718706</ele>
        <time>2016-09-25T10:55:52Z</time>
      </trkpt>
      <trkpt lat="44.13464" lon="7.24079">
        <ele>1932.7787718706</ele>
        <time>2016-09-25T10:55:57Z</time>
      </trkpt>
      <trkpt lat="44.13469" lon="7.2407">
        <ele>1933.2386571212</ele>
        <time>2016-09-25T10:56:08Z</time>
      </trkpt>
      <trkpt lat="44.1347" lon="7.24067">
        <ele>1933.2386571212</ele>
        <time>2016-09-25T10:56:12Z</time>
      </trkpt>
      <trkpt lat="44.1347" lon="7.24057">
        <ele>1934.5399319786</ele>
        <time>2016-09-25T10:56:23Z</time>
      </trkpt>
      <trkpt lat="44.13468" lon="7.24052">
        <ele>1934.5399319786</ele>
        <time>2016-09-25T10:56:28Z</time>
      </trkpt>
      <trkpt lat="44.13465" lon="7.24039">
        <ele>1936.1458208975</ele>
        <time>2016-09-25T10:56:37Z</time>
      </trkpt>
      <trkpt lat="44.13467" lon="7.24038">
        <ele>1936.1458208975</ele>
        <time>2016-09-25T10:56:43Z</time>
      </trkpt>
      <trkpt lat="44.13467" lon="7.24037">
        <ele>1936.1458208975</ele>
        <time>2016-09-25T10:56:52Z</time>
      </trkpt>
      <trkpt lat="44.13467" lon="7.24037">
        <ele>1936.1458208975</ele>
        <time>2016-09-25T10:56:57Z</time>
      </trkpt>
      <trkpt lat="44.13467" lon="7.24037">
        <ele>1936.1458208975</ele>
        <time>2016-09-25T10:57:08Z</time>
      </trkpt>
      <trkpt lat="44.13467" lon="7.24037">
        <ele>1936.1458208975</ele>
        <time>2016-09-25T10:57:12Z</time>
      </trkpt>
      <trkpt lat="44.13468" lon="7.24034">
        <ele>1936.1458208975</ele>
        <time>2016-09-25T10:57:23Z</time>
      </trkpt>
      <trkpt lat="44.1347" lon="7.24026">
        <ele>1937.514837532</ele>
        <time>2016-09-25T10:57:27Z</time>
      </trkpt>
      <trkpt lat="44.13474" lon="7.23995">
        <ele>1937.4685471256</ele>
        <time>2016-09-25T10:57:37Z</time>
      </trkpt>
      <trkpt lat="44.13472" lon="7.23981">
        <ele>1937.3257074833</ele>
        <time>2016-09-25T10:57:43Z</time>
      </trkpt>
      <trkpt lat="44.13472" lon="7.23958">
        <ele>1938.0346040003</ele>
        <time>2016-09-25T10:57:53Z</time>
      </trkpt>
      <trkpt lat="44.13469" lon="7.2395">
        <ele>1938.0346040003</ele>
        <time>2016-09-25T10:57:57Z</time>
      </trkpt>
      <trkpt lat="44.13465" lon="7.23941">
        <ele>1938.0935203713</ele>
        <time>2016-09-25T10:58:08Z</time>
      </trkpt>
      <trkpt lat="44.13471" lon="7.23942">
        <ele>1938.0935203713</ele>
        <time>2016-09-25T10:58:12Z</time>
      </trkpt>
      <trkpt lat="44.13473" lon="7.23941">
        <ele>1938.0935203713</ele>
        <time>2016-09-25T10:58:17Z</time>
      </trkpt>
      <trkpt lat="44.13482" lon="7.2393">
        <ele>1939.874209946</ele>
        <time>2016-09-25T10:58:29Z</time>
      </trkpt>
      <trkpt lat="44.13487" lon="7.23925">
        <ele>1939.874209946</ele>
        <time>2016-09-25T10:58:32Z</time>
      </trkpt>
      <trkpt lat="44.13484" lon="7.23916">
        <ele>1941.6782028057</ele>
        <time>2016-09-25T10:58:43Z</time>
      </trkpt>
      <trkpt lat="44.13483" lon="7.23916">
        <ele>1941.6782028057</ele>
        <time>2016-09-25T10:58:48Z</time>
      </trkpt>
      <trkpt lat="44.13485" lon="7.23916">
        <ele>1941.6782028057</ele>
        <time>2016-09-25T10:58:57Z</time>
      </trkpt>
      <trkpt lat="44.13485" lon="7.23916">
        <ele>1941.6782028057</ele>
        <time>2016-09-25T10:59:03Z</time>
      </trkpt>
      <trkpt lat="44.13485" lon="7.23915">
        <ele>1941.6782028057</ele>
        <time>2016-09-25T10:59:12Z</time>
      </trkpt>
      <trkpt lat="44.13485" lon="7.23915">
        <ele>1941.6782028057</ele>
        <time>2016-09-25T10:59:17Z</time>
      </trkpt>
      <trkpt lat="44.13486" lon="7.23913">
        <ele>1941.6782028057</ele>
        <time>2016-09-25T10:59:27Z</time>
      </trkpt>
      <trkpt lat="44.13491" lon="7.23904">
        <ele>1944.0213390363</ele>
        <time>2016-09-25T10:59:32Z</time>
      </trkpt>
      <trkpt lat="44.13511" lon="7.2387">
        <ele>1947.5529396943</ele>
        <time>2016-09-25T10:59:48Z</time>
      </trkpt>
      <trkpt lat="44.13517" lon="7.23862">
        <ele>1947.5529396943</ele>
        <time>2016-09-25T10:59:52Z</time>
      </trkpt>
      <trkpt lat="44.13522" lon="7.23844">
        <ele>1950.896882512</ele>
        <time>2016-09-25T11:00:02Z</time>
      </trkpt>
      <trkpt lat="44.13528" lon="7.23828">
        <ele>1953.9892085353</ele>
        <time>2016-09-25T11:00:17Z</time>
      </trkpt>
      <trkpt lat="44.13531" lon="7.23824">
        <ele>1953.9892085353</ele>
        <time>2016-09-25T11:00:22Z</time>
      </trkpt>
      <trkpt lat="44.13542" lon="7.23814">
        <ele>1956.6993027422</ele>
        <time>2016-09-25T11:00:32Z</time>
      </trkpt>
      <trkpt lat="44.13547" lon="7.23805">
        <ele>1956.6993027422</ele>
        <time>2016-09-25T11:00:37Z</time>
      </trkpt>
      <trkpt lat="44.13556" lon="7.23797">
        <ele>1959.9304427935</ele>
        <time>2016-09-25T11:00:48Z</time>
      </trkpt>
      <trkpt lat="44.13558" lon="7.2379">
        <ele>1959.9304427935</ele>
        <time>2016-09-25T11:00:53Z</time>
      </trkpt>
      <trkpt lat="44.13564" lon="7.23778">
        <ele>1962.5725694819</ele>
        <time>2016-09-25T11:01:02Z</time>
      </trkpt>
      <trkpt lat="44.13564" lon="7.23771">
        <ele>1962.5725694819</ele>
        <time>2016-09-25T11:01:08Z</time>
      </trkpt>
      <trkpt lat="44.13562" lon="7.23765">
        <ele>1964.5067804484</ele>
        <time>2016-09-25T11:01:18Z</time>
      </trkpt>
      <trkpt lat="44.13561" lon="7.2376">
        <ele>1964.5067804484</ele>
        <time>2016-09-25T11:01:22Z</time>
      </trkpt>
      <trkpt lat="44.13565" lon="7.23749">
        <ele>1967.3543050163</ele>
        <time>2016-09-25T11:01:33Z</time>
      </trkpt>
      <trkpt lat="44.13568" lon="7.23747">
        <ele>1967.3543050163</ele>
        <time>2016-09-25T11:01:38Z</time>
      </trkpt>
      <trkpt lat="44.1357" lon="7.23734">
        <ele>1969.6027823602</ele>
        <time>2016-09-25T11:01:48Z</time>
      </trkpt>
      <trkpt lat="44.13571" lon="7.23726">
        <ele>1969.6027823602</ele>
        <time>2016-09-25T11:01:53Z</time>
      </trkpt>
      <trkpt lat="44.13572" lon="7.23721">
        <ele>1972.129686444</ele>
        <time>2016-09-25T11:02:08Z</time>
      </trkpt>
      <trkpt lat="44.13572" lon="7.23721">
        <ele>1972.129686444</ele>
        <time>2016-09-25T11:02:22Z</time>
      </trkpt>
      <trkpt lat="44.13572" lon="7.23721">
        <ele>1972.129686444</ele>
        <time>2016-09-25T11:02:28Z</time>
      </trkpt>
      <trkpt lat="44.13572" lon="7.23718">
        <ele>1972.129686444</ele>
        <time>2016-09-25T11:02:38Z</time>
      </trkpt>
      <trkpt lat="44.13574" lon="7.23709">
        <ele>1973.8738337879</ele>
        <time>2016-09-25T11:02:42Z</time>
      </trkpt>
      <trkpt lat="44.13579" lon="7.23682">
        <ele>1976.0447769624</ele>
        <time>2016-09-25T11:02:53Z</time>
      </trkpt>
      <trkpt lat="44.13579" lon="7.23669">
        <ele>1978.710052467</ele>
        <time>2016-09-25T11:02:58Z</time>
      </trkpt>
      <trkpt lat="44.13586" lon="7.23651">
        <ele>1981.959739033</ele>
        <time>2016-09-25T11:03:07Z</time>
      </trkpt>
      <trkpt lat="44.13587" lon="7.23643">
        <ele>1981.959739033</ele>
        <time>2016-09-25T11:03:13Z</time>
      </trkpt>
      <trkpt lat="44.13591" lon="7.23629">
        <ele>1985.50103898</ele>
        <time>2016-09-25T11:03:22Z</time>
      </trkpt>
      <trkpt lat="44.13592" lon="7.23622">
        <ele>1985.50103898</ele>
        <time>2016-09-25T11:03:27Z</time>
      </trkpt>
      <trkpt lat="44.13597" lon="7.2361">
        <ele>1988.6728233532</ele>
        <time>2016-09-25T11:03:38Z</time>
      </trkpt>
      <trkpt lat="44.13599" lon="7.23607">
        <ele>1988.6728233532</ele>
        <time>2016-09-25T11:03:42Z</time>
      </trkpt>
      <trkpt lat="44.13599" lon="7.23591">
        <ele>1991.8436188805</ele>
        <time>2016-09-25T11:03:53Z</time>
      </trkpt>
      <trkpt lat="44.13602" lon="7.23586">
        <ele>1991.8436188805</ele>
        <time>2016-09-25T11:03:58Z</time>
      </trkpt>
      <trkpt lat="44.13605" lon="7.23583">
        <ele>1991.8436188805</ele>
        <time>2016-09-25T11:04:02Z</time>
      </trkpt>
      <trkpt lat="44.13607" lon="7.23579">
        <ele>1994.6920614288</ele>
        <time>2016-09-25T11:04:13Z</time>
      </trkpt>
      <trkpt lat="44.13608" lon="7.23575">
        <ele>1994.6920614288</ele>
        <time>2016-09-25T11:04:17Z</time>
      </trkpt>
      <trkpt lat="44.13609" lon="7.23555">
        <ele>1998.0022395185</ele>
        <time>2016-09-25T11:04:28Z</time>
      </trkpt>
      <trkpt lat="44.13616" lon="7.23558">
        <ele>1998.0022395185</ele>
        <time>2016-09-25T11:04:33Z</time>
      </trkpt>
      <trkpt lat="44.13631" lon="7.23566">
        <ele>2000.1504280313</ele>
        <time>2016-09-25T11:04:42Z</time>
      </trkpt>
      <trkpt lat="44.13639" lon="7.23563">
        <ele>2000.1504280313</ele>
        <time>2016-09-25T11:04:48Z</time>
      </trkpt>
      <trkpt lat="44.13642" lon="7.23556">
        <ele>2002.099857995</ele>
        <time>2016-09-25T11:04:57Z</time>
      </trkpt>
      <trkpt lat="44.13647" lon="7.23556">
        <ele>2002.099857995</ele>
        <time>2016-09-25T11:05:02Z</time>
      </trkpt>
      <trkpt lat="44.1365" lon="7.23542">
        <ele>2003.8213459788</ele>
        <time>2016-09-25T11:05:13Z</time>
      </trkpt>
      <trkpt lat="44.13651" lon="7.23536">
        <ele>2003.8213459788</ele>
        <time>2016-09-25T11:05:17Z</time>
      </trkpt>
      <trkpt lat="44.13659" lon="7.23527">
        <ele>2005.202122631</ele>
        <time>2016-09-25T11:05:28Z</time>
      </trkpt>
      <trkpt lat="44.1366" lon="7.23518">
        <ele>2005.202122631</ele>
        <time>2016-09-25T11:05:33Z</time>
      </trkpt>
      <trkpt lat="44.13666" lon="7.23512">
        <ele>2007.4357523155</ele>
        <time>2016-09-25T11:05:42Z</time>
      </trkpt>
      <trkpt lat="44.13667" lon="7.23503">
        <ele>2007.4357523155</ele>
        <time>2016-09-25T11:05:47Z</time>
      </trkpt>
      <trkpt lat="44.13673" lon="7.23491">
        <ele>2009.9685311561</ele>
        <time>2016-09-25T11:06:02Z</time>
      </trkpt>
      <trkpt lat="44.13673" lon="7.23483">
        <ele>2009.9685311561</ele>
        <time>2016-09-25T11:06:13Z</time>
      </trkpt>
      <trkpt lat="44.13672" lon="7.23482">
        <ele>2009.9685311561</ele>
        <time>2016-09-25T11:06:17Z</time>
      </trkpt>
      <trkpt lat="44.13672" lon="7.23477">
        <ele>2011.4508247012</ele>
        <time>2016-09-25T11:06:22Z</time>
      </trkpt>
      <trkpt lat="44.13668" lon="7.23473">
        <ele>2011.4508247012</ele>
        <time>2016-09-25T11:06:28Z</time>
      </trkpt>
      <trkpt lat="44.13663" lon="7.23463">
        <ele>2012.4365528459</ele>
        <time>2016-09-25T11:06:33Z</time>
      </trkpt>
      <trkpt lat="44.13655" lon="7.23458">
        <ele>2012.4365528459</ele>
        <time>2016-09-25T11:06:37Z</time>
      </trkpt>
      <trkpt lat="44.13656" lon="7.23459">
        <ele>2012.3595654166</ele>
        <time>2016-09-25T11:06:49Z</time>
      </trkpt>
      <trkpt lat="44.13657" lon="7.23456">
        <ele>2012.3595654166</ele>
        <time>2016-09-25T11:07:02Z</time>
      </trkpt>
      <trkpt lat="44.13658" lon="7.23443">
        <ele>2012.93205751</ele>
        <time>2016-09-25T11:07:08Z</time>
      </trkpt>
      <trkpt lat="44.13663" lon="7.23427">
        <ele>2012.7267348098</ele>
        <time>2016-09-25T11:07:18Z</time>
      </trkpt>
      <trkpt lat="44.13668" lon="7.23426">
        <ele>2012.7267348098</ele>
        <time>2016-09-25T11:07:22Z</time>
      </trkpt>
      <trkpt lat="44.13677" lon="7.23418">
        <ele>2012.7579526946</ele>
        <time>2016-09-25T11:07:33Z</time>
      </trkpt>
      <trkpt lat="44.13682" lon="7.23415">
        <ele>2012.7579526946</ele>
        <time>2016-09-25T11:07:37Z</time>
      </trkpt>
      <trkpt lat="44.13692" lon="7.23406">
        <ele>2013.1002223435</ele>
        <time>2016-09-25T11:07:48Z</time>
      </trkpt>
      <trkpt lat="44.13696" lon="7.23399">
        <ele>2013.1002223435</ele>
        <time>2016-09-25T11:07:53Z</time>
      </trkpt>
      <trkpt lat="44.13701" lon="7.23396">
        <ele>2012.841737101</ele>
        <time>2016-09-25T11:07:57Z</time>
      </trkpt>
      <trkpt lat="44.13701" lon="7.23396">
        <ele>2012.841737101</ele>
        <time>2016-09-25T11:08:08Z</time>
      </trkpt>
      <trkpt lat="44.137" lon="7.23393">
        <ele>2012.841737101</ele>
        <time>2016-09-25T11:08:22Z</time>
      </trkpt>
      <trkpt lat="44.137" lon="7.2339">
        <ele>2012.841737101</ele>
        <time>2016-09-25T11:08:28Z</time>
      </trkpt>
      <trkpt lat="44.13706" lon="7.23377">
        <ele>2013.8774402836</ele>
        <time>2016-09-25T11:08:37Z</time>
      </trkpt>
      <trkpt lat="44.13708" lon="7.23372">
        <ele>2013.8774402836</ele>
        <time>2016-09-25T11:08:42Z</time>
      </trkpt>
      <trkpt lat="44.13709" lon="7.23373">
        <ele>2013.8774402836</ele>
        <time>2016-09-25T11:08:53Z</time>
      </trkpt>
      <trkpt lat="44.13709" lon="7.23372">
        <ele>2013.8774402836</ele>
        <time>2016-09-25T11:08:57Z</time>
      </trkpt>
      <trkpt lat="44.13709" lon="7.23372">
        <ele>2013.8774402836</ele>
        <time>2016-09-25T11:09:09Z</time>
      </trkpt>
      <trkpt lat="44.13709" lon="7.23372">
        <ele>2013.8774402836</ele>
        <time>2016-09-25T11:09:13Z</time>
      </trkpt>
      <trkpt lat="44.13711" lon="7.23372">
        <ele>2013.8774402836</ele>
        <time>2016-09-25T11:09:22Z</time>
      </trkpt>
      <trkpt lat="44.13716" lon="7.23369">
        <ele>2015.4806915023</ele>
        <time>2016-09-25T11:09:27Z</time>
      </trkpt>
      <trkpt lat="44.13718" lon="7.23367">
        <ele>2015.4806915023</ele>
        <time>2016-09-25T11:09:38Z</time>
      </trkpt>
      <trkpt lat="44.13718" lon="7.23367">
        <ele>2015.4806915023</ele>
        <time>2016-09-25T11:09:42Z</time>
      </trkpt>
      <trkpt lat="44.13718" lon="7.23367">
        <ele>2015.4806915023</ele>
        <time>2016-09-25T11:09:52Z</time>
      </trkpt>
      <trkpt lat="44.13724" lon="7.23372">
        <ele>2017.4809813104</ele>
        <time>2016-09-25T11:09:58Z</time>
      </trkpt>
      <trkpt lat="44.13745" lon="7.23388">
        <ele>2020.0362111935</ele>
        <time>2016-09-25T11:10:13Z</time>
      </trkpt>
      <trkpt lat="44.13753" lon="7.23394">
        <ele>2022.0084940203</ele>
        <time>2016-09-25T11:10:27Z</time>
      </trkpt>
      <trkpt lat="44.13748" lon="7.23404">
        <ele>2022.0084940203</ele>
        <time>2016-09-25T11:10:42Z</time>
      </trkpt>
      <trkpt lat="44.1375" lon="7.23409">
        <ele>2023.3971395528</ele>
        <time>2016-09-25T11:10:47Z</time>
      </trkpt>
      <trkpt lat="44.13754" lon="7.23426">
        <ele>2024.0013527957</ele>
        <time>2016-09-25T11:10:58Z</time>
      </trkpt>
      <trkpt lat="44.13753" lon="7.23433">
        <ele>2024.0013527957</ele>
        <time>2016-09-25T11:11:02Z</time>
      </trkpt>
      <trkpt lat="44.13756" lon="7.23445">
        <ele>2024.0407622655</ele>
        <time>2016-09-25T11:11:13Z</time>
      </trkpt>
      <trkpt lat="44.13756" lon="7.23449">
        <ele>2024.0407622655</ele>
        <time>2016-09-25T11:11:18Z</time>
      </trkpt>
      <trkpt lat="44.13756" lon="7.23461">
        <ele>2024.3977259013</ele>
        <time>2016-09-25T11:11:27Z</time>
      </trkpt>
      <trkpt lat="44.13758" lon="7.23465">
        <ele>2024.3977259013</ele>
        <time>2016-09-25T11:11:33Z</time>
      </trkpt>
      <trkpt lat="44.13759" lon="7.23479">
        <ele>2024.9232961683</ele>
        <time>2016-09-25T11:11:42Z</time>
      </trkpt>
      <trkpt lat="44.13758" lon="7.23487">
        <ele>2024.9232961683</ele>
        <time>2016-09-25T11:11:47Z</time>
      </trkpt>
      <trkpt lat="44.13757" lon="7.235">
        <ele>2025.4501119248</ele>
        <time>2016-09-25T11:11:58Z</time>
      </trkpt>
      <trkpt lat="44.13761" lon="7.23505">
        <ele>2025.4501119248</ele>
        <time>2016-09-25T11:12:02Z</time>
      </trkpt>
      <trkpt lat="44.13765" lon="7.23519">
        <ele>2026.3130145567</ele>
        <time>2016-09-25T11:12:14Z</time>
      </trkpt>
      <trkpt lat="44.13761" lon="7.23524">
        <ele>2026.3130145567</ele>
        <time>2016-09-25T11:12:17Z</time>
      </trkpt>
      <trkpt lat="44.13772" lon="7.23544">
        <ele>2027.2447892613</ele>
        <time>2016-09-25T11:12:32Z</time>
      </trkpt>
      <trkpt lat="44.13787" lon="7.23556">
        <ele>2028.934308008</ele>
        <time>2016-09-25T11:12:42Z</time>
      </trkpt>
      <trkpt lat="44.13791" lon="7.23558">
        <ele>2028.934308008</ele>
        <time>2016-09-25T11:12:47Z</time>
      </trkpt>
      <trkpt lat="44.13798" lon="7.23564">
        <ele>2030.2594827053</ele>
        <time>2016-09-25T11:12:58Z</time>
      </trkpt>
      <trkpt lat="44.138" lon="7.23563">
        <ele>2030.2594827053</ele>
        <time>2016-09-25T11:13:02Z</time>
      </trkpt>
      <trkpt lat="44.13798" lon="7.23563">
        <ele>2030.2594827053</ele>
        <time>2016-09-25T11:13:07Z</time>
      </trkpt>
      <trkpt lat="44.13791" lon="7.23561">
        <ele>2030.7292257034</ele>
        <time>2016-09-25T11:13:18Z</time>
      </trkpt>
      <trkpt lat="44.13791" lon="7.23561">
        <ele>2030.7292257034</ele>
        <time>2016-09-25T11:13:22Z</time>
      </trkpt>
      <trkpt lat="44.13791" lon="7.23561">
        <ele>2030.7292257034</ele>
        <time>2016-09-25T11:13:33Z</time>
      </trkpt>
      <trkpt lat="44.13791" lon="7.23561">
        <ele>2030.7292257034</ele>
        <time>2016-09-25T11:13:38Z</time>
      </trkpt>
      <trkpt lat="44.13791" lon="7.23561">
        <ele>2030.7292257034</ele>
        <time>2016-09-25T11:14:02Z</time>
      </trkpt>
      <trkpt lat="44.13791" lon="7.23561">
        <ele>2030.7292257034</ele>
        <time>2016-09-25T11:14:07Z</time>
      </trkpt>
      <trkpt lat="44.13791" lon="7.23561">
        <ele>2030.7292257034</ele>
        <time>2016-09-25T11:14:12Z</time>
      </trkpt>
      <trkpt lat="44.13791" lon="7.23561">
        <ele>2030.7292257034</ele>
        <time>2016-09-25T11:14:17Z</time>
      </trkpt>
      <trkpt lat="44.13791" lon="7.23561">
        <ele>2030.7292257034</ele>
        <time>2016-09-25T11:14:22Z</time>
      </trkpt>
      <trkpt lat="44.13791" lon="7.23561">
        <ele>2030.7292257034</ele>
        <time>2016-09-25T11:14:27Z</time>
      </trkpt>
      <trkpt lat="44.13791" lon="7.23561">
        <ele>2030.7292257034</ele>
        <time>2016-09-25T11:14:32Z</time>
      </trkpt>
      <trkpt lat="44.13791" lon="7.23561">
        <ele>2030.7292257034</ele>
        <time>2016-09-25T11:14:42Z</time>
      </trkpt>
      <trkpt lat="44.13791" lon="7.23561">
        <ele>2030.7292257034</ele>
        <time>2016-09-25T11:14:47Z</time>
      </trkpt>
      <trkpt lat="44.13791" lon="7.23561">
        <ele>2030.7292257034</ele>
        <time>2016-09-25T11:14:58Z</time>
      </trkpt>
      <trkpt lat="44.13791" lon="7.23561">
        <ele>2030.7292257034</ele>
        <time>2016-09-25T11:15:02Z</time>
      </trkpt>
      <trkpt lat="44.13791" lon="7.23561">
        <ele>2030.7292257034</ele>
        <time>2016-09-25T11:15:07Z</time>
      </trkpt>
      <trkpt lat="44.13791" lon="7.23561">
        <ele>2030.7292257034</ele>
        <time>2016-09-25T11:15:13Z</time>
      </trkpt>
      <trkpt lat="44.13791" lon="7.23561">
        <ele>2030.7292257034</ele>
        <time>2016-09-25T11:15:18Z</time>
      </trkpt>
      <trkpt lat="44.13792" lon="7.23562">
        <ele>2030.7292257034</ele>
        <time>2016-09-25T11:15:22Z</time>
      </trkpt>
      <trkpt lat="44.13794" lon="7.23559">
        <ele>2030.7292257034</ele>
        <time>2016-09-25T11:15:27Z</time>
      </trkpt>
      <trkpt lat="44.13793" lon="7.23559">
        <ele>2030.7292257034</ele>
        <time>2016-09-25T11:15:32Z</time>
      </trkpt>
      <trkpt lat="44.13791" lon="7.23559">
        <ele>2030.7292257034</ele>
        <time>2016-09-25T11:15:37Z</time>
      </trkpt>
      <trkpt lat="44.13786" lon="7.23557">
        <ele>2030.1358392075</ele>
        <time>2016-09-25T11:15:42Z</time>
      </trkpt>
      <trkpt lat="44.13787" lon="7.23555">
        <ele>2030.1358392075</ele>
        <time>2016-09-25T11:15:47Z</time>
      </trkpt>
      <trkpt lat="44.13789" lon="7.23553">
        <ele>2030.1358392075</ele>
        <time>2016-09-25T11:15:52Z</time>
      </trkpt>
      <trkpt lat="44.1379" lon="7.23553">
        <ele>2030.1358392075</ele>
        <time>2016-09-25T11:16:03Z</time>
      </trkpt>
      <trkpt lat="44.1379" lon="7.23553">
        <ele>2030.1358392075</ele>
        <time>2016-09-25T11:16:07Z</time>
      </trkpt>
      <trkpt lat="44.1379" lon="7.23553">
        <ele>2030.1358392075</ele>
        <time>2016-09-25T11:16:17Z</time>
      </trkpt>
      <trkpt lat="44.1379" lon="7.23553">
        <ele>2030.1358392075</ele>
        <time>2016-09-25T11:16:22Z</time>
      </trkpt>
      <trkpt lat="44.1379" lon="7.23552">
        <ele>2030.1358392075</ele>
        <time>2016-09-25T11:16:32Z</time>
      </trkpt>
      <trkpt lat="44.13791" lon="7.23552">
        <ele>2030.1358392075</ele>
        <time>2016-09-25T11:16:37Z</time>
      </trkpt>
      <trkpt lat="44.13791" lon="7.23552">
        <ele>2030.1358392075</ele>
        <time>2016-09-25T11:16:42Z</time>
      </trkpt>
      <trkpt lat="44.13791" lon="7.23552">
        <ele>2030.1358392075</ele>
        <time>2016-09-25T11:16:47Z</time>
      </trkpt>
      <trkpt lat="44.13791" lon="7.23551">
        <ele>2030.1358392075</ele>
        <time>2016-09-25T11:16:53Z</time>
      </trkpt>
      <trkpt lat="44.13791" lon="7.23551">
        <ele>2030.1358392075</ele>
        <time>2016-09-25T11:17:07Z</time>
      </trkpt>
      <trkpt lat="44.13792" lon="7.23551">
        <ele>2030.1358392075</ele>
        <time>2016-09-25T11:17:13Z</time>
      </trkpt>
      <trkpt lat="44.13796" lon="7.23542">
        <ele>2030.7108580456</ele>
        <time>2016-09-25T11:17:22Z</time>
      </trkpt>
      <trkpt lat="44.138" lon="7.2354">
        <ele>2030.7108580456</ele>
        <time>2016-09-25T11:17:27Z</time>
      </trkpt>
      <trkpt lat="44.13811" lon="7.23534">
        <ele>2030.0510800897</ele>
        <time>2016-09-25T11:17:38Z</time>
      </trkpt>
      <trkpt lat="44.13816" lon="7.23532">
        <ele>2030.0510800897</ele>
        <time>2016-09-25T11:17:42Z</time>
      </trkpt>
      <trkpt lat="44.13827" lon="7.23524">
        <ele>2028.9019047117</ele>
        <time>2016-09-25T11:17:53Z</time>
      </trkpt>
      <trkpt lat="44.13827" lon="7.23522">
        <ele>2028.9019047117</ele>
        <time>2016-09-25T11:17:58Z</time>
      </trkpt>
      <trkpt lat="44.13831" lon="7.23517">
        <ele>2028.9019047117</ele>
        <time>2016-09-25T11:18:07Z</time>
      </trkpt>
      <trkpt lat="44.13835" lon="7.23507">
        <ele>2027.8255445535</ele>
        <time>2016-09-25T11:18:13Z</time>
      </trkpt>
      <trkpt lat="44.13841" lon="7.23486">
        <ele>2025.6997241777</ele>
        <time>2016-09-25T11:18:28Z</time>
      </trkpt>
      <trkpt lat="44.13847" lon="7.23458">
        <ele>2024.0958368025</ele>
        <time>2016-09-25T11:18:42Z</time>
      </trkpt>
      <trkpt lat="44.13852" lon="7.23435">
        <ele>2021.7589396468</ele>
        <time>2016-09-25T11:18:58Z</time>
      </trkpt>
      <trkpt lat="44.13852" lon="7.23429">
        <ele>2021.7589396468</ele>
        <time>2016-09-25T11:19:02Z</time>
      </trkpt>
      <trkpt lat="44.13856" lon="7.23408">
        <ele>2020.1221733814</ele>
        <time>2016-09-25T11:19:13Z</time>
      </trkpt>
      <trkpt lat="44.13858" lon="7.23403">
        <ele>2020.1221733814</ele>
        <time>2016-09-25T11:19:17Z</time>
      </trkpt>
      <trkpt lat="44.1386" lon="7.23383">
        <ele>2018.9980928202</ele>
        <time>2016-09-25T11:19:28Z</time>
      </trkpt>
      <trkpt lat="44.13862" lon="7.23374">
        <ele>2018.9980928202</ele>
        <time>2016-09-25T11:19:33Z</time>
      </trkpt>
      <trkpt lat="44.13867" lon="7.23363">
        <ele>2017.519662777</ele>
        <time>2016-09-25T11:19:42Z</time>
      </trkpt>
      <trkpt lat="44.13865" lon="7.2335">
        <ele>2017.519662777</ele>
        <time>2016-09-25T11:19:48Z</time>
      </trkpt>
      <trkpt lat="44.13873" lon="7.23342">
        <ele>2015.7201819092</ele>
        <time>2016-09-25T11:19:58Z</time>
      </trkpt>
      <trkpt lat="44.13876" lon="7.23339">
        <ele>2015.7201819092</ele>
        <time>2016-09-25T11:20:02Z</time>
      </trkpt>
      <trkpt lat="44.13872" lon="7.23334">
        <ele>2015.7201819092</ele>
        <time>2016-09-25T11:20:12Z</time>
      </trkpt>
      <trkpt lat="44.13872" lon="7.23332">
        <ele>2013.6167870993</ele>
        <time>2016-09-25T11:20:17Z</time>
      </trkpt>
      <trkpt lat="44.13874" lon="7.23318">
        <ele>2010.5342604697</ele>
        <time>2016-09-25T11:20:28Z</time>
      </trkpt>
      <trkpt lat="44.13876" lon="7.23306">
        <ele>2010.5342604697</ele>
        <time>2016-09-25T11:20:33Z</time>
      </trkpt>
      <trkpt lat="44.13883" lon="7.23291">
        <ele>2007.3338511878</ele>
        <time>2016-09-25T11:20:47Z</time>
      </trkpt>
      <trkpt lat="44.13888" lon="7.23289">
        <ele>2007.3338511878</ele>
        <time>2016-09-25T11:20:52Z</time>
      </trkpt>
      <trkpt lat="44.1389" lon="7.23289">
        <ele>2007.3338511878</ele>
        <time>2016-09-25T11:20:58Z</time>
      </trkpt>
      <trkpt lat="44.13891" lon="7.23289">
        <ele>2007.3338511878</ele>
        <time>2016-09-25T11:21:03Z</time>
      </trkpt>
      <trkpt lat="44.13912" lon="7.23281">
        <ele>2005.3036130041</ele>
        <time>2016-09-25T11:21:18Z</time>
      </trkpt>
      <trkpt lat="44.13934" lon="7.23273">
        <ele>2001.6415668736</ele>
        <time>2016-09-25T11:21:32Z</time>
      </trkpt>
      <trkpt lat="44.13942" lon="7.23256">
        <ele>1998.770950388</ele>
        <time>2016-09-25T11:21:47Z</time>
      </trkpt>
      <trkpt lat="44.13944" lon="7.23246">
        <ele>1998.770950388</ele>
        <time>2016-09-25T11:21:52Z</time>
      </trkpt>
      <trkpt lat="44.13958" lon="7.2324">
        <ele>1996.0666868891</ele>
        <time>2016-09-25T11:22:03Z</time>
      </trkpt>
      <trkpt lat="44.13962" lon="7.23238">
        <ele>1996.0666868891</ele>
        <time>2016-09-25T11:22:07Z</time>
      </trkpt>
      <trkpt lat="44.13971" lon="7.23226">
        <ele>1992.9921037797</ele>
        <time>2016-09-25T11:22:18Z</time>
      </trkpt>
      <trkpt lat="44.13974" lon="7.23221">
        <ele>1992.9921037797</ele>
        <time>2016-09-25T11:22:23Z</time>
      </trkpt>
      <trkpt lat="44.13983" lon="7.23214">
        <ele>1990.2612371304</ele>
        <time>2016-09-25T11:22:32Z</time>
      </trkpt>
      <trkpt lat="44.13988" lon="7.23204">
        <ele>1990.2612371304</ele>
        <time>2016-09-25T11:22:38Z</time>
      </trkpt>
      <trkpt lat="44.13992" lon="7.23197">
        <ele>1987.4679908057</ele>
        <time>2016-09-25T11:22:47Z</time>
      </trkpt>
      <trkpt lat="44.13993" lon="7.23195">
        <ele>1987.4679908057</ele>
        <time>2016-09-25T11:22:52Z</time>
      </trkpt>
      <trkpt lat="44.14003" lon="7.2318">
        <ele>1984.5242012356</ele>
        <time>2016-09-25T11:23:03Z</time>
      </trkpt>
      <trkpt lat="44.14007" lon="7.23174">
        <ele>1984.5242012356</ele>
        <time>2016-09-25T11:23:07Z</time>
      </trkpt>
      <trkpt lat="44.1402" lon="7.23161">
        <ele>1981.7085826615</ele>
        <time>2016-09-25T11:23:19Z</time>
      </trkpt>
      <trkpt lat="44.14024" lon="7.23157">
        <ele>1981.7085826615</ele>
        <time>2016-09-25T11:23:23Z</time>
      </trkpt>
      <trkpt lat="44.14027" lon="7.23149">
        <ele>1979.0625490317</ele>
        <time>2016-09-25T11:23:27Z</time>
      </trkpt>
      <trkpt lat="44.14041" lon="7.23139">
        <ele>1976.104895947</ele>
        <time>2016-09-25T11:23:39Z</time>
      </trkpt>
      <trkpt lat="44.14045" lon="7.23135">
        <ele>1976.104895947</ele>
        <time>2016-09-25T11:23:43Z</time>
      </trkpt>
      <trkpt lat="44.14056" lon="7.23127">
        <ele>1973.5720548927</ele>
        <time>2016-09-25T11:23:52Z</time>
      </trkpt>
      <trkpt lat="44.14062" lon="7.23123">
        <ele>1973.5720548927</ele>
        <time>2016-09-25T11:23:57Z</time>
      </trkpt>
      <trkpt lat="44.14074" lon="7.23117">
        <ele>1970.9631597498</ele>
        <time>2016-09-25T11:24:08Z</time>
      </trkpt>
      <trkpt lat="44.14077" lon="7.23116">
        <ele>1970.9631597498</ele>
        <time>2016-09-25T11:24:12Z</time>
      </trkpt>
      <trkpt lat="44.14074" lon="7.23114">
        <ele>1970.9631597498</ele>
        <time>2016-09-25T11:24:23Z</time>
      </trkpt>
      <trkpt lat="44.14073" lon="7.23113">
        <ele>1970.9631597498</ele>
        <time>2016-09-25T11:24:28Z</time>
      </trkpt>
      <trkpt lat="44.14085" lon="7.2309">
        <ele>1968.6210811116</ele>
        <time>2016-09-25T11:24:43Z</time>
      </trkpt>
      <trkpt lat="44.14102" lon="7.2308">
        <ele>1966.17073286</ele>
        <time>2016-09-25T11:24:57Z</time>
      </trkpt>
      <trkpt lat="44.14108" lon="7.23074">
        <ele>1966.17073286</ele>
        <time>2016-09-25T11:25:03Z</time>
      </trkpt>
      <trkpt lat="44.14117" lon="7.23065">
        <ele>1963.9563389907</ele>
        <time>2016-09-25T11:25:12Z</time>
      </trkpt>
      <trkpt lat="44.1412" lon="7.23061">
        <ele>1963.9563389907</ele>
        <time>2016-09-25T11:25:17Z</time>
      </trkpt>
      <trkpt lat="44.14124" lon="7.23044">
        <ele>1961.431234285</ele>
        <time>2016-09-25T11:25:28Z</time>
      </trkpt>
      <trkpt lat="44.14122" lon="7.23033">
        <ele>1961.431234285</ele>
        <time>2016-09-25T11:25:32Z</time>
      </trkpt>
      <trkpt lat="44.14126" lon="7.23021">
        <ele>1959.1415285411</ele>
        <time>2016-09-25T11:25:43Z</time>
      </trkpt>
      <trkpt lat="44.14126" lon="7.23018">
        <ele>1959.1415285411</ele>
        <time>2016-09-25T11:25:48Z</time>
      </trkpt>
      <trkpt lat="44.14124" lon="7.23011">
        <ele>1959.1415285411</ele>
        <time>2016-09-25T11:25:57Z</time>
      </trkpt>
      <trkpt lat="44.14126" lon="7.23012">
        <ele>1956.8140962159</ele>
        <time>2016-09-25T11:26:03Z</time>
      </trkpt>
      <trkpt lat="44.14126" lon="7.23012">
        <ele>1956.8140962159</ele>
        <time>2016-09-25T11:26:12Z</time>
      </trkpt>
      <trkpt lat="44.14126" lon="7.23012">
        <ele>1956.8140962159</ele>
        <time>2016-09-25T11:26:17Z</time>
      </trkpt>
      <trkpt lat="44.14126" lon="7.23012">
        <ele>1956.8140962159</ele>
        <time>2016-09-25T11:26:23Z</time>
      </trkpt>
      <trkpt lat="44.14126" lon="7.23012">
        <ele>1956.8140962159</ele>
        <time>2016-09-25T11:26:27Z</time>
      </trkpt>
      <trkpt lat="44.14126" lon="7.23012">
        <ele>1956.8140962159</ele>
        <time>2016-09-25T11:26:32Z</time>
      </trkpt>
      <trkpt lat="44.14127" lon="7.23011">
        <ele>1956.8140962159</ele>
        <time>2016-09-25T11:26:37Z</time>
      </trkpt>
      <trkpt lat="44.14128" lon="7.2301">
        <ele>1956.8140962159</ele>
        <time>2016-09-25T11:26:42Z</time>
      </trkpt>
      <trkpt lat="44.14129" lon="7.23009">
        <ele>1956.8140962159</ele>
        <time>2016-09-25T11:26:47Z</time>
      </trkpt>
      <trkpt lat="44.14129" lon="7.23009">
        <ele>1956.8140962159</ele>
        <time>2016-09-25T11:26:52Z</time>
      </trkpt>
      <trkpt lat="44.14129" lon="7.23009">
        <ele>1956.8140962159</ele>
        <time>2016-09-25T11:26:57Z</time>
      </trkpt>
      <trkpt lat="44.14129" lon="7.23009">
        <ele>1956.8140962159</ele>
        <time>2016-09-25T11:27:02Z</time>
      </trkpt>
      <trkpt lat="44.14129" lon="7.23009">
        <ele>1956.8140962159</ele>
        <time>2016-09-25T11:27:07Z</time>
      </trkpt>
      <trkpt lat="44.14129" lon="7.23008">
        <ele>1956.8140962159</ele>
        <time>2016-09-25T11:27:12Z</time>
      </trkpt>
      <trkpt lat="44.14129" lon="7.23008">
        <ele>1956.8140962159</ele>
        <time>2016-09-25T11:27:23Z</time>
      </trkpt>
      <trkpt lat="44.14129" lon="7.23008">
        <ele>1956.8140962159</ele>
        <time>2016-09-25T11:27:27Z</time>
      </trkpt>
      <trkpt lat="44.14131" lon="7.23005">
        <ele>1956.8140962159</ele>
        <time>2016-09-25T11:27:37Z</time>
      </trkpt>
      <trkpt lat="44.14134" lon="7.23">
        <ele>1954.4839541838</ele>
        <time>2016-09-25T11:27:43Z</time>
      </trkpt>
      <trkpt lat="44.1415" lon="7.23">
        <ele>1951.8806797357</ele>
        <time>2016-09-25T11:27:52Z</time>
      </trkpt>
      <trkpt lat="44.14157" lon="7.22999">
        <ele>1951.8806797357</ele>
        <time>2016-09-25T11:27:58Z</time>
      </trkpt>
      <trkpt lat="44.14172" lon="7.23011">
        <ele>1949.8206716263</ele>
        <time>2016-09-25T11:28:12Z</time>
      </trkpt>
      <trkpt lat="44.14183" lon="7.23016">
        <ele>1948.0642424438</ele>
        <time>2016-09-25T11:28:27Z</time>
      </trkpt>
      <trkpt lat="44.14182" lon="7.23016">
        <ele>1948.0642424438</ele>
        <time>2016-09-25T11:28:32Z</time>
      </trkpt>
      <trkpt lat="44.14184" lon="7.2302">
        <ele>1948.0642424438</ele>
        <time>2016-09-25T11:28:43Z</time>
      </trkpt>
      <trkpt lat="44.14186" lon="7.23023">
        <ele>1948.0642424438</ele>
        <time>2016-09-25T11:28:47Z</time>
      </trkpt>
      <trkpt lat="44.14191" lon="7.23034">
        <ele>1946.9791049942</ele>
        <time>2016-09-25T11:28:59Z</time>
      </trkpt>
      <trkpt lat="44.14188" lon="7.23039">
        <ele>1946.9791049942</ele>
        <time>2016-09-25T11:29:03Z</time>
      </trkpt>
      <trkpt lat="44.14179" lon="7.2305">
        <ele>1945.4483557805</ele>
        <time>2016-09-25T11:29:18Z</time>
      </trkpt>
      <trkpt lat="44.14187" lon="7.2307">
        <ele>1944.7295737161</ele>
        <time>2016-09-25T11:29:32Z</time>
      </trkpt>
      <trkpt lat="44.14202" lon="7.23082">
        <ele>1944.9335039371</ele>
        <time>2016-09-25T11:29:43Z</time>
      </trkpt>
      <trkpt lat="44.14207" lon="7.23085">
        <ele>1944.9335039371</ele>
        <time>2016-09-25T11:29:47Z</time>
      </trkpt>
      <trkpt lat="44.14207" lon="7.23088">
        <ele>1944.9335039371</ele>
        <time>2016-09-25T11:29:52Z</time>
      </trkpt>
      <trkpt lat="44.14207" lon="7.23088">
        <ele>1944.9335039371</ele>
        <time>2016-09-25T11:29:59Z</time>
      </trkpt>
      <trkpt lat="44.14206" lon="7.23088">
        <ele>1945.3385919632</ele>
        <time>2016-09-25T11:30:03Z</time>
      </trkpt>
      <trkpt lat="44.14205" lon="7.23088">
        <ele>1945.3385919632</ele>
        <time>2016-09-25T11:30:07Z</time>
      </trkpt>
      <trkpt lat="44.14213" lon="7.23095">
        <ele>1944.5694582279</ele>
        <time>2016-09-25T11:30:18Z</time>
      </trkpt>
      <trkpt lat="44.14218" lon="7.23091">
        <ele>1944.5694582279</ele>
        <time>2016-09-25T11:30:32Z</time>
      </trkpt>
      <trkpt lat="44.1422" lon="7.23091">
        <ele>1944.5694582279</ele>
        <time>2016-09-25T11:30:38Z</time>
      </trkpt>
      <trkpt lat="44.14223" lon="7.23083">
        <ele>1944.1362986215</ele>
        <time>2016-09-25T11:30:47Z</time>
      </trkpt>
      <trkpt lat="44.14225" lon="7.2308">
        <ele>1944.1362986215</ele>
        <time>2016-09-25T11:30:52Z</time>
      </trkpt>
      <trkpt lat="44.14231" lon="7.23072">
        <ele>1943.8521276852</ele>
        <time>2016-09-25T11:31:03Z</time>
      </trkpt>
      <trkpt lat="44.14234" lon="7.23069">
        <ele>1943.8521276852</ele>
        <time>2016-09-25T11:31:07Z</time>
      </trkpt>
      <trkpt lat="44.1424" lon="7.23057">
        <ele>1943.1973508304</ele>
        <time>2016-09-25T11:31:18Z</time>
      </trkpt>
      <trkpt lat="44.14243" lon="7.23053">
        <ele>1943.1973508304</ele>
        <time>2016-09-25T11:31:23Z</time>
      </trkpt>
      <trkpt lat="44.14251" lon="7.23043">
        <ele>1943.5073398267</ele>
        <time>2016-09-25T11:31:33Z</time>
      </trkpt>
      <trkpt lat="44.14254" lon="7.23036">
        <ele>1943.5073398267</ele>
        <time>2016-09-25T11:31:38Z</time>
      </trkpt>
      <trkpt lat="44.14255" lon="7.2303">
        <ele>1943.4802812405</ele>
        <time>2016-09-25T11:31:42Z</time>
      </trkpt>
      <trkpt lat="44.14259" lon="7.23017">
        <ele>1943.4817392543</ele>
        <time>2016-09-25T11:31:52Z</time>
      </trkpt>
      <trkpt lat="44.14268" lon="7.23002">
        <ele>1943.8647616024</ele>
        <time>2016-09-25T11:32:07Z</time>
      </trkpt>
      <trkpt lat="44.14269" lon="7.22996">
        <ele>1943.8647616024</ele>
        <time>2016-09-25T11:32:12Z</time>
      </trkpt>
      <trkpt lat="44.14265" lon="7.22984">
        <ele>1944.2636804985</ele>
        <time>2016-09-25T11:32:22Z</time>
      </trkpt>
      <trkpt lat="44.14266" lon="7.2298">
        <ele>1944.2636804985</ele>
        <time>2016-09-25T11:32:27Z</time>
      </trkpt>
      <trkpt lat="44.14268" lon="7.22966">
        <ele>1944.9017181194</ele>
        <time>2016-09-25T11:32:38Z</time>
      </trkpt>
      <trkpt lat="44.14269" lon="7.22958">
        <ele>1944.9017181194</ele>
        <time>2016-09-25T11:32:42Z</time>
      </trkpt>
      <trkpt lat="44.14269" lon="7.22944">
        <ele>1946.5327073942</ele>
        <time>2016-09-25T11:32:53Z</time>
      </trkpt>
      <trkpt lat="44.14272" lon="7.22938">
        <ele>1946.5327073942</ele>
        <time>2016-09-25T11:32:58Z</time>
      </trkpt>
      <trkpt lat="44.14274" lon="7.22929">
        <ele>1948.6706842708</ele>
        <time>2016-09-25T11:33:07Z</time>
      </trkpt>
      <trkpt lat="44.14276" lon="7.22924">
        <ele>1948.6706842708</ele>
        <time>2016-09-25T11:33:12Z</time>
      </trkpt>
      <trkpt lat="44.14283" lon="7.22916">
        <ele>1950.0138009339</ele>
        <time>2016-09-25T11:33:22Z</time>
      </trkpt>
      <trkpt lat="44.14286" lon="7.22908">
        <ele>1950.0138009339</ele>
        <time>2016-09-25T11:33:27Z</time>
      </trkpt>
      <trkpt lat="44.14289" lon="7.22895">
        <ele>1952.5142246915</ele>
        <time>2016-09-25T11:33:38Z</time>
      </trkpt>
      <trkpt lat="44.14293" lon="7.22889">
        <ele>1952.5142246915</ele>
        <time>2016-09-25T11:33:43Z</time>
      </trkpt>
      <trkpt lat="44.14303" lon="7.22881">
        <ele>1954.7783428688</ele>
        <time>2016-09-25T11:33:58Z</time>
      </trkpt>
      <trkpt lat="44.14306" lon="7.22877">
        <ele>1954.7783428688</ele>
        <time>2016-09-25T11:34:03Z</time>
      </trkpt>
      <trkpt lat="44.14311" lon="7.22867">
        <ele>1957.2594856932</ele>
        <time>2016-09-25T11:34:12Z</time>
      </trkpt>
      <trkpt lat="44.14316" lon="7.22863">
        <ele>1957.2594856932</ele>
        <time>2016-09-25T11:34:18Z</time>
      </trkpt>
      <trkpt lat="44.14326" lon="7.22858">
        <ele>1959.5846426262</ele>
        <time>2016-09-25T11:34:27Z</time>
      </trkpt>
      <trkpt lat="44.14329" lon="7.22855">
        <ele>1959.5846426262</ele>
        <time>2016-09-25T11:34:32Z</time>
      </trkpt>
      <trkpt lat="44.14338" lon="7.22846">
        <ele>1961.3656076216</ele>
        <time>2016-09-25T11:34:43Z</time>
      </trkpt>
      <trkpt lat="44.14344" lon="7.2285">
        <ele>1961.3656076216</ele>
        <time>2016-09-25T11:34:47Z</time>
      </trkpt>
      <trkpt lat="44.14354" lon="7.22848">
        <ele>1963.4693785808</ele>
        <time>2016-09-25T11:34:58Z</time>
      </trkpt>
      <trkpt lat="44.14358" lon="7.22844">
        <ele>1963.4693785808</ele>
        <time>2016-09-25T11:35:04Z</time>
      </trkpt>
      <trkpt lat="44.14362" lon="7.22841">
        <ele>1965.7186313517</ele>
        <time>2016-09-25T11:35:07Z</time>
      </trkpt>
      <trkpt lat="44.14366" lon="7.22836">
        <ele>1965.7186313517</ele>
        <time>2016-09-25T11:35:17Z</time>
      </trkpt>
      <trkpt lat="44.14366" lon="7.22835">
        <ele>1965.7186313517</ele>
        <time>2016-09-25T11:35:22Z</time>
      </trkpt>
      <trkpt lat="44.14369" lon="7.22831">
        <ele>1967.7903772265</ele>
        <time>2016-09-25T11:35:33Z</time>
      </trkpt>
      <trkpt lat="44.14378" lon="7.22812">
        <ele>1969.1555221476</ele>
        <time>2016-09-25T11:35:47Z</time>
      </trkpt>
      <trkpt lat="44.14383" lon="7.2281">
        <ele>1969.1555221476</ele>
        <time>2016-09-25T11:35:52Z</time>
      </trkpt>
      <trkpt lat="44.14389" lon="7.228">
        <ele>1969.2684288834</ele>
        <time>2016-09-25T11:36:03Z</time>
      </trkpt>
      <trkpt lat="44.14392" lon="7.22797">
        <ele>1969.2684288834</ele>
        <time>2016-09-25T11:36:07Z</time>
      </trkpt>
      <trkpt lat="44.14405" lon="7.2279">
        <ele>1969.8898533879</ele>
        <time>2016-09-25T11:36:17Z</time>
      </trkpt>
      <trkpt lat="44.14409" lon="7.22786">
        <ele>1969.8898533879</ele>
        <time>2016-09-25T11:36:22Z</time>
      </trkpt>
      <trkpt lat="44.14413" lon="7.22773">
        <ele>1970.8342299047</ele>
        <time>2016-09-25T11:36:33Z</time>
      </trkpt>
      <trkpt lat="44.14417" lon="7.22771">
        <ele>1970.8342299047</ele>
        <time>2016-09-25T11:36:37Z</time>
      </trkpt>
      <trkpt lat="44.14428" lon="7.22766">
        <ele>1972.1018962085</ele>
        <time>2016-09-25T11:36:48Z</time>
      </trkpt>
      <trkpt lat="44.14432" lon="7.22759">
        <ele>1972.1018962085</ele>
        <time>2016-09-25T11:36:53Z</time>
      </trkpt>
      <trkpt lat="44.14437" lon="7.22748">
        <ele>1972.8566522157</ele>
        <time>2016-09-25T11:37:02Z</time>
      </trkpt>
      <trkpt lat="44.14446" lon="7.22745">
        <ele>1973.7953314672</ele>
        <time>2016-09-25T11:37:08Z</time>
      </trkpt>
      <trkpt lat="44.1445" lon="7.22732">
        <ele>1975.1741926324</ele>
        <time>2016-09-25T11:37:17Z</time>
      </trkpt>
      <trkpt lat="44.14455" lon="7.22723">
        <ele>1975.1741926324</ele>
        <time>2016-09-25T11:37:23Z</time>
      </trkpt>
      <trkpt lat="44.14464" lon="7.22724">
        <ele>1976.2929382272</ele>
        <time>2016-09-25T11:37:33Z</time>
      </trkpt>
      <trkpt lat="44.14467" lon="7.22726">
        <ele>1976.2929382272</ele>
        <time>2016-09-25T11:37:37Z</time>
      </trkpt>
      <trkpt lat="44.14471" lon="7.22725">
        <ele>1976.2929382272</ele>
        <time>2016-09-25T11:37:48Z</time>
      </trkpt>
      <trkpt lat="44.14475" lon="7.2273">
        <ele>1977.1953985468</ele>
        <time>2016-09-25T11:37:53Z</time>
      </trkpt>
      <trkpt lat="44.14479" lon="7.22731">
        <ele>1977.1953985468</ele>
        <time>2016-09-25T11:37:57Z</time>
      </trkpt>
      <trkpt lat="44.14486" lon="7.22715">
        <ele>1978.4418078773</ele>
        <time>2016-09-25T11:38:09Z</time>
      </trkpt>
      <trkpt lat="44.14487" lon="7.22715">
        <ele>1978.4418078773</ele>
        <time>2016-09-25T11:38:12Z</time>
      </trkpt>
      <trkpt lat="44.14487" lon="7.22714">
        <ele>1978.4418078773</ele>
        <time>2016-09-25T11:38:22Z</time>
      </trkpt>
      <trkpt lat="44.14488" lon="7.2271">
        <ele>1978.4418078773</ele>
        <time>2016-09-25T11:38:28Z</time>
      </trkpt>
      <trkpt lat="44.14494" lon="7.22697">
        <ele>1979.6570041745</ele>
        <time>2016-09-25T11:38:37Z</time>
      </trkpt>
      <trkpt lat="44.14496" lon="7.22688">
        <ele>1979.6570041745</ele>
        <time>2016-09-25T11:38:43Z</time>
      </trkpt>
      <trkpt lat="44.14496" lon="7.22675">
        <ele>1980.8827796207</ele>
        <time>2016-09-25T11:38:53Z</time>
      </trkpt>
      <trkpt lat="44.14496" lon="7.22671">
        <ele>1980.8827796207</ele>
        <time>2016-09-25T11:38:57Z</time>
      </trkpt>
      <trkpt lat="44.14493" lon="7.22654">
        <ele>1981.9995067107</ele>
        <time>2016-09-25T11:39:08Z</time>
      </trkpt>
      <trkpt lat="44.14492" lon="7.22649">
        <ele>1981.9995067107</ele>
        <time>2016-09-25T11:39:12Z</time>
      </trkpt>
      <trkpt lat="44.14489" lon="7.22636">
        <ele>1984.2370847404</ele>
        <time>2016-09-25T11:39:23Z</time>
      </trkpt>
      <trkpt lat="44.14488" lon="7.22632">
        <ele>1984.2370847404</ele>
        <time>2016-09-25T11:39:27Z</time>
      </trkpt>
      <trkpt lat="44.14487" lon="7.22616">
        <ele>1985.8066602975</ele>
        <time>2016-09-25T11:39:42Z</time>
      </trkpt>
      <trkpt lat="44.14489" lon="7.22596">
        <ele>1987.2001116391</ele>
        <time>2016-09-25T11:39:57Z</time>
      </trkpt>
      <trkpt lat="44.1449" lon="7.22587">
        <ele>1987.2001116391</ele>
        <time>2016-09-25T11:40:02Z</time>
      </trkpt>
      <trkpt lat="44.14495" lon="7.22581">
        <ele>1988.1100785714</ele>
        <time>2016-09-25T11:40:08Z</time>
      </trkpt>
      <trkpt lat="44.14496" lon="7.22575">
        <ele>1988.1100785714</ele>
        <time>2016-09-25T11:40:12Z</time>
      </trkpt>
      <trkpt lat="44.14496" lon="7.22567">
        <ele>1988.3109640748</ele>
        <time>2016-09-25T11:40:17Z</time>
      </trkpt>
      <trkpt lat="44.14502" lon="7.22553">
        <ele>1988.3741073271</ele>
        <time>2016-09-25T11:40:28Z</time>
      </trkpt>
      <trkpt lat="44.14502" lon="7.22547">
        <ele>1988.3741073271</ele>
        <time>2016-09-25T11:40:33Z</time>
      </trkpt>
      <trkpt lat="44.1451" lon="7.22541">
        <ele>1987.5900686</ele>
        <time>2016-09-25T11:40:43Z</time>
      </trkpt>
      <trkpt lat="44.14514" lon="7.22539">
        <ele>1987.5900686</ele>
        <time>2016-09-25T11:40:48Z</time>
      </trkpt>
      <trkpt lat="44.14513" lon="7.22529">
        <ele>1986.8892672443</ele>
        <time>2016-09-25T11:40:57Z</time>
      </trkpt>
      <trkpt lat="44.14513" lon="7.22529">
        <ele>1986.8892672443</ele>
        <time>2016-09-25T11:41:03Z</time>
      </trkpt>
      <trkpt lat="44.14513" lon="7.22529">
        <ele>1986.8892672443</ele>
        <time>2016-09-25T11:41:12Z</time>
      </trkpt>
      <trkpt lat="44.14509" lon="7.22527">
        <ele>1986.8892672443</ele>
        <time>2016-09-25T11:41:17Z</time>
      </trkpt>
      <trkpt lat="44.14492" lon="7.22516">
        <ele>1987.9695151421</ele>
        <time>2016-09-25T11:41:28Z</time>
      </trkpt>
      <trkpt lat="44.14486" lon="7.22507">
        <ele>1989.1565219732</ele>
        <time>2016-09-25T11:41:33Z</time>
      </trkpt>
      <trkpt lat="44.14479" lon="7.22501">
        <ele>1989.1565219732</ele>
        <time>2016-09-25T11:41:43Z</time>
      </trkpt>
      <trkpt lat="44.14477" lon="7.22498">
        <ele>1992.1557113644</ele>
        <time>2016-09-25T11:41:48Z</time>
      </trkpt>
      <trkpt lat="44.14476" lon="7.22482">
        <ele>1995.242106476</ele>
        <time>2016-09-25T11:42:03Z</time>
      </trkpt>
      <trkpt lat="44.14477" lon="7.22458">
        <ele>1997.249647467</ele>
        <time>2016-09-25T11:42:17Z</time>
      </trkpt>
      <trkpt lat="44.14476" lon="7.22455">
        <ele>1997.249647467</ele>
        <time>2016-09-25T11:42:22Z</time>
      </trkpt>
      <trkpt lat="44.14475" lon="7.22445">
        <ele>1999.4789118832</ele>
        <time>2016-09-25T11:42:34Z</time>
      </trkpt>
      <trkpt lat="44.14475" lon="7.22441">
        <ele>1999.4789118832</ele>
        <time>2016-09-25T11:42:37Z</time>
      </trkpt>
      <trkpt lat="44.1447" lon="7.22421">
        <ele>2001.3906945974</ele>
        <time>2016-09-25T11:42:48Z</time>
      </trkpt>
      <trkpt lat="44.14471" lon="7.22414">
        <ele>2001.3906945974</ele>
        <time>2016-09-25T11:42:53Z</time>
      </trkpt>
      <trkpt lat="44.1447" lon="7.22411">
        <ele>2001.3906945974</ele>
        <time>2016-09-25T11:43:02Z</time>
      </trkpt>
      <trkpt lat="44.1447" lon="7.2241">
        <ele>2001.3906945974</ele>
        <time>2016-09-25T11:43:08Z</time>
      </trkpt>
      <trkpt lat="44.14472" lon="7.22402">
        <ele>2002.7890502056</ele>
        <time>2016-09-25T11:43:22Z</time>
      </trkpt>
      <trkpt lat="44.14473" lon="7.22386">
        <ele>2003.7822141939</ele>
        <time>2016-09-25T11:43:33Z</time>
      </trkpt>
      <trkpt lat="44.14476" lon="7.2238">
        <ele>2003.7822141939</ele>
        <time>2016-09-25T11:43:37Z</time>
      </trkpt>
      <trkpt lat="44.14477" lon="7.22369">
        <ele>2004.428494151</ele>
        <time>2016-09-25T11:43:42Z</time>
      </trkpt>
      <trkpt lat="44.14482" lon="7.2235">
        <ele>2004.9415219818</ele>
        <time>2016-09-25T11:43:53Z</time>
      </trkpt>
      <trkpt lat="44.14486" lon="7.22347">
        <ele>2004.9415219818</ele>
        <time>2016-09-25T11:43:57Z</time>
      </trkpt>
      <trkpt lat="44.14491" lon="7.22333">
        <ele>2005.548534999</ele>
        <time>2016-09-25T11:44:08Z</time>
      </trkpt>
      <trkpt lat="44.14494" lon="7.22326">
        <ele>2005.548534999</ele>
        <time>2016-09-25T11:44:13Z</time>
      </trkpt>
      <trkpt lat="44.14504" lon="7.22326">
        <ele>2006.2005062571</ele>
        <time>2016-09-25T11:44:22Z</time>
      </trkpt>
      <trkpt lat="44.14512" lon="7.22329">
        <ele>2006.2005062571</ele>
        <time>2016-09-25T11:44:28Z</time>
      </trkpt>
      <trkpt lat="44.14519" lon="7.22317">
        <ele>2006.3763983317</ele>
        <time>2016-09-25T11:44:43Z</time>
      </trkpt>
      <trkpt lat="44.14518" lon="7.22306">
        <ele>2006.3763983317</ele>
        <time>2016-09-25T11:44:57Z</time>
      </trkpt>
      <trkpt lat="44.14519" lon="7.22304">
        <ele>2007.3097784986</ele>
        <time>2016-09-25T11:45:02Z</time>
      </trkpt>
      <trkpt lat="44.1452" lon="7.22296">
        <ele>2007.3097784986</ele>
        <time>2016-09-25T11:45:12Z</time>
      </trkpt>
      <trkpt lat="44.14521" lon="7.22288">
        <ele>2008.4410226406</ele>
        <time>2016-09-25T11:45:17Z</time>
      </trkpt>
      <trkpt lat="44.14524" lon="7.22268">
        <ele>2009.5681609816</ele>
        <time>2016-09-25T11:45:27Z</time>
      </trkpt>
      <trkpt lat="44.14524" lon="7.22261">
        <ele>2009.5681609816</ele>
        <time>2016-09-25T11:45:33Z</time>
      </trkpt>
      <trkpt lat="44.14525" lon="7.2225">
        <ele>2009.9564976711</ele>
        <time>2016-09-25T11:45:42Z</time>
      </trkpt>
      <trkpt lat="44.14527" lon="7.22242">
        <ele>2009.9564976711</ele>
        <time>2016-09-25T11:45:49Z</time>
      </trkpt>
      <trkpt lat="44.14531" lon="7.2224">
        <ele>2010.887334689</ele>
        <time>2016-09-25T11:45:57Z</time>
      </trkpt>
      <trkpt lat="44.14531" lon="7.22232">
        <ele>2010.887334689</ele>
        <time>2016-09-25T11:46:02Z</time>
      </trkpt>
      <trkpt lat="44.14529" lon="7.22216">
        <ele>2011.2982309913</ele>
        <time>2016-09-25T11:46:13Z</time>
      </trkpt>
      <trkpt lat="44.14529" lon="7.2221">
        <ele>2011.2982309913</ele>
        <time>2016-09-25T11:46:17Z</time>
      </trkpt>
      <trkpt lat="44.14529" lon="7.22201">
        <ele>2012.0509036458</ele>
        <time>2016-09-25T11:46:29Z</time>
      </trkpt>
      <trkpt lat="44.14529" lon="7.22201">
        <ele>2012.0509036458</ele>
        <time>2016-09-25T11:46:33Z</time>
      </trkpt>
      <trkpt lat="44.14529" lon="7.22201">
        <ele>2012.0509036458</ele>
        <time>2016-09-25T11:46:37Z</time>
      </trkpt>
      <trkpt lat="44.14522" lon="7.22182">
        <ele>2012.9917000606</ele>
        <time>2016-09-25T11:46:48Z</time>
      </trkpt>
      <trkpt lat="44.1452" lon="7.22168">
        <ele>2014.2659689091</ele>
        <time>2016-09-25T11:46:53Z</time>
      </trkpt>
      <trkpt lat="44.14509" lon="7.22154">
        <ele>2016.5694974278</ele>
        <time>2016-09-25T11:47:03Z</time>
      </trkpt>
      <trkpt lat="44.14503" lon="7.22156">
        <ele>2016.5694974278</ele>
        <time>2016-09-25T11:47:08Z</time>
      </trkpt>
      <trkpt lat="44.14493" lon="7.22158">
        <ele>2019.7947158897</ele>
        <time>2016-09-25T11:47:17Z</time>
      </trkpt>
      <trkpt lat="44.14495" lon="7.22151">
        <ele>2019.7947158897</ele>
        <time>2016-09-25T11:47:23Z</time>
      </trkpt>
      <trkpt lat="44.14498" lon="7.22144">
        <ele>2021.8794845815</ele>
        <time>2016-09-25T11:47:32Z</time>
      </trkpt>
      <trkpt lat="44.14502" lon="7.22139">
        <ele>2021.8794845815</ele>
        <time>2016-09-25T11:47:37Z</time>
      </trkpt>
      <trkpt lat="44.14504" lon="7.22112">
        <ele>2022.9339339827</ele>
        <time>2016-09-25T11:47:48Z</time>
      </trkpt>
      <trkpt lat="44.14504" lon="7.22101">
        <ele>2022.9339339827</ele>
        <time>2016-09-25T11:47:53Z</time>
      </trkpt>
      <trkpt lat="44.14508" lon="7.22085">
        <ele>2024.403264868</ele>
        <time>2016-09-25T11:48:03Z</time>
      </trkpt>
      <trkpt lat="44.1451" lon="7.2208">
        <ele>2024.403264868</ele>
        <time>2016-09-25T11:48:08Z</time>
      </trkpt>
      <trkpt lat="44.14514" lon="7.22066">
        <ele>2025.1178532886</ele>
        <time>2016-09-25T11:48:22Z</time>
      </trkpt>
      <trkpt lat="44.14518" lon="7.2205">
        <ele>2025.941647318</ele>
        <time>2016-09-25T11:48:33Z</time>
      </trkpt>
      <trkpt lat="44.1452" lon="7.22045">
        <ele>2025.941647318</ele>
        <time>2016-09-25T11:48:37Z</time>
      </trkpt>
      <trkpt lat="44.14522" lon="7.22038">
        <ele>2026.8390082466</ele>
        <time>2016-09-25T11:48:42Z</time>
      </trkpt>
      <trkpt lat="44.14526" lon="7.22027">
        <ele>2027.9929006278</ele>
        <time>2016-09-25T11:48:53Z</time>
      </trkpt>
      <trkpt lat="44.14528" lon="7.22023">
        <ele>2027.9929006278</ele>
        <time>2016-09-25T11:48:57Z</time>
      </trkpt>
      <trkpt lat="44.14529" lon="7.22005">
        <ele>2028.6786591428</ele>
        <time>2016-09-25T11:49:08Z</time>
      </trkpt>
      <trkpt lat="44.14531" lon="7.21998">
        <ele>2028.6786591428</ele>
        <time>2016-09-25T11:49:13Z</time>
      </trkpt>
      <trkpt lat="44.14536" lon="7.21987">
        <ele>2030.1860931158</ele>
        <time>2016-09-25T11:49:22Z</time>
      </trkpt>
      <trkpt lat="44.14538" lon="7.2198">
        <ele>2030.1860931158</ele>
        <time>2016-09-25T11:49:28Z</time>
      </trkpt>
      <trkpt lat="44.14543" lon="7.21973">
        <ele>2031.805704553</ele>
        <time>2016-09-25T11:49:37Z</time>
      </trkpt>
      <trkpt lat="44.14545" lon="7.21966">
        <ele>2031.805704553</ele>
        <time>2016-09-25T11:49:42Z</time>
      </trkpt>
      <trkpt lat="44.14549" lon="7.21956">
        <ele>2033.2689128189</ele>
        <time>2016-09-25T11:49:52Z</time>
      </trkpt>
      <trkpt lat="44.14548" lon="7.21946">
        <ele>2033.2689128189</ele>
        <time>2016-09-25T11:49:57Z</time>
      </trkpt>
      <trkpt lat="44.14555" lon="7.21926">
        <ele>2034.327317611</ele>
        <time>2016-09-25T11:50:09Z</time>
      </trkpt>
      <trkpt lat="44.14556" lon="7.21919">
        <ele>2034.327317611</ele>
        <time>2016-09-25T11:50:12Z</time>
      </trkpt>
      <trkpt lat="44.14562" lon="7.21904">
        <ele>2035.7462807432</ele>
        <time>2016-09-25T11:50:23Z</time>
      </trkpt>
      <trkpt lat="44.14569" lon="7.21903">
        <ele>2035.7462807432</ele>
        <time>2016-09-25T11:50:28Z</time>
      </trkpt>
      <trkpt lat="44.14574" lon="7.21891">
        <ele>2037.0234073788</ele>
        <time>2016-09-25T11:50:37Z</time>
      </trkpt>
      <trkpt lat="44.14579" lon="7.21888">
        <ele>2037.0234073788</ele>
        <time>2016-09-25T11:50:43Z</time>
      </trkpt>
      <trkpt lat="44.14584" lon="7.21879">
        <ele>2038.2988838002</ele>
        <time>2016-09-25T11:50:53Z</time>
      </trkpt>
      <trkpt lat="44.14586" lon="7.21873">
        <ele>2038.2988838002</ele>
        <time>2016-09-25T11:50:57Z</time>
      </trkpt>
      <trkpt lat="44.1459" lon="7.2186">
        <ele>2038.6938328795</ele>
        <time>2016-09-25T11:51:08Z</time>
      </trkpt>
      <trkpt lat="44.14591" lon="7.21852">
        <ele>2038.6938328795</ele>
        <time>2016-09-25T11:51:12Z</time>
      </trkpt>
      <trkpt lat="44.14592" lon="7.21846">
        <ele>2038.6357694221</ele>
        <time>2016-09-25T11:51:17Z</time>
      </trkpt>
      <trkpt lat="44.14597" lon="7.21833">
        <ele>2038.291493209</ele>
        <time>2016-09-25T11:51:29Z</time>
      </trkpt>
      <trkpt lat="44.146" lon="7.21829">
        <ele>2038.291493209</ele>
        <time>2016-09-25T11:51:33Z</time>
      </trkpt>
      <trkpt lat="44.14605" lon="7.21819">
        <ele>2037.672229766</ele>
        <time>2016-09-25T11:51:42Z</time>
      </trkpt>
      <trkpt lat="44.14606" lon="7.21813">
        <ele>2037.672229766</ele>
        <time>2016-09-25T11:51:48Z</time>
      </trkpt>
      <trkpt lat="44.14603" lon="7.21812">
        <ele>2037.672229766</ele>
        <time>2016-09-25T11:51:57Z</time>
      </trkpt>
      <trkpt lat="44.14601" lon="7.21811">
        <ele>2037.8555502217</ele>
        <time>2016-09-25T11:52:02Z</time>
      </trkpt>
      <trkpt lat="44.14601" lon="7.2181">
        <ele>2037.8555502217</ele>
        <time>2016-09-25T11:52:07Z</time>
      </trkpt>
      <trkpt lat="44.14601" lon="7.21809">
        <ele>2037.8555502217</ele>
        <time>2016-09-25T11:52:12Z</time>
      </trkpt>
      <trkpt lat="44.14601" lon="7.21809">
        <ele>2037.8555502217</ele>
        <time>2016-09-25T11:52:17Z</time>
      </trkpt>
      <trkpt lat="44.14601" lon="7.21809">
        <ele>2037.8555502217</ele>
        <time>2016-09-25T11:52:22Z</time>
      </trkpt>
      <trkpt lat="44.14601" lon="7.21809">
        <ele>2037.8555502217</ele>
        <time>2016-09-25T11:52:27Z</time>
      </trkpt>
      <trkpt lat="44.14601" lon="7.21809">
        <ele>2037.8555502217</ele>
        <time>2016-09-25T11:52:32Z</time>
      </trkpt>
      <trkpt lat="44.14601" lon="7.21809">
        <ele>2037.8555502217</ele>
        <time>2016-09-25T11:52:37Z</time>
      </trkpt>
      <trkpt lat="44.14601" lon="7.21809">
        <ele>2037.8555502217</ele>
        <time>2016-09-25T11:52:42Z</time>
      </trkpt>
      <trkpt lat="44.14601" lon="7.21809">
        <ele>2037.8555502217</ele>
        <time>2016-09-25T11:52:47Z</time>
      </trkpt>
      <trkpt lat="44.14601" lon="7.21809">
        <ele>2037.8555502217</ele>
        <time>2016-09-25T11:52:52Z</time>
      </trkpt>
      <trkpt lat="44.14602" lon="7.21808">
        <ele>2037.8555502217</ele>
        <time>2016-09-25T11:52:57Z</time>
      </trkpt>
      <trkpt lat="44.14605" lon="7.21796">
        <ele>2038.1226592961</ele>
        <time>2016-09-25T11:53:07Z</time>
      </trkpt>
      <trkpt lat="44.14608" lon="7.21789">
        <ele>2038.1226592961</ele>
        <time>2016-09-25T11:53:12Z</time>
      </trkpt>
      <trkpt lat="44.14611" lon="7.21775">
        <ele>2037.9081628701</ele>
        <time>2016-09-25T11:53:22Z</time>
      </trkpt>
      <trkpt lat="44.14612" lon="7.21769">
        <ele>2037.9081628701</ele>
        <time>2016-09-25T11:53:27Z</time>
      </trkpt>
      <trkpt lat="44.14614" lon="7.2175">
        <ele>2038.4188348014</ele>
        <time>2016-09-25T11:53:38Z</time>
      </trkpt>
      <trkpt lat="44.14615" lon="7.21743">
        <ele>2038.4188348014</ele>
        <time>2016-09-25T11:53:43Z</time>
      </trkpt>
      <trkpt lat="44.14615" lon="7.21747">
        <ele>2038.4188348014</ele>
        <time>2016-09-25T11:53:59Z</time>
      </trkpt>
      <trkpt lat="44.14619" lon="7.21735">
        <ele>2038.0470077703</ele>
        <time>2016-09-25T11:54:12Z</time>
      </trkpt>
      <trkpt lat="44.14634" lon="7.21712">
        <ele>2038.2021606466</ele>
        <time>2016-09-25T11:54:28Z</time>
      </trkpt>
      <trkpt lat="44.1464" lon="7.21711">
        <ele>2038.2021606466</ele>
        <time>2016-09-25T11:54:32Z</time>
      </trkpt>
      <trkpt lat="44.14646" lon="7.21697">
        <ele>2038.8628653749</ele>
        <time>2016-09-25T11:54:43Z</time>
      </trkpt>
      <trkpt lat="44.14649" lon="7.21695">
        <ele>2038.8628653749</ele>
        <time>2016-09-25T11:54:48Z</time>
      </trkpt>
      <trkpt lat="44.1465" lon="7.21699">
        <ele>2038.8628653749</ele>
        <time>2016-09-25T11:54:58Z</time>
      </trkpt>
      <trkpt lat="44.14648" lon="7.21697">
        <ele>2038.8628653749</ele>
        <time>2016-09-25T11:55:03Z</time>
      </trkpt>
      <trkpt lat="44.14638" lon="7.21694">
        <ele>2039.6042696319</ele>
        <time>2016-09-25T11:55:12Z</time>
      </trkpt>
      <trkpt lat="44.14631" lon="7.21693">
        <ele>2039.6042696319</ele>
        <time>2016-09-25T11:55:18Z</time>
      </trkpt>
      <trkpt lat="44.14629" lon="7.21692">
        <ele>2039.6042696319</ele>
        <time>2016-09-25T11:55:28Z</time>
      </trkpt>
      <trkpt lat="44.14628" lon="7.21687">
        <ele>2038.5480859953</ele>
        <time>2016-09-25T11:55:32Z</time>
      </trkpt>
      <trkpt lat="44.14627" lon="7.21662">
        <ele>2038.1526064852</ele>
        <time>2016-09-25T11:55:43Z</time>
      </trkpt>
      <trkpt lat="44.14627" lon="7.21652">
        <ele>2038.1526064852</ele>
        <time>2016-09-25T11:55:48Z</time>
      </trkpt>
      <trkpt lat="44.14627" lon="7.21637">
        <ele>2037.6960918802</ele>
        <time>2016-09-25T11:55:57Z</time>
      </trkpt>
      <trkpt lat="44.14628" lon="7.21628">
        <ele>2037.6960918802</ele>
        <time>2016-09-25T11:56:03Z</time>
      </trkpt>
      <trkpt lat="44.14628" lon="7.21607">
        <ele>2037.7780848392</ele>
        <time>2016-09-25T11:56:17Z</time>
      </trkpt>
      <trkpt lat="44.1463" lon="7.21595">
        <ele>2037.7780848392</ele>
        <time>2016-09-25T11:56:28Z</time>
      </trkpt>
      <trkpt lat="44.14629" lon="7.21589">
        <ele>2038.1886953557</ele>
        <time>2016-09-25T11:56:32Z</time>
      </trkpt>
      <trkpt lat="44.1463" lon="7.21584">
        <ele>2038.1886953557</ele>
        <time>2016-09-25T11:56:37Z</time>
      </trkpt>
      <trkpt lat="44.14629" lon="7.21575">
        <ele>2038.1704032333</ele>
        <time>2016-09-25T11:56:43Z</time>
      </trkpt>
      <trkpt lat="44.14629" lon="7.21567">
        <ele>2038.1704032333</ele>
        <time>2016-09-25T11:56:48Z</time>
      </trkpt>
      <trkpt lat="44.14629" lon="7.21562">
        <ele>2038.4203232248</ele>
        <time>2016-09-25T11:56:52Z</time>
      </trkpt>
      <trkpt lat="44.14629" lon="7.21545">
        <ele>2038.5603257937</ele>
        <time>2016-09-25T11:57:03Z</time>
      </trkpt>
      <trkpt lat="44.14629" lon="7.21538">
        <ele>2038.5603257937</ele>
        <time>2016-09-25T11:57:08Z</time>
      </trkpt>
      <trkpt lat="44.14631" lon="7.21525">
        <ele>2038.9031865249</ele>
        <time>2016-09-25T11:57:17Z</time>
      </trkpt>
      <trkpt lat="44.14633" lon="7.21517">
        <ele>2038.9031865249</ele>
        <time>2016-09-25T11:57:23Z</time>
      </trkpt>
      <trkpt lat="44.14634" lon="7.21506">
        <ele>2040.415369732</ele>
        <time>2016-09-25T11:57:32Z</time>
      </trkpt>
      <trkpt lat="44.14635" lon="7.215">
        <ele>2040.415369732</ele>
        <time>2016-09-25T11:57:37Z</time>
      </trkpt>
      <trkpt lat="44.14636" lon="7.21482">
        <ele>2041.164400519</ele>
        <time>2016-09-25T11:57:48Z</time>
      </trkpt>
      <trkpt lat="44.14638" lon="7.21477">
        <ele>2041.164400519</ele>
        <time>2016-09-25T11:57:52Z</time>
      </trkpt>
      <trkpt lat="44.14642" lon="7.21459">
        <ele>2041.2352689466</ele>
        <time>2016-09-25T11:58:03Z</time>
      </trkpt>
      <trkpt lat="44.14643" lon="7.21452">
        <ele>2041.2352689466</ele>
        <time>2016-09-25T11:58:08Z</time>
      </trkpt>
      <trkpt lat="44.14647" lon="7.21431">
        <ele>2041.1697047738</ele>
        <time>2016-09-25T11:58:22Z</time>
      </trkpt>
      <trkpt lat="44.14651" lon="7.21409">
        <ele>2041.2537864602</ele>
        <time>2016-09-25T11:58:37Z</time>
      </trkpt>
      <trkpt lat="44.14659" lon="7.21397">
        <ele>2041.5215083752</ele>
        <time>2016-09-25T11:58:48Z</time>
      </trkpt>
      <trkpt lat="44.14658" lon="7.21393">
        <ele>2041.5215083752</ele>
        <time>2016-09-25T11:58:52Z</time>
      </trkpt>
      <trkpt lat="44.14659" lon="7.21385">
        <ele>2042.2631825488</ele>
        <time>2016-09-25T11:58:57Z</time>
      </trkpt>
      <trkpt lat="44.14663" lon="7.21366">
        <ele>2043.1411310013</ele>
        <time>2016-09-25T11:59:08Z</time>
      </trkpt>
      <trkpt lat="44.14667" lon="7.21361">
        <ele>2043.1411310013</ele>
        <time>2016-09-25T11:59:12Z</time>
      </trkpt>
      <trkpt lat="44.1467" lon="7.21345">
        <ele>2044.4905371858</ele>
        <time>2016-09-25T11:59:24Z</time>
      </trkpt>
      <trkpt lat="44.14675" lon="7.21342">
        <ele>2044.4905371858</ele>
        <time>2016-09-25T11:59:28Z</time>
      </trkpt>
      <trkpt lat="44.14681" lon="7.21333">
        <ele>2046.4188299454</ele>
        <time>2016-09-25T11:59:37Z</time>
      </trkpt>
      <trkpt lat="44.14686" lon="7.21331">
        <ele>2046.4188299454</ele>
        <time>2016-09-25T11:59:44Z</time>
      </trkpt>
      <trkpt lat="44.1469" lon="7.21325">
        <ele>2048.2168560761</ele>
        <time>2016-09-25T11:59:52Z</time>
      </trkpt>
      <trkpt lat="44.14693" lon="7.21318">
        <ele>2048.2168560761</ele>
        <time>2016-09-25T11:59:57Z</time>
      </trkpt>
      <trkpt lat="44.147" lon="7.213">
        <ele>2049.905211787</ele>
        <time>2016-09-25T12:00:08Z</time>
      </trkpt>
      <trkpt lat="44.14701" lon="7.21293">
        <ele>2049.905211787</ele>
        <time>2016-09-25T12:00:12Z</time>
      </trkpt>
      <trkpt lat="44.14707" lon="7.21283">
        <ele>2052.1950021524</ele>
        <time>2016-09-25T12:00:23Z</time>
      </trkpt>
      <trkpt lat="44.14711" lon="7.2128">
        <ele>2052.1950021524</ele>
        <time>2016-09-25T12:00:28Z</time>
      </trkpt>
      <trkpt lat="44.14712" lon="7.21275">
        <ele>2052.1950021524</ele>
        <time>2016-09-25T12:00:32Z</time>
      </trkpt>
      <trkpt lat="44.14713" lon="7.21264">
        <ele>2053.1638093458</ele>
        <time>2016-09-25T12:00:38Z</time>
      </trkpt>
      <trkpt lat="44.14715" lon="7.21257">
        <ele>2053.1638093458</ele>
        <time>2016-09-25T12:00:43Z</time>
      </trkpt>
      <trkpt lat="44.14719" lon="7.21244">
        <ele>2054.3054655041</ele>
        <time>2016-09-25T12:00:58Z</time>
      </trkpt>
      <trkpt lat="44.14717" lon="7.21228">
        <ele>2055.7210013332</ele>
        <time>2016-09-25T12:01:12Z</time>
      </trkpt>
      <trkpt lat="44.14716" lon="7.2122">
        <ele>2055.7210013332</ele>
        <time>2016-09-25T12:01:17Z</time>
      </trkpt>
      <trkpt lat="44.14717" lon="7.21201">
        <ele>2056.9844720853</ele>
        <time>2016-09-25T12:01:29Z</time>
      </trkpt>
      <trkpt lat="44.14717" lon="7.21195">
        <ele>2056.9844720853</ele>
        <time>2016-09-25T12:01:32Z</time>
      </trkpt>
      <trkpt lat="44.14719" lon="7.21178">
        <ele>2058.3789909372</ele>
        <time>2016-09-25T12:01:43Z</time>
      </trkpt>
      <trkpt lat="44.14719" lon="7.21171">
        <ele>2058.3789909372</ele>
        <time>2016-09-25T12:01:48Z</time>
      </trkpt>
      <trkpt lat="44.14722" lon="7.2116">
        <ele>2059.5468516351</ele>
        <time>2016-09-25T12:01:57Z</time>
      </trkpt>
      <trkpt lat="44.14724" lon="7.21154">
        <ele>2059.5468516351</ele>
        <time>2016-09-25T12:02:03Z</time>
      </trkpt>
      <trkpt lat="44.14723" lon="7.21138">
        <ele>2061.0651891292</ele>
        <time>2016-09-25T12:02:12Z</time>
      </trkpt>
      <trkpt lat="44.14723" lon="7.21129">
        <ele>2061.0651891292</ele>
        <time>2016-09-25T12:02:17Z</time>
      </trkpt>
      <trkpt lat="44.14725" lon="7.21114">
        <ele>2061.796100609</ele>
        <time>2016-09-25T12:02:28Z</time>
      </trkpt>
      <trkpt lat="44.14726" lon="7.2111">
        <ele>2061.796100609</ele>
        <time>2016-09-25T12:02:32Z</time>
      </trkpt>
      <trkpt lat="44.14733" lon="7.21099">
        <ele>2063.2526947949</ele>
        <time>2016-09-25T12:02:43Z</time>
      </trkpt>
      <trkpt lat="44.14734" lon="7.21094">
        <ele>2063.2526947949</ele>
        <time>2016-09-25T12:02:48Z</time>
      </trkpt>
      <trkpt lat="44.14736" lon="7.21091">
        <ele>2063.2526947949</ele>
        <time>2016-09-25T12:02:52Z</time>
      </trkpt>
      <trkpt lat="44.1474" lon="7.21085">
        <ele>2064.2409274741</ele>
        <time>2016-09-25T12:02:58Z</time>
      </trkpt>
      <trkpt lat="44.14743" lon="7.21079">
        <ele>2064.2409274741</ele>
        <time>2016-09-25T12:03:03Z</time>
      </trkpt>
      <trkpt lat="44.14746" lon="7.21072">
        <ele>2065.3275089992</ele>
        <time>2016-09-25T12:03:07Z</time>
      </trkpt>
      <trkpt lat="44.14755" lon="7.21063">
        <ele>2066.9652271289</ele>
        <time>2016-09-25T12:03:18Z</time>
      </trkpt>
      <trkpt lat="44.14759" lon="7.21059">
        <ele>2066.9652271289</ele>
        <time>2016-09-25T12:03:22Z</time>
      </trkpt>
      <trkpt lat="44.14764" lon="7.21056">
        <ele>2068.5200919179</ele>
        <time>2016-09-25T12:03:27Z</time>
      </trkpt>
      <trkpt lat="44.14768" lon="7.21053">
        <ele>2068.5200919179</ele>
        <time>2016-09-25T12:03:32Z</time>
      </trkpt>
      <trkpt lat="44.14773" lon="7.21052">
        <ele>2070.2408074843</ele>
        <time>2016-09-25T12:03:37Z</time>
      </trkpt>
      <trkpt lat="44.14774" lon="7.21052">
        <ele>2070.2408074843</ele>
        <time>2016-09-25T12:03:42Z</time>
      </trkpt>
      <trkpt lat="44.14774" lon="7.21052">
        <ele>2070.2408074843</ele>
        <time>2016-09-25T12:03:47Z</time>
      </trkpt>
      <trkpt lat="44.14778" lon="7.21047">
        <ele>2070.2408074843</ele>
        <time>2016-09-25T12:03:58Z</time>
      </trkpt>
      <trkpt lat="44.14781" lon="7.2104">
        <ele>2071.9106464985</ele>
        <time>2016-09-25T12:04:03Z</time>
      </trkpt>
      <trkpt lat="44.14793" lon="7.21037">
        <ele>2072.7237288858</ele>
        <time>2016-09-25T12:04:12Z</time>
      </trkpt>
      <trkpt lat="44.14802" lon="7.21038">
        <ele>2072.7237288858</ele>
        <time>2016-09-25T12:04:18Z</time>
      </trkpt>
      <trkpt lat="44.14812" lon="7.21033">
        <ele>2072.4978613029</ele>
        <time>2016-09-25T12:04:28Z</time>
      </trkpt>
      <trkpt lat="44.14816" lon="7.21032">
        <ele>2072.4978613029</ele>
        <time>2016-09-25T12:04:32Z</time>
      </trkpt>
      <trkpt lat="44.14831" lon="7.21031">
        <ele>2073.4162093724</ele>
        <time>2016-09-25T12:04:43Z</time>
      </trkpt>
      <trkpt lat="44.14835" lon="7.21029">
        <ele>2073.4162093724</ele>
        <time>2016-09-25T12:04:48Z</time>
      </trkpt>
      <trkpt lat="44.14837" lon="7.21028">
        <ele>2073.4162093724</ele>
        <time>2016-09-25T12:04:52Z</time>
      </trkpt>
      <trkpt lat="44.14848" lon="7.2103">
        <ele>2074.8179324373</ele>
        <time>2016-09-25T12:05:03Z</time>
      </trkpt>
      <trkpt lat="44.14853" lon="7.21031">
        <ele>2074.8179324373</ele>
        <time>2016-09-25T12:05:08Z</time>
      </trkpt>
      <trkpt lat="44.14858" lon="7.21032">
        <ele>2076.1902985492</ele>
        <time>2016-09-25T12:05:18Z</time>
      </trkpt>
      <trkpt lat="44.14859" lon="7.21034">
        <ele>2076.1902985492</ele>
        <time>2016-09-25T12:05:22Z</time>
      </trkpt>
      <trkpt lat="44.14873" lon="7.21043">
        <ele>2077.2889409796</ele>
        <time>2016-09-25T12:05:32Z</time>
      </trkpt>
      <trkpt lat="44.14881" lon="7.21049">
        <ele>2077.2889409796</ele>
        <time>2016-09-25T12:05:38Z</time>
      </trkpt>
      <trkpt lat="44.14894" lon="7.21057">
        <ele>2077.9603069533</ele>
        <time>2016-09-25T12:05:48Z</time>
      </trkpt>
      <trkpt lat="44.14897" lon="7.21058">
        <ele>2077.9603069533</ele>
        <time>2016-09-25T12:05:52Z</time>
      </trkpt>
      <trkpt lat="44.14903" lon="7.21056">
        <ele>2077.9603069533</ele>
        <time>2016-09-25T12:06:03Z</time>
      </trkpt>
      <trkpt lat="44.14906" lon="7.21056">
        <ele>2078.9712614587</ele>
        <time>2016-09-25T12:06:07Z</time>
      </trkpt>
      <trkpt lat="44.14918" lon="7.21048">
        <ele>2080.3108653469</ele>
        <time>2016-09-25T12:06:17Z</time>
      </trkpt>
      <trkpt lat="44.14925" lon="7.2104">
        <ele>2081.5501751254</ele>
        <time>2016-09-25T12:06:23Z</time>
      </trkpt>
      <trkpt lat="44.14941" lon="7.21026">
        <ele>2082.4505959564</ele>
        <time>2016-09-25T12:06:38Z</time>
      </trkpt>
      <trkpt lat="44.14951" lon="7.21007">
        <ele>2082.9505665055</ele>
        <time>2016-09-25T12:06:52Z</time>
      </trkpt>
      <trkpt lat="44.14959" lon="7.20996">
        <ele>2083.7868140311</ele>
        <time>2016-09-25T12:07:03Z</time>
      </trkpt>
      <trkpt lat="44.14965" lon="7.20993">
        <ele>2083.7868140311</ele>
        <time>2016-09-25T12:07:07Z</time>
      </trkpt>
      <trkpt lat="44.1497" lon="7.2099">
        <ele>2084.4160860515</ele>
        <time>2016-09-25T12:07:12Z</time>
      </trkpt>
      <trkpt lat="44.1498" lon="7.20986">
        <ele>2085.3444203683</ele>
        <time>2016-09-25T12:07:23Z</time>
      </trkpt>
      <trkpt lat="44.14985" lon="7.20982">
        <ele>2085.3444203683</ele>
        <time>2016-09-25T12:07:28Z</time>
      </trkpt>
      <trkpt lat="44.14989" lon="7.2098">
        <ele>2085.7572734924</ele>
        <time>2016-09-25T12:07:37Z</time>
      </trkpt>
      <trkpt lat="44.1499" lon="7.20979">
        <ele>2085.7572734924</ele>
        <time>2016-09-25T12:07:43Z</time>
      </trkpt>
      <trkpt lat="44.14992" lon="7.20981">
        <ele>2085.7572734924</ele>
        <time>2016-09-25T12:07:52Z</time>
      </trkpt>
      <trkpt lat="44.14992" lon="7.20981">
        <ele>2085.7572734924</ele>
        <time>2016-09-25T12:07:57Z</time>
      </trkpt>
      <trkpt lat="44.14999" lon="7.20977">
        <ele>2086.0398782074</ele>
        <time>2016-09-25T12:08:07Z</time>
      </trkpt>
      <trkpt lat="44.15005" lon="7.20974">
        <ele>2086.0398782074</ele>
        <time>2016-09-25T12:08:12Z</time>
      </trkpt>
      <trkpt lat="44.15022" lon="7.20967">
        <ele>2085.7136991349</ele>
        <time>2016-09-25T12:08:23Z</time>
      </trkpt>
      <trkpt lat="44.15027" lon="7.20962">
        <ele>2085.7136991349</ele>
        <time>2016-09-25T12:08:28Z</time>
      </trkpt>
      <trkpt lat="44.15035" lon="7.20946">
        <ele>2085.9655218329</ele>
        <time>2016-09-25T12:08:37Z</time>
      </trkpt>
      <trkpt lat="44.15041" lon="7.20939">
        <ele>2085.9655218329</ele>
        <time>2016-09-25T12:08:43Z</time>
      </trkpt>
      <trkpt lat="44.15053" lon="7.20925">
        <ele>2085.342557504</ele>
        <time>2016-09-25T12:08:59Z</time>
      </trkpt>
      <trkpt lat="44.1506" lon="7.20907">
        <ele>2084.158455783</ele>
        <time>2016-09-25T12:09:12Z</time>
      </trkpt>
      <trkpt lat="44.15065" lon="7.2089">
        <ele>2083.5844523409</ele>
        <time>2016-09-25T12:09:27Z</time>
      </trkpt>
      <trkpt lat="44.15065" lon="7.20889">
        <ele>2083.5844523409</ele>
        <time>2016-09-25T12:09:32Z</time>
      </trkpt>
      <trkpt lat="44.1507" lon="7.20876">
        <ele>2082.7729062081</ele>
        <time>2016-09-25T12:09:43Z</time>
      </trkpt>
      <trkpt lat="44.15072" lon="7.2087">
        <ele>2082.7729062081</ele>
        <time>2016-09-25T12:09:47Z</time>
      </trkpt>
      <trkpt lat="44.15078" lon="7.20856">
        <ele>2082.2504730142</ele>
        <time>2016-09-25T12:09:58Z</time>
      </trkpt>
      <trkpt lat="44.1508" lon="7.20849">
        <ele>2082.2504730142</ele>
        <time>2016-09-25T12:10:03Z</time>
      </trkpt>
      <trkpt lat="44.15083" lon="7.20836">
        <ele>2080.9046155357</ele>
        <time>2016-09-25T12:10:12Z</time>
      </trkpt>
      <trkpt lat="44.15085" lon="7.20828">
        <ele>2080.9046155357</ele>
        <time>2016-09-25T12:10:17Z</time>
      </trkpt>
      <trkpt lat="44.15086" lon="7.20809">
        <ele>2079.3352180314</ele>
        <time>2016-09-25T12:10:28Z</time>
      </trkpt>
      <trkpt lat="44.15086" lon="7.20803">
        <ele>2079.3352180314</ele>
        <time>2016-09-25T12:10:32Z</time>
      </trkpt>
      <trkpt lat="44.15088" lon="7.20783">
        <ele>2078.5886215042</ele>
        <time>2016-09-25T12:10:43Z</time>
      </trkpt>
      <trkpt lat="44.15087" lon="7.20778">
        <ele>2078.5886215042</ele>
        <time>2016-09-25T12:10:47Z</time>
      </trkpt>
      <trkpt lat="44.15087" lon="7.20763">
        <ele>2078.3204934308</ele>
        <time>2016-09-25T12:10:58Z</time>
      </trkpt>
      <trkpt lat="44.15087" lon="7.20755">
        <ele>2078.3204934308</ele>
        <time>2016-09-25T12:11:03Z</time>
      </trkpt>
      <trkpt lat="44.15088" lon="7.20737">
        <ele>2077.893311329</ele>
        <time>2016-09-25T12:11:18Z</time>
      </trkpt>
      <trkpt lat="44.15087" lon="7.2071">
        <ele>2077.8119742707</ele>
        <time>2016-09-25T12:11:32Z</time>
      </trkpt>
      <trkpt lat="44.15084" lon="7.20698">
        <ele>2077.8119742707</ele>
        <time>2016-09-25T12:11:38Z</time>
      </trkpt>
      <trkpt lat="44.1508" lon="7.20686">
        <ele>2077.8226632313</ele>
        <time>2016-09-25T12:11:48Z</time>
      </trkpt>
      <trkpt lat="44.15079" lon="7.2068">
        <ele>2077.8226632313</ele>
        <time>2016-09-25T12:11:52Z</time>
      </trkpt>
      <trkpt lat="44.15074" lon="7.2067">
        <ele>2077.7330777258</ele>
        <time>2016-09-25T12:12:03Z</time>
      </trkpt>
      <trkpt lat="44.15073" lon="7.2067">
        <ele>2077.7330777258</ele>
        <time>2016-09-25T12:12:07Z</time>
      </trkpt>
      <trkpt lat="44.15073" lon="7.2067">
        <ele>2077.7330777258</ele>
        <time>2016-09-25T12:12:18Z</time>
      </trkpt>
      <trkpt lat="44.15073" lon="7.2067">
        <ele>2077.7330777258</ele>
        <time>2016-09-25T12:12:23Z</time>
      </trkpt>
      <trkpt lat="44.15071" lon="7.20662">
        <ele>2077.7330777258</ele>
        <time>2016-09-25T12:12:32Z</time>
      </trkpt>
      <trkpt lat="44.15068" lon="7.20652">
        <ele>2076.9328893014</ele>
        <time>2016-09-25T12:12:37Z</time>
      </trkpt>
      <trkpt lat="44.15065" lon="7.20643">
        <ele>2076.9328893014</ele>
        <time>2016-09-25T12:12:42Z</time>
      </trkpt>
      <trkpt lat="44.15063" lon="7.20638">
        <ele>2076.1554956173</ele>
        <time>2016-09-25T12:12:47Z</time>
      </trkpt>
      <trkpt lat="44.15063" lon="7.20636">
        <ele>2076.1554956173</ele>
        <time>2016-09-25T12:12:52Z</time>
      </trkpt>
      <trkpt lat="44.15061" lon="7.20628">
        <ele>2076.1554956173</ele>
        <time>2016-09-25T12:12:58Z</time>
      </trkpt>
      <trkpt lat="44.15049" lon="7.20611">
        <ele>2075.4605740028</ele>
        <time>2016-09-25T12:13:12Z</time>
      </trkpt>
      <trkpt lat="44.15042" lon="7.206">
        <ele>2074.8310254992</ele>
        <time>2016-09-25T12:13:28Z</time>
      </trkpt>
      <trkpt lat="44.1504" lon="7.20597">
        <ele>2074.8310254992</ele>
        <time>2016-09-25T12:13:32Z</time>
      </trkpt>
      <trkpt lat="44.15028" lon="7.20574">
        <ele>2074.5101167258</ele>
        <time>2016-09-25T12:13:43Z</time>
      </trkpt>
      <trkpt lat="44.15025" lon="7.20564">
        <ele>2074.5101167258</ele>
        <time>2016-09-25T12:13:47Z</time>
      </trkpt>
      <trkpt lat="44.15019" lon="7.20545">
        <ele>2073.1226347153</ele>
        <time>2016-09-25T12:13:58Z</time>
      </trkpt>
      <trkpt lat="44.15015" lon="7.20534">
        <ele>2073.1226347153</ele>
        <time>2016-09-25T12:14:03Z</time>
      </trkpt>
      <trkpt lat="44.1501" lon="7.20518">
        <ele>2072.0921483127</ele>
        <time>2016-09-25T12:14:12Z</time>
      </trkpt>
      <trkpt lat="44.15007" lon="7.20508">
        <ele>2072.0921483127</ele>
        <time>2016-09-25T12:14:18Z</time>
      </trkpt>
      <trkpt lat="44.15003" lon="7.20493">
        <ele>2071.3242476522</ele>
        <time>2016-09-25T12:14:27Z</time>
      </trkpt>
      <trkpt lat="44.15003" lon="7.2049">
        <ele>2071.3242476522</ele>
        <time>2016-09-25T12:14:32Z</time>
      </trkpt>
      <trkpt lat="44.15004" lon="7.20471">
        <ele>2069.4336037958</ele>
        <time>2016-09-25T12:14:44Z</time>
      </trkpt>
      <trkpt lat="44.15004" lon="7.20466">
        <ele>2069.4336037958</ele>
        <time>2016-09-25T12:14:47Z</time>
      </trkpt>
      <trkpt lat="44.15006" lon="7.20448">
        <ele>2067.2869365675</ele>
        <time>2016-09-25T12:14:58Z</time>
      </trkpt>
      <trkpt lat="44.15008" lon="7.20437">
        <ele>2067.2869365675</ele>
        <time>2016-09-25T12:15:03Z</time>
      </trkpt>
      <trkpt lat="44.1501" lon="7.20428">
        <ele>2066.0193434861</ele>
        <time>2016-09-25T12:15:07Z</time>
      </trkpt>
      <trkpt lat="44.15015" lon="7.20411">
        <ele>2065.3829402655</ele>
        <time>2016-09-25T12:15:18Z</time>
      </trkpt>
      <trkpt lat="44.1502" lon="7.20403">
        <ele>2065.3829402655</ele>
        <time>2016-09-25T12:15:32Z</time>
      </trkpt>
      <trkpt lat="44.15024" lon="7.20397">
        <ele>2064.2958902353</ele>
        <time>2016-09-25T12:15:37Z</time>
      </trkpt>
      <trkpt lat="44.15028" lon="7.20392">
        <ele>2064.2958902353</ele>
        <time>2016-09-25T12:15:42Z</time>
      </trkpt>
      <trkpt lat="44.15031" lon="7.20385">
        <ele>2062.967489294</ele>
        <time>2016-09-25T12:15:47Z</time>
      </trkpt>
      <trkpt lat="44.15033" lon="7.20379">
        <ele>2062.967489294</ele>
        <time>2016-09-25T12:15:52Z</time>
      </trkpt>
      <trkpt lat="44.15038" lon="7.20375">
        <ele>2061.1022206937</ele>
        <time>2016-09-25T12:15:57Z</time>
      </trkpt>
      <trkpt lat="44.15047" lon="7.20362">
        <ele>2059.8255233153</ele>
        <time>2016-09-25T12:16:07Z</time>
      </trkpt>
      <trkpt lat="44.15053" lon="7.20356">
        <ele>2059.8255233153</ele>
        <time>2016-09-25T12:16:12Z</time>
      </trkpt>
      <trkpt lat="44.15064" lon="7.20343">
        <ele>2058.780494457</ele>
        <time>2016-09-25T12:16:22Z</time>
      </trkpt>
      <trkpt lat="44.15069" lon="7.20339">
        <ele>2058.780494457</ele>
        <time>2016-09-25T12:16:27Z</time>
      </trkpt>
      <trkpt lat="44.15079" lon="7.20322">
        <ele>2057.7365389024</ele>
        <time>2016-09-25T12:16:37Z</time>
      </trkpt>
      <trkpt lat="44.15083" lon="7.20315">
        <ele>2057.7365389024</ele>
        <time>2016-09-25T12:16:42Z</time>
      </trkpt>
      <trkpt lat="44.15087" lon="7.20293">
        <ele>2057.531873629</ele>
        <time>2016-09-25T12:16:52Z</time>
      </trkpt>
      <trkpt lat="44.15087" lon="7.20286">
        <ele>2057.531873629</ele>
        <time>2016-09-25T12:16:57Z</time>
      </trkpt>
      <trkpt lat="44.15088" lon="7.2027">
        <ele>2056.2313638923</ele>
        <time>2016-09-25T12:17:07Z</time>
      </trkpt>
      <trkpt lat="44.15091" lon="7.20267">
        <ele>2056.2313638923</ele>
        <time>2016-09-25T12:17:12Z</time>
      </trkpt>
      <trkpt lat="44.15098" lon="7.20261">
        <ele>2055.4171767243</ele>
        <time>2016-09-25T12:17:27Z</time>
      </trkpt>
      <trkpt lat="44.15098" lon="7.20259">
        <ele>2055.4171767243</ele>
        <time>2016-09-25T12:17:32Z</time>
      </trkpt>
      <trkpt lat="44.15103" lon="7.20254">
        <ele>2055.4171767243</ele>
        <time>2016-09-25T12:17:42Z</time>
      </trkpt>
      <trkpt lat="44.15108" lon="7.20251">
        <ele>2054.9109004564</ele>
        <time>2016-09-25T12:17:47Z</time>
      </trkpt>
      <trkpt lat="44.15118" lon="7.20249">
        <ele>2054.430960508</ele>
        <time>2016-09-25T12:17:57Z</time>
      </trkpt>
      <trkpt lat="44.15126" lon="7.20254">
        <ele>2054.430960508</ele>
        <time>2016-09-25T12:18:02Z</time>
      </trkpt>
      <trkpt lat="44.15131" lon="7.20256">
        <ele>2053.6298151533</ele>
        <time>2016-09-25T12:18:07Z</time>
      </trkpt>
      <trkpt lat="44.15135" lon="7.20257">
        <ele>2053.6298151533</ele>
        <time>2016-09-25T12:18:12Z</time>
      </trkpt>
      <trkpt lat="44.15141" lon="7.20255">
        <ele>2053.2814949106</ele>
        <time>2016-09-25T12:18:22Z</time>
      </trkpt>
      <trkpt lat="44.15141" lon="7.20254">
        <ele>2053.2814949106</ele>
        <time>2016-09-25T12:18:27Z</time>
      </trkpt>
      <trkpt lat="44.15141" lon="7.20254">
        <ele>2053.2814949106</ele>
        <time>2016-09-25T12:18:42Z</time>
      </trkpt>
      <trkpt lat="44.15146" lon="7.20261">
        <ele>2053.2814949106</ele>
        <time>2016-09-25T12:18:53Z</time>
      </trkpt>
      <trkpt lat="44.15148" lon="7.20263">
        <ele>2052.9633252532</ele>
        <time>2016-09-25T12:18:57Z</time>
      </trkpt>
      <trkpt lat="44.15148" lon="7.20266">
        <ele>2052.9633252532</ele>
        <time>2016-09-25T12:19:02Z</time>
      </trkpt>
      <trkpt lat="44.15159" lon="7.2028">
        <ele>2053.4219866897</ele>
        <time>2016-09-25T12:19:12Z</time>
      </trkpt>
      <trkpt lat="44.15164" lon="7.20288">
        <ele>2053.4219866897</ele>
        <time>2016-09-25T12:19:18Z</time>
      </trkpt>
      <trkpt lat="44.15173" lon="7.20299">
        <ele>2053.9059399845</ele>
        <time>2016-09-25T12:19:27Z</time>
      </trkpt>
      <trkpt lat="44.15175" lon="7.20305">
        <ele>2053.9059399845</ele>
        <time>2016-09-25T12:19:33Z</time>
      </trkpt>
      <trkpt lat="44.1518" lon="7.20307">
        <ele>2054.2519272124</ele>
        <time>2016-09-25T12:19:42Z</time>
      </trkpt>
      <trkpt lat="44.15181" lon="7.20308">
        <ele>2054.2519272124</ele>
        <time>2016-09-25T12:19:47Z</time>
      </trkpt>
      <trkpt lat="44.15183" lon="7.20309">
        <ele>2054.2519272124</ele>
        <time>2016-09-25T12:19:58Z</time>
      </trkpt>
      <trkpt lat="44.15188" lon="7.20317">
        <ele>2054.1504927978</ele>
        <time>2016-09-25T12:20:02Z</time>
      </trkpt>
      <trkpt lat="44.15205" lon="7.20333">
        <ele>2053.6331683144</ele>
        <time>2016-09-25T12:20:14Z</time>
      </trkpt>
      <trkpt lat="44.15211" lon="7.20337">
        <ele>2053.6331683144</ele>
        <time>2016-09-25T12:20:18Z</time>
      </trkpt>
      <trkpt lat="44.15222" lon="7.20345">
        <ele>2053.6814333094</ele>
        <time>2016-09-25T12:20:28Z</time>
      </trkpt>
      <trkpt lat="44.15228" lon="7.20348">
        <ele>2053.6814333094</ele>
        <time>2016-09-25T12:20:33Z</time>
      </trkpt>
      <trkpt lat="44.1523" lon="7.20351">
        <ele>2053.9348748567</ele>
        <time>2016-09-25T12:20:42Z</time>
      </trkpt>
      <trkpt lat="44.15232" lon="7.20352">
        <ele>2053.9348748567</ele>
        <time>2016-09-25T12:20:47Z</time>
      </trkpt>
      <trkpt lat="44.15233" lon="7.20353">
        <ele>2053.9348748567</ele>
        <time>2016-09-25T12:20:58Z</time>
      </trkpt>
      <trkpt lat="44.15233" lon="7.20353">
        <ele>2053.9348748567</ele>
        <time>2016-09-25T12:21:02Z</time>
      </trkpt>
      <trkpt lat="44.15236" lon="7.20363">
        <ele>2054.6065816739</ele>
        <time>2016-09-25T12:21:13Z</time>
      </trkpt>
      <trkpt lat="44.15237" lon="7.20365">
        <ele>2054.6065816739</ele>
        <time>2016-09-25T12:21:18Z</time>
      </trkpt>
      <trkpt lat="44.15239" lon="7.20367">
        <ele>2054.6065816739</ele>
        <time>2016-09-25T12:21:22Z</time>
      </trkpt>
      <trkpt lat="44.15242" lon="7.20371">
        <ele>2054.6065816739</ele>
        <time>2016-09-25T12:21:28Z</time>
      </trkpt>
      <trkpt lat="44.15246" lon="7.20373">
        <ele>2055.7486932133</ele>
        <time>2016-09-25T12:21:33Z</time>
      </trkpt>
      <trkpt lat="44.15248" lon="7.20374">
        <ele>2055.7486932133</ele>
        <time>2016-09-25T12:21:47Z</time>
      </trkpt>
      <trkpt lat="44.15248" lon="7.20374">
        <ele>2055.7486932133</ele>
        <time>2016-09-25T12:21:53Z</time>
      </trkpt>
      <trkpt lat="44.15248" lon="7.20374">
        <ele>2055.7486932133</ele>
        <time>2016-09-25T12:22:02Z</time>
      </trkpt>
      <trkpt lat="44.15248" lon="7.20375">
        <ele>2055.7486932133</ele>
        <time>2016-09-25T12:22:08Z</time>
      </trkpt>
      <trkpt lat="44.15258" lon="7.20388">
        <ele>2056.86057685</ele>
        <time>2016-09-25T12:22:18Z</time>
      </trkpt>
      <trkpt lat="44.15259" lon="7.20389">
        <ele>2056.86057685</ele>
        <time>2016-09-25T12:22:22Z</time>
      </trkpt>
      <trkpt lat="44.15262" lon="7.2039">
        <ele>2056.86057685</ele>
        <time>2016-09-25T12:22:33Z</time>
      </trkpt>
      <trkpt lat="44.15268" lon="7.20391">
        <ele>2058.4296081883</ele>
        <time>2016-09-25T12:22:38Z</time>
      </trkpt>
      <trkpt lat="44.15275" lon="7.20392">
        <ele>2058.4296081883</ele>
        <time>2016-09-25T12:22:47Z</time>
      </trkpt>
      <trkpt lat="44.15279" lon="7.20392">
        <ele>2060.0702614173</ele>
        <time>2016-09-25T12:22:53Z</time>
      </trkpt>
      <trkpt lat="44.15284" lon="7.20397">
        <ele>2060.0702614173</ele>
        <time>2016-09-25T12:23:02Z</time>
      </trkpt>
      <trkpt lat="44.15284" lon="7.20397">
        <ele>2060.0702614173</ele>
        <time>2016-09-25T12:23:07Z</time>
      </trkpt>
      <trkpt lat="44.15291" lon="7.20401">
        <ele>2061.7133957292</ele>
        <time>2016-09-25T12:23:18Z</time>
      </trkpt>
      <trkpt lat="44.15296" lon="7.20405">
        <ele>2061.7133957292</ele>
        <time>2016-09-25T12:23:22Z</time>
      </trkpt>
      <trkpt lat="44.15301" lon="7.20407">
        <ele>2064.2317243235</ele>
        <time>2016-09-25T12:23:34Z</time>
      </trkpt>
      <trkpt lat="44.15301" lon="7.20407">
        <ele>2064.2317243235</ele>
        <time>2016-09-25T12:23:38Z</time>
      </trkpt>
      <trkpt lat="44.15301" lon="7.20407">
        <ele>2064.2317243235</ele>
        <time>2016-09-25T12:23:42Z</time>
      </trkpt>
      <trkpt lat="44.15306" lon="7.20416">
        <ele>2064.2317243235</ele>
        <time>2016-09-25T12:23:53Z</time>
      </trkpt>
      <trkpt lat="44.1531" lon="7.2042">
        <ele>2066.9615388092</ele>
        <time>2016-09-25T12:23:58Z</time>
      </trkpt>
      <trkpt lat="44.15314" lon="7.20423">
        <ele>2066.9615388092</ele>
        <time>2016-09-25T12:24:07Z</time>
      </trkpt>
      <trkpt lat="44.15314" lon="7.20421">
        <ele>2066.9615388092</ele>
        <time>2016-09-25T12:24:13Z</time>
      </trkpt>
      <trkpt lat="44.15315" lon="7.20421">
        <ele>2066.9615388092</ele>
        <time>2016-09-25T12:24:22Z</time>
      </trkpt>
      <trkpt lat="44.15315" lon="7.20421">
        <ele>2066.9615388092</ele>
        <time>2016-09-25T12:24:27Z</time>
      </trkpt>
      <trkpt lat="44.15315" lon="7.20421">
        <ele>2066.9615388092</ele>
        <time>2016-09-25T12:24:38Z</time>
      </trkpt>
      <trkpt lat="44.15315" lon="7.20421">
        <ele>2066.9615388092</ele>
        <time>2016-09-25T12:24:42Z</time>
      </trkpt>
      <trkpt lat="44.15325" lon="7.2043">
        <ele>2069.4170869916</ele>
        <time>2016-09-25T12:24:53Z</time>
      </trkpt>
      <trkpt lat="44.15332" lon="7.20433">
        <ele>2069.4170869916</ele>
        <time>2016-09-25T12:24:58Z</time>
      </trkpt>
      <trkpt lat="44.15339" lon="7.20435">
        <ele>2071.9994365707</ele>
        <time>2016-09-25T12:25:07Z</time>
      </trkpt>
      <trkpt lat="44.15341" lon="7.20435">
        <ele>2071.9994365707</ele>
        <time>2016-09-25T12:25:12Z</time>
      </trkpt>
      <trkpt lat="44.1535" lon="7.20435">
        <ele>2075.0799670143</ele>
        <time>2016-09-25T12:25:23Z</time>
      </trkpt>
      <trkpt lat="44.15356" lon="7.20438">
        <ele>2075.0799670143</ele>
        <time>2016-09-25T12:25:27Z</time>
      </trkpt>
      <trkpt lat="44.15363" lon="7.20439">
        <ele>2078.511548285</ele>
        <time>2016-09-25T12:25:32Z</time>
      </trkpt>
      <trkpt lat="44.15369" lon="7.2044">
        <ele>2078.511548285</ele>
        <time>2016-09-25T12:25:37Z</time>
      </trkpt>
      <trkpt lat="44.15373" lon="7.20443">
        <ele>2081.522948316</ele>
        <time>2016-09-25T12:25:43Z</time>
      </trkpt>
      <trkpt lat="44.15376" lon="7.20441">
        <ele>2081.522948316</ele>
        <time>2016-09-25T12:25:52Z</time>
      </trkpt>
      <trkpt lat="44.15377" lon="7.20441">
        <ele>2081.522948316</ele>
        <time>2016-09-25T12:25:57Z</time>
      </trkpt>
      <trkpt lat="44.15377" lon="7.20441">
        <ele>2081.522948316</ele>
        <time>2016-09-25T12:26:08Z</time>
      </trkpt>
      <trkpt lat="44.15377" lon="7.20441">
        <ele>2081.522948316</ele>
        <time>2016-09-25T12:26:12Z</time>
      </trkpt>
      <trkpt lat="44.15381" lon="7.20446">
        <ele>2083.9773916099</ele>
        <time>2016-09-25T12:26:17Z</time>
      </trkpt>
      <trkpt lat="44.15385" lon="7.20449">
        <ele>2083.9773916099</ele>
        <time>2016-09-25T12:26:24Z</time>
      </trkpt>
      <trkpt lat="44.15387" lon="7.2045">
        <ele>2083.9773916099</ele>
        <time>2016-09-25T12:26:28Z</time>
      </trkpt>
      <trkpt lat="44.15387" lon="7.2045">
        <ele>2083.9773916099</ele>
        <time>2016-09-25T12:26:32Z</time>
      </trkpt>
      <trkpt lat="44.15387" lon="7.20451">
        <ele>2083.9773916099</ele>
        <time>2016-09-25T12:26:43Z</time>
      </trkpt>
      <trkpt lat="44.15391" lon="7.20456">
        <ele>2086.0093039963</ele>
        <time>2016-09-25T12:26:48Z</time>
      </trkpt>
      <trkpt lat="44.15397" lon="7.20462">
        <ele>2086.0093039963</ele>
        <time>2016-09-25T12:26:57Z</time>
      </trkpt>
      <trkpt lat="44.15406" lon="7.20463">
        <ele>2088.9263350774</ele>
        <time>2016-09-25T12:27:12Z</time>
      </trkpt>
      <trkpt lat="44.15406" lon="7.20463">
        <ele>2088.9263350774</ele>
        <time>2016-09-25T12:27:17Z</time>
      </trkpt>
      <trkpt lat="44.15419" lon="7.20463">
        <ele>2091.9634788279</ele>
        <time>2016-09-25T12:27:27Z</time>
      </trkpt>
      <trkpt lat="44.15422" lon="7.20463">
        <ele>2091.9634788279</ele>
        <time>2016-09-25T12:27:32Z</time>
      </trkpt>
      <trkpt lat="44.15429" lon="7.20463">
        <ele>2094.6135606391</ele>
        <time>2016-09-25T12:27:43Z</time>
      </trkpt>
      <trkpt lat="44.15431" lon="7.20463">
        <ele>2094.6135606391</ele>
        <time>2016-09-25T12:27:47Z</time>
      </trkpt>
      <trkpt lat="44.15437" lon="7.20465">
        <ele>2094.6135606391</ele>
        <time>2016-09-25T12:27:58Z</time>
      </trkpt>
      <trkpt lat="44.15439" lon="7.20467">
        <ele>2096.8835365874</ele>
        <time>2016-09-25T12:28:03Z</time>
      </trkpt>
      <trkpt lat="44.15443" lon="7.20467">
        <ele>2096.8835365874</ele>
        <time>2016-09-25T12:28:12Z</time>
      </trkpt>
      <trkpt lat="44.15444" lon="7.20467">
        <ele>2096.8835365874</ele>
        <time>2016-09-25T12:28:18Z</time>
      </trkpt>
      <trkpt lat="44.15445" lon="7.20466">
        <ele>2096.8835365874</ele>
        <time>2016-09-25T12:28:27Z</time>
      </trkpt>
      <trkpt lat="44.15445" lon="7.20466">
        <ele>2096.8835365874</ele>
        <time>2016-09-25T12:28:32Z</time>
      </trkpt>
      <trkpt lat="44.15445" lon="7.20466">
        <ele>2096.8835365874</ele>
        <time>2016-09-25T12:28:43Z</time>
      </trkpt>
      <trkpt lat="44.15445" lon="7.20466">
        <ele>2096.8835365874</ele>
        <time>2016-09-25T12:28:47Z</time>
      </trkpt>
      <trkpt lat="44.15445" lon="7.20466">
        <ele>2096.8835365874</ele>
        <time>2016-09-25T12:28:52Z</time>
      </trkpt>
      <trkpt lat="44.15445" lon="7.20466">
        <ele>2096.8835365874</ele>
        <time>2016-09-25T12:28:58Z</time>
      </trkpt>
      <trkpt lat="44.15446" lon="7.20465">
        <ele>2096.8835365874</ele>
        <time>2016-09-25T12:29:03Z</time>
      </trkpt>
      <trkpt lat="44.15452" lon="7.20464">
        <ele>2100.5825358742</ele>
        <time>2016-09-25T12:29:07Z</time>
      </trkpt>
      <trkpt lat="44.15469" lon="7.20463">
        <ele>2105.5672173263</ele>
        <time>2016-09-25T12:29:18Z</time>
      </trkpt>
      <trkpt lat="44.15473" lon="7.2046">
        <ele>2105.5672173263</ele>
        <time>2016-09-25T12:29:22Z</time>
      </trkpt>
      <trkpt lat="44.1548" lon="7.20459">
        <ele>2110.1161864628</ele>
        <time>2016-09-25T12:29:32Z</time>
      </trkpt>
      <trkpt lat="44.15485" lon="7.20465">
        <ele>2110.1161864628</ele>
        <time>2016-09-25T12:29:37Z</time>
      </trkpt>
      <trkpt lat="44.15488" lon="7.20467">
        <ele>2113.9473932428</ele>
        <time>2016-09-25T12:29:42Z</time>
      </trkpt>
      <trkpt lat="44.1549" lon="7.20468">
        <ele>2113.9473932428</ele>
        <time>2016-09-25T12:29:47Z</time>
      </trkpt>
      <trkpt lat="44.15491" lon="7.20469">
        <ele>2113.9473932428</ele>
        <time>2016-09-25T12:29:52Z</time>
      </trkpt>
      <trkpt lat="44.15493" lon="7.20469">
        <ele>2113.9473932428</ele>
        <time>2016-09-25T12:29:57Z</time>
      </trkpt>
      <trkpt lat="44.15498" lon="7.20467">
        <ele>2117.8249800584</ele>
        <time>2016-09-25T12:30:07Z</time>
      </trkpt>
      <trkpt lat="44.15503" lon="7.20466">
        <ele>2117.8249800584</ele>
        <time>2016-09-25T12:30:13Z</time>
      </trkpt>
      <trkpt lat="44.15513" lon="7.20464">
        <ele>2120.324258647</ele>
        <time>2016-09-25T12:30:22Z</time>
      </trkpt>
      <trkpt lat="44.15515" lon="7.20466">
        <ele>2120.324258647</ele>
        <time>2016-09-25T12:30:27Z</time>
      </trkpt>
      <trkpt lat="44.15525" lon="7.20465">
        <ele>2122.3774782352</ele>
        <time>2016-09-25T12:30:38Z</time>
      </trkpt>
      <trkpt lat="44.1553" lon="7.20464">
        <ele>2122.3774782352</ele>
        <time>2016-09-25T12:30:42Z</time>
      </trkpt>
      <trkpt lat="44.15542" lon="7.20453">
        <ele>2125.3399129084</ele>
        <time>2016-09-25T12:30:53Z</time>
      </trkpt>
      <trkpt lat="44.15546" lon="7.20448">
        <ele>2125.3399129084</ele>
        <time>2016-09-25T12:30:58Z</time>
      </trkpt>
      <trkpt lat="44.15553" lon="7.20446">
        <ele>2128.0727557804</ele>
        <time>2016-09-25T12:31:07Z</time>
      </trkpt>
      <trkpt lat="44.15555" lon="7.20442">
        <ele>2128.0727557804</ele>
        <time>2016-09-25T12:31:12Z</time>
      </trkpt>
      <trkpt lat="44.15564" lon="7.2044">
        <ele>2130.5737768708</ele>
        <time>2016-09-25T12:31:23Z</time>
      </trkpt>
      <trkpt lat="44.15568" lon="7.20441">
        <ele>2130.5737768708</ele>
        <time>2016-09-25T12:31:27Z</time>
      </trkpt>
      <trkpt lat="44.15577" lon="7.20442">
        <ele>2133.0868073492</ele>
        <time>2016-09-25T12:31:38Z</time>
      </trkpt>
      <trkpt lat="44.1558" lon="7.20442">
        <ele>2133.0868073492</ele>
        <time>2016-09-25T12:31:42Z</time>
      </trkpt>
      <trkpt lat="44.15583" lon="7.20443">
        <ele>2133.0868073492</ele>
        <time>2016-09-25T12:31:47Z</time>
      </trkpt>
      <trkpt lat="44.15592" lon="7.2045">
        <ele>2135.2471275083</ele>
        <time>2016-09-25T12:31:58Z</time>
      </trkpt>
      <trkpt lat="44.15597" lon="7.20453">
        <ele>2135.2471275083</ele>
        <time>2016-09-25T12:32:02Z</time>
      </trkpt>
      <trkpt lat="44.15598" lon="7.20451">
        <ele>2135.2471275083</ele>
        <time>2016-09-25T12:32:14Z</time>
      </trkpt>
      <trkpt lat="44.15598" lon="7.20451">
        <ele>2135.2471275083</ele>
        <time>2016-09-25T12:32:27Z</time>
      </trkpt>
      <trkpt lat="44.15598" lon="7.20451">
        <ele>2135.2471275083</ele>
        <time>2016-09-25T12:32:33Z</time>
      </trkpt>
      <trkpt lat="44.15598" lon="7.20451">
        <ele>2135.2471275083</ele>
        <time>2016-09-25T12:32:42Z</time>
      </trkpt>
      <trkpt lat="44.15599" lon="7.20452">
        <ele>2135.2471275083</ele>
        <time>2016-09-25T12:32:47Z</time>
      </trkpt>
      <trkpt lat="44.15603" lon="7.20455">
        <ele>2138.1591533292</ele>
        <time>2016-09-25T12:32:58Z</time>
      </trkpt>
      <trkpt lat="44.15606" lon="7.20462">
        <ele>2138.1591533292</ele>
        <time>2016-09-25T12:33:02Z</time>
      </trkpt>
      <trkpt lat="44.15608" lon="7.20465">
        <ele>2138.1591533292</ele>
        <time>2016-09-25T12:33:13Z</time>
      </trkpt>
      <trkpt lat="44.15608" lon="7.20466">
        <ele>2140.7402731896</ele>
        <time>2016-09-25T12:33:18Z</time>
      </trkpt>
      <trkpt lat="44.15614" lon="7.20469">
        <ele>2140.7402731896</ele>
        <time>2016-09-25T12:33:27Z</time>
      </trkpt>
      <trkpt lat="44.15615" lon="7.20471">
        <ele>2140.7402731896</ele>
        <time>2016-09-25T12:33:33Z</time>
      </trkpt>
      <trkpt lat="44.15617" lon="7.20474">
        <ele>2142.7235234309</ele>
        <time>2016-09-25T12:33:42Z</time>
      </trkpt>
      <trkpt lat="44.15622" lon="7.20481">
        <ele>2142.7235234309</ele>
        <time>2016-09-25T12:33:47Z</time>
      </trkpt>
      <trkpt lat="44.15635" lon="7.20489">
        <ele>2143.9787313078</ele>
        <time>2016-09-25T12:33:58Z</time>
      </trkpt>
      <trkpt lat="44.15637" lon="7.20491">
        <ele>2143.9787313078</ele>
        <time>2016-09-25T12:34:02Z</time>
      </trkpt>
      <trkpt lat="44.1565" lon="7.20491">
        <ele>2145.4971865027</ele>
        <time>2016-09-25T12:34:17Z</time>
      </trkpt>
      <trkpt lat="44.15654" lon="7.20494">
        <ele>2145.4971865027</ele>
        <time>2016-09-25T12:34:28Z</time>
      </trkpt>
      <trkpt lat="44.15659" lon="7.20495">
        <ele>2145.4971865027</ele>
        <time>2016-09-25T12:34:33Z</time>
      </trkpt>
      <trkpt lat="44.15665" lon="7.20497">
        <ele>2147.3753746898</ele>
        <time>2016-09-25T12:34:37Z</time>
      </trkpt>
      <trkpt lat="44.15673" lon="7.20487">
        <ele>2148.8516009941</ele>
        <time>2016-09-25T12:34:48Z</time>
      </trkpt>
      <trkpt lat="44.15674" lon="7.2048">
        <ele>2148.8516009941</ele>
        <time>2016-09-25T12:34:52Z</time>
      </trkpt>
      <trkpt lat="44.15672" lon="7.20477">
        <ele>2148.8516009941</ele>
        <time>2016-09-25T12:35:03Z</time>
      </trkpt>
      <trkpt lat="44.15673" lon="7.20475">
        <ele>2149.6393302529</ele>
        <time>2016-09-25T12:35:09Z</time>
      </trkpt>
      <trkpt lat="44.15676" lon="7.20471">
        <ele>2149.6393302529</ele>
        <time>2016-09-25T12:35:17Z</time>
      </trkpt>
      <trkpt lat="44.15679" lon="7.20468">
        <ele>2149.6393302529</ele>
        <time>2016-09-25T12:35:22Z</time>
      </trkpt>
      <trkpt lat="44.15683" lon="7.20462">
        <ele>2150.2533473615</ele>
        <time>2016-09-25T12:35:33Z</time>
      </trkpt>
      <trkpt lat="44.15684" lon="7.20459">
        <ele>2150.2533473615</ele>
        <time>2016-09-25T12:35:37Z</time>
      </trkpt>
      <trkpt lat="44.15689" lon="7.20446">
        <ele>2151.6900324138</ele>
        <time>2016-09-25T12:35:48Z</time>
      </trkpt>
      <trkpt lat="44.15691" lon="7.20441">
        <ele>2151.6900324138</ele>
        <time>2016-09-25T12:35:53Z</time>
      </trkpt>
      <trkpt lat="44.15698" lon="7.20436">
        <ele>2152.204313029</ele>
        <time>2016-09-25T12:36:03Z</time>
      </trkpt>
      <trkpt lat="44.15701" lon="7.20433">
        <ele>2152.204313029</ele>
        <time>2016-09-25T12:36:08Z</time>
      </trkpt>
      <trkpt lat="44.15702" lon="7.20429">
        <ele>2152.204313029</ele>
        <time>2016-09-25T12:36:12Z</time>
      </trkpt>
      <trkpt lat="44.15701" lon="7.20426">
        <ele>2153.208319386</ele>
        <time>2016-09-25T12:36:23Z</time>
      </trkpt>
      <trkpt lat="44.15701" lon="7.20425">
        <ele>2153.208319386</ele>
        <time>2016-09-25T12:36:27Z</time>
      </trkpt>
      <trkpt lat="44.157" lon="7.20425">
        <ele>2153.208319386</ele>
        <time>2016-09-25T12:36:37Z</time>
      </trkpt>
      <trkpt lat="44.157" lon="7.20422">
        <ele>2153.208319386</ele>
        <time>2016-09-25T12:36:42Z</time>
      </trkpt>
      <trkpt lat="44.157" lon="7.20419">
        <ele>2153.208319386</ele>
        <time>2016-09-25T12:36:52Z</time>
      </trkpt>
      <trkpt lat="44.15701" lon="7.20419">
        <ele>2153.208319386</ele>
        <time>2016-09-25T12:36:57Z</time>
      </trkpt>
      <trkpt lat="44.15701" lon="7.20419">
        <ele>2153.208319386</ele>
        <time>2016-09-25T12:37:08Z</time>
      </trkpt>
      <trkpt lat="44.15701" lon="7.20419">
        <ele>2153.208319386</ele>
        <time>2016-09-25T12:37:12Z</time>
      </trkpt>
      <trkpt lat="44.15701" lon="7.20419">
        <ele>2153.208319386</ele>
        <time>2016-09-25T12:37:23Z</time>
      </trkpt>
      <trkpt lat="44.15701" lon="7.20418">
        <ele>2153.208319386</ele>
        <time>2016-09-25T12:37:27Z</time>
      </trkpt>
      <trkpt lat="44.15701" lon="7.20418">
        <ele>2153.208319386</ele>
        <time>2016-09-25T12:37:32Z</time>
      </trkpt>
      <trkpt lat="44.15702" lon="7.20419">
        <ele>2153.208319386</ele>
        <time>2016-09-25T12:37:37Z</time>
      </trkpt>
      <trkpt lat="44.15703" lon="7.20419">
        <ele>2153.208319386</ele>
        <time>2016-09-25T12:37:43Z</time>
      </trkpt>
      <trkpt lat="44.15706" lon="7.20419">
        <ele>2154.0348229703</ele>
        <time>2016-09-25T12:37:47Z</time>
      </trkpt>
      <trkpt lat="44.15702" lon="7.20416">
        <ele>2154.0348229703</ele>
        <time>2016-09-25T12:37:57Z</time>
      </trkpt>
      <trkpt lat="44.15702" lon="7.20408">
        <ele>2154.6137867626</ele>
        <time>2016-09-25T12:38:03Z</time>
      </trkpt>
      <trkpt lat="44.15701" lon="7.204">
        <ele>2154.6137867626</ele>
        <time>2016-09-25T12:38:17Z</time>
      </trkpt>
      <trkpt lat="44.15701" lon="7.204">
        <ele>2154.6137867626</ele>
        <time>2016-09-25T12:38:33Z</time>
      </trkpt>
      <trkpt lat="44.15701" lon="7.204">
        <ele>2154.6137867626</ele>
        <time>2016-09-25T12:38:37Z</time>
      </trkpt>
      <trkpt lat="44.15701" lon="7.204">
        <ele>2154.6137867626</ele>
        <time>2016-09-25T12:38:48Z</time>
      </trkpt>
      <trkpt lat="44.15701" lon="7.204">
        <ele>2154.6137867626</ele>
        <time>2016-09-25T12:39:02Z</time>
      </trkpt>
      <trkpt lat="44.15701" lon="7.204">
        <ele>2154.6137867626</ele>
        <time>2016-09-25T12:39:17Z</time>
      </trkpt>
      <trkpt lat="44.15701" lon="7.204">
        <ele>2154.6137867626</ele>
        <time>2016-09-25T12:39:22Z</time>
      </trkpt>
      <trkpt lat="44.15701" lon="7.204">
        <ele>2154.6137867626</ele>
        <time>2016-09-25T12:39:33Z</time>
      </trkpt>
      <trkpt lat="44.15701" lon="7.204">
        <ele>2154.6137867626</ele>
        <time>2016-09-25T12:39:37Z</time>
      </trkpt>
      <trkpt lat="44.15701" lon="7.204">
        <ele>2154.6137867626</ele>
        <time>2016-09-25T12:39:48Z</time>
      </trkpt>
      <trkpt lat="44.15701" lon="7.204">
        <ele>2154.6137867626</ele>
        <time>2016-09-25T12:39:52Z</time>
      </trkpt>
      <trkpt lat="44.15701" lon="7.204">
        <ele>2154.6137867626</ele>
        <time>2016-09-25T12:40:02Z</time>
      </trkpt>
      <trkpt lat="44.15701" lon="7.204">
        <ele>2154.6137867626</ele>
        <time>2016-09-25T12:40:08Z</time>
      </trkpt>
      <trkpt lat="44.15701" lon="7.204">
        <ele>2154.6137867626</ele>
        <time>2016-09-25T12:40:17Z</time>
      </trkpt>
      <trkpt lat="44.15701" lon="7.204">
        <ele>2154.6137867626</ele>
        <time>2016-09-25T12:40:22Z</time>
      </trkpt>
      <trkpt lat="44.15701" lon="7.204">
        <ele>2154.6137867626</ele>
        <time>2016-09-25T12:40:33Z</time>
      </trkpt>
      <trkpt lat="44.15701" lon="7.204">
        <ele>2154.6137867626</ele>
        <time>2016-09-25T12:40:37Z</time>
      </trkpt>
      <trkpt lat="44.15701" lon="7.204">
        <ele>2154.6137867626</ele>
        <time>2016-09-25T12:40:48Z</time>
      </trkpt>
      <trkpt lat="44.15701" lon="7.204">
        <ele>2154.6137867626</ele>
        <time>2016-09-25T12:40:53Z</time>
      </trkpt>
      <trkpt lat="44.15701" lon="7.204">
        <ele>2154.6137867626</ele>
        <time>2016-09-25T12:41:08Z</time>
      </trkpt>
      <trkpt lat="44.15701" lon="7.204">
        <ele>2154.6137867626</ele>
        <time>2016-09-25T12:41:22Z</time>
      </trkpt>
      <trkpt lat="44.15701" lon="7.204">
        <ele>2154.6137867626</ele>
        <time>2016-09-25T12:41:33Z</time>
      </trkpt>
      <trkpt lat="44.15701" lon="7.204">
        <ele>2154.6137867626</ele>
        <time>2016-09-25T12:41:37Z</time>
      </trkpt>
      <trkpt lat="44.15701" lon="7.204">
        <ele>2154.6137867626</ele>
        <time>2016-09-25T12:41:42Z</time>
      </trkpt>
      <trkpt lat="44.15701" lon="7.204">
        <ele>2154.6137867626</ele>
        <time>2016-09-25T12:41:53Z</time>
      </trkpt>
      <trkpt lat="44.15701" lon="7.204">
        <ele>2154.6137867626</ele>
        <time>2016-09-25T12:41:57Z</time>
      </trkpt>
      <trkpt lat="44.15701" lon="7.204">
        <ele>2154.6137867626</ele>
        <time>2016-09-25T12:42:09Z</time>
      </trkpt>
      <trkpt lat="44.15701" lon="7.20399">
        <ele>2154.6137867626</ele>
        <time>2016-09-25T12:42:13Z</time>
      </trkpt>
      <trkpt lat="44.15701" lon="7.20399">
        <ele>2154.6137867626</ele>
        <time>2016-09-25T12:42:22Z</time>
      </trkpt>
      <trkpt lat="44.15702" lon="7.20399">
        <ele>2154.6137867626</ele>
        <time>2016-09-25T12:42:28Z</time>
      </trkpt>
      <trkpt lat="44.15704" lon="7.20399">
        <ele>2154.6137867626</ele>
        <time>2016-09-25T12:42:37Z</time>
      </trkpt>
      <trkpt lat="44.157" lon="7.20397">
        <ele>2155.2701547969</ele>
        <time>2016-09-25T12:42:42Z</time>
      </trkpt>
      <trkpt lat="44.157" lon="7.20396">
        <ele>2155.2701547969</ele>
        <time>2016-09-25T12:42:52Z</time>
      </trkpt>
      <trkpt lat="44.157" lon="7.20397">
        <ele>2155.2701547969</ele>
        <time>2016-09-25T12:42:57Z</time>
      </trkpt>
      <trkpt lat="44.157" lon="7.20397">
        <ele>2155.2701547969</ele>
        <time>2016-09-25T12:43:08Z</time>
      </trkpt>
      <trkpt lat="44.157" lon="7.20397">
        <ele>2155.2701547969</ele>
        <time>2016-09-25T12:43:13Z</time>
      </trkpt>
      <trkpt lat="44.157" lon="7.20397">
        <ele>2155.2701547969</ele>
        <time>2016-09-25T12:43:29Z</time>
      </trkpt>
      <trkpt lat="44.157" lon="7.20397">
        <ele>2155.2701547969</ele>
        <time>2016-09-25T12:43:42Z</time>
      </trkpt>
      <trkpt lat="44.15701" lon="7.20398">
        <ele>2155.2701547969</ele>
        <time>2016-09-25T12:43:57Z</time>
      </trkpt>
      <trkpt lat="44.15701" lon="7.20398">
        <ele>2155.2701547969</ele>
        <time>2016-09-25T12:44:02Z</time>
      </trkpt>
      <trkpt lat="44.15701" lon="7.20398">
        <ele>2155.2701547969</ele>
        <time>2016-09-25T12:44:09Z</time>
      </trkpt>
      <trkpt lat="44.15701" lon="7.20398">
        <ele>2155.2701547969</ele>
        <time>2016-09-25T12:44:13Z</time>
      </trkpt>
      <trkpt lat="44.15701" lon="7.20398">
        <ele>2155.2701547969</ele>
        <time>2016-09-25T12:44:17Z</time>
      </trkpt>
      <trkpt lat="44.15701" lon="7.20398">
        <ele>2155.2701547969</ele>
        <time>2016-09-25T12:44:28Z</time>
      </trkpt>
      <trkpt lat="44.15701" lon="7.20398">
        <ele>2155.2701547969</ele>
        <time>2016-09-25T12:44:33Z</time>
      </trkpt>
      <trkpt lat="44.15701" lon="7.20398">
        <ele>2155.2701547969</ele>
        <time>2016-09-25T12:44:42Z</time>
      </trkpt>
      <trkpt lat="44.15701" lon="7.20398">
        <ele>2155.2701547969</ele>
        <time>2016-09-25T12:44:47Z</time>
      </trkpt>
      <trkpt lat="44.15701" lon="7.20399">
        <ele>2155.2701547969</ele>
        <time>2016-09-25T12:44:57Z</time>
      </trkpt>
      <trkpt lat="44.15701" lon="7.20399">
        <ele>2155.2701547969</ele>
        <time>2016-09-25T12:45:02Z</time>
      </trkpt>
      <trkpt lat="44.15702" lon="7.20399">
        <ele>2155.2701547969</ele>
        <time>2016-09-25T12:45:13Z</time>
      </trkpt>
      <trkpt lat="44.15702" lon="7.20399">
        <ele>2155.2701547969</ele>
        <time>2016-09-25T12:45:17Z</time>
      </trkpt>
      <trkpt lat="44.15702" lon="7.20399">
        <ele>2155.2701547969</ele>
        <time>2016-09-25T12:45:28Z</time>
      </trkpt>
      <trkpt lat="44.15702" lon="7.20399">
        <ele>2155.2701547969</ele>
        <time>2016-09-25T12:45:33Z</time>
      </trkpt>
      <trkpt lat="44.15703" lon="7.20399">
        <ele>2155.2701547969</ele>
        <time>2016-09-25T12:45:48Z</time>
      </trkpt>
      <trkpt lat="44.15703" lon="7.20399">
        <ele>2155.2701547969</ele>
        <time>2016-09-25T12:46:02Z</time>
      </trkpt>
      <trkpt lat="44.15705" lon="7.20397">
        <ele>2155.2701547969</ele>
        <time>2016-09-25T12:46:17Z</time>
      </trkpt>
      <trkpt lat="44.15709" lon="7.20391">
        <ele>2155.0654534918</ele>
        <time>2016-09-25T12:46:22Z</time>
      </trkpt>
      <trkpt lat="44.1572" lon="7.20378">
        <ele>2154.5448627271</ele>
        <time>2016-09-25T12:46:33Z</time>
      </trkpt>
      <trkpt lat="44.15724" lon="7.20373">
        <ele>2154.5448627271</ele>
        <time>2016-09-25T12:46:37Z</time>
      </trkpt>
      <trkpt lat="44.1573" lon="7.2036">
        <ele>2153.7388232609</ele>
        <time>2016-09-25T12:46:48Z</time>
      </trkpt>
      <trkpt lat="44.15733" lon="7.20353">
        <ele>2153.7388232609</ele>
        <time>2016-09-25T12:46:53Z</time>
      </trkpt>
      <trkpt lat="44.15739" lon="7.20344">
        <ele>2153.3248117505</ele>
        <time>2016-09-25T12:47:02Z</time>
      </trkpt>
      <trkpt lat="44.15739" lon="7.20341">
        <ele>2153.3248117505</ele>
        <time>2016-09-25T12:47:08Z</time>
      </trkpt>
      <trkpt lat="44.15744" lon="7.20336">
        <ele>2153.3248117505</ele>
        <time>2016-09-25T12:47:17Z</time>
      </trkpt>
      <trkpt lat="44.15748" lon="7.20335">
        <ele>2152.3153435738</ele>
        <time>2016-09-25T12:47:22Z</time>
      </trkpt>
      <trkpt lat="44.15752" lon="7.20331">
        <ele>2152.3153435738</ele>
        <time>2016-09-25T12:47:33Z</time>
      </trkpt>
      <trkpt lat="44.15753" lon="7.2033">
        <ele>2152.3153435738</ele>
        <time>2016-09-25T12:47:37Z</time>
      </trkpt>
      <trkpt lat="44.15762" lon="7.20331">
        <ele>2151.4831763669</ele>
        <time>2016-09-25T12:47:48Z</time>
      </trkpt>
      <trkpt lat="44.15763" lon="7.20332">
        <ele>2151.4831763669</ele>
        <time>2016-09-25T12:47:52Z</time>
      </trkpt>
      <trkpt lat="44.15765" lon="7.20333">
        <ele>2151.4831763669</ele>
        <time>2016-09-25T12:48:07Z</time>
      </trkpt>
      <trkpt lat="44.15783" lon="7.2033">
        <ele>2150.4196493593</ele>
        <time>2016-09-25T12:48:22Z</time>
      </trkpt>
      <trkpt lat="44.15788" lon="7.2033">
        <ele>2150.4196493593</ele>
        <time>2016-09-25T12:48:28Z</time>
      </trkpt>
      <trkpt lat="44.1579" lon="7.20329">
        <ele>2150.4196493593</ele>
        <time>2016-09-25T12:48:38Z</time>
      </trkpt>
      <trkpt lat="44.15791" lon="7.20327">
        <ele>2150.4196493593</ele>
        <time>2016-09-25T12:48:42Z</time>
      </trkpt>
      <trkpt lat="44.15794" lon="7.20325">
        <ele>2149.7410332577</ele>
        <time>2016-09-25T12:48:53Z</time>
      </trkpt>
      <trkpt lat="44.15795" lon="7.20325">
        <ele>2149.7410332577</ele>
        <time>2016-09-25T12:48:58Z</time>
      </trkpt>
      <trkpt lat="44.15803" lon="7.20324">
        <ele>2148.6048375011</ele>
        <time>2016-09-25T12:49:08Z</time>
      </trkpt>
      <trkpt lat="44.15805" lon="7.20322">
        <ele>2148.6048375011</ele>
        <time>2016-09-25T12:49:13Z</time>
      </trkpt>
      <trkpt lat="44.15807" lon="7.20322">
        <ele>2148.6048375011</ele>
        <time>2016-09-25T12:49:22Z</time>
      </trkpt>
      <trkpt lat="44.15811" lon="7.20321">
        <ele>2148.6048375011</ele>
        <time>2016-09-25T12:49:28Z</time>
      </trkpt>
      <trkpt lat="44.15813" lon="7.2032">
        <ele>2147.6150753355</ele>
        <time>2016-09-25T12:49:37Z</time>
      </trkpt>
      <trkpt lat="44.15813" lon="7.2032">
        <ele>2147.6150753355</ele>
        <time>2016-09-25T12:49:42Z</time>
      </trkpt>
      <trkpt lat="44.1582" lon="7.20314">
        <ele>2147.6150753355</ele>
        <time>2016-09-25T12:49:52Z</time>
      </trkpt>
      <trkpt lat="44.15827" lon="7.20312">
        <ele>2147.3308305941</ele>
        <time>2016-09-25T12:49:57Z</time>
      </trkpt>
      <trkpt lat="44.15843" lon="7.20306">
        <ele>2147.2015574041</ele>
        <time>2016-09-25T12:50:12Z</time>
      </trkpt>
      <trkpt lat="44.15846" lon="7.20305">
        <ele>2147.2015574041</ele>
        <time>2016-09-25T12:50:17Z</time>
      </trkpt>
      <trkpt lat="44.15848" lon="7.20303">
        <ele>2147.2015574041</ele>
        <time>2016-09-25T12:50:22Z</time>
      </trkpt>
      <trkpt lat="44.15852" lon="7.20302">
        <ele>2147.8406212399</ele>
        <time>2016-09-25T12:50:27Z</time>
      </trkpt>
      <trkpt lat="44.15855" lon="7.20298">
        <ele>2147.8406212399</ele>
        <time>2016-09-25T12:50:32Z</time>
      </trkpt>
      <trkpt lat="44.15863" lon="7.20293">
        <ele>2149.3096213003</ele>
        <time>2016-09-25T12:50:43Z</time>
      </trkpt>
      <trkpt lat="44.15864" lon="7.20292">
        <ele>2149.3096213003</ele>
        <time>2016-09-25T12:50:48Z</time>
      </trkpt>
      <trkpt lat="44.15865" lon="7.20292">
        <ele>2149.3096213003</ele>
        <time>2016-09-25T12:51:03Z</time>
      </trkpt>
      <trkpt lat="44.15873" lon="7.20292">
        <ele>2150.3661419713</ele>
        <time>2016-09-25T12:51:17Z</time>
      </trkpt>
      <trkpt lat="44.15879" lon="7.20293">
        <ele>2150.3661419713</ele>
        <time>2016-09-25T12:51:32Z</time>
      </trkpt>
      <trkpt lat="44.15881" lon="7.20293">
        <ele>2150.3661419713</ele>
        <time>2016-09-25T12:51:37Z</time>
      </trkpt>
      <trkpt lat="44.15883" lon="7.20292">
        <ele>2151.3299709556</ele>
        <time>2016-09-25T12:51:48Z</time>
      </trkpt>
      <trkpt lat="44.15887" lon="7.20294">
        <ele>2151.3299709556</ele>
        <time>2016-09-25T12:51:52Z</time>
      </trkpt>
      <trkpt lat="44.15895" lon="7.20294">
        <ele>2151.9066612307</ele>
        <time>2016-09-25T12:52:03Z</time>
      </trkpt>
      <trkpt lat="44.15898" lon="7.20295">
        <ele>2151.9066612307</ele>
        <time>2016-09-25T12:52:08Z</time>
      </trkpt>
      <trkpt lat="44.159" lon="7.20294">
        <ele>2151.9066612307</ele>
        <time>2016-09-25T12:52:17Z</time>
      </trkpt>
      <trkpt lat="44.15906" lon="7.20292">
        <ele>2153.1501648174</ele>
        <time>2016-09-25T12:52:32Z</time>
      </trkpt>
      <trkpt lat="44.15907" lon="7.20293">
        <ele>2153.1501648174</ele>
        <time>2016-09-25T12:52:37Z</time>
      </trkpt>
      <trkpt lat="44.15912" lon="7.20294">
        <ele>2153.1501648174</ele>
        <time>2016-09-25T12:52:48Z</time>
      </trkpt>
      <trkpt lat="44.15912" lon="7.20294">
        <ele>2153.1501648174</ele>
        <time>2016-09-25T12:52:52Z</time>
      </trkpt>
      <trkpt lat="44.15919" lon="7.2029">
        <ele>2154.1039177584</ele>
        <time>2016-09-25T12:53:03Z</time>
      </trkpt>
      <trkpt lat="44.15923" lon="7.20286">
        <ele>2154.1039177584</ele>
        <time>2016-09-25T12:53:08Z</time>
      </trkpt>
      <trkpt lat="44.15927" lon="7.20284">
        <ele>2155.3666566419</ele>
        <time>2016-09-25T12:53:17Z</time>
      </trkpt>
      <trkpt lat="44.15928" lon="7.20283">
        <ele>2155.3666566419</ele>
        <time>2016-09-25T12:53:23Z</time>
      </trkpt>
      <trkpt lat="44.15933" lon="7.20275">
        <ele>2155.3666566419</ele>
        <time>2016-09-25T12:53:32Z</time>
      </trkpt>
      <trkpt lat="44.15934" lon="7.20274">
        <ele>2157.7947855394</ele>
        <time>2016-09-25T12:53:37Z</time>
      </trkpt>
      <trkpt lat="44.15936" lon="7.20271">
        <ele>2157.7947855394</ele>
        <time>2016-09-25T12:53:47Z</time>
      </trkpt>
      <trkpt lat="44.15941" lon="7.20268">
        <ele>2157.7947855394</ele>
        <time>2016-09-25T12:53:53Z</time>
      </trkpt>
      <trkpt lat="44.15952" lon="7.20259">
        <ele>2160.2905675695</ele>
        <time>2016-09-25T12:54:02Z</time>
      </trkpt>
      <trkpt lat="44.15955" lon="7.20253">
        <ele>2160.2905675695</ele>
        <time>2016-09-25T12:54:07Z</time>
      </trkpt>
      <trkpt lat="44.15962" lon="7.20247">
        <ele>2162.3410129959</ele>
        <time>2016-09-25T12:54:18Z</time>
      </trkpt>
      <trkpt lat="44.15963" lon="7.20246">
        <ele>2162.3410129959</ele>
        <time>2016-09-25T12:54:23Z</time>
      </trkpt>
      <trkpt lat="44.15965" lon="7.20244">
        <ele>2162.3410129959</ele>
        <time>2016-09-25T12:54:27Z</time>
      </trkpt>
      <trkpt lat="44.15973" lon="7.20234">
        <ele>2163.6593320586</ele>
        <time>2016-09-25T12:54:38Z</time>
      </trkpt>
      <trkpt lat="44.15978" lon="7.20231">
        <ele>2163.6593320586</ele>
        <time>2016-09-25T12:54:42Z</time>
      </trkpt>
      <trkpt lat="44.15981" lon="7.20225">
        <ele>2165.3364365773</ele>
        <time>2016-09-25T12:54:52Z</time>
      </trkpt>
      <trkpt lat="44.15982" lon="7.20222">
        <ele>2165.3364365773</ele>
        <time>2016-09-25T12:54:58Z</time>
      </trkpt>
      <trkpt lat="44.15986" lon="7.20214">
        <ele>2166.9553393729</ele>
        <time>2016-09-25T12:55:07Z</time>
      </trkpt>
      <trkpt lat="44.15991" lon="7.20209">
        <ele>2166.9553393729</ele>
        <time>2016-09-25T12:55:13Z</time>
      </trkpt>
      <trkpt lat="44.15998" lon="7.20205">
        <ele>2167.5101224756</ele>
        <time>2016-09-25T12:55:22Z</time>
      </trkpt>
      <trkpt lat="44.16001" lon="7.20202">
        <ele>2167.5101224756</ele>
        <time>2016-09-25T12:55:27Z</time>
      </trkpt>
      <trkpt lat="44.16003" lon="7.20205">
        <ele>2167.5101224756</ele>
        <time>2016-09-25T12:55:38Z</time>
      </trkpt>
      <trkpt lat="44.16003" lon="7.20206">
        <ele>2167.5101224756</ele>
        <time>2016-09-25T12:55:42Z</time>
      </trkpt>
      <trkpt lat="44.16003" lon="7.20206">
        <ele>2167.5101224756</ele>
        <time>2016-09-25T12:55:52Z</time>
      </trkpt>
      <trkpt lat="44.16003" lon="7.20206">
        <ele>2167.5101224756</ele>
        <time>2016-09-25T12:55:58Z</time>
      </trkpt>
      <trkpt lat="44.16003" lon="7.20206">
        <ele>2167.5101224756</ele>
        <time>2016-09-25T12:56:07Z</time>
      </trkpt>
      <trkpt lat="44.16004" lon="7.20206">
        <ele>2167.5101224756</ele>
        <time>2016-09-25T12:56:13Z</time>
      </trkpt>
      <trkpt lat="44.16004" lon="7.20206">
        <ele>2167.5101224756</ele>
        <time>2016-09-25T12:56:22Z</time>
      </trkpt>
      <trkpt lat="44.16006" lon="7.20203">
        <ele>2166.648146098</ele>
        <time>2016-09-25T12:56:27Z</time>
      </trkpt>
      <trkpt lat="44.16016" lon="7.20201">
        <ele>2165.1850791288</ele>
        <time>2016-09-25T12:56:43Z</time>
      </trkpt>
      <trkpt lat="44.16016" lon="7.20201">
        <ele>2165.1850791288</ele>
        <time>2016-09-25T12:56:47Z</time>
      </trkpt>
      <trkpt lat="44.16016" lon="7.20201">
        <ele>2165.1850791288</ele>
        <time>2016-09-25T12:56:52Z</time>
      </trkpt>
      <trkpt lat="44.16016" lon="7.20201">
        <ele>2165.1850791288</ele>
        <time>2016-09-25T12:56:57Z</time>
      </trkpt>
      <trkpt lat="44.16016" lon="7.20201">
        <ele>2165.1850791288</ele>
        <time>2016-09-25T12:57:02Z</time>
      </trkpt>
      <trkpt lat="44.16016" lon="7.20201">
        <ele>2165.1850791288</ele>
        <time>2016-09-25T12:57:07Z</time>
      </trkpt>
      <trkpt lat="44.16016" lon="7.20201">
        <ele>2165.1850791288</ele>
        <time>2016-09-25T12:57:12Z</time>
      </trkpt>
      <trkpt lat="44.16016" lon="7.20201">
        <ele>2165.1850791288</ele>
        <time>2016-09-25T12:57:17Z</time>
      </trkpt>
      <trkpt lat="44.16016" lon="7.20201">
        <ele>2165.1850791288</ele>
        <time>2016-09-25T12:57:22Z</time>
      </trkpt>
      <trkpt lat="44.16016" lon="7.20201">
        <ele>2165.1850791288</ele>
        <time>2016-09-25T12:57:27Z</time>
      </trkpt>
      <trkpt lat="44.16016" lon="7.20201">
        <ele>2165.1850791288</ele>
        <time>2016-09-25T12:57:32Z</time>
      </trkpt>
      <trkpt lat="44.16016" lon="7.20201">
        <ele>2165.1850791288</ele>
        <time>2016-09-25T12:57:37Z</time>
      </trkpt>
      <trkpt lat="44.16016" lon="7.20201">
        <ele>2165.1850791288</ele>
        <time>2016-09-25T12:57:43Z</time>
      </trkpt>
      <trkpt lat="44.16016" lon="7.20201">
        <ele>2165.1850791288</ele>
        <time>2016-09-25T12:57:47Z</time>
      </trkpt>
      <trkpt lat="44.16016" lon="7.20201">
        <ele>2165.1850791288</ele>
        <time>2016-09-25T12:57:58Z</time>
      </trkpt>
      <trkpt lat="44.16016" lon="7.20201">
        <ele>2165.1850791288</ele>
        <time>2016-09-25T12:58:02Z</time>
      </trkpt>
      <trkpt lat="44.16016" lon="7.20201">
        <ele>2165.1850791288</ele>
        <time>2016-09-25T12:58:13Z</time>
      </trkpt>
      <trkpt lat="44.16017" lon="7.20201">
        <ele>2165.1850791288</ele>
        <time>2016-09-25T12:58:18Z</time>
      </trkpt>
      <trkpt lat="44.16017" lon="7.202">
        <ele>2165.1850791288</ele>
        <time>2016-09-25T12:58:27Z</time>
      </trkpt>
      <trkpt lat="44.1602" lon="7.20196">
        <ele>2165.1850791288</ele>
        <time>2016-09-25T12:58:33Z</time>
      </trkpt>
      <trkpt lat="44.16024" lon="7.20189">
        <ele>2164.1088795581</ele>
        <time>2016-09-25T12:58:42Z</time>
      </trkpt>
      <trkpt lat="44.16024" lon="7.20188">
        <ele>2164.1088795581</ele>
        <time>2016-09-25T12:58:47Z</time>
      </trkpt>
      <trkpt lat="44.16024" lon="7.20186">
        <ele>2164.1088795581</ele>
        <time>2016-09-25T12:58:58Z</time>
      </trkpt>
      <trkpt lat="44.16025" lon="7.20182">
        <ele>2164.1088795581</ele>
        <time>2016-09-25T12:59:02Z</time>
      </trkpt>
      <trkpt lat="44.16037" lon="7.2017">
        <ele>2163.5411663202</ele>
        <time>2016-09-25T12:59:18Z</time>
      </trkpt>
      <trkpt lat="44.16043" lon="7.2017">
        <ele>2163.5411663202</ele>
        <time>2016-09-25T12:59:22Z</time>
      </trkpt>
      <trkpt lat="44.1605" lon="7.2017">
        <ele>2163.26166341</ele>
        <time>2016-09-25T12:59:33Z</time>
      </trkpt>
      <trkpt lat="44.16054" lon="7.20177">
        <ele>2163.26166341</ele>
        <time>2016-09-25T12:59:47Z</time>
      </trkpt>
      <trkpt lat="44.16058" lon="7.20181">
        <ele>2163.2094917497</ele>
        <time>2016-09-25T12:59:52Z</time>
      </trkpt>
      <trkpt lat="44.16066" lon="7.20188">
        <ele>2163.1834034933</ele>
        <time>2016-09-25T13:00:02Z</time>
      </trkpt>
      <trkpt lat="44.16069" lon="7.2019">
        <ele>2163.1834034933</ele>
        <time>2016-09-25T13:00:07Z</time>
      </trkpt>
      <trkpt lat="44.16072" lon="7.20191">
        <ele>2163.1834034933</ele>
        <time>2016-09-25T13:00:17Z</time>
      </trkpt>
      <trkpt lat="44.16072" lon="7.20191">
        <ele>2163.1834034933</ele>
        <time>2016-09-25T13:00:22Z</time>
      </trkpt>
      <trkpt lat="44.16078" lon="7.20198">
        <ele>2162.578843252</ele>
        <time>2016-09-25T13:00:33Z</time>
      </trkpt>
      <trkpt lat="44.1608" lon="7.202">
        <ele>2162.578843252</ele>
        <time>2016-09-25T13:00:37Z</time>
      </trkpt>
      <trkpt lat="44.1608" lon="7.20201">
        <ele>2162.578843252</ele>
        <time>2016-09-25T13:00:49Z</time>
      </trkpt>
      <trkpt lat="44.1608" lon="7.20201">
        <ele>2162.578843252</ele>
        <time>2016-09-25T13:00:53Z</time>
      </trkpt>
      <trkpt lat="44.16083" lon="7.20205">
        <ele>2162.578843252</ele>
        <time>2016-09-25T13:01:07Z</time>
      </trkpt>
      <trkpt lat="44.16088" lon="7.2021">
        <ele>2162.1197799586</ele>
        <time>2016-09-25T13:01:12Z</time>
      </trkpt>
      <trkpt lat="44.16094" lon="7.20215">
        <ele>2162.1197799586</ele>
        <time>2016-09-25T13:01:23Z</time>
      </trkpt>
      <trkpt lat="44.16104" lon="7.20224">
        <ele>2162.0441583595</ele>
        <time>2016-09-25T13:01:37Z</time>
      </trkpt>
      <trkpt lat="44.16107" lon="7.20224">
        <ele>2162.0441583595</ele>
        <time>2016-09-25T13:01:43Z</time>
      </trkpt>
      <trkpt lat="44.16109" lon="7.20224">
        <ele>2162.0441583595</ele>
        <time>2016-09-25T13:01:52Z</time>
      </trkpt>
      <trkpt lat="44.16109" lon="7.20224">
        <ele>2162.0441583595</ele>
        <time>2016-09-25T13:01:57Z</time>
      </trkpt>
      <trkpt lat="44.16109" lon="7.20224">
        <ele>2162.0441583595</ele>
        <time>2016-09-25T13:02:02Z</time>
      </trkpt>
      <trkpt lat="44.16109" lon="7.20224">
        <ele>2162.0441583595</ele>
        <time>2016-09-25T13:02:07Z</time>
      </trkpt>
      <trkpt lat="44.16109" lon="7.20224">
        <ele>2162.0441583595</ele>
        <time>2016-09-25T13:02:12Z</time>
      </trkpt>
      <trkpt lat="44.16109" lon="7.20224">
        <ele>2162.0441583595</ele>
        <time>2016-09-25T13:02:17Z</time>
      </trkpt>
      <trkpt lat="44.1611" lon="7.20224">
        <ele>2162.0441583595</ele>
        <time>2016-09-25T13:02:23Z</time>
      </trkpt>
      <trkpt lat="44.16112" lon="7.20225">
        <ele>2162.0441583595</ele>
        <time>2016-09-25T13:02:27Z</time>
      </trkpt>
      <trkpt lat="44.16114" lon="7.20229">
        <ele>2163.2630020022</ele>
        <time>2016-09-25T13:02:37Z</time>
      </trkpt>
      <trkpt lat="44.16117" lon="7.20231">
        <ele>2163.2630020022</ele>
        <time>2016-09-25T13:02:42Z</time>
      </trkpt>
      <trkpt lat="44.16119" lon="7.2023">
        <ele>2163.2630020022</ele>
        <time>2016-09-25T13:02:53Z</time>
      </trkpt>
      <trkpt lat="44.1612" lon="7.20228">
        <ele>2163.2630020022</ele>
        <time>2016-09-25T13:02:57Z</time>
      </trkpt>
      <trkpt lat="44.16122" lon="7.20226">
        <ele>2164.8441159038</ele>
        <time>2016-09-25T13:03:02Z</time>
      </trkpt>
      <trkpt lat="44.16124" lon="7.20225">
        <ele>2164.8441159038</ele>
        <time>2016-09-25T13:03:12Z</time>
      </trkpt>
      <trkpt lat="44.16127" lon="7.20221">
        <ele>2164.8441159038</ele>
        <time>2016-09-25T13:03:17Z</time>
      </trkpt>
      <trkpt lat="44.16132" lon="7.20216">
        <ele>2166.4558895317</ele>
        <time>2016-09-25T13:03:28Z</time>
      </trkpt>
      <trkpt lat="44.16132" lon="7.20215">
        <ele>2166.4558895317</ele>
        <time>2016-09-25T13:03:32Z</time>
      </trkpt>
      <trkpt lat="44.16135" lon="7.20218">
        <ele>2166.4558895317</ele>
        <time>2016-09-25T13:03:43Z</time>
      </trkpt>
      <trkpt lat="44.16136" lon="7.20216">
        <ele>2166.4558895317</ele>
        <time>2016-09-25T13:03:48Z</time>
      </trkpt>
      <trkpt lat="44.16137" lon="7.20216">
        <ele>2166.4558895317</ele>
        <time>2016-09-25T13:03:57Z</time>
      </trkpt>
      <trkpt lat="44.16138" lon="7.20215">
        <ele>2166.4558895317</ele>
        <time>2016-09-25T13:04:03Z</time>
      </trkpt>
      <trkpt lat="44.16141" lon="7.20204">
        <ele>2167.0271172523</ele>
        <time>2016-09-25T13:04:12Z</time>
      </trkpt>
      <trkpt lat="44.16143" lon="7.202">
        <ele>2167.0271172523</ele>
        <time>2016-09-25T13:04:17Z</time>
      </trkpt>
      <trkpt lat="44.16145" lon="7.20198">
        <ele>2167.0271172523</ele>
        <time>2016-09-25T13:04:28Z</time>
      </trkpt>
      <trkpt lat="44.16145" lon="7.20198">
        <ele>2167.0271172523</ele>
        <time>2016-09-25T13:04:32Z</time>
      </trkpt>
      <trkpt lat="44.16151" lon="7.202">
        <ele>2167.5280444703</ele>
        <time>2016-09-25T13:04:43Z</time>
      </trkpt>
      <trkpt lat="44.16154" lon="7.20202">
        <ele>2167.5280444703</ele>
        <time>2016-09-25T13:04:47Z</time>
      </trkpt>
      <trkpt lat="44.16155" lon="7.20203">
        <ele>2167.5280444703</ele>
        <time>2016-09-25T13:04:52Z</time>
      </trkpt>
      <trkpt lat="44.16155" lon="7.20201">
        <ele>2167.5280444703</ele>
        <time>2016-09-25T13:04:57Z</time>
      </trkpt>
      <trkpt lat="44.16165" lon="7.20197">
        <ele>2168.4542672237</ele>
        <time>2016-09-25T13:05:09Z</time>
      </trkpt>
      <trkpt lat="44.16166" lon="7.20195">
        <ele>2168.4542672237</ele>
        <time>2016-09-25T13:05:13Z</time>
      </trkpt>
      <trkpt lat="44.16165" lon="7.2019">
        <ele>2168.4542672237</ele>
        <time>2016-09-25T13:05:27Z</time>
      </trkpt>
      <trkpt lat="44.16166" lon="7.20183">
        <ele>2169.8746276174</ele>
        <time>2016-09-25T13:05:42Z</time>
      </trkpt>
      <trkpt lat="44.1617" lon="7.20181">
        <ele>2169.8746276174</ele>
        <time>2016-09-25T13:05:57Z</time>
      </trkpt>
      <trkpt lat="44.16172" lon="7.20179">
        <ele>2169.8746276174</ele>
        <time>2016-09-25T13:06:02Z</time>
      </trkpt>
      <trkpt lat="44.16174" lon="7.20175">
        <ele>2171.3903211268</ele>
        <time>2016-09-25T13:06:12Z</time>
      </trkpt>
      <trkpt lat="44.16175" lon="7.20175">
        <ele>2171.3903211268</ele>
        <time>2016-09-25T13:06:17Z</time>
      </trkpt>
      <trkpt lat="44.16178" lon="7.20172">
        <ele>2171.3903211268</ele>
        <time>2016-09-25T13:06:27Z</time>
      </trkpt>
      <trkpt lat="44.16179" lon="7.2017">
        <ele>2171.3903211268</ele>
        <time>2016-09-25T13:06:33Z</time>
      </trkpt>
      <trkpt lat="44.16181" lon="7.20172">
        <ele>2171.3903211268</ele>
        <time>2016-09-25T13:06:42Z</time>
      </trkpt>
      <trkpt lat="44.16181" lon="7.2017">
        <ele>2172.2568424101</ele>
        <time>2016-09-25T13:06:48Z</time>
      </trkpt>
      <trkpt lat="44.16184" lon="7.20172">
        <ele>2172.2568424101</ele>
        <time>2016-09-25T13:07:03Z</time>
      </trkpt>
      <trkpt lat="44.16189" lon="7.20172">
        <ele>2172.2568424101</ele>
        <time>2016-09-25T13:07:17Z</time>
      </trkpt>
      <trkpt lat="44.1619" lon="7.20169">
        <ele>2172.3049644077</ele>
        <time>2016-09-25T13:07:22Z</time>
      </trkpt>
      <trkpt lat="44.16191" lon="7.2017">
        <ele>2172.3049644077</ele>
        <time>2016-09-25T13:07:27Z</time>
      </trkpt>
      <trkpt lat="44.16191" lon="7.2017">
        <ele>2172.3049644077</ele>
        <time>2016-09-25T13:07:32Z</time>
      </trkpt>
      <trkpt lat="44.16191" lon="7.2017">
        <ele>2172.3049644077</ele>
        <time>2016-09-25T13:07:37Z</time>
      </trkpt>
      <trkpt lat="44.16191" lon="7.2017">
        <ele>2172.3049644077</ele>
        <time>2016-09-25T13:07:42Z</time>
      </trkpt>
      <trkpt lat="44.16191" lon="7.2017">
        <ele>2172.3049644077</ele>
        <time>2016-09-25T13:07:47Z</time>
      </trkpt>
      <trkpt lat="44.16191" lon="7.2017">
        <ele>2172.3049644077</ele>
        <time>2016-09-25T13:07:52Z</time>
      </trkpt>
      <trkpt lat="44.16191" lon="7.2017">
        <ele>2172.3049644077</ele>
        <time>2016-09-25T13:07:57Z</time>
      </trkpt>
      <trkpt lat="44.16191" lon="7.20171">
        <ele>2172.3049644077</ele>
        <time>2016-09-25T13:08:02Z</time>
      </trkpt>
      <trkpt lat="44.16192" lon="7.20171">
        <ele>2172.3049644077</ele>
        <time>2016-09-25T13:08:07Z</time>
      </trkpt>
      <trkpt lat="44.16192" lon="7.2017">
        <ele>2172.3049644077</ele>
        <time>2016-09-25T13:08:12Z</time>
      </trkpt>
      <trkpt lat="44.16193" lon="7.2017">
        <ele>2172.3049644077</ele>
        <time>2016-09-25T13:08:17Z</time>
      </trkpt>
      <trkpt lat="44.16193" lon="7.2017">
        <ele>2172.3049644077</ele>
        <time>2016-09-25T13:08:22Z</time>
      </trkpt>
      <trkpt lat="44.16193" lon="7.2017">
        <ele>2172.3049644077</ele>
        <time>2016-09-25T13:08:27Z</time>
      </trkpt>
      <trkpt lat="44.16193" lon="7.2017">
        <ele>2172.3049644077</ele>
        <time>2016-09-25T13:08:32Z</time>
      </trkpt>
      <trkpt lat="44.16194" lon="7.20171">
        <ele>2172.3049644077</ele>
        <time>2016-09-25T13:08:37Z</time>
      </trkpt>
      <trkpt lat="44.16193" lon="7.2017">
        <ele>2172.3049644077</ele>
        <time>2016-09-25T13:08:42Z</time>
      </trkpt>
      <trkpt lat="44.16194" lon="7.20171">
        <ele>2172.3049644077</ele>
        <time>2016-09-25T13:08:47Z</time>
      </trkpt>
      <trkpt lat="44.16193" lon="7.20171">
        <ele>2172.3049644077</ele>
        <time>2016-09-25T13:08:52Z</time>
      </trkpt>
      <trkpt lat="44.16193" lon="7.2017">
        <ele>2172.3049644077</ele>
        <time>2016-09-25T13:08:57Z</time>
      </trkpt>
      <trkpt lat="44.16193" lon="7.2017">
        <ele>2172.3049644077</ele>
        <time>2016-09-25T13:09:02Z</time>
      </trkpt>
      <trkpt lat="44.16194" lon="7.20169">
        <ele>2172.3049644077</ele>
        <time>2016-09-25T13:09:07Z</time>
      </trkpt>
      <trkpt lat="44.16193" lon="7.20168">
        <ele>2173.8300500478</ele>
        <time>2016-09-25T13:09:12Z</time>
      </trkpt>
      <trkpt lat="44.16194" lon="7.20167">
        <ele>2173.8300500478</ele>
        <time>2016-09-25T13:09:17Z</time>
      </trkpt>
      <trkpt lat="44.16193" lon="7.20167">
        <ele>2173.8300500478</ele>
        <time>2016-09-25T13:09:22Z</time>
      </trkpt>
      <trkpt lat="44.16193" lon="7.20167">
        <ele>2173.8300500478</ele>
        <time>2016-09-25T13:09:27Z</time>
      </trkpt>
      <trkpt lat="44.16193" lon="7.20167">
        <ele>2173.8300500478</ele>
        <time>2016-09-25T13:09:32Z</time>
      </trkpt>
      <trkpt lat="44.16193" lon="7.20167">
        <ele>2173.8300500478</ele>
        <time>2016-09-25T13:09:37Z</time>
      </trkpt>
      <trkpt lat="44.16193" lon="7.20167">
        <ele>2173.8300500478</ele>
        <time>2016-09-25T13:09:42Z</time>
      </trkpt>
      <trkpt lat="44.16193" lon="7.20167">
        <ele>2173.8300500478</ele>
        <time>2016-09-25T13:09:47Z</time>
      </trkpt>
      <trkpt lat="44.16193" lon="7.20167">
        <ele>2173.8300500478</ele>
        <time>2016-09-25T13:09:52Z</time>
      </trkpt>
      <trkpt lat="44.16193" lon="7.20167">
        <ele>2173.8300500478</ele>
        <time>2016-09-25T13:09:57Z</time>
      </trkpt>
      <trkpt lat="44.16193" lon="7.20167">
        <ele>2173.8300500478</ele>
        <time>2016-09-25T13:10:02Z</time>
      </trkpt>
      <trkpt lat="44.16194" lon="7.20167">
        <ele>2173.8300500478</ele>
        <time>2016-09-25T13:10:07Z</time>
      </trkpt>
      <trkpt lat="44.16194" lon="7.20167">
        <ele>2173.8300500478</ele>
        <time>2016-09-25T13:10:12Z</time>
      </trkpt>
      <trkpt lat="44.16194" lon="7.20167">
        <ele>2173.8300500478</ele>
        <time>2016-09-25T13:10:18Z</time>
      </trkpt>
      <trkpt lat="44.16194" lon="7.20167">
        <ele>2173.8300500478</ele>
        <time>2016-09-25T13:10:32Z</time>
      </trkpt>
      <trkpt lat="44.16194" lon="7.20167">
        <ele>2173.8300500478</ele>
        <time>2016-09-25T13:10:47Z</time>
      </trkpt>
      <trkpt lat="44.16194" lon="7.20167">
        <ele>2173.8300500478</ele>
        <time>2016-09-25T13:10:52Z</time>
      </trkpt>
      <trkpt lat="44.16194" lon="7.20167">
        <ele>2173.8300500478</ele>
        <time>2016-09-25T13:11:03Z</time>
      </trkpt>
      <trkpt lat="44.16194" lon="7.20167">
        <ele>2173.8300500478</ele>
        <time>2016-09-25T13:11:07Z</time>
      </trkpt>
      <trkpt lat="44.16194" lon="7.20167">
        <ele>2173.8300500478</ele>
        <time>2016-09-25T13:11:17Z</time>
      </trkpt>
      <trkpt lat="44.16194" lon="7.20167">
        <ele>2173.8300500478</ele>
        <time>2016-09-25T13:11:23Z</time>
      </trkpt>
      <trkpt lat="44.16194" lon="7.20167">
        <ele>2173.8300500478</ele>
        <time>2016-09-25T13:11:32Z</time>
      </trkpt>
      <trkpt lat="44.16194" lon="7.20167">
        <ele>2173.8300500478</ele>
        <time>2016-09-25T13:11:38Z</time>
      </trkpt>
      <trkpt lat="44.16194" lon="7.20167">
        <ele>2173.8300500478</ele>
        <time>2016-09-25T13:11:47Z</time>
      </trkpt>
      <trkpt lat="44.16194" lon="7.20167">
        <ele>2173.8300500478</ele>
        <time>2016-09-25T13:11:52Z</time>
      </trkpt>
      <trkpt lat="44.16194" lon="7.20167">
        <ele>2173.8300500478</ele>
        <time>2016-09-25T13:12:03Z</time>
      </trkpt>
      <trkpt lat="44.16194" lon="7.20167">
        <ele>2173.8300500478</ele>
        <time>2016-09-25T13:12:07Z</time>
      </trkpt>
      <trkpt lat="44.16194" lon="7.20167">
        <ele>2173.8300500478</ele>
        <time>2016-09-25T13:12:18Z</time>
      </trkpt>
      <trkpt lat="44.16194" lon="7.20167">
        <ele>2173.8300500478</ele>
        <time>2016-09-25T13:12:23Z</time>
      </trkpt>
      <trkpt lat="44.16194" lon="7.20167">
        <ele>2173.8300500478</ele>
        <time>2016-09-25T13:12:32Z</time>
      </trkpt>
      <trkpt lat="44.16194" lon="7.20167">
        <ele>2173.8300500478</ele>
        <time>2016-09-25T13:12:38Z</time>
      </trkpt>
      <trkpt lat="44.16194" lon="7.20167">
        <ele>2173.8300500478</ele>
        <time>2016-09-25T13:12:47Z</time>
      </trkpt>
      <trkpt lat="44.16194" lon="7.20167">
        <ele>2173.8300500478</ele>
        <time>2016-09-25T13:12:52Z</time>
      </trkpt>
      <trkpt lat="44.16194" lon="7.20167">
        <ele>2173.8300500478</ele>
        <time>2016-09-25T13:13:07Z</time>
      </trkpt>
      <trkpt lat="44.16202" lon="7.20176">
        <ele>2174.876334702</ele>
        <time>2016-09-25T13:13:22Z</time>
      </trkpt>
      <trkpt lat="44.16203" lon="7.20177">
        <ele>2174.876334702</ele>
        <time>2016-09-25T13:13:37Z</time>
      </trkpt>
      <trkpt lat="44.16205" lon="7.20177">
        <ele>2174.876334702</ele>
        <time>2016-09-25T13:13:42Z</time>
      </trkpt>
      <trkpt lat="44.16212" lon="7.2018">
        <ele>2176.0252939518</ele>
        <time>2016-09-25T13:13:53Z</time>
      </trkpt>
      <trkpt lat="44.16215" lon="7.20183">
        <ele>2176.0252939518</ele>
        <time>2016-09-25T13:13:57Z</time>
      </trkpt>
      <trkpt lat="44.16222" lon="7.20183">
        <ele>2177.0371875555</ele>
        <time>2016-09-25T13:14:08Z</time>
      </trkpt>
      <trkpt lat="44.16224" lon="7.20184">
        <ele>2177.0371875555</ele>
        <time>2016-09-25T13:14:13Z</time>
      </trkpt>
      <trkpt lat="44.1623" lon="7.20185">
        <ele>2177.0371875555</ele>
        <time>2016-09-25T13:14:22Z</time>
      </trkpt>
      <trkpt lat="44.16232" lon="7.20185">
        <ele>2178.2378868322</ele>
        <time>2016-09-25T13:14:28Z</time>
      </trkpt>
      <trkpt lat="44.16232" lon="7.20185">
        <ele>2178.2378868322</ele>
        <time>2016-09-25T13:14:42Z</time>
      </trkpt>
      <trkpt lat="44.16235" lon="7.20185">
        <ele>2178.2378868322</ele>
        <time>2016-09-25T13:14:53Z</time>
      </trkpt>
      <trkpt lat="44.16236" lon="7.20185">
        <ele>2178.2378868322</ele>
        <time>2016-09-25T13:14:57Z</time>
      </trkpt>
      <trkpt lat="44.16236" lon="7.20186">
        <ele>2178.2378868322</ele>
        <time>2016-09-25T13:15:02Z</time>
      </trkpt>
      <trkpt lat="44.16236" lon="7.20185">
        <ele>2178.2378868322</ele>
        <time>2016-09-25T13:15:08Z</time>
      </trkpt>
      <trkpt lat="44.16237" lon="7.20185">
        <ele>2178.2378868322</ele>
        <time>2016-09-25T13:15:12Z</time>
      </trkpt>
      <trkpt lat="44.16237" lon="7.20185">
        <ele>2178.2378868322</ele>
        <time>2016-09-25T13:15:17Z</time>
      </trkpt>
      <trkpt lat="44.16241" lon="7.20186">
        <ele>2180.260250843</ele>
        <time>2016-09-25T13:15:27Z</time>
      </trkpt>
      <trkpt lat="44.16243" lon="7.20186">
        <ele>2180.260250843</ele>
        <time>2016-09-25T13:15:32Z</time>
      </trkpt>
      <trkpt lat="44.16246" lon="7.20183">
        <ele>2180.260250843</ele>
        <time>2016-09-25T13:15:42Z</time>
      </trkpt>
      <trkpt lat="44.16246" lon="7.20182">
        <ele>2180.260250843</ele>
        <time>2016-09-25T13:15:47Z</time>
      </trkpt>
      <trkpt lat="44.16247" lon="7.20179">
        <ele>2180.260250843</ele>
        <time>2016-09-25T13:15:58Z</time>
      </trkpt>
      <trkpt lat="44.16248" lon="7.20179">
        <ele>2183.0974972898</ele>
        <time>2016-09-25T13:16:02Z</time>
      </trkpt>
      <trkpt lat="44.16249" lon="7.20179">
        <ele>2183.0974972898</ele>
        <time>2016-09-25T13:16:12Z</time>
      </trkpt>
      <trkpt lat="44.16249" lon="7.20179">
        <ele>2183.0974972898</ele>
        <time>2016-09-25T13:16:17Z</time>
      </trkpt>
      <trkpt lat="44.16249" lon="7.20179">
        <ele>2183.0974972898</ele>
        <time>2016-09-25T13:16:27Z</time>
      </trkpt>
      <trkpt lat="44.1625" lon="7.2018">
        <ele>2183.0974972898</ele>
        <time>2016-09-25T13:16:33Z</time>
      </trkpt>
      <trkpt lat="44.16253" lon="7.20179">
        <ele>2183.0974972898</ele>
        <time>2016-09-25T13:16:42Z</time>
      </trkpt>
      <trkpt lat="44.16254" lon="7.20178">
        <ele>2183.0974972898</ele>
        <time>2016-09-25T13:16:47Z</time>
      </trkpt>
      <trkpt lat="44.16258" lon="7.20179">
        <ele>2186.2222764345</ele>
        <time>2016-09-25T13:16:58Z</time>
      </trkpt>
      <trkpt lat="44.16258" lon="7.20178">
        <ele>2186.2222764345</ele>
        <time>2016-09-25T13:17:02Z</time>
      </trkpt>
      <trkpt lat="44.16259" lon="7.20177">
        <ele>2186.2222764345</ele>
        <time>2016-09-25T13:17:07Z</time>
      </trkpt>
      <trkpt lat="44.16259" lon="7.20177">
        <ele>2186.2222764345</ele>
        <time>2016-09-25T13:17:12Z</time>
      </trkpt>
      <trkpt lat="44.16258" lon="7.20177">
        <ele>2186.2222764345</ele>
        <time>2016-09-25T13:17:17Z</time>
      </trkpt>
      <trkpt lat="44.1626" lon="7.20177">
        <ele>2186.2222764345</ele>
        <time>2016-09-25T13:17:27Z</time>
      </trkpt>
      <trkpt lat="44.16259" lon="7.20177">
        <ele>2186.2222764345</ele>
        <time>2016-09-25T13:17:33Z</time>
      </trkpt>
      <trkpt lat="44.16259" lon="7.20174">
        <ele>2186.2222764345</ele>
        <time>2016-09-25T13:17:42Z</time>
      </trkpt>
      <trkpt lat="44.16259" lon="7.20174">
        <ele>2186.2222764345</ele>
        <time>2016-09-25T13:17:47Z</time>
      </trkpt>
      <trkpt lat="44.16259" lon="7.20174">
        <ele>2186.2222764345</ele>
        <time>2016-09-25T13:17:58Z</time>
      </trkpt>
      <trkpt lat="44.16259" lon="7.20174">
        <ele>2186.2222764345</ele>
        <time>2016-09-25T13:18:02Z</time>
      </trkpt>
      <trkpt lat="44.16259" lon="7.20174">
        <ele>2186.2222764345</ele>
        <time>2016-09-25T13:18:07Z</time>
      </trkpt>
      <trkpt lat="44.16259" lon="7.20174">
        <ele>2186.2222764345</ele>
        <time>2016-09-25T13:18:18Z</time>
      </trkpt>
      <trkpt lat="44.16261" lon="7.20172">
        <ele>2190.8889536832</ele>
        <time>2016-09-25T13:18:22Z</time>
      </trkpt>
      <trkpt lat="44.16261" lon="7.2017">
        <ele>2190.8889536832</ele>
        <time>2016-09-25T13:18:33Z</time>
      </trkpt>
      <trkpt lat="44.16264" lon="7.2017">
        <ele>2190.8889536832</ele>
        <time>2016-09-25T13:18:38Z</time>
      </trkpt>
      <trkpt lat="44.16267" lon="7.2017">
        <ele>2190.8889536832</ele>
        <time>2016-09-25T13:18:47Z</time>
      </trkpt>
      <trkpt lat="44.16269" lon="7.20172">
        <ele>2195.7047157559</ele>
        <time>2016-09-25T13:18:52Z</time>
      </trkpt>
      <trkpt lat="44.16269" lon="7.20174">
        <ele>2195.7047157559</ele>
        <time>2016-09-25T13:19:03Z</time>
      </trkpt>
      <trkpt lat="44.1627" lon="7.20174">
        <ele>2195.7047157559</ele>
        <time>2016-09-25T13:19:07Z</time>
      </trkpt>
      <trkpt lat="44.1627" lon="7.20174">
        <ele>2195.7047157559</ele>
        <time>2016-09-25T13:19:18Z</time>
      </trkpt>
      <trkpt lat="44.1627" lon="7.20174">
        <ele>2195.7047157559</ele>
        <time>2016-09-25T13:19:23Z</time>
      </trkpt>
      <trkpt lat="44.1627" lon="7.20174">
        <ele>2195.7047157559</ele>
        <time>2016-09-25T13:19:32Z</time>
      </trkpt>
      <trkpt lat="44.1627" lon="7.20174">
        <ele>2195.7047157559</ele>
        <time>2016-09-25T13:19:38Z</time>
      </trkpt>
      <trkpt lat="44.1627" lon="7.20174">
        <ele>2195.7047157559</ele>
        <time>2016-09-25T13:19:47Z</time>
      </trkpt>
      <trkpt lat="44.1627" lon="7.20174">
        <ele>2195.7047157559</ele>
        <time>2016-09-25T13:19:52Z</time>
      </trkpt>
      <trkpt lat="44.1627" lon="7.20174">
        <ele>2195.7047157559</ele>
        <time>2016-09-25T13:19:57Z</time>
      </trkpt>
      <trkpt lat="44.1627" lon="7.20174">
        <ele>2195.7047157559</ele>
        <time>2016-09-25T13:20:02Z</time>
      </trkpt>
      <trkpt lat="44.16271" lon="7.20175">
        <ele>2195.7047157559</ele>
        <time>2016-09-25T13:20:08Z</time>
      </trkpt>
      <trkpt lat="44.16273" lon="7.20177">
        <ele>2195.7047157559</ele>
        <time>2016-09-25T13:20:17Z</time>
      </trkpt>
      <trkpt lat="44.16273" lon="7.20178">
        <ele>2195.7047157559</ele>
        <time>2016-09-25T13:20:23Z</time>
      </trkpt>
      <trkpt lat="44.16273" lon="7.20178">
        <ele>2195.7047157559</ele>
        <time>2016-09-25T13:20:32Z</time>
      </trkpt>
      <trkpt lat="44.16273" lon="7.20178">
        <ele>2195.7047157559</ele>
        <time>2016-09-25T13:20:37Z</time>
      </trkpt>
      <trkpt lat="44.16275" lon="7.20174">
        <ele>2202.3762460404</ele>
        <time>2016-09-25T13:20:48Z</time>
      </trkpt>
      <trkpt lat="44.16277" lon="7.20172">
        <ele>2202.3762460404</ele>
        <time>2016-09-25T13:20:53Z</time>
      </trkpt>
      <trkpt lat="44.16277" lon="7.20171">
        <ele>2202.3762460404</ele>
        <time>2016-09-25T13:20:57Z</time>
      </trkpt>
      <trkpt lat="44.16278" lon="7.20171">
        <ele>2202.3762460404</ele>
        <time>2016-09-25T13:21:08Z</time>
      </trkpt>
      <trkpt lat="44.16278" lon="7.20171">
        <ele>2202.3762460404</ele>
        <time>2016-09-25T13:21:12Z</time>
      </trkpt>
      <trkpt lat="44.16278" lon="7.20172">
        <ele>2202.3762460404</ele>
        <time>2016-09-25T13:21:23Z</time>
      </trkpt>
      <trkpt lat="44.16278" lon="7.20172">
        <ele>2202.3762460404</ele>
        <time>2016-09-25T13:21:27Z</time>
      </trkpt>
      <trkpt lat="44.16282" lon="7.2017">
        <ele>2202.3762460404</ele>
        <time>2016-09-25T13:21:37Z</time>
      </trkpt>
      <trkpt lat="44.16283" lon="7.2017">
        <ele>2208.4446555262</ele>
        <time>2016-09-25T13:21:42Z</time>
      </trkpt>
      <trkpt lat="44.16283" lon="7.2017">
        <ele>2208.4446555262</ele>
        <time>2016-09-25T13:21:52Z</time>
      </trkpt>
      <trkpt lat="44.16283" lon="7.2017">
        <ele>2208.4446555262</ele>
        <time>2016-09-25T13:21:57Z</time>
      </trkpt>
      <trkpt lat="44.16283" lon="7.2017">
        <ele>2208.4446555262</ele>
        <time>2016-09-25T13:22:08Z</time>
      </trkpt>
      <trkpt lat="44.16283" lon="7.2017">
        <ele>2208.4446555262</ele>
        <time>2016-09-25T13:22:12Z</time>
      </trkpt>
      <trkpt lat="44.16291" lon="7.20165">
        <ele>2214.5301618578</ele>
        <time>2016-09-25T13:22:23Z</time>
      </trkpt>
      <trkpt lat="44.16292" lon="7.20162">
        <ele>2214.5301618578</ele>
        <time>2016-09-25T13:22:27Z</time>
      </trkpt>
      <trkpt lat="44.163" lon="7.20164">
        <ele>2221.2507932876</ele>
        <time>2016-09-25T13:22:38Z</time>
      </trkpt>
      <trkpt lat="44.16302" lon="7.20163">
        <ele>2221.2507932876</ele>
        <time>2016-09-25T13:22:42Z</time>
      </trkpt>
      <trkpt lat="44.16305" lon="7.20163">
        <ele>2221.2507932876</ele>
        <time>2016-09-25T13:22:47Z</time>
      </trkpt>
      <trkpt lat="44.1631" lon="7.20163">
        <ele>2227.6788590995</ele>
        <time>2016-09-25T13:22:53Z</time>
      </trkpt>
      <trkpt lat="44.1631" lon="7.20162">
        <ele>2227.6788590995</ele>
        <time>2016-09-25T13:22:58Z</time>
      </trkpt>
      <trkpt lat="44.16308" lon="7.20159">
        <ele>2227.6788590995</ele>
        <time>2016-09-25T13:23:02Z</time>
      </trkpt>
      <trkpt lat="44.16308" lon="7.20157">
        <ele>2227.6788590995</ele>
        <time>2016-09-25T13:23:13Z</time>
      </trkpt>
      <trkpt lat="44.16308" lon="7.20154">
        <ele>2227.6788590995</ele>
        <time>2016-09-25T13:23:27Z</time>
      </trkpt>
      <trkpt lat="44.16309" lon="7.20154">
        <ele>2227.6788590995</ele>
        <time>2016-09-25T13:23:42Z</time>
      </trkpt>
      <trkpt lat="44.16309" lon="7.20154">
        <ele>2227.6788590995</ele>
        <time>2016-09-25T13:23:47Z</time>
      </trkpt>
      <trkpt lat="44.16309" lon="7.20154">
        <ele>2227.6788590995</ele>
        <time>2016-09-25T13:23:58Z</time>
      </trkpt>
      <trkpt lat="44.16309" lon="7.20154">
        <ele>2227.6788590995</ele>
        <time>2016-09-25T13:24:02Z</time>
      </trkpt>
      <trkpt lat="44.16311" lon="7.20148">
        <ele>2234.1808306266</ele>
        <time>2016-09-25T13:24:13Z</time>
      </trkpt>
      <trkpt lat="44.16312" lon="7.20143">
        <ele>2234.1808306266</ele>
        <time>2016-09-25T13:24:18Z</time>
      </trkpt>
      <trkpt lat="44.16317" lon="7.20138">
        <ele>2240.3757711963</ele>
        <time>2016-09-25T13:24:32Z</time>
      </trkpt>
      <trkpt lat="44.16317" lon="7.20137">
        <ele>2240.3757711963</ele>
        <time>2016-09-25T13:24:37Z</time>
      </trkpt>
      <trkpt lat="44.16317" lon="7.20137">
        <ele>2240.3757711963</ele>
        <time>2016-09-25T13:24:42Z</time>
      </trkpt>
      <trkpt lat="44.16317" lon="7.20137">
        <ele>2240.3757711963</ele>
        <time>2016-09-25T13:24:47Z</time>
      </trkpt>
      <trkpt lat="44.16317" lon="7.20137">
        <ele>2240.3757711963</ele>
        <time>2016-09-25T13:24:58Z</time>
      </trkpt>
      <trkpt lat="44.16316" lon="7.20136">
        <ele>2240.3757711963</ele>
        <time>2016-09-25T13:25:02Z</time>
      </trkpt>
      <trkpt lat="44.16315" lon="7.20132">
        <ele>2240.3757711963</ele>
        <time>2016-09-25T13:25:12Z</time>
      </trkpt>
      <trkpt lat="44.16316" lon="7.20131">
        <ele>2240.3757711963</ele>
        <time>2016-09-25T13:25:17Z</time>
      </trkpt>
      <trkpt lat="44.16317" lon="7.20131">
        <ele>2240.3757711963</ele>
        <time>2016-09-25T13:25:28Z</time>
      </trkpt>
      <trkpt lat="44.16317" lon="7.20131">
        <ele>2240.3757711963</ele>
        <time>2016-09-25T13:25:33Z</time>
      </trkpt>
      <trkpt lat="44.16317" lon="7.20131">
        <ele>2240.3757711963</ele>
        <time>2016-09-25T13:25:42Z</time>
      </trkpt>
      <trkpt lat="44.16317" lon="7.20131">
        <ele>2240.3757711963</ele>
        <time>2016-09-25T13:25:47Z</time>
      </trkpt>
      <trkpt lat="44.16317" lon="7.20131">
        <ele>2240.3757711963</ele>
        <time>2016-09-25T13:25:58Z</time>
      </trkpt>
      <trkpt lat="44.16317" lon="7.20131">
        <ele>2240.3757711963</ele>
        <time>2016-09-25T13:26:02Z</time>
      </trkpt>
      <trkpt lat="44.16317" lon="7.20131">
        <ele>2240.3757711963</ele>
        <time>2016-09-25T13:26:13Z</time>
      </trkpt>
      <trkpt lat="44.16317" lon="7.20131">
        <ele>2240.3757711963</ele>
        <time>2016-09-25T13:26:17Z</time>
      </trkpt>
      <trkpt lat="44.16317" lon="7.20131">
        <ele>2240.3757711963</ele>
        <time>2016-09-25T13:26:28Z</time>
      </trkpt>
      <trkpt lat="44.16317" lon="7.20131">
        <ele>2240.3757711963</ele>
        <time>2016-09-25T13:26:33Z</time>
      </trkpt>
      <trkpt lat="44.16317" lon="7.20131">
        <ele>2240.3757711963</ele>
        <time>2016-09-25T13:26:48Z</time>
      </trkpt>
      <trkpt lat="44.16317" lon="7.20131">
        <ele>2240.3757711963</ele>
        <time>2016-09-25T13:27:02Z</time>
      </trkpt>
      <trkpt lat="44.16317" lon="7.20131">
        <ele>2240.3757711963</ele>
        <time>2016-09-25T13:27:08Z</time>
      </trkpt>
      <trkpt lat="44.16317" lon="7.20131">
        <ele>2240.3757711963</ele>
        <time>2016-09-25T13:27:17Z</time>
      </trkpt>
      <trkpt lat="44.16317" lon="7.20131">
        <ele>2240.3757711963</ele>
        <time>2016-09-25T13:27:22Z</time>
      </trkpt>
      <trkpt lat="44.16317" lon="7.20131">
        <ele>2240.3757711963</ele>
        <time>2016-09-25T13:27:33Z</time>
      </trkpt>
      <trkpt lat="44.16317" lon="7.20131">
        <ele>2240.3757711963</ele>
        <time>2016-09-25T13:27:37Z</time>
      </trkpt>
      <trkpt lat="44.16317" lon="7.20132">
        <ele>2240.3757711963</ele>
        <time>2016-09-25T13:27:48Z</time>
      </trkpt>
      <trkpt lat="44.16317" lon="7.20132">
        <ele>2240.3757711963</ele>
        <time>2016-09-25T13:27:53Z</time>
      </trkpt>
      <trkpt lat="44.16317" lon="7.20132">
        <ele>2240.3757711963</ele>
        <time>2016-09-25T13:28:02Z</time>
      </trkpt>
      <trkpt lat="44.16317" lon="7.20132">
        <ele>2240.3757711963</ele>
        <time>2016-09-25T13:28:08Z</time>
      </trkpt>
      <trkpt lat="44.16317" lon="7.20132">
        <ele>2240.3757711963</ele>
        <time>2016-09-25T13:28:17Z</time>
      </trkpt>
      <trkpt lat="44.16317" lon="7.20132">
        <ele>2240.3757711963</ele>
        <time>2016-09-25T13:28:22Z</time>
      </trkpt>
      <trkpt lat="44.16317" lon="7.20132">
        <ele>2240.3757711963</ele>
        <time>2016-09-25T13:28:33Z</time>
      </trkpt>
      <trkpt lat="44.16317" lon="7.20132">
        <ele>2240.3757711963</ele>
        <time>2016-09-25T13:28:37Z</time>
      </trkpt>
      <trkpt lat="44.16323" lon="7.20128">
        <ele>2246.5315669545</ele>
        <time>2016-09-25T13:28:52Z</time>
      </trkpt>
      <trkpt lat="44.16325" lon="7.20128">
        <ele>2246.5315669545</ele>
        <time>2016-09-25T13:28:57Z</time>
      </trkpt>
      <trkpt lat="44.16327" lon="7.20127">
        <ele>2246.5315669545</ele>
        <time>2016-09-25T13:29:09Z</time>
      </trkpt>
      <trkpt lat="44.16327" lon="7.20127">
        <ele>2246.5315669545</ele>
        <time>2016-09-25T13:29:12Z</time>
      </trkpt>
      <trkpt lat="44.16329" lon="7.20128">
        <ele>2246.5315669545</ele>
        <time>2016-09-25T13:29:23Z</time>
      </trkpt>
      <trkpt lat="44.16331" lon="7.20127">
        <ele>2246.5315669545</ele>
        <time>2016-09-25T13:29:28Z</time>
      </trkpt>
      <trkpt lat="44.16334" lon="7.20125">
        <ele>2252.2051212669</ele>
        <time>2016-09-25T13:29:37Z</time>
      </trkpt>
      <trkpt lat="44.1634" lon="7.20123">
        <ele>2252.2051212669</ele>
        <time>2016-09-25T13:29:43Z</time>
      </trkpt>
      <trkpt lat="44.16346" lon="7.20117">
        <ele>2257.3190303745</ele>
        <time>2016-09-25T13:29:52Z</time>
      </trkpt>
      <trkpt lat="44.16346" lon="7.20115">
        <ele>2257.3190303745</ele>
        <time>2016-09-25T13:29:57Z</time>
      </trkpt>
      <trkpt lat="44.16348" lon="7.20109">
        <ele>2257.3190303745</ele>
        <time>2016-09-25T13:30:08Z</time>
      </trkpt>
      <trkpt lat="44.16349" lon="7.20107">
        <ele>2257.3190303745</ele>
        <time>2016-09-25T13:30:12Z</time>
      </trkpt>
      <trkpt lat="44.16351" lon="7.20106">
        <ele>2262.4664032779</ele>
        <time>2016-09-25T13:30:23Z</time>
      </trkpt>
      <trkpt lat="44.16353" lon="7.201">
        <ele>2262.4664032779</ele>
        <time>2016-09-25T13:30:28Z</time>
      </trkpt>
      <trkpt lat="44.16354" lon="7.20096">
        <ele>2262.4664032779</ele>
        <time>2016-09-25T13:30:32Z</time>
      </trkpt>
      <trkpt lat="44.16354" lon="7.20094">
        <ele>2262.4664032779</ele>
        <time>2016-09-25T13:30:38Z</time>
      </trkpt>
      <trkpt lat="44.16355" lon="7.20091">
        <ele>2267.4332482234</ele>
        <time>2016-09-25T13:30:43Z</time>
      </trkpt>
      <trkpt lat="44.16361" lon="7.20084">
        <ele>2267.4332482234</ele>
        <time>2016-09-25T13:30:58Z</time>
      </trkpt>
      <trkpt lat="44.16369" lon="7.20078">
        <ele>2271.4024744511</ele>
        <time>2016-09-25T13:31:12Z</time>
      </trkpt>
      <trkpt lat="44.16372" lon="7.20079">
        <ele>2271.4024744511</ele>
        <time>2016-09-25T13:31:18Z</time>
      </trkpt>
      <trkpt lat="44.16373" lon="7.20079">
        <ele>2271.4024744511</ele>
        <time>2016-09-25T13:31:27Z</time>
      </trkpt>
      <trkpt lat="44.16373" lon="7.20079">
        <ele>2271.4024744511</ele>
        <time>2016-09-25T13:31:32Z</time>
      </trkpt>
      <trkpt lat="44.16379" lon="7.20072">
        <ele>2275.1765635182</ele>
        <time>2016-09-25T13:31:43Z</time>
      </trkpt>
      <trkpt lat="44.16381" lon="7.2007">
        <ele>2275.1765635182</ele>
        <time>2016-09-25T13:31:48Z</time>
      </trkpt>
      <trkpt lat="44.16384" lon="7.20067">
        <ele>2275.1765635182</ele>
        <time>2016-09-25T13:31:57Z</time>
      </trkpt>
      <trkpt lat="44.16384" lon="7.20066">
        <ele>2275.1765635182</ele>
        <time>2016-09-25T13:32:02Z</time>
      </trkpt>
      <trkpt lat="44.16387" lon="7.20066">
        <ele>2278.087647493</ele>
        <time>2016-09-25T13:32:12Z</time>
      </trkpt>
      <trkpt lat="44.16389" lon="7.20066">
        <ele>2278.087647493</ele>
        <time>2016-09-25T13:32:17Z</time>
      </trkpt>
      <trkpt lat="44.16391" lon="7.20067">
        <ele>2278.087647493</ele>
        <time>2016-09-25T13:32:27Z</time>
      </trkpt>
      <trkpt lat="44.16391" lon="7.20067">
        <ele>2278.087647493</ele>
        <time>2016-09-25T13:32:32Z</time>
      </trkpt>
      <trkpt lat="44.16391" lon="7.20067">
        <ele>2278.087647493</ele>
        <time>2016-09-25T13:32:37Z</time>
      </trkpt>
      <trkpt lat="44.16392" lon="7.20066">
        <ele>2278.087647493</ele>
        <time>2016-09-25T13:32:43Z</time>
      </trkpt>
      <trkpt lat="44.16393" lon="7.20063">
        <ele>2278.087647493</ele>
        <time>2016-09-25T13:32:52Z</time>
      </trkpt>
      <trkpt lat="44.16395" lon="7.20063">
        <ele>2280.5716817486</ele>
        <time>2016-09-25T13:32:57Z</time>
      </trkpt>
      <trkpt lat="44.16398" lon="7.20063">
        <ele>2280.5716817486</ele>
        <time>2016-09-25T13:33:07Z</time>
      </trkpt>
      <trkpt lat="44.16399" lon="7.20063">
        <ele>2280.5716817486</ele>
        <time>2016-09-25T13:33:13Z</time>
      </trkpt>
      <trkpt lat="44.16398" lon="7.20061">
        <ele>2280.5716817486</ele>
        <time>2016-09-25T13:33:23Z</time>
      </trkpt>
      <trkpt lat="44.16399" lon="7.20061">
        <ele>2280.5716817486</ele>
        <time>2016-09-25T13:33:28Z</time>
      </trkpt>
      <trkpt lat="44.16399" lon="7.20061">
        <ele>2280.5716817486</ele>
        <time>2016-09-25T13:33:42Z</time>
      </trkpt>
      <trkpt lat="44.16399" lon="7.2006">
        <ele>2280.5716817486</ele>
        <time>2016-09-25T13:33:57Z</time>
      </trkpt>
      <trkpt lat="44.16399" lon="7.2006">
        <ele>2280.5716817486</ele>
        <time>2016-09-25T13:34:12Z</time>
      </trkpt>
      <trkpt lat="44.164" lon="7.20059">
        <ele>2280.5716817486</ele>
        <time>2016-09-25T13:34:17Z</time>
      </trkpt>
      <trkpt lat="44.16402" lon="7.20056">
        <ele>2281.6938711885</ele>
        <time>2016-09-25T13:34:28Z</time>
      </trkpt>
      <trkpt lat="44.16403" lon="7.20056">
        <ele>2281.6938711885</ele>
        <time>2016-09-25T13:34:32Z</time>
      </trkpt>
      <trkpt lat="44.16404" lon="7.20056">
        <ele>2281.6938711885</ele>
        <time>2016-09-25T13:34:43Z</time>
      </trkpt>
      <trkpt lat="44.16406" lon="7.20054">
        <ele>2281.6938711885</ele>
        <time>2016-09-25T13:34:48Z</time>
      </trkpt>
      <trkpt lat="44.16411" lon="7.20053">
        <ele>2281.8891965009</ele>
        <time>2016-09-25T13:34:57Z</time>
      </trkpt>
      <trkpt lat="44.16413" lon="7.20054">
        <ele>2281.8891965009</ele>
        <time>2016-09-25T13:35:03Z</time>
      </trkpt>
      <trkpt lat="44.16414" lon="7.20054">
        <ele>2281.8891965009</ele>
        <time>2016-09-25T13:35:12Z</time>
      </trkpt>
      <trkpt lat="44.16414" lon="7.20054">
        <ele>2281.8891965009</ele>
        <time>2016-09-25T13:35:17Z</time>
      </trkpt>
      <trkpt lat="44.16417" lon="7.20055">
        <ele>2281.8891965009</ele>
        <time>2016-09-25T13:35:33Z</time>
      </trkpt>
      <trkpt lat="44.16417" lon="7.20055">
        <ele>2281.8891965009</ele>
        <time>2016-09-25T13:35:37Z</time>
      </trkpt>
      <trkpt lat="44.1642" lon="7.20056">
        <ele>2281.8891965009</ele>
        <time>2016-09-25T13:35:47Z</time>
      </trkpt>
      <trkpt lat="44.16424" lon="7.20058">
        <ele>2280.8718047601</ele>
        <time>2016-09-25T13:36:02Z</time>
      </trkpt>
      <trkpt lat="44.16427" lon="7.20059">
        <ele>2280.8718047601</ele>
        <time>2016-09-25T13:36:08Z</time>
      </trkpt>
      <trkpt lat="44.1643" lon="7.2006">
        <ele>2280.8718047601</ele>
        <time>2016-09-25T13:36:18Z</time>
      </trkpt>
      <trkpt lat="44.16431" lon="7.2006">
        <ele>2280.8718047601</ele>
        <time>2016-09-25T13:36:22Z</time>
      </trkpt>
      <trkpt lat="44.16437" lon="7.20062">
        <ele>2280.0809718262</ele>
        <time>2016-09-25T13:36:33Z</time>
      </trkpt>
      <trkpt lat="44.16439" lon="7.2006">
        <ele>2280.0809718262</ele>
        <time>2016-09-25T13:36:38Z</time>
      </trkpt>
      <trkpt lat="44.16439" lon="7.20058">
        <ele>2280.0809718262</ele>
        <time>2016-09-25T13:36:48Z</time>
      </trkpt>
      <trkpt lat="44.16439" lon="7.20058">
        <ele>2280.0809718262</ele>
        <time>2016-09-25T13:36:53Z</time>
      </trkpt>
      <trkpt lat="44.1644" lon="7.20059">
        <ele>2280.0809718262</ele>
        <time>2016-09-25T13:37:02Z</time>
      </trkpt>
      <trkpt lat="44.16443" lon="7.20061">
        <ele>2280.0809718262</ele>
        <time>2016-09-25T13:37:08Z</time>
      </trkpt>
      <trkpt lat="44.16442" lon="7.20061">
        <ele>2280.0809718262</ele>
        <time>2016-09-25T13:37:17Z</time>
      </trkpt>
      <trkpt lat="44.16444" lon="7.20062">
        <ele>2278.8322283037</ele>
        <time>2016-09-25T13:37:22Z</time>
      </trkpt>
      <trkpt lat="44.16447" lon="7.20065">
        <ele>2278.8322283037</ele>
        <time>2016-09-25T13:37:33Z</time>
      </trkpt>
      <trkpt lat="44.16447" lon="7.20067">
        <ele>2278.8322283037</ele>
        <time>2016-09-25T13:37:37Z</time>
      </trkpt>
      <trkpt lat="44.16449" lon="7.20068">
        <ele>2278.8322283037</ele>
        <time>2016-09-25T13:37:42Z</time>
      </trkpt>
      <trkpt lat="44.1645" lon="7.20068">
        <ele>2278.8322283037</ele>
        <time>2016-09-25T13:37:47Z</time>
      </trkpt>
      <trkpt lat="44.1645" lon="7.20069">
        <ele>2278.8322283037</ele>
        <time>2016-09-25T13:37:52Z</time>
      </trkpt>
      <trkpt lat="44.1645" lon="7.20069">
        <ele>2278.8322283037</ele>
        <time>2016-09-25T13:37:57Z</time>
      </trkpt>
      <trkpt lat="44.1645" lon="7.20069">
        <ele>2278.8322283037</ele>
        <time>2016-09-25T13:38:07Z</time>
      </trkpt>
      <trkpt lat="44.16451" lon="7.20068">
        <ele>2277.3718802328</ele>
        <time>2016-09-25T13:38:13Z</time>
      </trkpt>
      <trkpt lat="44.16451" lon="7.20067">
        <ele>2277.3718802328</ele>
        <time>2016-09-25T13:38:22Z</time>
      </trkpt>
      <trkpt lat="44.16451" lon="7.20066">
        <ele>2277.3718802328</ele>
        <time>2016-09-25T13:38:27Z</time>
      </trkpt>
      <trkpt lat="44.16451" lon="7.20066">
        <ele>2277.3718802328</ele>
        <time>2016-09-25T13:38:38Z</time>
      </trkpt>
      <trkpt lat="44.16451" lon="7.20066">
        <ele>2277.3718802328</ele>
        <time>2016-09-25T13:38:42Z</time>
      </trkpt>
      <trkpt lat="44.16451" lon="7.20066">
        <ele>2277.3718802328</ele>
        <time>2016-09-25T13:38:53Z</time>
      </trkpt>
      <trkpt lat="44.16453" lon="7.20068">
        <ele>2277.3718802328</ele>
        <time>2016-09-25T13:38:57Z</time>
      </trkpt>
      <trkpt lat="44.16455" lon="7.20068">
        <ele>2277.3718802328</ele>
        <time>2016-09-25T13:39:12Z</time>
      </trkpt>
      <trkpt lat="44.16455" lon="7.20068">
        <ele>2277.3718802328</ele>
        <time>2016-09-25T13:39:17Z</time>
      </trkpt>
      <trkpt lat="44.16457" lon="7.20069">
        <ele>2277.3718802328</ele>
        <time>2016-09-25T13:39:28Z</time>
      </trkpt>
      <trkpt lat="44.16459" lon="7.20068">
        <ele>2274.7615208331</ele>
        <time>2016-09-25T13:39:32Z</time>
      </trkpt>
      <trkpt lat="44.16462" lon="7.20066">
        <ele>2274.7615208331</ele>
        <time>2016-09-25T13:39:43Z</time>
      </trkpt>
      <trkpt lat="44.16464" lon="7.20067">
        <ele>2274.7615208331</ele>
        <time>2016-09-25T13:39:48Z</time>
      </trkpt>
      <trkpt lat="44.16466" lon="7.20069">
        <ele>2274.7615208331</ele>
        <time>2016-09-25T13:39:57Z</time>
      </trkpt>
      <trkpt lat="44.16471" lon="7.20069">
        <ele>2271.2878356293</ele>
        <time>2016-09-25T13:40:04Z</time>
      </trkpt>
      <trkpt lat="44.16473" lon="7.20067">
        <ele>2271.2878356293</ele>
        <time>2016-09-25T13:40:07Z</time>
      </trkpt>
      <trkpt lat="44.16474" lon="7.20067">
        <ele>2271.2878356293</ele>
        <time>2016-09-25T13:40:12Z</time>
      </trkpt>
      <trkpt lat="44.16474" lon="7.20067">
        <ele>2271.2878356293</ele>
        <time>2016-09-25T13:40:17Z</time>
      </trkpt>
      <trkpt lat="44.16474" lon="7.20067">
        <ele>2271.2878356293</ele>
        <time>2016-09-25T13:40:33Z</time>
      </trkpt>
      <trkpt lat="44.16474" lon="7.20067">
        <ele>2271.2878356293</ele>
        <time>2016-09-25T13:40:42Z</time>
      </trkpt>
      <trkpt lat="44.16474" lon="7.20066">
        <ele>2271.2878356293</ele>
        <time>2016-09-25T13:40:47Z</time>
      </trkpt>
      <trkpt lat="44.16477" lon="7.20063">
        <ele>2267.4206225722</ele>
        <time>2016-09-25T13:40:58Z</time>
      </trkpt>
      <trkpt lat="44.16477" lon="7.20063">
        <ele>2267.4206225722</ele>
        <time>2016-09-25T13:41:02Z</time>
      </trkpt>
      <trkpt lat="44.16478" lon="7.20062">
        <ele>2267.4206225722</ele>
        <time>2016-09-25T13:41:07Z</time>
      </trkpt>
      <trkpt lat="44.16478" lon="7.20062">
        <ele>2267.4206225722</ele>
        <time>2016-09-25T13:41:18Z</time>
      </trkpt>
      <trkpt lat="44.16478" lon="7.20062">
        <ele>2267.4206225722</ele>
        <time>2016-09-25T13:41:22Z</time>
      </trkpt>
      <trkpt lat="44.16478" lon="7.20062">
        <ele>2267.4206225722</ele>
        <time>2016-09-25T13:41:33Z</time>
      </trkpt>
      <trkpt lat="44.16479" lon="7.20064">
        <ele>2267.4206225722</ele>
        <time>2016-09-25T13:41:38Z</time>
      </trkpt>
      <trkpt lat="44.16482" lon="7.20059">
        <ele>2267.4206225722</ele>
        <time>2016-09-25T13:41:47Z</time>
      </trkpt>
      <trkpt lat="44.16482" lon="7.20059">
        <ele>2267.4206225722</ele>
        <time>2016-09-25T13:41:53Z</time>
      </trkpt>
      <trkpt lat="44.16481" lon="7.20059">
        <ele>2267.4206225722</ele>
        <time>2016-09-25T13:42:02Z</time>
      </trkpt>
      <trkpt lat="44.16481" lon="7.20059">
        <ele>2267.4206225722</ele>
        <time>2016-09-25T13:42:07Z</time>
      </trkpt>
      <trkpt lat="44.16482" lon="7.20057">
        <ele>2263.3944626064</ele>
        <time>2016-09-25T13:42:18Z</time>
      </trkpt>
      <trkpt lat="44.16485" lon="7.20057">
        <ele>2263.3944626064</ele>
        <time>2016-09-25T13:42:22Z</time>
      </trkpt>
      <trkpt lat="44.16491" lon="7.20056">
        <ele>2257.9571104608</ele>
        <time>2016-09-25T13:42:33Z</time>
      </trkpt>
      <trkpt lat="44.16492" lon="7.20055">
        <ele>2257.9571104608</ele>
        <time>2016-09-25T13:42:38Z</time>
      </trkpt>
      <trkpt lat="44.16492" lon="7.20055">
        <ele>2257.9571104608</ele>
        <time>2016-09-25T13:42:47Z</time>
      </trkpt>
      <trkpt lat="44.16492" lon="7.20055">
        <ele>2257.9571104608</ele>
        <time>2016-09-25T13:42:54Z</time>
      </trkpt>
      <trkpt lat="44.16492" lon="7.20055">
        <ele>2257.9571104608</ele>
        <time>2016-09-25T13:43:02Z</time>
      </trkpt>
      <trkpt lat="44.16492" lon="7.20054">
        <ele>2257.9571104608</ele>
        <time>2016-09-25T13:43:07Z</time>
      </trkpt>
      <trkpt lat="44.16492" lon="7.20054">
        <ele>2257.9571104608</ele>
        <time>2016-09-25T13:43:18Z</time>
      </trkpt>
      <trkpt lat="44.16492" lon="7.20054">
        <ele>2257.9571104608</ele>
        <time>2016-09-25T13:43:22Z</time>
      </trkpt>
      <trkpt lat="44.16492" lon="7.20054">
        <ele>2257.9571104608</ele>
        <time>2016-09-25T13:43:34Z</time>
      </trkpt>
      <trkpt lat="44.16492" lon="7.20054">
        <ele>2257.9571104608</ele>
        <time>2016-09-25T13:43:38Z</time>
      </trkpt>
      <trkpt lat="44.16492" lon="7.20054">
        <ele>2257.9571104608</ele>
        <time>2016-09-25T13:43:42Z</time>
      </trkpt>
      <trkpt lat="44.16492" lon="7.20054">
        <ele>2257.9571104608</ele>
        <time>2016-09-25T13:43:53Z</time>
      </trkpt>
      <trkpt lat="44.16492" lon="7.20054">
        <ele>2257.9571104608</ele>
        <time>2016-09-25T13:43:58Z</time>
      </trkpt>
      <trkpt lat="44.16492" lon="7.20054">
        <ele>2257.9571104608</ele>
        <time>2016-09-25T13:44:07Z</time>
      </trkpt>
      <trkpt lat="44.16492" lon="7.20054">
        <ele>2257.9571104608</ele>
        <time>2016-09-25T13:44:12Z</time>
      </trkpt>
      <trkpt lat="44.16492" lon="7.20054">
        <ele>2257.9571104608</ele>
        <time>2016-09-25T13:44:23Z</time>
      </trkpt>
      <trkpt lat="44.16492" lon="7.20054">
        <ele>2257.9571104608</ele>
        <time>2016-09-25T13:44:27Z</time>
      </trkpt>
      <trkpt lat="44.16492" lon="7.20054">
        <ele>2257.9571104608</ele>
        <time>2016-09-25T13:44:38Z</time>
      </trkpt>
      <trkpt lat="44.16492" lon="7.20054">
        <ele>2257.9571104608</ele>
        <time>2016-09-25T13:44:43Z</time>
      </trkpt>
      <trkpt lat="44.16503" lon="7.20048">
        <ele>2252.9640353093</ele>
        <time>2016-09-25T13:44:58Z</time>
      </trkpt>
      <trkpt lat="44.16505" lon="7.20046">
        <ele>2252.9640353093</ele>
        <time>2016-09-25T13:45:12Z</time>
      </trkpt>
      <trkpt lat="44.16506" lon="7.20055">
        <ele>2247.4524830622</ele>
        <time>2016-09-25T13:45:18Z</time>
      </trkpt>
      <trkpt lat="44.16507" lon="7.20056">
        <ele>2247.4524830622</ele>
        <time>2016-09-25T13:45:27Z</time>
      </trkpt>
      <trkpt lat="44.16507" lon="7.20056">
        <ele>2247.4524830622</ele>
        <time>2016-09-25T13:45:32Z</time>
      </trkpt>
      <trkpt lat="44.16508" lon="7.20055">
        <ele>2247.4524830622</ele>
        <time>2016-09-25T13:45:44Z</time>
      </trkpt>
      <trkpt lat="44.16507" lon="7.20054">
        <ele>2247.4524830622</ele>
        <time>2016-09-25T13:45:47Z</time>
      </trkpt>
      <trkpt lat="44.16507" lon="7.20054">
        <ele>2247.4524830622</ele>
        <time>2016-09-25T13:45:59Z</time>
      </trkpt>
      <trkpt lat="44.16507" lon="7.20054">
        <ele>2247.4524830622</ele>
        <time>2016-09-25T13:46:03Z</time>
      </trkpt>
      <trkpt lat="44.16507" lon="7.20054">
        <ele>2247.4524830622</ele>
        <time>2016-09-25T13:46:12Z</time>
      </trkpt>
      <trkpt lat="44.16507" lon="7.20054">
        <ele>2247.4524830622</ele>
        <time>2016-09-25T13:46:18Z</time>
      </trkpt>
      <trkpt lat="44.16507" lon="7.20054">
        <ele>2247.4524830622</ele>
        <time>2016-09-25T13:46:27Z</time>
      </trkpt>
      <trkpt lat="44.16507" lon="7.20054">
        <ele>2247.4524830622</ele>
        <time>2016-09-25T13:46:32Z</time>
      </trkpt>
      <trkpt lat="44.16508" lon="7.20054">
        <ele>2247.4524830622</ele>
        <time>2016-09-25T13:46:43Z</time>
      </trkpt>
      <trkpt lat="44.16508" lon="7.20053">
        <ele>2247.4524830622</ele>
        <time>2016-09-25T13:46:48Z</time>
      </trkpt>
      <trkpt lat="44.16508" lon="7.20053">
        <ele>2247.4524830622</ele>
        <time>2016-09-25T13:46:52Z</time>
      </trkpt>
      <trkpt lat="44.16508" lon="7.20053">
        <ele>2247.4524830622</ele>
        <time>2016-09-25T13:47:03Z</time>
      </trkpt>
      <trkpt lat="44.16508" lon="7.20053">
        <ele>2247.4524830622</ele>
        <time>2016-09-25T13:47:17Z</time>
      </trkpt>
      <trkpt lat="44.16508" lon="7.20052">
        <ele>2247.4524830622</ele>
        <time>2016-09-25T13:47:32Z</time>
      </trkpt>
      <trkpt lat="44.16508" lon="7.20052">
        <ele>2247.4524830622</ele>
        <time>2016-09-25T13:47:38Z</time>
      </trkpt>
      <trkpt lat="44.16516" lon="7.20052">
        <ele>2242.24654437</ele>
        <time>2016-09-25T13:47:48Z</time>
      </trkpt>
      <trkpt lat="44.16517" lon="7.20053">
        <ele>2242.24654437</ele>
        <time>2016-09-25T13:47:52Z</time>
      </trkpt>
      <trkpt lat="44.16522" lon="7.20053">
        <ele>2242.24654437</ele>
        <time>2016-09-25T13:48:03Z</time>
      </trkpt>
      <trkpt lat="44.16524" lon="7.20052">
        <ele>2242.24654437</ele>
        <time>2016-09-25T13:48:08Z</time>
      </trkpt>
      <trkpt lat="44.16533" lon="7.20053">
        <ele>2236.8260239739</ele>
        <time>2016-09-25T13:48:18Z</time>
      </trkpt>
      <trkpt lat="44.1654" lon="7.20053">
        <ele>2236.8260239739</ele>
        <time>2016-09-25T13:48:23Z</time>
      </trkpt>
      <trkpt lat="44.16552" lon="7.2006">
        <ele>2230.0606955843</ele>
        <time>2016-09-25T13:48:38Z</time>
      </trkpt>
      <trkpt lat="44.16559" lon="7.20058">
        <ele>2230.0606955843</ele>
        <time>2016-09-25T13:48:52Z</time>
      </trkpt>
      <trkpt lat="44.16566" lon="7.20055">
        <ele>2224.7977474291</ele>
        <time>2016-09-25T13:49:07Z</time>
      </trkpt>
      <trkpt lat="44.16569" lon="7.20055">
        <ele>2224.7977474291</ele>
        <time>2016-09-25T13:49:12Z</time>
      </trkpt>
      <trkpt lat="44.1657" lon="7.20053">
        <ele>2224.7977474291</ele>
        <time>2016-09-25T13:49:22Z</time>
      </trkpt>
      <trkpt lat="44.16571" lon="7.20053">
        <ele>2224.7977474291</ele>
        <time>2016-09-25T13:49:37Z</time>
      </trkpt>
      <trkpt lat="44.16573" lon="7.20054">
        <ele>2224.7977474291</ele>
        <time>2016-09-25T13:49:42Z</time>
      </trkpt>
      <trkpt lat="44.1658" lon="7.20058">
        <ele>2219.1887212099</ele>
        <time>2016-09-25T13:49:52Z</time>
      </trkpt>
      <trkpt lat="44.16581" lon="7.20058">
        <ele>2219.1887212099</ele>
        <time>2016-09-25T13:49:57Z</time>
      </trkpt>
      <trkpt lat="44.16588" lon="7.2006">
        <ele>2219.1887212099</ele>
        <time>2016-09-25T13:50:08Z</time>
      </trkpt>
      <trkpt lat="44.16595" lon="7.20059">
        <ele>2213.5822511524</ele>
        <time>2016-09-25T13:50:12Z</time>
      </trkpt>
      <trkpt lat="44.16601" lon="7.20057">
        <ele>2213.5822511524</ele>
        <time>2016-09-25T13:50:23Z</time>
      </trkpt>
      <trkpt lat="44.16602" lon="7.20057">
        <ele>2213.5822511524</ele>
        <time>2016-09-25T13:50:28Z</time>
      </trkpt>
      <trkpt lat="44.16609" lon="7.20061">
        <ele>2209.0646617777</ele>
        <time>2016-09-25T13:50:37Z</time>
      </trkpt>
      <trkpt lat="44.16613" lon="7.20061">
        <ele>2209.0646617777</ele>
        <time>2016-09-25T13:50:43Z</time>
      </trkpt>
      <trkpt lat="44.16613" lon="7.20062">
        <ele>2209.0646617777</ele>
        <time>2016-09-25T13:50:58Z</time>
      </trkpt>
      <trkpt lat="44.16613" lon="7.20062">
        <ele>2209.0646617777</ele>
        <time>2016-09-25T13:51:12Z</time>
      </trkpt>
      <trkpt lat="44.16613" lon="7.20062">
        <ele>2209.0646617777</ele>
        <time>2016-09-25T13:51:17Z</time>
      </trkpt>
      <trkpt lat="44.16621" lon="7.20061">
        <ele>2205.5148552655</ele>
        <time>2016-09-25T13:51:32Z</time>
      </trkpt>
      <trkpt lat="44.16624" lon="7.20058">
        <ele>2205.5148552655</ele>
        <time>2016-09-25T13:51:38Z</time>
      </trkpt>
      <trkpt lat="44.16627" lon="7.20051">
        <ele>2202.8462259738</ele>
        <time>2016-09-25T13:51:48Z</time>
      </trkpt>
      <trkpt lat="44.16628" lon="7.20052">
        <ele>2202.8462259738</ele>
        <time>2016-09-25T13:51:52Z</time>
      </trkpt>
      <trkpt lat="44.16635" lon="7.2005">
        <ele>2202.8462259738</ele>
        <time>2016-09-25T13:52:03Z</time>
      </trkpt>
      <trkpt lat="44.16637" lon="7.2005">
        <ele>2200.3702774939</ele>
        <time>2016-09-25T13:52:08Z</time>
      </trkpt>
      <trkpt lat="44.16639" lon="7.20048">
        <ele>2200.3702774939</ele>
        <time>2016-09-25T13:52:17Z</time>
      </trkpt>
      <trkpt lat="44.16643" lon="7.20048">
        <ele>2200.3702774939</ele>
        <time>2016-09-25T13:52:23Z</time>
      </trkpt>
      <trkpt lat="44.16647" lon="7.20049">
        <ele>2198.4568189425</ele>
        <time>2016-09-25T13:52:32Z</time>
      </trkpt>
      <trkpt lat="44.1665" lon="7.20049">
        <ele>2198.4568189425</ele>
        <time>2016-09-25T13:52:37Z</time>
      </trkpt>
      <trkpt lat="44.16658" lon="7.20051">
        <ele>2196.5817505499</ele>
        <time>2016-09-25T13:52:48Z</time>
      </trkpt>
      <trkpt lat="44.16659" lon="7.2005">
        <ele>2196.5817505499</ele>
        <time>2016-09-25T13:52:52Z</time>
      </trkpt>
      <trkpt lat="44.16663" lon="7.20049">
        <ele>2196.5817505499</ele>
        <time>2016-09-25T13:53:03Z</time>
      </trkpt>
      <trkpt lat="44.16663" lon="7.20049">
        <ele>2196.5817505499</ele>
        <time>2016-09-25T13:53:08Z</time>
      </trkpt>
      <trkpt lat="44.1667" lon="7.2005">
        <ele>2194.2156468904</ele>
        <time>2016-09-25T13:53:24Z</time>
      </trkpt>
      <trkpt lat="44.16671" lon="7.20048">
        <ele>2194.2156468904</ele>
        <time>2016-09-25T13:53:37Z</time>
      </trkpt>
      <trkpt lat="44.16676" lon="7.20051">
        <ele>2194.2156468904</ele>
        <time>2016-09-25T13:53:52Z</time>
      </trkpt>
      <trkpt lat="44.16676" lon="7.20052">
        <ele>2194.2156468904</ele>
        <time>2016-09-25T13:53:57Z</time>
      </trkpt>
      <trkpt lat="44.16676" lon="7.20052">
        <ele>2194.2156468904</ele>
        <time>2016-09-25T13:54:04Z</time>
      </trkpt>
      <trkpt lat="44.16676" lon="7.20052">
        <ele>2194.2156468904</ele>
        <time>2016-09-25T13:54:08Z</time>
      </trkpt>
      <trkpt lat="44.16676" lon="7.20052">
        <ele>2194.2156468904</ele>
        <time>2016-09-25T13:54:12Z</time>
      </trkpt>
      <trkpt lat="44.16676" lon="7.20052">
        <ele>2194.2156468904</ele>
        <time>2016-09-25T13:54:23Z</time>
      </trkpt>
      <trkpt lat="44.16677" lon="7.20052">
        <ele>2194.2156468904</ele>
        <time>2016-09-25T13:54:27Z</time>
      </trkpt>
      <trkpt lat="44.1668" lon="7.20053">
        <ele>2192.6414499335</ele>
        <time>2016-09-25T13:54:37Z</time>
      </trkpt>
      <trkpt lat="44.1668" lon="7.20053">
        <ele>2192.6414499335</ele>
        <time>2016-09-25T13:54:43Z</time>
      </trkpt>
      <trkpt lat="44.16683" lon="7.20054">
        <ele>2192.6414499335</ele>
        <time>2016-09-25T13:54:52Z</time>
      </trkpt>
      <trkpt lat="44.16685" lon="7.20055">
        <ele>2192.6414499335</ele>
        <time>2016-09-25T13:54:57Z</time>
      </trkpt>
      <trkpt lat="44.16686" lon="7.20058">
        <ele>2192.6414499335</ele>
        <time>2016-09-25T13:55:08Z</time>
      </trkpt>
      <trkpt lat="44.16687" lon="7.20059">
        <ele>2192.6414499335</ele>
        <time>2016-09-25T13:55:12Z</time>
      </trkpt>
      <trkpt lat="44.16687" lon="7.20059">
        <ele>2192.5407977354</ele>
        <time>2016-09-25T13:55:22Z</time>
      </trkpt>
      <trkpt lat="44.16687" lon="7.20059">
        <ele>2192.5407977354</ele>
        <time>2016-09-25T13:55:28Z</time>
      </trkpt>
      <trkpt lat="44.16693" lon="7.2006">
        <ele>2192.5407977354</ele>
        <time>2016-09-25T13:55:43Z</time>
      </trkpt>
      <trkpt lat="44.16695" lon="7.20061">
        <ele>2192.5407977354</ele>
        <time>2016-09-25T13:55:53Z</time>
      </trkpt>
      <trkpt lat="44.16695" lon="7.20061">
        <ele>2192.5407977354</ele>
        <time>2016-09-25T13:55:57Z</time>
      </trkpt>
      <trkpt lat="44.16695" lon="7.20061">
        <ele>2192.5407977354</ele>
        <time>2016-09-25T13:56:08Z</time>
      </trkpt>
      <trkpt lat="44.16695" lon="7.20061">
        <ele>2192.5407977354</ele>
        <time>2016-09-25T13:56:13Z</time>
      </trkpt>
      <trkpt lat="44.16695" lon="7.20061">
        <ele>2192.5407977354</ele>
        <time>2016-09-25T13:56:17Z</time>
      </trkpt>
      <trkpt lat="44.16701" lon="7.2006">
        <ele>2193.733674615</ele>
        <time>2016-09-25T13:56:23Z</time>
      </trkpt>
      <trkpt lat="44.16705" lon="7.20059">
        <ele>2193.733674615</ele>
        <time>2016-09-25T13:56:28Z</time>
      </trkpt>
      <trkpt lat="44.16708" lon="7.20061">
        <ele>2193.733674615</ele>
        <time>2016-09-25T13:56:43Z</time>
      </trkpt>
      <trkpt lat="44.1671" lon="7.20066">
        <ele>2195.4584098965</ele>
        <time>2016-09-25T13:56:57Z</time>
      </trkpt>
      <trkpt lat="44.16712" lon="7.20066">
        <ele>2195.4584098965</ele>
        <time>2016-09-25T13:57:02Z</time>
      </trkpt>
      <trkpt lat="44.16712" lon="7.20066">
        <ele>2195.4584098965</ele>
        <time>2016-09-25T13:57:12Z</time>
      </trkpt>
      <trkpt lat="44.16712" lon="7.20066">
        <ele>2195.4584098965</ele>
        <time>2016-09-25T13:57:17Z</time>
      </trkpt>
      <trkpt lat="44.1672" lon="7.20064">
        <ele>2196.8345011113</ele>
        <time>2016-09-25T13:57:28Z</time>
      </trkpt>
      <trkpt lat="44.16721" lon="7.20063">
        <ele>2196.8345011113</ele>
        <time>2016-09-25T13:57:33Z</time>
      </trkpt>
      <trkpt lat="44.1672" lon="7.20062">
        <ele>2196.8345011113</ele>
        <time>2016-09-25T13:57:42Z</time>
      </trkpt>
      <trkpt lat="44.16721" lon="7.20062">
        <ele>2196.8345011113</ele>
        <time>2016-09-25T13:57:48Z</time>
      </trkpt>
      <trkpt lat="44.16727" lon="7.2006">
        <ele>2197.9690974397</ele>
        <time>2016-09-25T13:57:57Z</time>
      </trkpt>
      <trkpt lat="44.16733" lon="7.20061">
        <ele>2197.9690974397</ele>
        <time>2016-09-25T13:58:02Z</time>
      </trkpt>
      <trkpt lat="44.16738" lon="7.20062">
        <ele>2199.3653860193</ele>
        <time>2016-09-25T13:58:12Z</time>
      </trkpt>
      <trkpt lat="44.16739" lon="7.20062">
        <ele>2199.3653860193</ele>
        <time>2016-09-25T13:58:17Z</time>
      </trkpt>
      <trkpt lat="44.16739" lon="7.20062">
        <ele>2199.3653860193</ele>
        <time>2016-09-25T13:58:28Z</time>
      </trkpt>
      <trkpt lat="44.16739" lon="7.20062">
        <ele>2199.3653860193</ele>
        <time>2016-09-25T13:58:32Z</time>
      </trkpt>
      <trkpt lat="44.16739" lon="7.20062">
        <ele>2199.3653860193</ele>
        <time>2016-09-25T13:58:43Z</time>
      </trkpt>
      <trkpt lat="44.16739" lon="7.20062">
        <ele>2199.3653860193</ele>
        <time>2016-09-25T13:58:48Z</time>
      </trkpt>
      <trkpt lat="44.16739" lon="7.20062">
        <ele>2199.3653860193</ele>
        <time>2016-09-25T13:58:52Z</time>
      </trkpt>
      <trkpt lat="44.1674" lon="7.20063">
        <ele>2199.3653860193</ele>
        <time>2016-09-25T13:59:03Z</time>
      </trkpt>
      <trkpt lat="44.1674" lon="7.20063">
        <ele>2199.3653860193</ele>
        <time>2016-09-25T13:59:08Z</time>
      </trkpt>
      <trkpt lat="44.16741" lon="7.20064">
        <ele>2199.3653860193</ele>
        <time>2016-09-25T13:59:17Z</time>
      </trkpt>
      <trkpt lat="44.16742" lon="7.20064">
        <ele>2199.3653860193</ele>
        <time>2016-09-25T13:59:23Z</time>
      </trkpt>
      <trkpt lat="44.16742" lon="7.20064">
        <ele>2199.3653860193</ele>
        <time>2016-09-25T13:59:32Z</time>
      </trkpt>
      <trkpt lat="44.16742" lon="7.20064">
        <ele>2199.3653860193</ele>
        <time>2016-09-25T13:59:37Z</time>
      </trkpt>
      <trkpt lat="44.16742" lon="7.20064">
        <ele>2199.3653860193</ele>
        <time>2016-09-25T13:59:48Z</time>
      </trkpt>
      <trkpt lat="44.16742" lon="7.20064">
        <ele>2199.3653860193</ele>
        <time>2016-09-25T13:59:52Z</time>
      </trkpt>
      <trkpt lat="44.16742" lon="7.20064">
        <ele>2199.3653860193</ele>
        <time>2016-09-25T14:00:03Z</time>
      </trkpt>
      <trkpt lat="44.16742" lon="7.20064">
        <ele>2199.3653860193</ele>
        <time>2016-09-25T14:00:08Z</time>
      </trkpt>
      <trkpt lat="44.16742" lon="7.20064">
        <ele>2199.3653860193</ele>
        <time>2016-09-25T14:00:17Z</time>
      </trkpt>
      <trkpt lat="44.16742" lon="7.20064">
        <ele>2199.3653860193</ele>
        <time>2016-09-25T14:00:23Z</time>
      </trkpt>
      <trkpt lat="44.16742" lon="7.20064">
        <ele>2199.3653860193</ele>
        <time>2016-09-25T14:00:32Z</time>
      </trkpt>
      <trkpt lat="44.16742" lon="7.20064">
        <ele>2199.3653860193</ele>
        <time>2016-09-25T14:00:37Z</time>
      </trkpt>
      <trkpt lat="44.16742" lon="7.20064">
        <ele>2199.3653860193</ele>
        <time>2016-09-25T14:00:47Z</time>
      </trkpt>
      <trkpt lat="44.16742" lon="7.20064">
        <ele>2199.3653860193</ele>
        <time>2016-09-25T14:00:52Z</time>
      </trkpt>
      <trkpt lat="44.16742" lon="7.20064">
        <ele>2199.3653860193</ele>
        <time>2016-09-25T14:01:07Z</time>
      </trkpt>
      <trkpt lat="44.16744" lon="7.20065">
        <ele>2199.3653860193</ele>
        <time>2016-09-25T14:01:17Z</time>
      </trkpt>
      <trkpt lat="44.16745" lon="7.20065">
        <ele>2199.3653860193</ele>
        <time>2016-09-25T14:01:22Z</time>
      </trkpt>
      <trkpt lat="44.16749" lon="7.20067">
        <ele>2201.4597924805</ele>
        <time>2016-09-25T14:01:33Z</time>
      </trkpt>
      <trkpt lat="44.16751" lon="7.20068">
        <ele>2201.4597924805</ele>
        <time>2016-09-25T14:01:37Z</time>
      </trkpt>
      <trkpt lat="44.16753" lon="7.20068">
        <ele>2201.4597924805</ele>
        <time>2016-09-25T14:01:42Z</time>
      </trkpt>
      <trkpt lat="44.16756" lon="7.20069">
        <ele>2201.4597924805</ele>
        <time>2016-09-25T14:01:48Z</time>
      </trkpt>
      <trkpt lat="44.16756" lon="7.20069">
        <ele>2201.4597924805</ele>
        <time>2016-09-25T14:01:53Z</time>
      </trkpt>
      <trkpt lat="44.16756" lon="7.20069">
        <ele>2201.4597924805</ele>
        <time>2016-09-25T14:01:57Z</time>
      </trkpt>
      <trkpt lat="44.16757" lon="7.20069">
        <ele>2201.4597924805</ele>
        <time>2016-09-25T14:02:08Z</time>
      </trkpt>
      <trkpt lat="44.16757" lon="7.20069">
        <ele>2201.4597924805</ele>
        <time>2016-09-25T14:02:13Z</time>
      </trkpt>
      <trkpt lat="44.1676" lon="7.20069">
        <ele>2204.1789540411</ele>
        <time>2016-09-25T14:02:22Z</time>
      </trkpt>
      <trkpt lat="44.16762" lon="7.2007">
        <ele>2204.1789540411</ele>
        <time>2016-09-25T14:02:28Z</time>
      </trkpt>
      <trkpt lat="44.16764" lon="7.2007">
        <ele>2204.1789540411</ele>
        <time>2016-09-25T14:02:37Z</time>
      </trkpt>
      <trkpt lat="44.16764" lon="7.2007">
        <ele>2204.1789540411</ele>
        <time>2016-09-25T14:02:42Z</time>
      </trkpt>
      <trkpt lat="44.16764" lon="7.2007">
        <ele>2204.1789540411</ele>
        <time>2016-09-25T14:02:53Z</time>
      </trkpt>
      <trkpt lat="44.16764" lon="7.2007">
        <ele>2204.1789540411</ele>
        <time>2016-09-25T14:02:58Z</time>
      </trkpt>
      <trkpt lat="44.16767" lon="7.20071">
        <ele>2204.1789540411</ele>
        <time>2016-09-25T14:03:08Z</time>
      </trkpt>
      <trkpt lat="44.16772" lon="7.20074">
        <ele>2206.2424439358</ele>
        <time>2016-09-25T14:03:13Z</time>
      </trkpt>
      <trkpt lat="44.16777" lon="7.20075">
        <ele>2206.2424439358</ele>
        <time>2016-09-25T14:03:28Z</time>
      </trkpt>
      <trkpt lat="44.16784" lon="7.20076">
        <ele>2207.849070472</ele>
        <time>2016-09-25T14:03:42Z</time>
      </trkpt>
      <trkpt lat="44.16788" lon="7.20077">
        <ele>2207.849070472</ele>
        <time>2016-09-25T14:03:48Z</time>
      </trkpt>
      <trkpt lat="44.16801" lon="7.20077">
        <ele>2209.4724445038</ele>
        <time>2016-09-25T14:03:57Z</time>
      </trkpt>
      <trkpt lat="44.16801" lon="7.20077">
        <ele>2209.4724445038</ele>
        <time>2016-09-25T14:04:02Z</time>
      </trkpt>
      <trkpt lat="44.16802" lon="7.20077">
        <ele>2209.4724445038</ele>
        <time>2016-09-25T14:04:12Z</time>
      </trkpt>
      <trkpt lat="44.16802" lon="7.20079">
        <ele>2209.4724445038</ele>
        <time>2016-09-25T14:04:17Z</time>
      </trkpt>
      <trkpt lat="44.16802" lon="7.20082">
        <ele>2209.4724445038</ele>
        <time>2016-09-25T14:04:28Z</time>
      </trkpt>
      <trkpt lat="44.16802" lon="7.20082">
        <ele>2209.4724445038</ele>
        <time>2016-09-25T14:04:32Z</time>
      </trkpt>
      <trkpt lat="44.16803" lon="7.20084">
        <ele>2209.4724445038</ele>
        <time>2016-09-25T14:04:43Z</time>
      </trkpt>
      <trkpt lat="44.16803" lon="7.20087">
        <ele>2209.4724445038</ele>
        <time>2016-09-25T14:04:48Z</time>
      </trkpt>
      <trkpt lat="44.16805" lon="7.20089">
        <ele>2210.4272035222</ele>
        <time>2016-09-25T14:04:58Z</time>
      </trkpt>
      <trkpt lat="44.16805" lon="7.20089">
        <ele>2210.4272035222</ele>
        <time>2016-09-25T14:05:03Z</time>
      </trkpt>
      <trkpt lat="44.16813" lon="7.20091">
        <ele>2210.4272035222</ele>
        <time>2016-09-25T14:05:18Z</time>
      </trkpt>
      <trkpt lat="44.16816" lon="7.20093">
        <ele>2210.9736517279</ele>
        <time>2016-09-25T14:05:28Z</time>
      </trkpt>
      <trkpt lat="44.16818" lon="7.20094">
        <ele>2210.9736517279</ele>
        <time>2016-09-25T14:05:32Z</time>
      </trkpt>
      <trkpt lat="44.16824" lon="7.20096">
        <ele>2210.9736517279</ele>
        <time>2016-09-25T14:05:43Z</time>
      </trkpt>
      <trkpt lat="44.16825" lon="7.20097">
        <ele>2210.9736517279</ele>
        <time>2016-09-25T14:05:48Z</time>
      </trkpt>
      <trkpt lat="44.16825" lon="7.20097">
        <ele>2211.8440703986</ele>
        <time>2016-09-25T14:05:52Z</time>
      </trkpt>
      <trkpt lat="44.16826" lon="7.20097">
        <ele>2211.8440703986</ele>
        <time>2016-09-25T14:06:02Z</time>
      </trkpt>
      <trkpt lat="44.16826" lon="7.20097">
        <ele>2211.8440703986</ele>
        <time>2016-09-25T14:06:08Z</time>
      </trkpt>
      <trkpt lat="44.16826" lon="7.20096">
        <ele>2211.8440703986</ele>
        <time>2016-09-25T14:06:18Z</time>
      </trkpt>
      <trkpt lat="44.16826" lon="7.20096">
        <ele>2211.8440703986</ele>
        <time>2016-09-25T14:06:23Z</time>
      </trkpt>
      <trkpt lat="44.16826" lon="7.20096">
        <ele>2211.8440703986</ele>
        <time>2016-09-25T14:06:32Z</time>
      </trkpt>
      <trkpt lat="44.16826" lon="7.20096">
        <ele>2211.8440703986</ele>
        <time>2016-09-25T14:06:38Z</time>
      </trkpt>
      <trkpt lat="44.16826" lon="7.20096">
        <ele>2211.8440703986</ele>
        <time>2016-09-25T14:06:47Z</time>
      </trkpt>
      <trkpt lat="44.16826" lon="7.20096">
        <ele>2211.8440703986</ele>
        <time>2016-09-25T14:06:52Z</time>
      </trkpt>
      <trkpt lat="44.16826" lon="7.20096">
        <ele>2211.8440703986</ele>
        <time>2016-09-25T14:07:03Z</time>
      </trkpt>
      <trkpt lat="44.16826" lon="7.20096">
        <ele>2211.8440703986</ele>
        <time>2016-09-25T14:07:07Z</time>
      </trkpt>
      <trkpt lat="44.16826" lon="7.20096">
        <ele>2211.8440703986</ele>
        <time>2016-09-25T14:07:17Z</time>
      </trkpt>
      <trkpt lat="44.16826" lon="7.20096">
        <ele>2211.8440703986</ele>
        <time>2016-09-25T14:07:22Z</time>
      </trkpt>
      <trkpt lat="44.16826" lon="7.20096">
        <ele>2211.8440703986</ele>
        <time>2016-09-25T14:07:27Z</time>
      </trkpt>
      <trkpt lat="44.16826" lon="7.20096">
        <ele>2211.8440703986</ele>
        <time>2016-09-25T14:07:38Z</time>
      </trkpt>
      <trkpt lat="44.16825" lon="7.20096">
        <ele>2211.8440703986</ele>
        <time>2016-09-25T14:07:42Z</time>
      </trkpt>
      <trkpt lat="44.16825" lon="7.20096">
        <ele>2211.8440703986</ele>
        <time>2016-09-25T14:07:52Z</time>
      </trkpt>
      <trkpt lat="44.16825" lon="7.20096">
        <ele>2211.8440703986</ele>
        <time>2016-09-25T14:07:58Z</time>
      </trkpt>
      <trkpt lat="44.16825" lon="7.20096">
        <ele>2211.8440703986</ele>
        <time>2016-09-25T14:08:07Z</time>
      </trkpt>
      <trkpt lat="44.16828" lon="7.201">
        <ele>2211.8440703986</ele>
        <time>2016-09-25T14:08:13Z</time>
      </trkpt>
      <trkpt lat="44.16832" lon="7.20101">
        <ele>2211.8440703986</ele>
        <time>2016-09-25T14:08:22Z</time>
      </trkpt>
      <trkpt lat="44.16836" lon="7.201">
        <ele>2212.9522425498</ele>
        <time>2016-09-25T14:08:28Z</time>
      </trkpt>
      <trkpt lat="44.16843" lon="7.20094">
        <ele>2212.9522425498</ele>
        <time>2016-09-25T14:08:38Z</time>
      </trkpt>
      <trkpt lat="44.16845" lon="7.20094">
        <ele>2214.332914993</ele>
        <time>2016-09-25T14:08:42Z</time>
      </trkpt>
      <trkpt lat="44.16849" lon="7.20095">
        <ele>2214.332914993</ele>
        <time>2016-09-25T14:08:53Z</time>
      </trkpt>
      <trkpt lat="44.16849" lon="7.20095">
        <ele>2214.332914993</ele>
        <time>2016-09-25T14:08:57Z</time>
      </trkpt>
      <trkpt lat="44.16849" lon="7.20095">
        <ele>2214.332914993</ele>
        <time>2016-09-25T14:09:07Z</time>
      </trkpt>
      <trkpt lat="44.16849" lon="7.20095">
        <ele>2214.332914993</ele>
        <time>2016-09-25T14:09:13Z</time>
      </trkpt>
      <trkpt lat="44.16856" lon="7.201">
        <ele>2216.0751864964</ele>
        <time>2016-09-25T14:09:22Z</time>
      </trkpt>
      <trkpt lat="44.16857" lon="7.20102">
        <ele>2216.0751864964</ele>
        <time>2016-09-25T14:09:28Z</time>
      </trkpt>
      <trkpt lat="44.1686" lon="7.20106">
        <ele>2216.0751864964</ele>
        <time>2016-09-25T14:09:38Z</time>
      </trkpt>
      <trkpt lat="44.1686" lon="7.20106">
        <ele>2216.0751864964</ele>
        <time>2016-09-25T14:09:42Z</time>
      </trkpt>
      <trkpt lat="44.16864" lon="7.20109">
        <ele>2218.7362058488</ele>
        <time>2016-09-25T14:09:58Z</time>
      </trkpt>
      <trkpt lat="44.16868" lon="7.20114">
        <ele>2218.7362058488</ele>
        <time>2016-09-25T14:10:02Z</time>
      </trkpt>
      <trkpt lat="44.16871" lon="7.20115">
        <ele>2218.7362058488</ele>
        <time>2016-09-25T14:10:13Z</time>
      </trkpt>
      <trkpt lat="44.16871" lon="7.20115">
        <ele>2218.7362058488</ele>
        <time>2016-09-25T14:10:18Z</time>
      </trkpt>
      <trkpt lat="44.16873" lon="7.20119">
        <ele>2220.6824213512</ele>
        <time>2016-09-25T14:10:28Z</time>
      </trkpt>
      <trkpt lat="44.16875" lon="7.20121">
        <ele>2220.6824213512</ele>
        <time>2016-09-25T14:10:33Z</time>
      </trkpt>
      <trkpt lat="44.16876" lon="7.20122">
        <ele>2220.6824213512</ele>
        <time>2016-09-25T14:10:42Z</time>
      </trkpt>
      <trkpt lat="44.16877" lon="7.20122">
        <ele>2220.6824213512</ele>
        <time>2016-09-25T14:10:47Z</time>
      </trkpt>
      <trkpt lat="44.1688" lon="7.20124">
        <ele>2220.6824213512</ele>
        <time>2016-09-25T14:10:58Z</time>
      </trkpt>
      <trkpt lat="44.16883" lon="7.20126">
        <ele>2223.3566463457</ele>
        <time>2016-09-25T14:11:03Z</time>
      </trkpt>
      <trkpt lat="44.16891" lon="7.20128">
        <ele>2223.3566463457</ele>
        <time>2016-09-25T14:11:13Z</time>
      </trkpt>
      <trkpt lat="44.16892" lon="7.20128">
        <ele>2225.5718187292</ele>
        <time>2016-09-25T14:11:18Z</time>
      </trkpt>
      <trkpt lat="44.16897" lon="7.20132">
        <ele>2225.5718187292</ele>
        <time>2016-09-25T14:11:33Z</time>
      </trkpt>
      <trkpt lat="44.16906" lon="7.20141">
        <ele>2227.5120726869</ele>
        <time>2016-09-25T14:11:42Z</time>
      </trkpt>
      <trkpt lat="44.16908" lon="7.20144">
        <ele>2227.5120726869</ele>
        <time>2016-09-25T14:11:47Z</time>
      </trkpt>
      <trkpt lat="44.1691" lon="7.20151">
        <ele>2229.1615756925</ele>
        <time>2016-09-25T14:11:58Z</time>
      </trkpt>
      <trkpt lat="44.16912" lon="7.20154">
        <ele>2229.1615756925</ele>
        <time>2016-09-25T14:12:02Z</time>
      </trkpt>
      <trkpt lat="44.16912" lon="7.20155">
        <ele>2229.1615756925</ele>
        <time>2016-09-25T14:12:07Z</time>
      </trkpt>
      <trkpt lat="44.16913" lon="7.20155">
        <ele>2229.1615756925</ele>
        <time>2016-09-25T14:12:13Z</time>
      </trkpt>
      <trkpt lat="44.16915" lon="7.20157">
        <ele>2229.1615756925</ele>
        <time>2016-09-25T14:12:18Z</time>
      </trkpt>
      <trkpt lat="44.16915" lon="7.20158">
        <ele>2229.1615756925</ele>
        <time>2016-09-25T14:12:22Z</time>
      </trkpt>
      <trkpt lat="44.16915" lon="7.20158">
        <ele>2229.1615756925</ele>
        <time>2016-09-25T14:12:33Z</time>
      </trkpt>
      <trkpt lat="44.16917" lon="7.20157">
        <ele>2231.0254197651</ele>
        <time>2016-09-25T14:12:47Z</time>
      </trkpt>
      <trkpt lat="44.16922" lon="7.20157">
        <ele>2231.0254197651</ele>
        <time>2016-09-25T14:13:02Z</time>
      </trkpt>
      <trkpt lat="44.16925" lon="7.20156">
        <ele>2231.0254197651</ele>
        <time>2016-09-25T14:13:07Z</time>
      </trkpt>
      <trkpt lat="44.16927" lon="7.20156">
        <ele>2232.2309123308</ele>
        <time>2016-09-25T14:13:17Z</time>
      </trkpt>
      <trkpt lat="44.16928" lon="7.20156">
        <ele>2232.2309123308</ele>
        <time>2016-09-25T14:13:22Z</time>
      </trkpt>
      <trkpt lat="44.16928" lon="7.20156">
        <ele>2232.2309123308</ele>
        <time>2016-09-25T14:13:32Z</time>
      </trkpt>
      <trkpt lat="44.16932" lon="7.20154">
        <ele>2232.2309123308</ele>
        <time>2016-09-25T14:13:38Z</time>
      </trkpt>
      <trkpt lat="44.16936" lon="7.20153">
        <ele>2232.2308736131</ele>
        <time>2016-09-25T14:13:47Z</time>
      </trkpt>
      <trkpt lat="44.16936" lon="7.20151">
        <ele>2232.2308736131</ele>
        <time>2016-09-25T14:13:52Z</time>
      </trkpt>
      <trkpt lat="44.1694" lon="7.20149">
        <ele>2232.2308736131</ele>
        <time>2016-09-25T14:14:02Z</time>
      </trkpt>
      <trkpt lat="44.16942" lon="7.20146">
        <ele>2232.2308736131</ele>
        <time>2016-09-25T14:14:07Z</time>
      </trkpt>
      <trkpt lat="44.16943" lon="7.20146">
        <ele>2233.5481966507</ele>
        <time>2016-09-25T14:14:17Z</time>
      </trkpt>
      <trkpt lat="44.16944" lon="7.20144">
        <ele>2233.5481966507</ele>
        <time>2016-09-25T14:14:23Z</time>
      </trkpt>
      <trkpt lat="44.16955" lon="7.20139">
        <ele>2234.510618732</ele>
        <time>2016-09-25T14:14:33Z</time>
      </trkpt>
      <trkpt lat="44.1696" lon="7.20139">
        <ele>2234.510618732</ele>
        <time>2016-09-25T14:14:37Z</time>
      </trkpt>
      <trkpt lat="44.16966" lon="7.2014">
        <ele>2234.9821633145</ele>
        <time>2016-09-25T14:14:48Z</time>
      </trkpt>
      <trkpt lat="44.16966" lon="7.2014">
        <ele>2234.9821633145</ele>
        <time>2016-09-25T14:14:53Z</time>
      </trkpt>
      <trkpt lat="44.16966" lon="7.2014">
        <ele>2234.9821633145</ele>
        <time>2016-09-25T14:15:03Z</time>
      </trkpt>
      <trkpt lat="44.16971" lon="7.20141">
        <ele>2234.9821633145</ele>
        <time>2016-09-25T14:15:08Z</time>
      </trkpt>
      <trkpt lat="44.16976" lon="7.20142">
        <ele>2235.6309856233</ele>
        <time>2016-09-25T14:15:17Z</time>
      </trkpt>
      <trkpt lat="44.16979" lon="7.20142">
        <ele>2235.6309856233</ele>
        <time>2016-09-25T14:15:22Z</time>
      </trkpt>
      <trkpt lat="44.16983" lon="7.20141">
        <ele>2235.6309856233</ele>
        <time>2016-09-25T14:15:32Z</time>
      </trkpt>
      <trkpt lat="44.16983" lon="7.20141">
        <ele>2235.6309856233</ele>
        <time>2016-09-25T14:15:37Z</time>
      </trkpt>
      <trkpt lat="44.16986" lon="7.20141">
        <ele>2236.7155355791</ele>
        <time>2016-09-25T14:15:42Z</time>
      </trkpt>
      <trkpt lat="44.16993" lon="7.20149">
        <ele>2236.7155355791</ele>
        <time>2016-09-25T14:15:52Z</time>
      </trkpt>
      <trkpt lat="44.16992" lon="7.20148">
        <ele>2238.5462611619</ele>
        <time>2016-09-25T14:15:57Z</time>
      </trkpt>
      <trkpt lat="44.16991" lon="7.20148">
        <ele>2238.5462611619</ele>
        <time>2016-09-25T14:16:07Z</time>
      </trkpt>
      <trkpt lat="44.1699" lon="7.20148">
        <ele>2238.5462611619</ele>
        <time>2016-09-25T14:16:12Z</time>
      </trkpt>
      <trkpt lat="44.16989" lon="7.2015">
        <ele>2238.5462611619</ele>
        <time>2016-09-25T14:16:22Z</time>
      </trkpt>
      <trkpt lat="44.16989" lon="7.20152">
        <ele>2238.5462611619</ele>
        <time>2016-09-25T14:16:27Z</time>
      </trkpt>
      <trkpt lat="44.16989" lon="7.20151">
        <ele>2238.5462611619</ele>
        <time>2016-09-25T14:16:32Z</time>
      </trkpt>
      <trkpt lat="44.16989" lon="7.20151">
        <ele>2238.5462611619</ele>
        <time>2016-09-25T14:16:42Z</time>
      </trkpt>
      <trkpt lat="44.16989" lon="7.20151">
        <ele>2238.5462611619</ele>
        <time>2016-09-25T14:16:47Z</time>
      </trkpt>
      <trkpt lat="44.16991" lon="7.20149">
        <ele>2238.5462611619</ele>
        <time>2016-09-25T14:16:57Z</time>
      </trkpt>
      <trkpt lat="44.1699" lon="7.20151">
        <ele>2238.5462611619</ele>
        <time>2016-09-25T14:17:02Z</time>
      </trkpt>
      <trkpt lat="44.1699" lon="7.20153">
        <ele>2240.4577280741</ele>
        <time>2016-09-25T14:17:12Z</time>
      </trkpt>
      <trkpt lat="44.16989" lon="7.20152">
        <ele>2240.4577280741</ele>
        <time>2016-09-25T14:17:17Z</time>
      </trkpt>
      <trkpt lat="44.1699" lon="7.20155">
        <ele>2240.4577280741</ele>
        <time>2016-09-25T14:17:27Z</time>
      </trkpt>
      <trkpt lat="44.1699" lon="7.20155">
        <ele>2240.4577280741</ele>
        <time>2016-09-25T14:17:32Z</time>
      </trkpt>
      <trkpt lat="44.16986" lon="7.20158">
        <ele>2240.4577280741</ele>
        <time>2016-09-25T14:17:42Z</time>
      </trkpt>
      <trkpt lat="44.16985" lon="7.20163">
        <ele>2241.6171417795</ele>
        <time>2016-09-25T14:17:47Z</time>
      </trkpt>
      <trkpt lat="44.16989" lon="7.20158">
        <ele>2241.6171417795</ele>
        <time>2016-09-25T14:18:02Z</time>
      </trkpt>
      <trkpt lat="44.1699" lon="7.20158">
        <ele>2241.6171417795</ele>
        <time>2016-09-25T14:18:07Z</time>
      </trkpt>
      <trkpt lat="44.1699" lon="7.20158">
        <ele>2241.6171417795</ele>
        <time>2016-09-25T14:18:17Z</time>
      </trkpt>
      <trkpt lat="44.1699" lon="7.20158">
        <ele>2241.6171417795</ele>
        <time>2016-09-25T14:18:22Z</time>
      </trkpt>
      <trkpt lat="44.1699" lon="7.20158">
        <ele>2241.6171417795</ele>
        <time>2016-09-25T14:18:32Z</time>
      </trkpt>
      <trkpt lat="44.1699" lon="7.20158">
        <ele>2241.6171417795</ele>
        <time>2016-09-25T14:18:37Z</time>
      </trkpt>
      <trkpt lat="44.1699" lon="7.20159">
        <ele>2241.6171417795</ele>
        <time>2016-09-25T14:18:48Z</time>
      </trkpt>
      <trkpt lat="44.1699" lon="7.20159">
        <ele>2241.6171417795</ele>
        <time>2016-09-25T14:18:53Z</time>
      </trkpt>
      <trkpt lat="44.1699" lon="7.20159">
        <ele>2241.6171417795</ele>
        <time>2016-09-25T14:19:02Z</time>
      </trkpt>
      <trkpt lat="44.16991" lon="7.20159">
        <ele>2241.6171417795</ele>
        <time>2016-09-25T14:19:08Z</time>
      </trkpt>
      <trkpt lat="44.16991" lon="7.20159">
        <ele>2241.6171417795</ele>
        <time>2016-09-25T14:19:17Z</time>
      </trkpt>
      <trkpt lat="44.16991" lon="7.20159">
        <ele>2241.6171417795</ele>
        <time>2016-09-25T14:19:23Z</time>
      </trkpt>
      <trkpt lat="44.16991" lon="7.20159">
        <ele>2241.6171417795</ele>
        <time>2016-09-25T14:19:33Z</time>
      </trkpt>
      <trkpt lat="44.16991" lon="7.20159">
        <ele>2241.6171417795</ele>
        <time>2016-09-25T14:19:37Z</time>
      </trkpt>
      <trkpt lat="44.16991" lon="7.20159">
        <ele>2241.6171417795</ele>
        <time>2016-09-25T14:19:48Z</time>
      </trkpt>
      <trkpt lat="44.16991" lon="7.20159">
        <ele>2241.6171417795</ele>
        <time>2016-09-25T14:19:52Z</time>
      </trkpt>
      <trkpt lat="44.16991" lon="7.2016">
        <ele>2241.6171417795</ele>
        <time>2016-09-25T14:20:08Z</time>
      </trkpt>
      <trkpt lat="44.16991" lon="7.2016">
        <ele>2241.6171417795</ele>
        <time>2016-09-25T14:20:22Z</time>
      </trkpt>
      <trkpt lat="44.16991" lon="7.2016">
        <ele>2241.8604113257</ele>
        <time>2016-09-25T14:20:37Z</time>
      </trkpt>
      <trkpt lat="44.16991" lon="7.2016">
        <ele>2241.8604113257</ele>
        <time>2016-09-25T14:20:42Z</time>
      </trkpt>
      <trkpt lat="44.16991" lon="7.2016">
        <ele>2241.8604113257</ele>
        <time>2016-09-25T14:20:53Z</time>
      </trkpt>
      <trkpt lat="44.16991" lon="7.2016">
        <ele>2241.8604113257</ele>
        <time>2016-09-25T14:20:57Z</time>
      </trkpt>
      <trkpt lat="44.16991" lon="7.2016">
        <ele>2241.8604113257</ele>
        <time>2016-09-25T14:21:08Z</time>
      </trkpt>
      <trkpt lat="44.16991" lon="7.2016">
        <ele>2241.8604113257</ele>
        <time>2016-09-25T14:21:13Z</time>
      </trkpt>
      <trkpt lat="44.16991" lon="7.2016">
        <ele>2241.8604113257</ele>
        <time>2016-09-25T14:21:22Z</time>
      </trkpt>
      <trkpt lat="44.16991" lon="7.2016">
        <ele>2241.8604113257</ele>
        <time>2016-09-25T14:21:28Z</time>
      </trkpt>
      <trkpt lat="44.16991" lon="7.2016">
        <ele>2241.8604113257</ele>
        <time>2016-09-25T14:21:38Z</time>
      </trkpt>
      <trkpt lat="44.16992" lon="7.2016">
        <ele>2241.8604113257</ele>
        <time>2016-09-25T14:21:42Z</time>
      </trkpt>
      <trkpt lat="44.16992" lon="7.20161">
        <ele>2241.8604113257</ele>
        <time>2016-09-25T14:21:53Z</time>
      </trkpt>
      <trkpt lat="44.16992" lon="7.20161">
        <ele>2241.8604113257</ele>
        <time>2016-09-25T14:21:57Z</time>
      </trkpt>
      <trkpt lat="44.16992" lon="7.20161">
        <ele>2241.8604113257</ele>
        <time>2016-09-25T14:22:08Z</time>
      </trkpt>
      <trkpt lat="44.16992" lon="7.20161">
        <ele>2241.8604113257</ele>
        <time>2016-09-25T14:22:13Z</time>
      </trkpt>
      <trkpt lat="44.16992" lon="7.20161">
        <ele>2241.8604113257</ele>
        <time>2016-09-25T14:22:17Z</time>
      </trkpt>
      <trkpt lat="44.16992" lon="7.20161">
        <ele>2241.8604113257</ele>
        <time>2016-09-25T14:22:28Z</time>
      </trkpt>
      <trkpt lat="44.16995" lon="7.2016">
        <ele>2241.8604113257</ele>
        <time>2016-09-25T14:22:42Z</time>
      </trkpt>
      <trkpt lat="44.17002" lon="7.20158">
        <ele>2242.1334628282</ele>
        <time>2016-09-25T14:22:48Z</time>
      </trkpt>
      <trkpt lat="44.17008" lon="7.20153">
        <ele>2242.1334628282</ele>
        <time>2016-09-25T14:22:58Z</time>
      </trkpt>
      <trkpt lat="44.1701" lon="7.20153">
        <ele>2242.1334628282</ele>
        <time>2016-09-25T14:23:02Z</time>
      </trkpt>
      <trkpt lat="44.1702" lon="7.20156">
        <ele>2242.9236948074</ele>
        <time>2016-09-25T14:23:14Z</time>
      </trkpt>
      <trkpt lat="44.17022" lon="7.20156">
        <ele>2242.9236948074</ele>
        <time>2016-09-25T14:23:17Z</time>
      </trkpt>
      <trkpt lat="44.17026" lon="7.20164">
        <ele>2242.9236948074</ele>
        <time>2016-09-25T14:23:28Z</time>
      </trkpt>
      <trkpt lat="44.17029" lon="7.20166">
        <ele>2244.3499326291</ele>
        <time>2016-09-25T14:23:33Z</time>
      </trkpt>
      <trkpt lat="44.17034" lon="7.20165">
        <ele>2244.3499326291</ele>
        <time>2016-09-25T14:23:42Z</time>
      </trkpt>
      <trkpt lat="44.17037" lon="7.20167">
        <ele>2244.3499326291</ele>
        <time>2016-09-25T14:23:48Z</time>
      </trkpt>
      <trkpt lat="44.17042" lon="7.20166">
        <ele>2246.0594656439</ele>
        <time>2016-09-25T14:23:57Z</time>
      </trkpt>
      <trkpt lat="44.17046" lon="7.20168">
        <ele>2246.0594656439</ele>
        <time>2016-09-25T14:24:03Z</time>
      </trkpt>
      <trkpt lat="44.17056" lon="7.2017">
        <ele>2247.6383622825</ele>
        <time>2016-09-25T14:24:18Z</time>
      </trkpt>
      <trkpt lat="44.17062" lon="7.20167">
        <ele>2247.6383622825</ele>
        <time>2016-09-25T14:24:32Z</time>
      </trkpt>
      <trkpt lat="44.17063" lon="7.20167">
        <ele>2247.6383622825</ele>
        <time>2016-09-25T14:24:47Z</time>
      </trkpt>
      <trkpt lat="44.17063" lon="7.20167">
        <ele>2247.6383622825</ele>
        <time>2016-09-25T14:24:52Z</time>
      </trkpt>
      <trkpt lat="44.17063" lon="7.20167">
        <ele>2247.6383622825</ele>
        <time>2016-09-25T14:25:03Z</time>
      </trkpt>
      <trkpt lat="44.17063" lon="7.20167">
        <ele>2247.6383622825</ele>
        <time>2016-09-25T14:25:08Z</time>
      </trkpt>
      <trkpt lat="44.17063" lon="7.20167">
        <ele>2247.6383622825</ele>
        <time>2016-09-25T14:25:18Z</time>
      </trkpt>
      <trkpt lat="44.17063" lon="7.20167">
        <ele>2247.6383622825</ele>
        <time>2016-09-25T14:25:23Z</time>
      </trkpt>
      <trkpt lat="44.17063" lon="7.20167">
        <ele>2247.6383622825</ele>
        <time>2016-09-25T14:25:32Z</time>
      </trkpt>
      <trkpt lat="44.17063" lon="7.20167">
        <ele>2247.6383622825</ele>
        <time>2016-09-25T14:25:38Z</time>
      </trkpt>
      <trkpt lat="44.17062" lon="7.20166">
        <ele>2249.4385625363</ele>
        <time>2016-09-25T14:25:47Z</time>
      </trkpt>
      <trkpt lat="44.17061" lon="7.20166">
        <ele>2249.4385625363</ele>
        <time>2016-09-25T14:25:52Z</time>
      </trkpt>
      <trkpt lat="44.17062" lon="7.20166">
        <ele>2249.4385625363</ele>
        <time>2016-09-25T14:26:03Z</time>
      </trkpt>
      <trkpt lat="44.17062" lon="7.20166">
        <ele>2249.4385625363</ele>
        <time>2016-09-25T14:26:07Z</time>
      </trkpt>
      <trkpt lat="44.17062" lon="7.20166">
        <ele>2249.4385625363</ele>
        <time>2016-09-25T14:26:12Z</time>
      </trkpt>
      <trkpt lat="44.17062" lon="7.20166">
        <ele>2249.4385625363</ele>
        <time>2016-09-25T14:26:18Z</time>
      </trkpt>
      <trkpt lat="44.17062" lon="7.20166">
        <ele>2249.4385625363</ele>
        <time>2016-09-25T14:26:23Z</time>
      </trkpt>
      <trkpt lat="44.17062" lon="7.20166">
        <ele>2249.4385625363</ele>
        <time>2016-09-25T14:26:27Z</time>
      </trkpt>
      <trkpt lat="44.17062" lon="7.20166">
        <ele>2249.4385625363</ele>
        <time>2016-09-25T14:26:38Z</time>
      </trkpt>
      <trkpt lat="44.17062" lon="7.20167">
        <ele>2249.4385625363</ele>
        <time>2016-09-25T14:26:52Z</time>
      </trkpt>
      <trkpt lat="44.17061" lon="7.20167">
        <ele>2249.4385625363</ele>
        <time>2016-09-25T14:26:57Z</time>
      </trkpt>
      <trkpt lat="44.17062" lon="7.20166">
        <ele>2249.4385625363</ele>
        <time>2016-09-25T14:27:07Z</time>
      </trkpt>
      <trkpt lat="44.17062" lon="7.2016">
        <ele>2249.4385625363</ele>
        <time>2016-09-25T14:27:12Z</time>
      </trkpt>
      <trkpt lat="44.17063" lon="7.20161">
        <ele>2250.4454294202</ele>
        <time>2016-09-25T14:27:22Z</time>
      </trkpt>
      <trkpt lat="44.17062" lon="7.2016">
        <ele>2250.4454294202</ele>
        <time>2016-09-25T14:27:28Z</time>
      </trkpt>
      <trkpt lat="44.17062" lon="7.20157">
        <ele>2250.4454294202</ele>
        <time>2016-09-25T14:27:37Z</time>
      </trkpt>
      <trkpt lat="44.17062" lon="7.20156">
        <ele>2250.4454294202</ele>
        <time>2016-09-25T14:27:42Z</time>
      </trkpt>
      <trkpt lat="44.17063" lon="7.20148">
        <ele>2251.5802505364</ele>
        <time>2016-09-25T14:27:54Z</time>
      </trkpt>
      <trkpt lat="44.17063" lon="7.20149">
        <ele>2251.5802505364</ele>
        <time>2016-09-25T14:27:57Z</time>
      </trkpt>
      <trkpt lat="44.17063" lon="7.20149">
        <ele>2251.5802505364</ele>
        <time>2016-09-25T14:28:08Z</time>
      </trkpt>
      <trkpt lat="44.17063" lon="7.20149">
        <ele>2251.5802505364</ele>
        <time>2016-09-25T14:28:13Z</time>
      </trkpt>
      <trkpt lat="44.17063" lon="7.20149">
        <ele>2251.5802505364</ele>
        <time>2016-09-25T14:28:28Z</time>
      </trkpt>
      <trkpt lat="44.17067" lon="7.20144">
        <ele>2251.5802505364</ele>
        <time>2016-09-25T14:28:42Z</time>
      </trkpt>
      <trkpt lat="44.17067" lon="7.20144">
        <ele>2251.5802505364</ele>
        <time>2016-09-25T14:28:53Z</time>
      </trkpt>
      <trkpt lat="44.17066" lon="7.20144">
        <ele>2251.5802505364</ele>
        <time>2016-09-25T14:28:57Z</time>
      </trkpt>
      <trkpt lat="44.17069" lon="7.20147">
        <ele>2250.8430011348</ele>
        <time>2016-09-25T14:29:02Z</time>
      </trkpt>
      <trkpt lat="44.17067" lon="7.20147">
        <ele>2250.8430011348</ele>
        <time>2016-09-25T14:29:12Z</time>
      </trkpt>
      <trkpt lat="44.17066" lon="7.20148">
        <ele>2250.8430011348</ele>
        <time>2016-09-25T14:29:27Z</time>
      </trkpt>
      <trkpt lat="44.17066" lon="7.20148">
        <ele>2250.8430011348</ele>
        <time>2016-09-25T14:29:32Z</time>
      </trkpt>
      <trkpt lat="44.17066" lon="7.20147">
        <ele>2250.8430011348</ele>
        <time>2016-09-25T14:29:42Z</time>
      </trkpt>
      <trkpt lat="44.17066" lon="7.20147">
        <ele>2250.8430011348</ele>
        <time>2016-09-25T14:29:47Z</time>
      </trkpt>
      <trkpt lat="44.17067" lon="7.20148">
        <ele>2250.8430011348</ele>
        <time>2016-09-25T14:29:58Z</time>
      </trkpt>
      <trkpt lat="44.17068" lon="7.20147">
        <ele>2250.8430011348</ele>
        <time>2016-09-25T14:30:02Z</time>
      </trkpt>
      <trkpt lat="44.17069" lon="7.20146">
        <ele>2250.8430011348</ele>
        <time>2016-09-25T14:30:07Z</time>
      </trkpt>
      <trkpt lat="44.17069" lon="7.20146">
        <ele>2250.8430011348</ele>
        <time>2016-09-25T14:30:12Z</time>
      </trkpt>
      <trkpt lat="44.17069" lon="7.20146">
        <ele>2250.8430011348</ele>
        <time>2016-09-25T14:30:17Z</time>
      </trkpt>
      <trkpt lat="44.17069" lon="7.20146">
        <ele>2250.8430011348</ele>
        <time>2016-09-25T14:30:22Z</time>
      </trkpt>
      <trkpt lat="44.17069" lon="7.20146">
        <ele>2250.8430011348</ele>
        <time>2016-09-25T14:30:27Z</time>
      </trkpt>
      <trkpt lat="44.17069" lon="7.20146">
        <ele>2250.8430011348</ele>
        <time>2016-09-25T14:30:32Z</time>
      </trkpt>
      <trkpt lat="44.17069" lon="7.20146">
        <ele>2250.8430011348</ele>
        <time>2016-09-25T14:30:37Z</time>
      </trkpt>
      <trkpt lat="44.17069" lon="7.20146">
        <ele>2250.8430011348</ele>
        <time>2016-09-25T14:30:42Z</time>
      </trkpt>
      <trkpt lat="44.17069" lon="7.20146">
        <ele>2250.8430011348</ele>
        <time>2016-09-25T14:30:47Z</time>
      </trkpt>
      <trkpt lat="44.17069" lon="7.20146">
        <ele>2250.8430011348</ele>
        <time>2016-09-25T14:30:52Z</time>
      </trkpt>
      <trkpt lat="44.17069" lon="7.20146">
        <ele>2250.8430011348</ele>
        <time>2016-09-25T14:30:57Z</time>
      </trkpt>
      <trkpt lat="44.17069" lon="7.20146">
        <ele>2250.8430011348</ele>
        <time>2016-09-25T14:31:02Z</time>
      </trkpt>
      <trkpt lat="44.17069" lon="7.20146">
        <ele>2250.8430011348</ele>
        <time>2016-09-25T14:31:07Z</time>
      </trkpt>
      <trkpt lat="44.17069" lon="7.20145">
        <ele>2250.8430011348</ele>
        <time>2016-09-25T14:31:12Z</time>
      </trkpt>
      <trkpt lat="44.17069" lon="7.20145">
        <ele>2250.8430011348</ele>
        <time>2016-09-25T14:31:17Z</time>
      </trkpt>
      <trkpt lat="44.17069" lon="7.20145">
        <ele>2250.8430011348</ele>
        <time>2016-09-25T14:31:22Z</time>
      </trkpt>
      <trkpt lat="44.17069" lon="7.20145">
        <ele>2250.8430011348</ele>
        <time>2016-09-25T14:31:27Z</time>
      </trkpt>
      <trkpt lat="44.17069" lon="7.20145">
        <ele>2250.8430011348</ele>
        <time>2016-09-25T14:31:32Z</time>
      </trkpt>
      <trkpt lat="44.17069" lon="7.20145">
        <ele>2250.8430011348</ele>
        <time>2016-09-25T14:31:37Z</time>
      </trkpt>
      <trkpt lat="44.17069" lon="7.20145">
        <ele>2250.8430011348</ele>
        <time>2016-09-25T14:31:42Z</time>
      </trkpt>
      <trkpt lat="44.17069" lon="7.20145">
        <ele>2250.8430011348</ele>
        <time>2016-09-25T14:31:47Z</time>
      </trkpt>
      <trkpt lat="44.17069" lon="7.20145">
        <ele>2250.8430011348</ele>
        <time>2016-09-25T14:31:52Z</time>
      </trkpt>
      <trkpt lat="44.17069" lon="7.20145">
        <ele>2250.8430011348</ele>
        <time>2016-09-25T14:31:57Z</time>
      </trkpt>
      <trkpt lat="44.17069" lon="7.20145">
        <ele>2250.8430011348</ele>
        <time>2016-09-25T14:32:02Z</time>
      </trkpt>
      <trkpt lat="44.17069" lon="7.20145">
        <ele>2250.8430011348</ele>
        <time>2016-09-25T14:32:07Z</time>
      </trkpt>
      <trkpt lat="44.17069" lon="7.20145">
        <ele>2250.8430011348</ele>
        <time>2016-09-25T14:32:12Z</time>
      </trkpt>
      <trkpt lat="44.17069" lon="7.20145">
        <ele>2250.8430011348</ele>
        <time>2016-09-25T14:32:17Z</time>
      </trkpt>
      <trkpt lat="44.17069" lon="7.20145">
        <ele>2250.8430011348</ele>
        <time>2016-09-25T14:32:22Z</time>
      </trkpt>
      <trkpt lat="44.17069" lon="7.20145">
        <ele>2250.8430011348</ele>
        <time>2016-09-25T14:32:32Z</time>
      </trkpt>
      <trkpt lat="44.17069" lon="7.20145">
        <ele>2250.8430011348</ele>
        <time>2016-09-25T14:32:37Z</time>
      </trkpt>
      <trkpt lat="44.17069" lon="7.20145">
        <ele>2250.8430011348</ele>
        <time>2016-09-25T14:32:52Z</time>
      </trkpt>
      <trkpt lat="44.17069" lon="7.20145">
        <ele>2250.8430011348</ele>
        <time>2016-09-25T14:32:57Z</time>
      </trkpt>
      <trkpt lat="44.17069" lon="7.20145">
        <ele>2250.8430011348</ele>
        <time>2016-09-25T14:33:07Z</time>
      </trkpt>
      <trkpt lat="44.17069" lon="7.20145">
        <ele>2250.8430011348</ele>
        <time>2016-09-25T14:33:12Z</time>
      </trkpt>
      <trkpt lat="44.17069" lon="7.20145">
        <ele>2250.8430011348</ele>
        <time>2016-09-25T14:33:22Z</time>
      </trkpt>
      <trkpt lat="44.17068" lon="7.20145">
        <ele>2250.8430011348</ele>
        <time>2016-09-25T14:33:27Z</time>
      </trkpt>
      <trkpt lat="44.17068" lon="7.20145">
        <ele>2250.8430011348</ele>
        <time>2016-09-25T14:33:37Z</time>
      </trkpt>
      <trkpt lat="44.17068" lon="7.20145">
        <ele>2250.8430011348</ele>
        <time>2016-09-25T14:33:42Z</time>
      </trkpt>
      <trkpt lat="44.17068" lon="7.20145">
        <ele>2250.8430011348</ele>
        <time>2016-09-25T14:33:52Z</time>
      </trkpt>
      <trkpt lat="44.17068" lon="7.20145">
        <ele>2250.8430011348</ele>
        <time>2016-09-25T14:33:57Z</time>
      </trkpt>
      <trkpt lat="44.17068" lon="7.20145">
        <ele>2250.8430011348</ele>
        <time>2016-09-25T14:34:07Z</time>
      </trkpt>
      <trkpt lat="44.17068" lon="7.20145">
        <ele>2250.8430011348</ele>
        <time>2016-09-25T14:34:12Z</time>
      </trkpt>
      <trkpt lat="44.17068" lon="7.20145">
        <ele>2250.8430011348</ele>
        <time>2016-09-25T14:34:22Z</time>
      </trkpt>
      <trkpt lat="44.17068" lon="7.20145">
        <ele>2250.8430011348</ele>
        <time>2016-09-25T14:34:27Z</time>
      </trkpt>
      <trkpt lat="44.17068" lon="7.20145">
        <ele>2250.8430011348</ele>
        <time>2016-09-25T14:34:37Z</time>
      </trkpt>
      <trkpt lat="44.17068" lon="7.20145">
        <ele>2250.8430011348</ele>
        <time>2016-09-25T14:34:42Z</time>
      </trkpt>
      <trkpt lat="44.17068" lon="7.20145">
        <ele>2250.8430011348</ele>
        <time>2016-09-25T14:34:52Z</time>
      </trkpt>
      <trkpt lat="44.17068" lon="7.20145">
        <ele>2250.8430011348</ele>
        <time>2016-09-25T14:34:57Z</time>
      </trkpt>
      <trkpt lat="44.17068" lon="7.20145">
        <ele>2250.8430011348</ele>
        <time>2016-09-25T14:35:07Z</time>
      </trkpt>
      <trkpt lat="44.17068" lon="7.20145">
        <ele>2250.8430011348</ele>
        <time>2016-09-25T14:35:12Z</time>
      </trkpt>
      <trkpt lat="44.17068" lon="7.20144">
        <ele>2250.8430011348</ele>
        <time>2016-09-25T14:35:22Z</time>
      </trkpt>
      <trkpt lat="44.17068" lon="7.20144">
        <ele>2250.8430011348</ele>
        <time>2016-09-25T14:35:27Z</time>
      </trkpt>
      <trkpt lat="44.17068" lon="7.20144">
        <ele>2250.8430011348</ele>
        <time>2016-09-25T14:35:42Z</time>
      </trkpt>
      <trkpt lat="44.17068" lon="7.20144">
        <ele>2250.8430011348</ele>
        <time>2016-09-25T14:35:47Z</time>
      </trkpt>
      <trkpt lat="44.17068" lon="7.20144">
        <ele>2250.8430011348</ele>
        <time>2016-09-25T14:35:57Z</time>
      </trkpt>
      <trkpt lat="44.17068" lon="7.20144">
        <ele>2250.8430011348</ele>
        <time>2016-09-25T14:36:02Z</time>
      </trkpt>
      <trkpt lat="44.17068" lon="7.20144">
        <ele>2250.8430011348</ele>
        <time>2016-09-25T14:36:12Z</time>
      </trkpt>
      <trkpt lat="44.17068" lon="7.20144">
        <ele>2250.8430011348</ele>
        <time>2016-09-25T14:36:17Z</time>
      </trkpt>
      <trkpt lat="44.17068" lon="7.20144">
        <ele>2250.8430011348</ele>
        <time>2016-09-25T14:36:27Z</time>
      </trkpt>
      <trkpt lat="44.17068" lon="7.20144">
        <ele>2250.8430011348</ele>
        <time>2016-09-25T14:36:32Z</time>
      </trkpt>
      <trkpt lat="44.17068" lon="7.20144">
        <ele>2250.8430011348</ele>
        <time>2016-09-25T14:36:42Z</time>
      </trkpt>
      <trkpt lat="44.17068" lon="7.20144">
        <ele>2250.8430011348</ele>
        <time>2016-09-25T14:36:47Z</time>
      </trkpt>
      <trkpt lat="44.17068" lon="7.20144">
        <ele>2250.8430011348</ele>
        <time>2016-09-25T14:37:02Z</time>
      </trkpt>
      <trkpt lat="44.17068" lon="7.20144">
        <ele>2250.8430011348</ele>
        <time>2016-09-25T14:37:07Z</time>
      </trkpt>
      <trkpt lat="44.17068" lon="7.20144">
        <ele>2250.8430011348</ele>
        <time>2016-09-25T14:37:17Z</time>
      </trkpt>
      <trkpt lat="44.17068" lon="7.20144">
        <ele>2250.8430011348</ele>
        <time>2016-09-25T14:37:22Z</time>
      </trkpt>
      <trkpt lat="44.17068" lon="7.20144">
        <ele>2250.8430011348</ele>
        <time>2016-09-25T14:37:32Z</time>
      </trkpt>
      <trkpt lat="44.17068" lon="7.20144">
        <ele>2250.8430011348</ele>
        <time>2016-09-25T14:37:37Z</time>
      </trkpt>
      <trkpt lat="44.17068" lon="7.20144">
        <ele>2250.8430011348</ele>
        <time>2016-09-25T14:37:47Z</time>
      </trkpt>
      <trkpt lat="44.17068" lon="7.20144">
        <ele>2250.8430011348</ele>
        <time>2016-09-25T14:37:52Z</time>
      </trkpt>
      <trkpt lat="44.17068" lon="7.20144">
        <ele>2250.8430011348</ele>
        <time>2016-09-25T14:38:02Z</time>
      </trkpt>
      <trkpt lat="44.17068" lon="7.20144">
        <ele>2250.8430011348</ele>
        <time>2016-09-25T14:38:07Z</time>
      </trkpt>
      <trkpt lat="44.17068" lon="7.20144">
        <ele>2250.8430011348</ele>
        <time>2016-09-25T14:38:17Z</time>
      </trkpt>
      <trkpt lat="44.17068" lon="7.20144">
        <ele>2250.8430011348</ele>
        <time>2016-09-25T14:38:22Z</time>
      </trkpt>
      <trkpt lat="44.17068" lon="7.20144">
        <ele>2250.8430011348</ele>
        <time>2016-09-25T14:38:32Z</time>
      </trkpt>
      <trkpt lat="44.17068" lon="7.20144">
        <ele>2250.8430011348</ele>
        <time>2016-09-25T14:38:37Z</time>
      </trkpt>
      <trkpt lat="44.17068" lon="7.20144">
        <ele>2250.8430011348</ele>
        <time>2016-09-25T14:38:47Z</time>
      </trkpt>
      <trkpt lat="44.17068" lon="7.20144">
        <ele>2250.8430011348</ele>
        <time>2016-09-25T14:38:52Z</time>
      </trkpt>
      <trkpt lat="44.17068" lon="7.20144">
        <ele>2250.8430011348</ele>
        <time>2016-09-25T14:39:02Z</time>
      </trkpt>
      <trkpt lat="44.17068" lon="7.20144">
        <ele>2250.8430011348</ele>
        <time>2016-09-25T14:39:07Z</time>
      </trkpt>
      <trkpt lat="44.17068" lon="7.20144">
        <ele>2250.8430011348</ele>
        <time>2016-09-25T14:39:22Z</time>
      </trkpt>
      <trkpt lat="44.17068" lon="7.20144">
        <ele>2250.8430011348</ele>
        <time>2016-09-25T14:39:27Z</time>
      </trkpt>
      <trkpt lat="44.17068" lon="7.20144">
        <ele>2250.8430011348</ele>
        <time>2016-09-25T14:39:37Z</time>
      </trkpt>
      <trkpt lat="44.17068" lon="7.20144">
        <ele>2250.8430011348</ele>
        <time>2016-09-25T14:39:42Z</time>
      </trkpt>
      <trkpt lat="44.17068" lon="7.20144">
        <ele>2250.8430011348</ele>
        <time>2016-09-25T14:39:52Z</time>
      </trkpt>
      <trkpt lat="44.17068" lon="7.20144">
        <ele>2250.8430011348</ele>
        <time>2016-09-25T14:39:57Z</time>
      </trkpt>
      <trkpt lat="44.17068" lon="7.20144">
        <ele>2250.8430011348</ele>
        <time>2016-09-25T14:40:07Z</time>
      </trkpt>
      <trkpt lat="44.17068" lon="7.20144">
        <ele>2250.8430011348</ele>
        <time>2016-09-25T14:40:12Z</time>
      </trkpt>
      <trkpt lat="44.17068" lon="7.20144">
        <ele>2250.8430011348</ele>
        <time>2016-09-25T14:40:22Z</time>
      </trkpt>
      <trkpt lat="44.17068" lon="7.20144">
        <ele>2250.8430011348</ele>
        <time>2016-09-25T14:40:27Z</time>
      </trkpt>
      <trkpt lat="44.17068" lon="7.20144">
        <ele>2250.8430011348</ele>
        <time>2016-09-25T14:40:37Z</time>
      </trkpt>
      <trkpt lat="44.17068" lon="7.20144">
        <ele>2250.8430011348</ele>
        <time>2016-09-25T14:40:42Z</time>
      </trkpt>
      <trkpt lat="44.17068" lon="7.20144">
        <ele>2250.8430011348</ele>
        <time>2016-09-25T14:40:52Z</time>
      </trkpt>
      <trkpt lat="44.17068" lon="7.20144">
        <ele>2250.8430011348</ele>
        <time>2016-09-25T14:40:57Z</time>
      </trkpt>
      <trkpt lat="44.17068" lon="7.20144">
        <ele>2250.8430011348</ele>
        <time>2016-09-25T14:41:07Z</time>
      </trkpt>
      <trkpt lat="44.17068" lon="7.20144">
        <ele>2250.8430011348</ele>
        <time>2016-09-25T14:41:12Z</time>
      </trkpt>
      <trkpt lat="44.17068" lon="7.20144">
        <ele>2250.8430011348</ele>
        <time>2016-09-25T14:41:27Z</time>
      </trkpt>
      <trkpt lat="44.17068" lon="7.20144">
        <ele>2250.8430011348</ele>
        <time>2016-09-25T14:41:32Z</time>
      </trkpt>
      <trkpt lat="44.17068" lon="7.20144">
        <ele>2250.8430011348</ele>
        <time>2016-09-25T14:41:42Z</time>
      </trkpt>
      <trkpt lat="44.17068" lon="7.20144">
        <ele>2250.8430011348</ele>
        <time>2016-09-25T14:41:47Z</time>
      </trkpt>
      <trkpt lat="44.17068" lon="7.20144">
        <ele>2250.8430011348</ele>
        <time>2016-09-25T14:41:57Z</time>
      </trkpt>
      <trkpt lat="44.17068" lon="7.20144">
        <ele>2250.8430011348</ele>
        <time>2016-09-25T14:42:02Z</time>
      </trkpt>
      <trkpt lat="44.17068" lon="7.20144">
        <ele>2250.8430011348</ele>
        <time>2016-09-25T14:42:12Z</time>
      </trkpt>
      <trkpt lat="44.17068" lon="7.20144">
        <ele>2250.8430011348</ele>
        <time>2016-09-25T14:42:17Z</time>
      </trkpt>
      <trkpt lat="44.17068" lon="7.20144">
        <ele>2250.8430011348</ele>
        <time>2016-09-25T14:42:27Z</time>
      </trkpt>
      <trkpt lat="44.17068" lon="7.20144">
        <ele>2250.8430011348</ele>
        <time>2016-09-25T14:42:32Z</time>
      </trkpt>
      <trkpt lat="44.17068" lon="7.20144">
        <ele>2250.8430011348</ele>
        <time>2016-09-25T14:42:42Z</time>
      </trkpt>
      <trkpt lat="44.17068" lon="7.20144">
        <ele>2250.8430011348</ele>
        <time>2016-09-25T14:42:47Z</time>
      </trkpt>
      <trkpt lat="44.17068" lon="7.20144">
        <ele>2250.8430011348</ele>
        <time>2016-09-25T14:42:57Z</time>
      </trkpt>
      <trkpt lat="44.17068" lon="7.20144">
        <ele>2250.8430011348</ele>
        <time>2016-09-25T14:43:02Z</time>
      </trkpt>
      <trkpt lat="44.17068" lon="7.20144">
        <ele>2250.8430011348</ele>
        <time>2016-09-25T14:43:17Z</time>
      </trkpt>
      <trkpt lat="44.17068" lon="7.20144">
        <ele>2250.8430011348</ele>
        <time>2016-09-25T14:43:22Z</time>
      </trkpt>
      <trkpt lat="44.17068" lon="7.20144">
        <ele>2250.8430011348</ele>
        <time>2016-09-25T14:43:32Z</time>
      </trkpt>
      <trkpt lat="44.17068" lon="7.20144">
        <ele>2250.8430011348</ele>
        <time>2016-09-25T14:43:37Z</time>
      </trkpt>
      <trkpt lat="44.17068" lon="7.20144">
        <ele>2250.8430011348</ele>
        <time>2016-09-25T14:43:47Z</time>
      </trkpt>
      <trkpt lat="44.17068" lon="7.20144">
        <ele>2250.8430011348</ele>
        <time>2016-09-25T14:43:52Z</time>
      </trkpt>
      <trkpt lat="44.17068" lon="7.20143">
        <ele>2250.8430011348</ele>
        <time>2016-09-25T14:44:02Z</time>
      </trkpt>
      <trkpt lat="44.17068" lon="7.20143">
        <ele>2250.8430011348</ele>
        <time>2016-09-25T14:44:07Z</time>
      </trkpt>
      <trkpt lat="44.17068" lon="7.20143">
        <ele>2250.8430011348</ele>
        <time>2016-09-25T14:44:17Z</time>
      </trkpt>
      <trkpt lat="44.17068" lon="7.20144">
        <ele>2250.8430011348</ele>
        <time>2016-09-25T14:44:22Z</time>
      </trkpt>
      <trkpt lat="44.17068" lon="7.20143">
        <ele>2250.8430011348</ele>
        <time>2016-09-25T14:44:32Z</time>
      </trkpt>
      <trkpt lat="44.17068" lon="7.20143">
        <ele>2250.8430011348</ele>
        <time>2016-09-25T14:44:37Z</time>
      </trkpt>
      <trkpt lat="44.17068" lon="7.20144">
        <ele>2250.8430011348</ele>
        <time>2016-09-25T14:44:47Z</time>
      </trkpt>
      <trkpt lat="44.17068" lon="7.20144">
        <ele>2250.8430011348</ele>
        <time>2016-09-25T14:44:52Z</time>
      </trkpt>
      <trkpt lat="44.17068" lon="7.20144">
        <ele>2250.8430011348</ele>
        <time>2016-09-25T14:45:02Z</time>
      </trkpt>
      <trkpt lat="44.17068" lon="7.20144">
        <ele>2250.8430011348</ele>
        <time>2016-09-25T14:45:07Z</time>
      </trkpt>
      <trkpt lat="44.17068" lon="7.20143">
        <ele>2250.8430011348</ele>
        <time>2016-09-25T14:45:17Z</time>
      </trkpt>
      <trkpt lat="44.17068" lon="7.20143">
        <ele>2250.8430011348</ele>
        <time>2016-09-25T14:45:22Z</time>
      </trkpt>
      <trkpt lat="44.17068" lon="7.20143">
        <ele>2250.8430011348</ele>
        <time>2016-09-25T14:45:32Z</time>
      </trkpt>
      <trkpt lat="44.17068" lon="7.20143">
        <ele>2250.8430011348</ele>
        <time>2016-09-25T14:45:37Z</time>
      </trkpt>
      <trkpt lat="44.17068" lon="7.20143">
        <ele>2250.8430011348</ele>
        <time>2016-09-25T14:45:47Z</time>
      </trkpt>
      <trkpt lat="44.17068" lon="7.20143">
        <ele>2250.8430011348</ele>
        <time>2016-09-25T14:45:52Z</time>
      </trkpt>
      <trkpt lat="44.17068" lon="7.20143">
        <ele>2250.8430011348</ele>
        <time>2016-09-25T14:46:02Z</time>
      </trkpt>
      <trkpt lat="44.17068" lon="7.20143">
        <ele>2250.8430011348</ele>
        <time>2016-09-25T14:46:07Z</time>
      </trkpt>
      <trkpt lat="44.17068" lon="7.20143">
        <ele>2250.8430011348</ele>
        <time>2016-09-25T14:46:17Z</time>
      </trkpt>
      <trkpt lat="44.17068" lon="7.20143">
        <ele>2250.8430011348</ele>
        <time>2016-09-25T14:46:22Z</time>
      </trkpt>
      <trkpt lat="44.17068" lon="7.20143">
        <ele>2250.8430011348</ele>
        <time>2016-09-25T14:46:37Z</time>
      </trkpt>
      <trkpt lat="44.17068" lon="7.20143">
        <ele>2250.8430011348</ele>
        <time>2016-09-25T14:46:42Z</time>
      </trkpt>
      <trkpt lat="44.17068" lon="7.20143">
        <ele>2250.8430011348</ele>
        <time>2016-09-25T14:46:52Z</time>
      </trkpt>
      <trkpt lat="44.17068" lon="7.20143">
        <ele>2250.8430011348</ele>
        <time>2016-09-25T14:46:57Z</time>
      </trkpt>
      <trkpt lat="44.17068" lon="7.20143">
        <ele>2250.8430011348</ele>
        <time>2016-09-25T14:47:07Z</time>
      </trkpt>
      <trkpt lat="44.17068" lon="7.20143">
        <ele>2250.8430011348</ele>
        <time>2016-09-25T14:47:12Z</time>
      </trkpt>
      <trkpt lat="44.17068" lon="7.20143">
        <ele>2250.8430011348</ele>
        <time>2016-09-25T14:47:22Z</time>
      </trkpt>
      <trkpt lat="44.17068" lon="7.20143">
        <ele>2250.8430011348</ele>
        <time>2016-09-25T14:47:27Z</time>
      </trkpt>
      <trkpt lat="44.17068" lon="7.20143">
        <ele>2250.8430011348</ele>
        <time>2016-09-25T14:47:37Z</time>
      </trkpt>
      <trkpt lat="44.17068" lon="7.20143">
        <ele>2250.8430011348</ele>
        <time>2016-09-25T14:47:42Z</time>
      </trkpt>
      <trkpt lat="44.17068" lon="7.20143">
        <ele>2250.8430011348</ele>
        <time>2016-09-25T14:47:52Z</time>
      </trkpt>
      <trkpt lat="44.17068" lon="7.20143">
        <ele>2250.8430011348</ele>
        <time>2016-09-25T14:47:57Z</time>
      </trkpt>
      <trkpt lat="44.17068" lon="7.20143">
        <ele>2250.8430011348</ele>
        <time>2016-09-25T14:48:07Z</time>
      </trkpt>
      <trkpt lat="44.17068" lon="7.20143">
        <ele>2250.8430011348</ele>
        <time>2016-09-25T14:48:12Z</time>
      </trkpt>
      <trkpt lat="44.17068" lon="7.20143">
        <ele>2250.8430011348</ele>
        <time>2016-09-25T14:48:27Z</time>
      </trkpt>
      <trkpt lat="44.17068" lon="7.20143">
        <ele>2250.8430011348</ele>
        <time>2016-09-25T14:48:32Z</time>
      </trkpt>
      <trkpt lat="44.17068" lon="7.20143">
        <ele>2250.8430011348</ele>
        <time>2016-09-25T14:48:42Z</time>
      </trkpt>
      <trkpt lat="44.17068" lon="7.20143">
        <ele>2250.8430011348</ele>
        <time>2016-09-25T14:48:47Z</time>
      </trkpt>
      <trkpt lat="44.17068" lon="7.20143">
        <ele>2250.8430011348</ele>
        <time>2016-09-25T14:48:57Z</time>
      </trkpt>
      <trkpt lat="44.17068" lon="7.20143">
        <ele>2250.8430011348</ele>
        <time>2016-09-25T14:49:02Z</time>
      </trkpt>
      <trkpt lat="44.17068" lon="7.20143">
        <ele>2250.8430011348</ele>
        <time>2016-09-25T14:49:12Z</time>
      </trkpt>
      <trkpt lat="44.17068" lon="7.20143">
        <ele>2250.8430011348</ele>
        <time>2016-09-25T14:49:17Z</time>
      </trkpt>
      <trkpt lat="44.17068" lon="7.20143">
        <ele>2250.8430011348</ele>
        <time>2016-09-25T14:49:27Z</time>
      </trkpt>
      <trkpt lat="44.17068" lon="7.20143">
        <ele>2250.8430011348</ele>
        <time>2016-09-25T14:49:32Z</time>
      </trkpt>
      <trkpt lat="44.17068" lon="7.20143">
        <ele>2250.8430011348</ele>
        <time>2016-09-25T14:49:42Z</time>
      </trkpt>
      <trkpt lat="44.17068" lon="7.20143">
        <ele>2250.8430011348</ele>
        <time>2016-09-25T14:49:47Z</time>
      </trkpt>
      <trkpt lat="44.17068" lon="7.20143">
        <ele>2250.8430011348</ele>
        <time>2016-09-25T14:50:02Z</time>
      </trkpt>
      <trkpt lat="44.17068" lon="7.20143">
        <ele>2250.8430011348</ele>
        <time>2016-09-25T14:50:07Z</time>
      </trkpt>
      <trkpt lat="44.17068" lon="7.20143">
        <ele>2250.8430011348</ele>
        <time>2016-09-25T14:50:17Z</time>
      </trkpt>
      <trkpt lat="44.17068" lon="7.20143">
        <ele>2250.8430011348</ele>
        <time>2016-09-25T14:50:22Z</time>
      </trkpt>
      <trkpt lat="44.17068" lon="7.20143">
        <ele>2250.8430011348</ele>
        <time>2016-09-25T14:50:32Z</time>
      </trkpt>
      <trkpt lat="44.17068" lon="7.20143">
        <ele>2250.8430011348</ele>
        <time>2016-09-25T14:50:37Z</time>
      </trkpt>
      <trkpt lat="44.17068" lon="7.20143">
        <ele>2250.8430011348</ele>
        <time>2016-09-25T14:50:47Z</time>
      </trkpt>
      <trkpt lat="44.17068" lon="7.20143">
        <ele>2250.8430011348</ele>
        <time>2016-09-25T14:50:52Z</time>
      </trkpt>
      <trkpt lat="44.17068" lon="7.20143">
        <ele>2250.8430011348</ele>
        <time>2016-09-25T14:51:02Z</time>
      </trkpt>
      <trkpt lat="44.17068" lon="7.20143">
        <ele>2250.8430011348</ele>
        <time>2016-09-25T14:51:07Z</time>
      </trkpt>
      <trkpt lat="44.17068" lon="7.20143">
        <ele>2250.8430011348</ele>
        <time>2016-09-25T14:51:17Z</time>
      </trkpt>
      <trkpt lat="44.17068" lon="7.20143">
        <ele>2250.8430011348</ele>
        <time>2016-09-25T14:51:22Z</time>
      </trkpt>
      <trkpt lat="44.17068" lon="7.20143">
        <ele>2250.8430011348</ele>
        <time>2016-09-25T14:51:37Z</time>
      </trkpt>
      <trkpt lat="44.17068" lon="7.20143">
        <ele>2250.8430011348</ele>
        <time>2016-09-25T14:51:42Z</time>
      </trkpt>
      <trkpt lat="44.17068" lon="7.20143">
        <ele>2250.8430011348</ele>
        <time>2016-09-25T14:51:52Z</time>
      </trkpt>
      <trkpt lat="44.17068" lon="7.20143">
        <ele>2250.8430011348</ele>
        <time>2016-09-25T14:51:57Z</time>
      </trkpt>
      <trkpt lat="44.17068" lon="7.20143">
        <ele>2250.8430011348</ele>
        <time>2016-09-25T14:52:07Z</time>
      </trkpt>
      <trkpt lat="44.17068" lon="7.20143">
        <ele>2250.8430011348</ele>
        <time>2016-09-25T14:52:12Z</time>
      </trkpt>
      <trkpt lat="44.17068" lon="7.20143">
        <ele>2250.8430011348</ele>
        <time>2016-09-25T14:52:22Z</time>
      </trkpt>
      <trkpt lat="44.17068" lon="7.20143">
        <ele>2250.8430011348</ele>
        <time>2016-09-25T14:52:27Z</time>
      </trkpt>
      <trkpt lat="44.17068" lon="7.20143">
        <ele>2250.8430011348</ele>
        <time>2016-09-25T14:52:37Z</time>
      </trkpt>
      <trkpt lat="44.17068" lon="7.20143">
        <ele>2250.8430011348</ele>
        <time>2016-09-25T14:52:42Z</time>
      </trkpt>
      <trkpt lat="44.17068" lon="7.20143">
        <ele>2250.8430011348</ele>
        <time>2016-09-25T14:52:52Z</time>
      </trkpt>
      <trkpt lat="44.17068" lon="7.20143">
        <ele>2250.8430011348</ele>
        <time>2016-09-25T14:52:57Z</time>
      </trkpt>
      <trkpt lat="44.17068" lon="7.20143">
        <ele>2250.8430011348</ele>
        <time>2016-09-25T14:53:07Z</time>
      </trkpt>
      <trkpt lat="44.17068" lon="7.20143">
        <ele>2250.8430011348</ele>
        <time>2016-09-25T14:53:12Z</time>
      </trkpt>
      <trkpt lat="44.17068" lon="7.20143">
        <ele>2250.8430011348</ele>
        <time>2016-09-25T14:53:27Z</time>
      </trkpt>
      <trkpt lat="44.17068" lon="7.20143">
        <ele>2250.8430011348</ele>
        <time>2016-09-25T14:53:32Z</time>
      </trkpt>
      <trkpt lat="44.17068" lon="7.20143">
        <ele>2250.8430011348</ele>
        <time>2016-09-25T14:53:42Z</time>
      </trkpt>
      <trkpt lat="44.17068" lon="7.20143">
        <ele>2250.8430011348</ele>
        <time>2016-09-25T14:53:47Z</time>
      </trkpt>
      <trkpt lat="44.17068" lon="7.20143">
        <ele>2250.8430011348</ele>
        <time>2016-09-25T14:53:57Z</time>
      </trkpt>
      <trkpt lat="44.17068" lon="7.20143">
        <ele>2250.8430011348</ele>
        <time>2016-09-25T14:54:02Z</time>
      </trkpt>
      <trkpt lat="44.17068" lon="7.20143">
        <ele>2250.8430011348</ele>
        <time>2016-09-25T14:54:12Z</time>
      </trkpt>
      <trkpt lat="44.17068" lon="7.20143">
        <ele>2250.8430011348</ele>
        <time>2016-09-25T14:54:17Z</time>
      </trkpt>
      <trkpt lat="44.17068" lon="7.20143">
        <ele>2250.8430011348</ele>
        <time>2016-09-25T14:54:27Z</time>
      </trkpt>
      <trkpt lat="44.17068" lon="7.20143">
        <ele>2250.8430011348</ele>
        <time>2016-09-25T14:54:32Z</time>
      </trkpt>
      <trkpt lat="44.17068" lon="7.20143">
        <ele>2250.8430011348</ele>
        <time>2016-09-25T14:54:42Z</time>
      </trkpt>
      <trkpt lat="44.17068" lon="7.20143">
        <ele>2250.8430011348</ele>
        <time>2016-09-25T14:54:47Z</time>
      </trkpt>
      <trkpt lat="44.17068" lon="7.20143">
        <ele>2250.8430011348</ele>
        <time>2016-09-25T14:54:57Z</time>
      </trkpt>
      <trkpt lat="44.17068" lon="7.20143">
        <ele>2250.8430011348</ele>
        <time>2016-09-25T14:55:02Z</time>
      </trkpt>
      <trkpt lat="44.17068" lon="7.20143">
        <ele>2250.8430011348</ele>
        <time>2016-09-25T14:55:12Z</time>
      </trkpt>
      <trkpt lat="44.17068" lon="7.20143">
        <ele>2250.8430011348</ele>
        <time>2016-09-25T14:55:17Z</time>
      </trkpt>
      <trkpt lat="44.17068" lon="7.20143">
        <ele>2250.8430011348</ele>
        <time>2016-09-25T14:55:27Z</time>
      </trkpt>
      <trkpt lat="44.17068" lon="7.20143">
        <ele>2250.8430011348</ele>
        <time>2016-09-25T14:55:32Z</time>
      </trkpt>
      <trkpt lat="44.17068" lon="7.20143">
        <ele>2250.8430011348</ele>
        <time>2016-09-25T14:55:47Z</time>
      </trkpt>
      <trkpt lat="44.17068" lon="7.20143">
        <ele>2250.8430011348</ele>
        <time>2016-09-25T14:55:52Z</time>
      </trkpt>
      <trkpt lat="44.17068" lon="7.20143">
        <ele>2250.8430011348</ele>
        <time>2016-09-25T14:56:02Z</time>
      </trkpt>
      <trkpt lat="44.17068" lon="7.20143">
        <ele>2250.8430011348</ele>
        <time>2016-09-25T14:56:07Z</time>
      </trkpt>
      <trkpt lat="44.17068" lon="7.20143">
        <ele>2250.8430011348</ele>
        <time>2016-09-25T14:56:17Z</time>
      </trkpt>
      <trkpt lat="44.17068" lon="7.20143">
        <ele>2250.8430011348</ele>
        <time>2016-09-25T14:56:22Z</time>
      </trkpt>
      <trkpt lat="44.17068" lon="7.20143">
        <ele>2250.8430011348</ele>
        <time>2016-09-25T14:56:32Z</time>
      </trkpt>
      <trkpt lat="44.17068" lon="7.20143">
        <ele>2250.8430011348</ele>
        <time>2016-09-25T14:56:37Z</time>
      </trkpt>
      <trkpt lat="44.17068" lon="7.20143">
        <ele>2250.8430011348</ele>
        <time>2016-09-25T14:56:47Z</time>
      </trkpt>
      <trkpt lat="44.17068" lon="7.20143">
        <ele>2250.8430011348</ele>
        <time>2016-09-25T14:56:52Z</time>
      </trkpt>
      <trkpt lat="44.17068" lon="7.20143">
        <ele>2250.8430011348</ele>
        <time>2016-09-25T14:57:02Z</time>
      </trkpt>
      <trkpt lat="44.17068" lon="7.20143">
        <ele>2250.8430011348</ele>
        <time>2016-09-25T14:57:07Z</time>
      </trkpt>
      <trkpt lat="44.17068" lon="7.20143">
        <ele>2250.8430011348</ele>
        <time>2016-09-25T14:57:17Z</time>
      </trkpt>
      <trkpt lat="44.17068" lon="7.20143">
        <ele>2250.8430011348</ele>
        <time>2016-09-25T14:57:22Z</time>
      </trkpt>
      <trkpt lat="44.17068" lon="7.20143">
        <ele>2250.8430011348</ele>
        <time>2016-09-25T14:57:37Z</time>
      </trkpt>
      <trkpt lat="44.17068" lon="7.20143">
        <ele>2250.8430011348</ele>
        <time>2016-09-25T14:57:42Z</time>
      </trkpt>
      <trkpt lat="44.17068" lon="7.20143">
        <ele>2250.8430011348</ele>
        <time>2016-09-25T14:57:52Z</time>
      </trkpt>
      <trkpt lat="44.17068" lon="7.20143">
        <ele>2250.8430011348</ele>
        <time>2016-09-25T14:57:57Z</time>
      </trkpt>
      <trkpt lat="44.17068" lon="7.20143">
        <ele>2250.8430011348</ele>
        <time>2016-09-25T14:58:07Z</time>
      </trkpt>
      <trkpt lat="44.17068" lon="7.20143">
        <ele>2250.8430011348</ele>
        <time>2016-09-25T14:58:12Z</time>
      </trkpt>
      <trkpt lat="44.17068" lon="7.20143">
        <ele>2250.8430011348</ele>
        <time>2016-09-25T14:58:22Z</time>
      </trkpt>
      <trkpt lat="44.17068" lon="7.20143">
        <ele>2250.8430011348</ele>
        <time>2016-09-25T14:58:27Z</time>
      </trkpt>
      <trkpt lat="44.17068" lon="7.20143">
        <ele>2250.8430011348</ele>
        <time>2016-09-25T14:58:37Z</time>
      </trkpt>
      <trkpt lat="44.17068" lon="7.20143">
        <ele>2250.8430011348</ele>
        <time>2016-09-25T14:58:42Z</time>
      </trkpt>
      <trkpt lat="44.17068" lon="7.20143">
        <ele>2250.8430011348</ele>
        <time>2016-09-25T14:58:52Z</time>
      </trkpt>
      <trkpt lat="44.17068" lon="7.20143">
        <ele>2250.8430011348</ele>
        <time>2016-09-25T14:58:57Z</time>
      </trkpt>
      <trkpt lat="44.17068" lon="7.20143">
        <ele>2250.8430011348</ele>
        <time>2016-09-25T14:59:07Z</time>
      </trkpt>
      <trkpt lat="44.17068" lon="7.20143">
        <ele>2250.8430011348</ele>
        <time>2016-09-25T14:59:12Z</time>
      </trkpt>
      <trkpt lat="44.17068" lon="7.20143">
        <ele>2250.8430011348</ele>
        <time>2016-09-25T14:59:22Z</time>
      </trkpt>
      <trkpt lat="44.17068" lon="7.20143">
        <ele>2250.8430011348</ele>
        <time>2016-09-25T14:59:27Z</time>
      </trkpt>
      <trkpt lat="44.17067" lon="7.20142">
        <ele>2250.8430011348</ele>
        <time>2016-09-25T14:59:32Z</time>
      </trkpt>
      <trkpt lat="44.17067" lon="7.20142">
        <ele>2250.8430011348</ele>
        <time>2016-09-25T14:59:37Z</time>
      </trkpt>
      <trkpt lat="44.17068" lon="7.20142">
        <ele>2250.8430011348</ele>
        <time>2016-09-25T14:59:42Z</time>
      </trkpt>
      <trkpt lat="44.17068" lon="7.20142">
        <ele>2250.9686814319</ele>
        <time>2016-09-25T14:59:47Z</time>
      </trkpt>
      <trkpt lat="44.17068" lon="7.20142">
        <ele>2250.9686814319</ele>
        <time>2016-09-25T14:59:52Z</time>
      </trkpt>
      <trkpt lat="44.17067" lon="7.20143">
        <ele>2250.9686814319</ele>
        <time>2016-09-25T14:59:57Z</time>
      </trkpt>
      <trkpt lat="44.17067" lon="7.20143">
        <ele>2250.9686814319</ele>
        <time>2016-09-25T15:00:02Z</time>
      </trkpt>
      <trkpt lat="44.17067" lon="7.20143">
        <ele>2250.9686814319</ele>
        <time>2016-09-25T15:00:07Z</time>
      </trkpt>
      <trkpt lat="44.17067" lon="7.20143">
        <ele>2250.9686814319</ele>
        <time>2016-09-25T15:00:12Z</time>
      </trkpt>
      <trkpt lat="44.17067" lon="7.20143">
        <ele>2250.9686814319</ele>
        <time>2016-09-25T15:00:17Z</time>
      </trkpt>
      <trkpt lat="44.17067" lon="7.20143">
        <ele>2250.9686814319</ele>
        <time>2016-09-25T15:00:22Z</time>
      </trkpt>
      <trkpt lat="44.17067" lon="7.20143">
        <ele>2250.9686814319</ele>
        <time>2016-09-25T15:00:27Z</time>
      </trkpt>
      <trkpt lat="44.17067" lon="7.20142">
        <ele>2250.9686814319</ele>
        <time>2016-09-25T15:00:32Z</time>
      </trkpt>
      <trkpt lat="44.17065" lon="7.20143">
        <ele>2250.9686814319</ele>
        <time>2016-09-25T15:00:43Z</time>
      </trkpt>
      <trkpt lat="44.17066" lon="7.20143">
        <ele>2250.9686814319</ele>
        <time>2016-09-25T15:00:48Z</time>
      </trkpt>
      <trkpt lat="44.17066" lon="7.20144">
        <ele>2250.9686814319</ele>
        <time>2016-09-25T15:00:57Z</time>
      </trkpt>
      <trkpt lat="44.17066" lon="7.20144">
        <ele>2250.9686814319</ele>
        <time>2016-09-25T15:01:03Z</time>
      </trkpt>
      <trkpt lat="44.17066" lon="7.20144">
        <ele>2250.9686814319</ele>
        <time>2016-09-25T15:01:12Z</time>
      </trkpt>
      <trkpt lat="44.17067" lon="7.20143">
        <ele>2250.9686814319</ele>
        <time>2016-09-25T15:01:17Z</time>
      </trkpt>
      <trkpt lat="44.17066" lon="7.20145">
        <ele>2250.9686814319</ele>
        <time>2016-09-25T15:01:28Z</time>
      </trkpt>
      <trkpt lat="44.17066" lon="7.20145">
        <ele>2250.9686814319</ele>
        <time>2016-09-25T15:01:33Z</time>
      </trkpt>
      <trkpt lat="44.17066" lon="7.20144">
        <ele>2250.9686814319</ele>
        <time>2016-09-25T15:01:43Z</time>
      </trkpt>
      <trkpt lat="44.17067" lon="7.20142">
        <ele>2252.0535891087</ele>
        <time>2016-09-25T15:01:48Z</time>
      </trkpt>
      <trkpt lat="44.17067" lon="7.20142">
        <ele>2252.0535891087</ele>
        <time>2016-09-25T15:01:52Z</time>
      </trkpt>
      <trkpt lat="44.17066" lon="7.20145">
        <ele>2252.0535891087</ele>
        <time>2016-09-25T15:02:03Z</time>
      </trkpt>
      <trkpt lat="44.17067" lon="7.20141">
        <ele>2252.0535891087</ele>
        <time>2016-09-25T15:02:08Z</time>
      </trkpt>
      <trkpt lat="44.17067" lon="7.20141">
        <ele>2252.0535891087</ele>
        <time>2016-09-25T15:02:17Z</time>
      </trkpt>
      <trkpt lat="44.17067" lon="7.20141">
        <ele>2252.0535891087</ele>
        <time>2016-09-25T15:02:23Z</time>
      </trkpt>
      <trkpt lat="44.17067" lon="7.20141">
        <ele>2252.0535891087</ele>
        <time>2016-09-25T15:02:32Z</time>
      </trkpt>
      <trkpt lat="44.17067" lon="7.20141">
        <ele>2252.0535891087</ele>
        <time>2016-09-25T15:02:37Z</time>
      </trkpt>
      <trkpt lat="44.17067" lon="7.20141">
        <ele>2252.0535891087</ele>
        <time>2016-09-25T15:02:47Z</time>
      </trkpt>
      <trkpt lat="44.17067" lon="7.20141">
        <ele>2252.0535891087</ele>
        <time>2016-09-25T15:02:52Z</time>
      </trkpt>
      <trkpt lat="44.17067" lon="7.20141">
        <ele>2252.0535891087</ele>
        <time>2016-09-25T15:03:03Z</time>
      </trkpt>
      <trkpt lat="44.17067" lon="7.20141">
        <ele>2252.0535891087</ele>
        <time>2016-09-25T15:03:07Z</time>
      </trkpt>
      <trkpt lat="44.17067" lon="7.2014">
        <ele>2252.0535891087</ele>
        <time>2016-09-25T15:03:18Z</time>
      </trkpt>
      <trkpt lat="44.17067" lon="7.20141">
        <ele>2252.0535891087</ele>
        <time>2016-09-25T15:03:23Z</time>
      </trkpt>
      <trkpt lat="44.17066" lon="7.20134">
        <ele>2251.3597742695</ele>
        <time>2016-09-25T15:03:38Z</time>
      </trkpt>
      <trkpt lat="44.17068" lon="7.20127">
        <ele>2251.3597742695</ele>
        <time>2016-09-25T15:03:52Z</time>
      </trkpt>
      <trkpt lat="44.17076" lon="7.20113">
        <ele>2250.2320779733</ele>
        <time>2016-09-25T15:04:07Z</time>
      </trkpt>
      <trkpt lat="44.17077" lon="7.20108">
        <ele>2250.2320779733</ele>
        <time>2016-09-25T15:04:12Z</time>
      </trkpt>
      <trkpt lat="44.17075" lon="7.20099">
        <ele>2249.067579811</ele>
        <time>2016-09-25T15:04:23Z</time>
      </trkpt>
      <trkpt lat="44.17074" lon="7.20098">
        <ele>2249.067579811</ele>
        <time>2016-09-25T15:04:27Z</time>
      </trkpt>
      <trkpt lat="44.17068" lon="7.20095">
        <ele>2249.067579811</ele>
        <time>2016-09-25T15:04:37Z</time>
      </trkpt>
      <trkpt lat="44.17065" lon="7.20091">
        <ele>2248.3496351916</ele>
        <time>2016-09-25T15:04:42Z</time>
      </trkpt>
      <trkpt lat="44.17061" lon="7.20081">
        <ele>2248.3496351916</ele>
        <time>2016-09-25T15:04:52Z</time>
      </trkpt>
      <trkpt lat="44.1706" lon="7.20075">
        <ele>2247.8475532442</ele>
        <time>2016-09-25T15:04:57Z</time>
      </trkpt>
      <trkpt lat="44.17051" lon="7.20069">
        <ele>2247.3614157931</ele>
        <time>2016-09-25T15:05:09Z</time>
      </trkpt>
      <trkpt lat="44.17048" lon="7.20068">
        <ele>2247.3614157931</ele>
        <time>2016-09-25T15:05:12Z</time>
      </trkpt>
      <trkpt lat="44.17045" lon="7.20067">
        <ele>2247.3614157931</ele>
        <time>2016-09-25T15:05:22Z</time>
      </trkpt>
      <trkpt lat="44.1704" lon="7.20067">
        <ele>2246.4465528844</ele>
        <time>2016-09-25T15:05:29Z</time>
      </trkpt>
      <trkpt lat="44.17033" lon="7.2007">
        <ele>2246.4465528844</ele>
        <time>2016-09-25T15:05:37Z</time>
      </trkpt>
      <trkpt lat="44.1703" lon="7.2007">
        <ele>2246.0179811773</ele>
        <time>2016-09-25T15:05:42Z</time>
      </trkpt>
      <trkpt lat="44.17022" lon="7.20066">
        <ele>2246.0179811773</ele>
        <time>2016-09-25T15:05:53Z</time>
      </trkpt>
      <trkpt lat="44.1702" lon="7.20066">
        <ele>2246.230389826</ele>
        <time>2016-09-25T15:05:57Z</time>
      </trkpt>
      <trkpt lat="44.17016" lon="7.20064">
        <ele>2246.230389826</ele>
        <time>2016-09-25T15:06:08Z</time>
      </trkpt>
      <trkpt lat="44.17013" lon="7.20061">
        <ele>2246.230389826</ele>
        <time>2016-09-25T15:06:12Z</time>
      </trkpt>
      <trkpt lat="44.17011" lon="7.2006">
        <ele>2246.4614968372</ele>
        <time>2016-09-25T15:06:17Z</time>
      </trkpt>
      <trkpt lat="44.1701" lon="7.2006">
        <ele>2246.4614968372</ele>
        <time>2016-09-25T15:06:22Z</time>
      </trkpt>
      <trkpt lat="44.1701" lon="7.2006">
        <ele>2246.4614968372</ele>
        <time>2016-09-25T15:06:27Z</time>
      </trkpt>
      <trkpt lat="44.17009" lon="7.20062">
        <ele>2246.4614968372</ele>
        <time>2016-09-25T15:06:32Z</time>
      </trkpt>
      <trkpt lat="44.17004" lon="7.20066">
        <ele>2246.4614968372</ele>
        <time>2016-09-25T15:06:47Z</time>
      </trkpt>
      <trkpt lat="44.16997" lon="7.20073">
        <ele>2246.6966883668</ele>
        <time>2016-09-25T15:07:02Z</time>
      </trkpt>
      <trkpt lat="44.16995" lon="7.20075">
        <ele>2246.6966883668</ele>
        <time>2016-09-25T15:07:07Z</time>
      </trkpt>
      <trkpt lat="44.16989" lon="7.20079">
        <ele>2246.6966883668</ele>
        <time>2016-09-25T15:07:18Z</time>
      </trkpt>
      <trkpt lat="44.16986" lon="7.20079">
        <ele>2246.5476949949</ele>
        <time>2016-09-25T15:07:22Z</time>
      </trkpt>
      <trkpt lat="44.16983" lon="7.2008">
        <ele>2246.5476949949</ele>
        <time>2016-09-25T15:07:33Z</time>
      </trkpt>
      <trkpt lat="44.16982" lon="7.2008">
        <ele>2246.5476949949</ele>
        <time>2016-09-25T15:07:38Z</time>
      </trkpt>
      <trkpt lat="44.16981" lon="7.20082">
        <ele>2246.5476949949</ele>
        <time>2016-09-25T15:07:47Z</time>
      </trkpt>
      <trkpt lat="44.16979" lon="7.20083">
        <ele>2246.5476949949</ele>
        <time>2016-09-25T15:07:53Z</time>
      </trkpt>
      <trkpt lat="44.16979" lon="7.2008">
        <ele>2245.8863930007</ele>
        <time>2016-09-25T15:08:02Z</time>
      </trkpt>
      <trkpt lat="44.16978" lon="7.20079">
        <ele>2245.8863930007</ele>
        <time>2016-09-25T15:08:07Z</time>
      </trkpt>
      <trkpt lat="44.16972" lon="7.20078">
        <ele>2245.8863930007</ele>
        <time>2016-09-25T15:08:18Z</time>
      </trkpt>
      <trkpt lat="44.1697" lon="7.20079">
        <ele>2245.1719158986</ele>
        <time>2016-09-25T15:08:22Z</time>
      </trkpt>
      <trkpt lat="44.16968" lon="7.20079">
        <ele>2245.1719158986</ele>
        <time>2016-09-25T15:08:33Z</time>
      </trkpt>
      <trkpt lat="44.16966" lon="7.2008">
        <ele>2245.1719158986</ele>
        <time>2016-09-25T15:08:37Z</time>
      </trkpt>
      <trkpt lat="44.1696" lon="7.20083">
        <ele>2243.8930526662</ele>
        <time>2016-09-25T15:08:53Z</time>
      </trkpt>
      <trkpt lat="44.16954" lon="7.20084">
        <ele>2243.8930526662</ele>
        <time>2016-09-25T15:09:02Z</time>
      </trkpt>
      <trkpt lat="44.16953" lon="7.20085">
        <ele>2243.8930526662</ele>
        <time>2016-09-25T15:09:07Z</time>
      </trkpt>
      <trkpt lat="44.16951" lon="7.20089">
        <ele>2242.8458553345</ele>
        <time>2016-09-25T15:09:18Z</time>
      </trkpt>
      <trkpt lat="44.16949" lon="7.2009">
        <ele>2242.8458553345</ele>
        <time>2016-09-25T15:09:22Z</time>
      </trkpt>
      <trkpt lat="44.16945" lon="7.20092">
        <ele>2242.8458553345</ele>
        <time>2016-09-25T15:09:27Z</time>
      </trkpt>
      <trkpt lat="44.16942" lon="7.20095">
        <ele>2241.1387303008</ele>
        <time>2016-09-25T15:09:33Z</time>
      </trkpt>
      <trkpt lat="44.16941" lon="7.20099">
        <ele>2241.1387303008</ele>
        <time>2016-09-25T15:09:38Z</time>
      </trkpt>
      <trkpt lat="44.1694" lon="7.20102">
        <ele>2241.1387303008</ele>
        <time>2016-09-25T15:09:42Z</time>
      </trkpt>
      <trkpt lat="44.16937" lon="7.20099">
        <ele>2241.1387303008</ele>
        <time>2016-09-25T15:09:53Z</time>
      </trkpt>
      <trkpt lat="44.16936" lon="7.20101">
        <ele>2238.2932230329</ele>
        <time>2016-09-25T15:09:58Z</time>
      </trkpt>
      <trkpt lat="44.16934" lon="7.20101">
        <ele>2238.2932230329</ele>
        <time>2016-09-25T15:10:07Z</time>
      </trkpt>
      <trkpt lat="44.16933" lon="7.201">
        <ele>2238.2932230329</ele>
        <time>2016-09-25T15:10:12Z</time>
      </trkpt>
      <trkpt lat="44.1693" lon="7.20099">
        <ele>2238.2932230329</ele>
        <time>2016-09-25T15:10:18Z</time>
      </trkpt>
      <trkpt lat="44.16926" lon="7.20095">
        <ele>2236.0307981396</ele>
        <time>2016-09-25T15:10:27Z</time>
      </trkpt>
      <trkpt lat="44.16924" lon="7.20091">
        <ele>2236.0307981396</ele>
        <time>2016-09-25T15:10:32Z</time>
      </trkpt>
      <trkpt lat="44.16918" lon="7.20087">
        <ele>2234.1577449887</ele>
        <time>2016-09-25T15:10:42Z</time>
      </trkpt>
      <trkpt lat="44.16916" lon="7.20085">
        <ele>2234.1577449887</ele>
        <time>2016-09-25T15:10:47Z</time>
      </trkpt>
      <trkpt lat="44.1691" lon="7.20078">
        <ele>2231.8016383289</ele>
        <time>2016-09-25T15:10:58Z</time>
      </trkpt>
      <trkpt lat="44.16909" lon="7.20074">
        <ele>2231.8016383289</ele>
        <time>2016-09-25T15:11:02Z</time>
      </trkpt>
      <trkpt lat="44.16904" lon="7.20073">
        <ele>2231.8016383289</ele>
        <time>2016-09-25T15:11:18Z</time>
      </trkpt>
      <trkpt lat="44.16899" lon="7.20068">
        <ele>2229.0920852316</ele>
        <time>2016-09-25T15:11:32Z</time>
      </trkpt>
      <trkpt lat="44.16899" lon="7.20067">
        <ele>2229.0920852316</ele>
        <time>2016-09-25T15:11:37Z</time>
      </trkpt>
      <trkpt lat="44.16899" lon="7.20067">
        <ele>2229.0920852316</ele>
        <time>2016-09-25T15:11:43Z</time>
      </trkpt>
      <trkpt lat="44.16898" lon="7.20066">
        <ele>2229.0920852316</ele>
        <time>2016-09-25T15:11:48Z</time>
      </trkpt>
      <trkpt lat="44.16894" lon="7.20062">
        <ele>2229.0920852316</ele>
        <time>2016-09-25T15:11:57Z</time>
      </trkpt>
      <trkpt lat="44.16893" lon="7.2006">
        <ele>2229.0920852316</ele>
        <time>2016-09-25T15:12:03Z</time>
      </trkpt>
      <trkpt lat="44.1689" lon="7.20056">
        <ele>2226.1356056638</ele>
        <time>2016-09-25T15:12:12Z</time>
      </trkpt>
      <trkpt lat="44.16889" lon="7.20054">
        <ele>2226.1356056638</ele>
        <time>2016-09-25T15:12:17Z</time>
      </trkpt>
      <trkpt lat="44.16886" lon="7.20051">
        <ele>2226.1356056638</ele>
        <time>2016-09-25T15:12:27Z</time>
      </trkpt>
      <trkpt lat="44.16884" lon="7.20048">
        <ele>2226.1356056638</ele>
        <time>2016-09-25T15:12:33Z</time>
      </trkpt>
      <trkpt lat="44.16883" lon="7.20047">
        <ele>2223.7375729757</ele>
        <time>2016-09-25T15:12:42Z</time>
      </trkpt>
      <trkpt lat="44.16882" lon="7.20047">
        <ele>2223.7375729757</ele>
        <time>2016-09-25T15:12:47Z</time>
      </trkpt>
      <trkpt lat="44.16876" lon="7.20043">
        <ele>2223.7375729757</ele>
        <time>2016-09-25T15:13:03Z</time>
      </trkpt>
      <trkpt lat="44.16874" lon="7.2004">
        <ele>2221.0572370185</ele>
        <time>2016-09-25T15:13:08Z</time>
      </trkpt>
      <trkpt lat="44.16873" lon="7.2004">
        <ele>2221.0572370185</ele>
        <time>2016-09-25T15:13:18Z</time>
      </trkpt>
      <trkpt lat="44.16873" lon="7.2004">
        <ele>2221.0572370185</ele>
        <time>2016-09-25T15:13:23Z</time>
      </trkpt>
      <trkpt lat="44.16873" lon="7.2004">
        <ele>2221.0572370185</ele>
        <time>2016-09-25T15:13:32Z</time>
      </trkpt>
      <trkpt lat="44.16873" lon="7.2004">
        <ele>2221.0572370185</ele>
        <time>2016-09-25T15:13:39Z</time>
      </trkpt>
      <trkpt lat="44.16873" lon="7.20041">
        <ele>2221.0572370185</ele>
        <time>2016-09-25T15:13:48Z</time>
      </trkpt>
      <trkpt lat="44.16874" lon="7.20041">
        <ele>2221.0572370185</ele>
        <time>2016-09-25T15:13:52Z</time>
      </trkpt>
      <trkpt lat="44.16874" lon="7.20041">
        <ele>2221.0572370185</ele>
        <time>2016-09-25T15:14:03Z</time>
      </trkpt>
      <trkpt lat="44.16874" lon="7.20041">
        <ele>2221.0572370185</ele>
        <time>2016-09-25T15:14:07Z</time>
      </trkpt>
      <trkpt lat="44.16874" lon="7.20041">
        <ele>2221.0572370185</ele>
        <time>2016-09-25T15:14:18Z</time>
      </trkpt>
      <trkpt lat="44.16874" lon="7.20041">
        <ele>2221.0572370185</ele>
        <time>2016-09-25T15:14:23Z</time>
      </trkpt>
      <trkpt lat="44.16874" lon="7.20041">
        <ele>2221.0572370185</ele>
        <time>2016-09-25T15:14:32Z</time>
      </trkpt>
      <trkpt lat="44.16874" lon="7.20041">
        <ele>2221.0572370185</ele>
        <time>2016-09-25T15:14:38Z</time>
      </trkpt>
      <trkpt lat="44.16873" lon="7.20041">
        <ele>2221.0572370185</ele>
        <time>2016-09-25T15:14:47Z</time>
      </trkpt>
      <trkpt lat="44.16873" lon="7.20041">
        <ele>2221.0572370185</ele>
        <time>2016-09-25T15:14:52Z</time>
      </trkpt>
      <trkpt lat="44.16873" lon="7.20041">
        <ele>2221.0572370185</ele>
        <time>2016-09-25T15:15:03Z</time>
      </trkpt>
      <trkpt lat="44.16873" lon="7.20041">
        <ele>2221.0572370185</ele>
        <time>2016-09-25T15:15:07Z</time>
      </trkpt>
      <trkpt lat="44.16874" lon="7.2004">
        <ele>2221.0572370185</ele>
        <time>2016-09-25T15:15:18Z</time>
      </trkpt>
      <trkpt lat="44.16871" lon="7.20035">
        <ele>2221.0572370185</ele>
        <time>2016-09-25T15:15:22Z</time>
      </trkpt>
      <trkpt lat="44.16869" lon="7.20033">
        <ele>2218.9879080037</ele>
        <time>2016-09-25T15:15:27Z</time>
      </trkpt>
      <trkpt lat="44.16864" lon="7.20028">
        <ele>2218.9879080037</ele>
        <time>2016-09-25T15:15:38Z</time>
      </trkpt>
      <trkpt lat="44.16863" lon="7.20026">
        <ele>2218.9879080037</ele>
        <time>2016-09-25T15:15:42Z</time>
      </trkpt>
      <trkpt lat="44.16862" lon="7.20021">
        <ele>2216.1216454859</ele>
        <time>2016-09-25T15:15:53Z</time>
      </trkpt>
      <trkpt lat="44.16861" lon="7.20018">
        <ele>2216.1216454859</ele>
        <time>2016-09-25T15:15:58Z</time>
      </trkpt>
      <trkpt lat="44.1686" lon="7.20011">
        <ele>2216.1216454859</ele>
        <time>2016-09-25T15:16:07Z</time>
      </trkpt>
      <trkpt lat="44.16861" lon="7.20007">
        <ele>2212.5394379314</ele>
        <time>2016-09-25T15:16:13Z</time>
      </trkpt>
      <trkpt lat="44.1686" lon="7.20002">
        <ele>2212.5394379314</ele>
        <time>2016-09-25T15:16:22Z</time>
      </trkpt>
      <trkpt lat="44.1686" lon="7.20001">
        <ele>2212.5394379314</ele>
        <time>2016-09-25T15:16:28Z</time>
      </trkpt>
      <trkpt lat="44.16858" lon="7.19994">
        <ele>2209.3989575987</ele>
        <time>2016-09-25T15:16:38Z</time>
      </trkpt>
      <trkpt lat="44.16857" lon="7.1999">
        <ele>2209.3989575987</ele>
        <time>2016-09-25T15:16:42Z</time>
      </trkpt>
      <trkpt lat="44.16852" lon="7.19983">
        <ele>2205.9699875571</ele>
        <time>2016-09-25T15:16:53Z</time>
      </trkpt>
      <trkpt lat="44.16853" lon="7.19978">
        <ele>2205.9699875571</ele>
        <time>2016-09-25T15:16:57Z</time>
      </trkpt>
      <trkpt lat="44.16853" lon="7.19966">
        <ele>2202.1817991623</ele>
        <time>2016-09-25T15:17:08Z</time>
      </trkpt>
      <trkpt lat="44.16851" lon="7.19966">
        <ele>2202.1817991623</ele>
        <time>2016-09-25T15:17:13Z</time>
      </trkpt>
      <trkpt lat="44.16854" lon="7.1996">
        <ele>2202.1817991623</ele>
        <time>2016-09-25T15:17:28Z</time>
      </trkpt>
      <trkpt lat="44.16852" lon="7.19951">
        <ele>2197.9263934219</ele>
        <time>2016-09-25T15:17:42Z</time>
      </trkpt>
      <trkpt lat="44.16851" lon="7.19949">
        <ele>2197.9263934219</ele>
        <time>2016-09-25T15:17:53Z</time>
      </trkpt>
      <trkpt lat="44.16851" lon="7.19949">
        <ele>2197.9263934219</ele>
        <time>2016-09-25T15:17:57Z</time>
      </trkpt>
      <trkpt lat="44.16851" lon="7.19949">
        <ele>2197.9263934219</ele>
        <time>2016-09-25T15:18:02Z</time>
      </trkpt>
      <trkpt lat="44.16851" lon="7.19949">
        <ele>2197.9263934219</ele>
        <time>2016-09-25T15:18:13Z</time>
      </trkpt>
      <trkpt lat="44.16851" lon="7.19949">
        <ele>2197.9263934219</ele>
        <time>2016-09-25T15:18:17Z</time>
      </trkpt>
      <trkpt lat="44.16851" lon="7.19949">
        <ele>2197.9263934219</ele>
        <time>2016-09-25T15:18:28Z</time>
      </trkpt>
      <trkpt lat="44.16851" lon="7.19949">
        <ele>2197.9263934219</ele>
        <time>2016-09-25T15:18:33Z</time>
      </trkpt>
      <trkpt lat="44.16851" lon="7.19949">
        <ele>2197.9263934219</ele>
        <time>2016-09-25T15:18:42Z</time>
      </trkpt>
      <trkpt lat="44.16851" lon="7.19949">
        <ele>2197.9263934219</ele>
        <time>2016-09-25T15:18:47Z</time>
      </trkpt>
      <trkpt lat="44.1685" lon="7.19948">
        <ele>2197.9263934219</ele>
        <time>2016-09-25T15:18:57Z</time>
      </trkpt>
      <trkpt lat="44.16849" lon="7.19948">
        <ele>2197.9263934219</ele>
        <time>2016-09-25T15:19:02Z</time>
      </trkpt>
      <trkpt lat="44.16851" lon="7.19947">
        <ele>2197.9263934219</ele>
        <time>2016-09-25T15:19:07Z</time>
      </trkpt>
      <trkpt lat="44.16851" lon="7.19947">
        <ele>2197.9263934219</ele>
        <time>2016-09-25T15:19:13Z</time>
      </trkpt>
      <trkpt lat="44.16851" lon="7.19946">
        <ele>2197.9263934219</ele>
        <time>2016-09-25T15:19:17Z</time>
      </trkpt>
      <trkpt lat="44.16846" lon="7.19942">
        <ele>2193.609153208</ele>
        <time>2016-09-25T15:19:28Z</time>
      </trkpt>
      <trkpt lat="44.16843" lon="7.19941">
        <ele>2193.609153208</ele>
        <time>2016-09-25T15:19:32Z</time>
      </trkpt>
      <trkpt lat="44.16843" lon="7.19937">
        <ele>2193.609153208</ele>
        <time>2016-09-25T15:19:43Z</time>
      </trkpt>
      <trkpt lat="44.16842" lon="7.19934">
        <ele>2193.609153208</ele>
        <time>2016-09-25T15:19:48Z</time>
      </trkpt>
      <trkpt lat="44.16842" lon="7.19932">
        <ele>2189.4614817582</ele>
        <time>2016-09-25T15:19:57Z</time>
      </trkpt>
      <trkpt lat="44.16842" lon="7.1993">
        <ele>2189.4614817582</ele>
        <time>2016-09-25T15:20:02Z</time>
      </trkpt>
      <trkpt lat="44.16842" lon="7.19923">
        <ele>2189.4614817582</ele>
        <time>2016-09-25T15:20:13Z</time>
      </trkpt>
      <trkpt lat="44.16842" lon="7.19921">
        <ele>2189.4614817582</ele>
        <time>2016-09-25T15:20:17Z</time>
      </trkpt>
      <trkpt lat="44.16841" lon="7.19916">
        <ele>2184.817955189</ele>
        <time>2016-09-25T15:20:28Z</time>
      </trkpt>
      <trkpt lat="44.16841" lon="7.19912">
        <ele>2184.817955189</ele>
        <time>2016-09-25T15:20:33Z</time>
      </trkpt>
      <trkpt lat="44.16841" lon="7.19907">
        <ele>2184.817955189</ele>
        <time>2016-09-25T15:20:42Z</time>
      </trkpt>
      <trkpt lat="44.16841" lon="7.19907">
        <ele>2184.817955189</ele>
        <time>2016-09-25T15:20:48Z</time>
      </trkpt>
      <trkpt lat="44.16835" lon="7.19898">
        <ele>2179.336946308</ele>
        <time>2016-09-25T15:21:02Z</time>
      </trkpt>
      <trkpt lat="44.16834" lon="7.19891">
        <ele>2179.336946308</ele>
        <time>2016-09-25T15:21:17Z</time>
      </trkpt>
      <trkpt lat="44.16832" lon="7.19885">
        <ele>2174.3612524605</ele>
        <time>2016-09-25T15:21:28Z</time>
      </trkpt>
      <trkpt lat="44.16832" lon="7.19886">
        <ele>2174.3612524605</ele>
        <time>2016-09-25T15:21:33Z</time>
      </trkpt>
      <trkpt lat="44.16832" lon="7.19885">
        <ele>2174.3612524605</ele>
        <time>2016-09-25T15:21:37Z</time>
      </trkpt>
      <trkpt lat="44.16833" lon="7.19885">
        <ele>2174.3612524605</ele>
        <time>2016-09-25T15:21:48Z</time>
      </trkpt>
      <trkpt lat="44.16833" lon="7.19885">
        <ele>2174.3612524605</ele>
        <time>2016-09-25T15:21:52Z</time>
      </trkpt>
      <trkpt lat="44.16833" lon="7.19885">
        <ele>2174.3612524605</ele>
        <time>2016-09-25T15:22:02Z</time>
      </trkpt>
      <trkpt lat="44.16832" lon="7.19881">
        <ele>2174.3612524605</ele>
        <time>2016-09-25T15:22:18Z</time>
      </trkpt>
      <trkpt lat="44.16832" lon="7.19881">
        <ele>2174.3612524605</ele>
        <time>2016-09-25T15:22:22Z</time>
      </trkpt>
      <trkpt lat="44.1683" lon="7.19874">
        <ele>2169.3607341435</ele>
        <time>2016-09-25T15:22:33Z</time>
      </trkpt>
      <trkpt lat="44.16829" lon="7.19873">
        <ele>2169.3607341435</ele>
        <time>2016-09-25T15:22:37Z</time>
      </trkpt>
      <trkpt lat="44.16828" lon="7.19872">
        <ele>2169.3607341435</ele>
        <time>2016-09-25T15:22:42Z</time>
      </trkpt>
      <trkpt lat="44.16828" lon="7.19873">
        <ele>2169.3607341435</ele>
        <time>2016-09-25T15:22:47Z</time>
      </trkpt>
      <trkpt lat="44.16827" lon="7.1987">
        <ele>2169.3607341435</ele>
        <time>2016-09-25T15:22:58Z</time>
      </trkpt>
      <trkpt lat="44.16828" lon="7.19867">
        <ele>2169.3607341435</ele>
        <time>2016-09-25T15:23:03Z</time>
      </trkpt>
      <trkpt lat="44.16825" lon="7.19864">
        <ele>2164.8671332183</ele>
        <time>2016-09-25T15:23:13Z</time>
      </trkpt>
      <trkpt lat="44.16826" lon="7.19865">
        <ele>2164.8671332183</ele>
        <time>2016-09-25T15:23:18Z</time>
      </trkpt>
      <trkpt lat="44.16824" lon="7.19862">
        <ele>2164.8671332183</ele>
        <time>2016-09-25T15:23:27Z</time>
      </trkpt>
      <trkpt lat="44.16822" lon="7.19859">
        <ele>2164.8671332183</ele>
        <time>2016-09-25T15:23:33Z</time>
      </trkpt>
      <trkpt lat="44.16821" lon="7.19859">
        <ele>2164.8671332183</ele>
        <time>2016-09-25T15:23:43Z</time>
      </trkpt>
      <trkpt lat="44.1682" lon="7.19857">
        <ele>2164.8671332183</ele>
        <time>2016-09-25T15:23:47Z</time>
      </trkpt>
      <trkpt lat="44.16818" lon="7.19854">
        <ele>2160.2329001074</ele>
        <time>2016-09-25T15:23:58Z</time>
      </trkpt>
      <trkpt lat="44.16817" lon="7.19851">
        <ele>2160.2329001074</ele>
        <time>2016-09-25T15:24:02Z</time>
      </trkpt>
      <trkpt lat="44.16816" lon="7.19842">
        <ele>2154.858112046</ele>
        <time>2016-09-25T15:24:13Z</time>
      </trkpt>
      <trkpt lat="44.16816" lon="7.19839">
        <ele>2154.858112046</ele>
        <time>2016-09-25T15:24:18Z</time>
      </trkpt>
      <trkpt lat="44.16815" lon="7.19837">
        <ele>2154.858112046</ele>
        <time>2016-09-25T15:24:32Z</time>
      </trkpt>
      <trkpt lat="44.16815" lon="7.19837">
        <ele>2154.858112046</ele>
        <time>2016-09-25T15:24:47Z</time>
      </trkpt>
      <trkpt lat="44.16815" lon="7.19837">
        <ele>2154.858112046</ele>
        <time>2016-09-25T15:24:52Z</time>
      </trkpt>
      <trkpt lat="44.16815" lon="7.19831">
        <ele>2154.858112046</ele>
        <time>2016-09-25T15:25:02Z</time>
      </trkpt>
      <trkpt lat="44.16815" lon="7.19831">
        <ele>2154.858112046</ele>
        <time>2016-09-25T15:25:08Z</time>
      </trkpt>
      <trkpt lat="44.16814" lon="7.19828">
        <ele>2149.5288859588</ele>
        <time>2016-09-25T15:25:17Z</time>
      </trkpt>
      <trkpt lat="44.16815" lon="7.19819">
        <ele>2149.5288859588</ele>
        <time>2016-09-25T15:25:23Z</time>
      </trkpt>
      <trkpt lat="44.16812" lon="7.1981">
        <ele>2144.0508050256</ele>
        <time>2016-09-25T15:25:32Z</time>
      </trkpt>
      <trkpt lat="44.16811" lon="7.19809">
        <ele>2144.0508050256</ele>
        <time>2016-09-25T15:25:37Z</time>
      </trkpt>
      <trkpt lat="44.16812" lon="7.19809">
        <ele>2144.0508050256</ele>
        <time>2016-09-25T15:25:47Z</time>
      </trkpt>
      <trkpt lat="44.16812" lon="7.19809">
        <ele>2144.0508050256</ele>
        <time>2016-09-25T15:25:52Z</time>
      </trkpt>
      <trkpt lat="44.1681" lon="7.19805">
        <ele>2144.0508050256</ele>
        <time>2016-09-25T15:26:03Z</time>
      </trkpt>
      <trkpt lat="44.16807" lon="7.19803">
        <ele>2144.0508050256</ele>
        <time>2016-09-25T15:26:08Z</time>
      </trkpt>
      <trkpt lat="44.16804" lon="7.19794">
        <ele>2138.5176105971</ele>
        <time>2016-09-25T15:26:18Z</time>
      </trkpt>
      <trkpt lat="44.16803" lon="7.19792">
        <ele>2138.5176105971</ele>
        <time>2016-09-25T15:26:23Z</time>
      </trkpt>
      <trkpt lat="44.16802" lon="7.19786">
        <ele>2138.5176105971</ele>
        <time>2016-09-25T15:26:32Z</time>
      </trkpt>
      <trkpt lat="44.168" lon="7.19787">
        <ele>2138.5176105971</ele>
        <time>2016-09-25T15:26:38Z</time>
      </trkpt>
      <trkpt lat="44.16799" lon="7.19785">
        <ele>2133.2609441429</ele>
        <time>2016-09-25T15:26:47Z</time>
      </trkpt>
      <trkpt lat="44.16799" lon="7.19784">
        <ele>2133.2609441429</ele>
        <time>2016-09-25T15:26:53Z</time>
      </trkpt>
      <trkpt lat="44.16798" lon="7.19782">
        <ele>2133.2609441429</ele>
        <time>2016-09-25T15:26:58Z</time>
      </trkpt>
      <trkpt lat="44.16798" lon="7.19784">
        <ele>2133.2609441429</ele>
        <time>2016-09-25T15:27:08Z</time>
      </trkpt>
      <trkpt lat="44.16797" lon="7.19784">
        <ele>2133.2609441429</ele>
        <time>2016-09-25T15:27:13Z</time>
      </trkpt>
      <trkpt lat="44.16797" lon="7.19783">
        <ele>2133.2609441429</ele>
        <time>2016-09-25T15:27:22Z</time>
      </trkpt>
      <trkpt lat="44.16797" lon="7.19783">
        <ele>2133.2609441429</ele>
        <time>2016-09-25T15:27:28Z</time>
      </trkpt>
      <trkpt lat="44.16797" lon="7.19783">
        <ele>2133.2609441429</ele>
        <time>2016-09-25T15:27:37Z</time>
      </trkpt>
      <trkpt lat="44.16796" lon="7.19781">
        <ele>2133.2609441429</ele>
        <time>2016-09-25T15:27:42Z</time>
      </trkpt>
      <trkpt lat="44.16791" lon="7.1977">
        <ele>2127.0593684678</ele>
        <time>2016-09-25T15:27:53Z</time>
      </trkpt>
      <trkpt lat="44.16789" lon="7.19766">
        <ele>2127.0593684678</ele>
        <time>2016-09-25T15:27:57Z</time>
      </trkpt>
      <trkpt lat="44.16785" lon="7.19759">
        <ele>2120.8730681476</ele>
        <time>2016-09-25T15:28:09Z</time>
      </trkpt>
      <trkpt lat="44.16784" lon="7.19757">
        <ele>2120.8730681476</ele>
        <time>2016-09-25T15:28:13Z</time>
      </trkpt>
      <trkpt lat="44.16781" lon="7.19748">
        <ele>2120.8730681476</ele>
        <time>2016-09-25T15:28:29Z</time>
      </trkpt>
      <trkpt lat="44.16778" lon="7.19737">
        <ele>2114.3375110366</ele>
        <time>2016-09-25T15:28:42Z</time>
      </trkpt>
      <trkpt lat="44.1678" lon="7.19727">
        <ele>2114.3375110366</ele>
        <time>2016-09-25T15:28:57Z</time>
      </trkpt>
      <trkpt lat="44.1678" lon="7.19722">
        <ele>2107.6487563984</ele>
        <time>2016-09-25T15:29:02Z</time>
      </trkpt>
      <trkpt lat="44.16776" lon="7.19713">
        <ele>2107.6487563984</ele>
        <time>2016-09-25T15:29:13Z</time>
      </trkpt>
      <trkpt lat="44.16775" lon="7.1971">
        <ele>2101.593774419</ele>
        <time>2016-09-25T15:29:17Z</time>
      </trkpt>
      <trkpt lat="44.16772" lon="7.19694">
        <ele>2095.2999253693</ele>
        <time>2016-09-25T15:29:29Z</time>
      </trkpt>
      <trkpt lat="44.16772" lon="7.19691">
        <ele>2095.2999253693</ele>
        <time>2016-09-25T15:29:32Z</time>
      </trkpt>
      <trkpt lat="44.16774" lon="7.1968">
        <ele>2089.4721209618</ele>
        <time>2016-09-25T15:29:43Z</time>
      </trkpt>
      <trkpt lat="44.16772" lon="7.19675">
        <ele>2089.4721209618</ele>
        <time>2016-09-25T15:29:48Z</time>
      </trkpt>
      <trkpt lat="44.1677" lon="7.19669">
        <ele>2089.4721209618</ele>
        <time>2016-09-25T15:29:57Z</time>
      </trkpt>
      <trkpt lat="44.1677" lon="7.19666">
        <ele>2083.7818386096</ele>
        <time>2016-09-25T15:30:02Z</time>
      </trkpt>
      <trkpt lat="44.16765" lon="7.19657">
        <ele>2083.7818386096</ele>
        <time>2016-09-25T15:30:12Z</time>
      </trkpt>
      <trkpt lat="44.16762" lon="7.19652">
        <ele>2078.9326976241</ele>
        <time>2016-09-25T15:30:17Z</time>
      </trkpt>
      <trkpt lat="44.16754" lon="7.1964">
        <ele>2074.5218837144</ele>
        <time>2016-09-25T15:30:32Z</time>
      </trkpt>
      <trkpt lat="44.16746" lon="7.19624">
        <ele>2070.9239602412</ele>
        <time>2016-09-25T15:30:47Z</time>
      </trkpt>
      <trkpt lat="44.16739" lon="7.19618">
        <ele>2070.9239602412</ele>
        <time>2016-09-25T15:30:58Z</time>
      </trkpt>
      <trkpt lat="44.16734" lon="7.19613">
        <ele>2068.0077856222</ele>
        <time>2016-09-25T15:31:02Z</time>
      </trkpt>
      <trkpt lat="44.16732" lon="7.1961">
        <ele>2068.0077856222</ele>
        <time>2016-09-25T15:31:07Z</time>
      </trkpt>
      <trkpt lat="44.16727" lon="7.19608">
        <ele>2068.0077856222</ele>
        <time>2016-09-25T15:31:13Z</time>
      </trkpt>
      <trkpt lat="44.16724" lon="7.19608">
        <ele>2065.2172865738</ele>
        <time>2016-09-25T15:31:18Z</time>
      </trkpt>
      <trkpt lat="44.16721" lon="7.19607">
        <ele>2065.2172865738</ele>
        <time>2016-09-25T15:31:22Z</time>
      </trkpt>
      <trkpt lat="44.16718" lon="7.19605">
        <ele>2065.2172865738</ele>
        <time>2016-09-25T15:31:33Z</time>
      </trkpt>
      <trkpt lat="44.16712" lon="7.19597">
        <ele>2062.36804857</ele>
        <time>2016-09-25T15:31:47Z</time>
      </trkpt>
      <trkpt lat="44.16711" lon="7.19595">
        <ele>2062.36804857</ele>
        <time>2016-09-25T15:32:02Z</time>
      </trkpt>
      <trkpt lat="44.16711" lon="7.19593">
        <ele>2062.36804857</ele>
        <time>2016-09-25T15:32:07Z</time>
      </trkpt>
      <trkpt lat="44.16708" lon="7.19583">
        <ele>2059.1882249056</ele>
        <time>2016-09-25T15:32:18Z</time>
      </trkpt>
      <trkpt lat="44.16705" lon="7.19582">
        <ele>2059.1882249056</ele>
        <time>2016-09-25T15:32:22Z</time>
      </trkpt>
      <trkpt lat="44.16704" lon="7.19578">
        <ele>2059.1882249056</ele>
        <time>2016-09-25T15:32:33Z</time>
      </trkpt>
      <trkpt lat="44.16705" lon="7.19579">
        <ele>2059.1882249056</ele>
        <time>2016-09-25T15:32:38Z</time>
      </trkpt>
      <trkpt lat="44.16706" lon="7.19578">
        <ele>2059.1882249056</ele>
        <time>2016-09-25T15:32:47Z</time>
      </trkpt>
      <trkpt lat="44.16706" lon="7.19578">
        <ele>2059.1882249056</ele>
        <time>2016-09-25T15:32:53Z</time>
      </trkpt>
      <trkpt lat="44.16706" lon="7.19578">
        <ele>2059.1882249056</ele>
        <time>2016-09-25T15:33:02Z</time>
      </trkpt>
      <trkpt lat="44.16706" lon="7.19578">
        <ele>2059.1882249056</ele>
        <time>2016-09-25T15:33:07Z</time>
      </trkpt>
      <trkpt lat="44.16706" lon="7.19579">
        <ele>2059.1882249056</ele>
        <time>2016-09-25T15:33:12Z</time>
      </trkpt>
      <trkpt lat="44.16706" lon="7.19578">
        <ele>2059.1882249056</ele>
        <time>2016-09-25T15:33:17Z</time>
      </trkpt>
      <trkpt lat="44.16706" lon="7.19575">
        <ele>2056.2624714606</ele>
        <time>2016-09-25T15:33:22Z</time>
      </trkpt>
      <trkpt lat="44.16706" lon="7.19574">
        <ele>2056.2624714606</ele>
        <time>2016-09-25T15:33:28Z</time>
      </trkpt>
      <trkpt lat="44.16705" lon="7.19572">
        <ele>2056.2624714606</ele>
        <time>2016-09-25T15:33:32Z</time>
      </trkpt>
      <trkpt lat="44.1671" lon="7.19564">
        <ele>2053.4686577357</ele>
        <time>2016-09-25T15:33:42Z</time>
      </trkpt>
      <trkpt lat="44.16715" lon="7.1956">
        <ele>2053.4686577357</ele>
        <time>2016-09-25T15:33:48Z</time>
      </trkpt>
      <trkpt lat="44.16721" lon="7.19555">
        <ele>2050.6642428308</ele>
        <time>2016-09-25T15:33:57Z</time>
      </trkpt>
      <trkpt lat="44.1672" lon="7.19553">
        <ele>2050.6642428308</ele>
        <time>2016-09-25T15:34:02Z</time>
      </trkpt>
      <trkpt lat="44.16719" lon="7.19551">
        <ele>2050.6642428308</ele>
        <time>2016-09-25T15:34:12Z</time>
      </trkpt>
      <trkpt lat="44.16719" lon="7.19551">
        <ele>2050.6642428308</ele>
        <time>2016-09-25T15:34:17Z</time>
      </trkpt>
      <trkpt lat="44.16719" lon="7.19551">
        <ele>2050.6642428308</ele>
        <time>2016-09-25T15:34:28Z</time>
      </trkpt>
      <trkpt lat="44.16719" lon="7.19551">
        <ele>2050.6642428308</ele>
        <time>2016-09-25T15:34:32Z</time>
      </trkpt>
      <trkpt lat="44.16719" lon="7.19551">
        <ele>2050.6642428308</ele>
        <time>2016-09-25T15:34:43Z</time>
      </trkpt>
      <trkpt lat="44.16719" lon="7.19551">
        <ele>2050.6642428308</ele>
        <time>2016-09-25T15:34:48Z</time>
      </trkpt>
      <trkpt lat="44.16719" lon="7.19551">
        <ele>2050.6642428308</ele>
        <time>2016-09-25T15:34:57Z</time>
      </trkpt>
      <trkpt lat="44.16719" lon="7.19551">
        <ele>2050.6642428308</ele>
        <time>2016-09-25T15:35:04Z</time>
      </trkpt>
      <trkpt lat="44.16719" lon="7.19551">
        <ele>2050.6642428308</ele>
        <time>2016-09-25T15:35:17Z</time>
      </trkpt>
      <trkpt lat="44.16719" lon="7.19551">
        <ele>2050.6642428308</ele>
        <time>2016-09-25T15:35:32Z</time>
      </trkpt>
      <trkpt lat="44.16719" lon="7.19551">
        <ele>2050.6642428308</ele>
        <time>2016-09-25T15:35:38Z</time>
      </trkpt>
      <trkpt lat="44.16719" lon="7.19551">
        <ele>2050.6642428308</ele>
        <time>2016-09-25T15:35:48Z</time>
      </trkpt>
      <trkpt lat="44.16719" lon="7.19551">
        <ele>2050.6642428308</ele>
        <time>2016-09-25T15:35:52Z</time>
      </trkpt>
      <trkpt lat="44.16719" lon="7.1955">
        <ele>2050.6642428308</ele>
        <time>2016-09-25T15:36:03Z</time>
      </trkpt>
      <trkpt lat="44.1672" lon="7.19551">
        <ele>2050.6642428308</ele>
        <time>2016-09-25T15:36:07Z</time>
      </trkpt>
      <trkpt lat="44.16725" lon="7.19548">
        <ele>2047.8178977992</ele>
        <time>2016-09-25T15:36:18Z</time>
      </trkpt>
      <trkpt lat="44.1673" lon="7.19546">
        <ele>2047.8178977992</ele>
        <time>2016-09-25T15:36:23Z</time>
      </trkpt>
      <trkpt lat="44.16739" lon="7.1954">
        <ele>2045.549069778</ele>
        <time>2016-09-25T15:36:32Z</time>
      </trkpt>
      <trkpt lat="44.16743" lon="7.19536">
        <ele>2045.549069778</ele>
        <time>2016-09-25T15:36:37Z</time>
      </trkpt>
      <trkpt lat="44.16754" lon="7.19533">
        <ele>2043.9255732907</ele>
        <time>2016-09-25T15:36:48Z</time>
      </trkpt>
      <trkpt lat="44.16758" lon="7.19532">
        <ele>2043.9255732907</ele>
        <time>2016-09-25T15:36:52Z</time>
      </trkpt>
      <trkpt lat="44.16769" lon="7.19524">
        <ele>2043.613605359</ele>
        <time>2016-09-25T15:37:03Z</time>
      </trkpt>
      <trkpt lat="44.16775" lon="7.19521">
        <ele>2043.613605359</ele>
        <time>2016-09-25T15:37:08Z</time>
      </trkpt>
      <trkpt lat="44.16784" lon="7.19519">
        <ele>2043.5838152737</ele>
        <time>2016-09-25T15:37:18Z</time>
      </trkpt>
      <trkpt lat="44.16788" lon="7.19521">
        <ele>2043.5838152737</ele>
        <time>2016-09-25T15:37:23Z</time>
      </trkpt>
      <trkpt lat="44.16795" lon="7.19506">
        <ele>2043.3283904363</ele>
        <time>2016-09-25T15:37:38Z</time>
      </trkpt>
      <trkpt lat="44.16804" lon="7.19494">
        <ele>2043.2565366088</ele>
        <time>2016-09-25T15:37:52Z</time>
      </trkpt>
      <trkpt lat="44.1681" lon="7.19489">
        <ele>2043.2565366088</ele>
        <time>2016-09-25T15:37:58Z</time>
      </trkpt>
      <trkpt lat="44.16819" lon="7.19482">
        <ele>2043.0695991283</ele>
        <time>2016-09-25T15:38:07Z</time>
      </trkpt>
      <trkpt lat="44.16823" lon="7.19478">
        <ele>2043.0695991283</ele>
        <time>2016-09-25T15:38:12Z</time>
      </trkpt>
      <trkpt lat="44.16832" lon="7.19467">
        <ele>2042.361552144</ele>
        <time>2016-09-25T15:38:23Z</time>
      </trkpt>
      <trkpt lat="44.16834" lon="7.19459">
        <ele>2042.361552144</ele>
        <time>2016-09-25T15:38:28Z</time>
      </trkpt>
      <trkpt lat="44.16838" lon="7.19447">
        <ele>2041.852996939</ele>
        <time>2016-09-25T15:38:38Z</time>
      </trkpt>
      <trkpt lat="44.16842" lon="7.19443">
        <ele>2041.852996939</ele>
        <time>2016-09-25T15:38:43Z</time>
      </trkpt>
      <trkpt lat="44.16855" lon="7.19429">
        <ele>2042.326448675</ele>
        <time>2016-09-25T15:38:58Z</time>
      </trkpt>
      <trkpt lat="44.16853" lon="7.19416">
        <ele>2043.7549514774</ele>
        <time>2016-09-25T15:39:12Z</time>
      </trkpt>
      <trkpt lat="44.16853" lon="7.19416">
        <ele>2043.7549514774</ele>
        <time>2016-09-25T15:39:27Z</time>
      </trkpt>
      <trkpt lat="44.16852" lon="7.19416">
        <ele>2043.7549514774</ele>
        <time>2016-09-25T15:39:32Z</time>
      </trkpt>
      <trkpt lat="44.16846" lon="7.19413">
        <ele>2043.7549514774</ele>
        <time>2016-09-25T15:39:43Z</time>
      </trkpt>
      <trkpt lat="44.16844" lon="7.1941">
        <ele>2045.4192882377</ele>
        <time>2016-09-25T15:39:48Z</time>
      </trkpt>
      <trkpt lat="44.16837" lon="7.19407">
        <ele>2045.4192882377</ele>
        <time>2016-09-25T15:39:57Z</time>
      </trkpt>
      <trkpt lat="44.16831" lon="7.19407">
        <ele>2047.3155251265</ele>
        <time>2016-09-25T15:40:03Z</time>
      </trkpt>
      <trkpt lat="44.16823" lon="7.19402">
        <ele>2047.3155251265</ele>
        <time>2016-09-25T15:40:12Z</time>
      </trkpt>
      <trkpt lat="44.16818" lon="7.19397">
        <ele>2048.6325734921</ele>
        <time>2016-09-25T15:40:17Z</time>
      </trkpt>
      <trkpt lat="44.16811" lon="7.1939">
        <ele>2048.6325734921</ele>
        <time>2016-09-25T15:40:28Z</time>
      </trkpt>
      <trkpt lat="44.16807" lon="7.1939">
        <ele>2049.4278300887</ele>
        <time>2016-09-25T15:40:32Z</time>
      </trkpt>
      <trkpt lat="44.16795" lon="7.19393">
        <ele>2050.1741401822</ele>
        <time>2016-09-25T15:40:43Z</time>
      </trkpt>
      <trkpt lat="44.16792" lon="7.19391">
        <ele>2050.1741401822</ele>
        <time>2016-09-25T15:40:48Z</time>
      </trkpt>
      <trkpt lat="44.16783" lon="7.19392">
        <ele>2050.9497703722</ele>
        <time>2016-09-25T15:40:58Z</time>
      </trkpt>
      <trkpt lat="44.16776" lon="7.19395">
        <ele>2050.9497703722</ele>
        <time>2016-09-25T15:41:03Z</time>
      </trkpt>
      <trkpt lat="44.16763" lon="7.19401">
        <ele>2051.3086655615</ele>
        <time>2016-09-25T15:41:18Z</time>
      </trkpt>
      <trkpt lat="44.16748" lon="7.19412">
        <ele>2050.8246142918</ele>
        <time>2016-09-25T15:41:32Z</time>
      </trkpt>
      <trkpt lat="44.16732" lon="7.19437">
        <ele>2051.0797270324</ele>
        <time>2016-09-25T15:41:47Z</time>
      </trkpt>
      <trkpt lat="44.16728" lon="7.19441">
        <ele>2051.0797270324</ele>
        <time>2016-09-25T15:41:52Z</time>
      </trkpt>
      <trkpt lat="44.16717" lon="7.19444">
        <ele>2052.1835045257</ele>
        <time>2016-09-25T15:42:03Z</time>
      </trkpt>
      <trkpt lat="44.16713" lon="7.19446">
        <ele>2052.1835045257</ele>
        <time>2016-09-25T15:42:07Z</time>
      </trkpt>
      <trkpt lat="44.16703" lon="7.19447">
        <ele>2053.1112889909</ele>
        <time>2016-09-25T15:42:17Z</time>
      </trkpt>
      <trkpt lat="44.16698" lon="7.19445">
        <ele>2053.1112889909</ele>
        <time>2016-09-25T15:42:23Z</time>
      </trkpt>
      <trkpt lat="44.1669" lon="7.19441">
        <ele>2053.6783129049</ele>
        <time>2016-09-25T15:42:32Z</time>
      </trkpt>
      <trkpt lat="44.16687" lon="7.19439">
        <ele>2053.6783129049</ele>
        <time>2016-09-25T15:42:37Z</time>
      </trkpt>
      <trkpt lat="44.16676" lon="7.1943">
        <ele>2053.700322221</ele>
        <time>2016-09-25T15:42:48Z</time>
      </trkpt>
      <trkpt lat="44.16672" lon="7.19426">
        <ele>2053.700322221</ele>
        <time>2016-09-25T15:42:52Z</time>
      </trkpt>
      <trkpt lat="44.16665" lon="7.19415">
        <ele>2053.4840341937</ele>
        <time>2016-09-25T15:43:03Z</time>
      </trkpt>
      <trkpt lat="44.16662" lon="7.1941">
        <ele>2053.4840341937</ele>
        <time>2016-09-25T15:43:08Z</time>
      </trkpt>
      <trkpt lat="44.16658" lon="7.19405">
        <ele>2053.3866966332</ele>
        <time>2016-09-25T15:43:12Z</time>
      </trkpt>
      <trkpt lat="44.16655" lon="7.19402">
        <ele>2053.3866966332</ele>
        <time>2016-09-25T15:43:17Z</time>
      </trkpt>
      <trkpt lat="44.16651" lon="7.19399">
        <ele>2053.3866966332</ele>
        <time>2016-09-25T15:43:22Z</time>
      </trkpt>
      <trkpt lat="44.16647" lon="7.19396">
        <ele>2052.7593560213</ele>
        <time>2016-09-25T15:43:28Z</time>
      </trkpt>
      <trkpt lat="44.16633" lon="7.1939">
        <ele>2051.7086844415</ele>
        <time>2016-09-25T15:43:42Z</time>
      </trkpt>
      <trkpt lat="44.16624" lon="7.19382">
        <ele>2050.6232388726</ele>
        <time>2016-09-25T15:43:53Z</time>
      </trkpt>
      <trkpt lat="44.16618" lon="7.19381">
        <ele>2050.6232388726</ele>
        <time>2016-09-25T15:43:57Z</time>
      </trkpt>
      <trkpt lat="44.16613" lon="7.19382">
        <ele>2049.2437500551</ele>
        <time>2016-09-25T15:44:02Z</time>
      </trkpt>
      <trkpt lat="44.16599" lon="7.19385">
        <ele>2047.7778456771</ele>
        <time>2016-09-25T15:44:13Z</time>
      </trkpt>
      <trkpt lat="44.16596" lon="7.19388">
        <ele>2047.7778456771</ele>
        <time>2016-09-25T15:44:17Z</time>
      </trkpt>
      <trkpt lat="44.16584" lon="7.194">
        <ele>2046.115774808</ele>
        <time>2016-09-25T15:44:28Z</time>
      </trkpt>
      <trkpt lat="44.16579" lon="7.19405">
        <ele>2046.115774808</ele>
        <time>2016-09-25T15:44:33Z</time>
      </trkpt>
      <trkpt lat="44.16571" lon="7.19408">
        <ele>2044.3151680788</ele>
        <time>2016-09-25T15:44:42Z</time>
      </trkpt>
      <trkpt lat="44.16566" lon="7.19408">
        <ele>2044.3151680788</ele>
        <time>2016-09-25T15:44:48Z</time>
      </trkpt>
      <trkpt lat="44.16558" lon="7.1941">
        <ele>2042.8479625129</ele>
        <time>2016-09-25T15:44:57Z</time>
      </trkpt>
      <trkpt lat="44.16554" lon="7.19411">
        <ele>2042.8479625129</ele>
        <time>2016-09-25T15:45:02Z</time>
      </trkpt>
      <trkpt lat="44.16545" lon="7.19415">
        <ele>2040.0899110653</ele>
        <time>2016-09-25T15:45:13Z</time>
      </trkpt>
      <trkpt lat="44.16541" lon="7.19416">
        <ele>2040.0899110653</ele>
        <time>2016-09-25T15:45:17Z</time>
      </trkpt>
      <trkpt lat="44.16529" lon="7.19423">
        <ele>2037.3356493996</ele>
        <time>2016-09-25T15:45:29Z</time>
      </trkpt>
      <trkpt lat="44.16526" lon="7.19428">
        <ele>2037.3356493996</ele>
        <time>2016-09-25T15:45:33Z</time>
      </trkpt>
      <trkpt lat="44.16509" lon="7.19442">
        <ele>2035.1940116363</ele>
        <time>2016-09-25T15:45:49Z</time>
      </trkpt>
      <trkpt lat="44.16495" lon="7.1945">
        <ele>2033.0170020706</ele>
        <time>2016-09-25T15:46:02Z</time>
      </trkpt>
      <trkpt lat="44.16478" lon="7.19453">
        <ele>2030.4638519448</ele>
        <time>2016-09-25T15:46:17Z</time>
      </trkpt>
      <trkpt lat="44.16458" lon="7.19458">
        <ele>2028.8052119193</ele>
        <time>2016-09-25T15:46:33Z</time>
      </trkpt>
      <trkpt lat="44.16452" lon="7.19461">
        <ele>2028.8052119193</ele>
        <time>2016-09-25T15:46:37Z</time>
      </trkpt>
      <trkpt lat="44.16437" lon="7.19469">
        <ele>2026.1464058679</ele>
        <time>2016-09-25T15:46:48Z</time>
      </trkpt>
      <trkpt lat="44.16431" lon="7.19472">
        <ele>2026.1464058679</ele>
        <time>2016-09-25T15:46:53Z</time>
      </trkpt>
      <trkpt lat="44.16422" lon="7.19477">
        <ele>2023.1702987294</ele>
        <time>2016-09-25T15:47:03Z</time>
      </trkpt>
      <trkpt lat="44.16417" lon="7.19481">
        <ele>2023.1702987294</ele>
        <time>2016-09-25T15:47:09Z</time>
      </trkpt>
      <trkpt lat="44.16406" lon="7.19488">
        <ele>2020.4096630309</ele>
        <time>2016-09-25T15:47:17Z</time>
      </trkpt>
      <trkpt lat="44.16399" lon="7.19489">
        <ele>2020.4096630309</ele>
        <time>2016-09-25T15:47:23Z</time>
      </trkpt>
      <trkpt lat="44.16384" lon="7.19486">
        <ele>2018.2134609315</ele>
        <time>2016-09-25T15:47:33Z</time>
      </trkpt>
      <trkpt lat="44.16379" lon="7.19485">
        <ele>2018.2134609315</ele>
        <time>2016-09-25T15:47:37Z</time>
      </trkpt>
      <trkpt lat="44.16366" lon="7.19482">
        <ele>2016.3846640447</ele>
        <time>2016-09-25T15:47:48Z</time>
      </trkpt>
      <trkpt lat="44.16359" lon="7.19479">
        <ele>2016.3846640447</ele>
        <time>2016-09-25T15:47:53Z</time>
      </trkpt>
      <trkpt lat="44.16358" lon="7.19477">
        <ele>2016.3846640447</ele>
        <time>2016-09-25T15:47:57Z</time>
      </trkpt>
      <trkpt lat="44.16358" lon="7.19475">
        <ele>2014.2641350422</ele>
        <time>2016-09-25T15:48:03Z</time>
      </trkpt>
      <trkpt lat="44.16358" lon="7.19474">
        <ele>2014.2641350422</ele>
        <time>2016-09-25T15:48:08Z</time>
      </trkpt>
      <trkpt lat="44.16358" lon="7.19474">
        <ele>2014.2641350422</ele>
        <time>2016-09-25T15:48:12Z</time>
      </trkpt>
      <trkpt lat="44.16357" lon="7.19474">
        <ele>2014.2641350422</ele>
        <time>2016-09-25T15:48:23Z</time>
      </trkpt>
      <trkpt lat="44.16344" lon="7.1947">
        <ele>2011.9913577154</ele>
        <time>2016-09-25T15:48:37Z</time>
      </trkpt>
      <trkpt lat="44.16338" lon="7.19467">
        <ele>2011.9913577154</ele>
        <time>2016-09-25T15:48:42Z</time>
      </trkpt>
      <trkpt lat="44.16327" lon="7.19461">
        <ele>2010.1571491507</ele>
        <time>2016-09-25T15:48:53Z</time>
      </trkpt>
      <trkpt lat="44.16324" lon="7.19459">
        <ele>2010.1571491507</ele>
        <time>2016-09-25T15:48:57Z</time>
      </trkpt>
      <trkpt lat="44.16322" lon="7.19456">
        <ele>2010.1571491507</ele>
        <time>2016-09-25T15:49:08Z</time>
      </trkpt>
      <trkpt lat="44.16317" lon="7.19455">
        <ele>2008.6303628023</ele>
        <time>2016-09-25T15:49:12Z</time>
      </trkpt>
      <trkpt lat="44.16304" lon="7.1944">
        <ele>2007.4183090328</ele>
        <time>2016-09-25T15:49:22Z</time>
      </trkpt>
      <trkpt lat="44.16297" lon="7.19429">
        <ele>2006.8727287718</ele>
        <time>2016-09-25T15:49:28Z</time>
      </trkpt>
      <trkpt lat="44.16288" lon="7.19417">
        <ele>2006.2656279932</ele>
        <time>2016-09-25T15:49:37Z</time>
      </trkpt>
      <trkpt lat="44.16281" lon="7.19411">
        <ele>2006.2656279932</ele>
        <time>2016-09-25T15:49:42Z</time>
      </trkpt>
      <trkpt lat="44.1627" lon="7.19399">
        <ele>2005.254106627</ele>
        <time>2016-09-25T15:49:52Z</time>
      </trkpt>
      <trkpt lat="44.16268" lon="7.19397">
        <ele>2005.254106627</ele>
        <time>2016-09-25T15:49:57Z</time>
      </trkpt>
      <trkpt lat="44.16258" lon="7.19386">
        <ele>2004.1268464284</ele>
        <time>2016-09-25T15:50:08Z</time>
      </trkpt>
      <trkpt lat="44.16251" lon="7.19384">
        <ele>2004.1268464284</ele>
        <time>2016-09-25T15:50:12Z</time>
      </trkpt>
      <trkpt lat="44.16233" lon="7.19377">
        <ele>2003.9586658586</ele>
        <time>2016-09-25T15:50:27Z</time>
      </trkpt>
      <trkpt lat="44.16229" lon="7.19379">
        <ele>2003.9586658586</ele>
        <time>2016-09-25T15:50:33Z</time>
      </trkpt>
      <trkpt lat="44.16215" lon="7.19377">
        <ele>2003.4801919024</ele>
        <time>2016-09-25T15:50:43Z</time>
      </trkpt>
      <trkpt lat="44.16209" lon="7.19375">
        <ele>2003.4801919024</ele>
        <time>2016-09-25T15:50:48Z</time>
      </trkpt>
      <trkpt lat="44.16203" lon="7.19377">
        <ele>2003.5625532767</ele>
        <time>2016-09-25T15:50:57Z</time>
      </trkpt>
      <trkpt lat="44.16193" lon="7.19378">
        <ele>2003.3540460466</ele>
        <time>2016-09-25T15:51:03Z</time>
      </trkpt>
      <trkpt lat="44.16181" lon="7.19381">
        <ele>2003.3057232008</ele>
        <time>2016-09-25T15:51:12Z</time>
      </trkpt>
      <trkpt lat="44.16176" lon="7.19381">
        <ele>2003.3057232008</ele>
        <time>2016-09-25T15:51:17Z</time>
      </trkpt>
      <trkpt lat="44.16163" lon="7.19382">
        <ele>2003.83508178</ele>
        <time>2016-09-25T15:51:28Z</time>
      </trkpt>
      <trkpt lat="44.1616" lon="7.19381">
        <ele>2003.83508178</ele>
        <time>2016-09-25T15:51:32Z</time>
      </trkpt>
      <trkpt lat="44.16144" lon="7.1938">
        <ele>2004.0159532827</ele>
        <time>2016-09-25T15:51:43Z</time>
      </trkpt>
      <trkpt lat="44.16136" lon="7.1938">
        <ele>2004.0159532827</ele>
        <time>2016-09-25T15:51:48Z</time>
      </trkpt>
      <trkpt lat="44.16123" lon="7.19386">
        <ele>2003.4235586251</ele>
        <time>2016-09-25T15:52:04Z</time>
      </trkpt>
      <trkpt lat="44.1611" lon="7.19391">
        <ele>2003.3958752373</ele>
        <time>2016-09-25T15:52:17Z</time>
      </trkpt>
      <trkpt lat="44.16091" lon="7.19392">
        <ele>2003.9605311507</ele>
        <time>2016-09-25T15:52:32Z</time>
      </trkpt>
      <trkpt lat="44.16082" lon="7.19389">
        <ele>2003.9605311507</ele>
        <time>2016-09-25T15:52:37Z</time>
      </trkpt>
      <trkpt lat="44.16078" lon="7.19386">
        <ele>2004.4786129922</ele>
        <time>2016-09-25T15:52:48Z</time>
      </trkpt>
      <trkpt lat="44.16078" lon="7.19386">
        <ele>2004.4786129922</ele>
        <time>2016-09-25T15:52:52Z</time>
      </trkpt>
      <trkpt lat="44.16056" lon="7.19386">
        <ele>2005.0212510306</ele>
        <time>2016-09-25T15:53:04Z</time>
      </trkpt>
      <trkpt lat="44.16049" lon="7.19387">
        <ele>2005.0212510306</ele>
        <time>2016-09-25T15:53:08Z</time>
      </trkpt>
      <trkpt lat="44.16036" lon="7.19393">
        <ele>2004.4726428576</ele>
        <time>2016-09-25T15:53:18Z</time>
      </trkpt>
      <trkpt lat="44.16031" lon="7.19396">
        <ele>2004.4726428576</ele>
        <time>2016-09-25T15:53:23Z</time>
      </trkpt>
      <trkpt lat="44.16019" lon="7.19393">
        <ele>2004.4825593501</ele>
        <time>2016-09-25T15:53:32Z</time>
      </trkpt>
      <trkpt lat="44.16014" lon="7.1939">
        <ele>2004.4825593501</ele>
        <time>2016-09-25T15:53:37Z</time>
      </trkpt>
      <trkpt lat="44.16004" lon="7.19382">
        <ele>2002.9464904352</ele>
        <time>2016-09-25T15:53:48Z</time>
      </trkpt>
      <trkpt lat="44.15999" lon="7.1938">
        <ele>2002.9464904352</ele>
        <time>2016-09-25T15:53:52Z</time>
      </trkpt>
      <trkpt lat="44.15989" lon="7.19374">
        <ele>2001.1614353525</ele>
        <time>2016-09-25T15:54:03Z</time>
      </trkpt>
      <trkpt lat="44.15982" lon="7.19372">
        <ele>2001.1614353525</ele>
        <time>2016-09-25T15:54:08Z</time>
      </trkpt>
      <trkpt lat="44.15976" lon="7.19373">
        <ele>1999.7390276424</ele>
        <time>2016-09-25T15:54:12Z</time>
      </trkpt>
      <trkpt lat="44.15968" lon="7.1937">
        <ele>1998.1209455465</ele>
        <time>2016-09-25T15:54:18Z</time>
      </trkpt>
      <trkpt lat="44.15962" lon="7.19371">
        <ele>1998.1209455465</ele>
        <time>2016-09-25T15:54:23Z</time>
      </trkpt>
      <trkpt lat="44.15956" lon="7.19372">
        <ele>1996.9577801967</ele>
        <time>2016-09-25T15:54:27Z</time>
      </trkpt>
      <trkpt lat="44.15942" lon="7.19368">
        <ele>1996.6637523787</ele>
        <time>2016-09-25T15:54:37Z</time>
      </trkpt>
      <trkpt lat="44.15935" lon="7.19371">
        <ele>1996.6637523787</ele>
        <time>2016-09-25T15:54:43Z</time>
      </trkpt>
      <trkpt lat="44.15926" lon="7.19371">
        <ele>1996.2367867144</ele>
        <time>2016-09-25T15:54:52Z</time>
      </trkpt>
      <trkpt lat="44.15919" lon="7.1937">
        <ele>1996.2367867144</ele>
        <time>2016-09-25T15:54:57Z</time>
      </trkpt>
      <trkpt lat="44.15914" lon="7.1937">
        <ele>1994.5614813229</ele>
        <time>2016-09-25T15:55:08Z</time>
      </trkpt>
      <trkpt lat="44.1591" lon="7.19366">
        <ele>1994.5614813229</ele>
        <time>2016-09-25T15:55:12Z</time>
      </trkpt>
      <trkpt lat="44.1589" lon="7.19354">
        <ele>1993.9224611139</ele>
        <time>2016-09-25T15:55:22Z</time>
      </trkpt>
      <trkpt lat="44.15882" lon="7.19351">
        <ele>1993.9224611139</ele>
        <time>2016-09-25T15:55:28Z</time>
      </trkpt>
      <trkpt lat="44.15871" lon="7.19351">
        <ele>1994.4160913934</ele>
        <time>2016-09-25T15:55:37Z</time>
      </trkpt>
      <trkpt lat="44.15863" lon="7.1935">
        <ele>1994.4160913934</ele>
        <time>2016-09-25T15:55:43Z</time>
      </trkpt>
      <trkpt lat="44.15853" lon="7.19354">
        <ele>1994.5721116279</ele>
        <time>2016-09-25T15:55:52Z</time>
      </trkpt>
      <trkpt lat="44.15846" lon="7.1935">
        <ele>1994.5721116279</ele>
        <time>2016-09-25T15:55:57Z</time>
      </trkpt>
      <trkpt lat="44.15833" lon="7.19346">
        <ele>1994.2397791654</ele>
        <time>2016-09-25T15:56:08Z</time>
      </trkpt>
      <trkpt lat="44.15827" lon="7.19341">
        <ele>1994.2397791654</ele>
        <time>2016-09-25T15:56:12Z</time>
      </trkpt>
      <trkpt lat="44.15817" lon="7.1934">
        <ele>1992.4305723639</ele>
        <time>2016-09-25T15:56:23Z</time>
      </trkpt>
      <trkpt lat="44.15813" lon="7.19344">
        <ele>1992.4305723639</ele>
        <time>2016-09-25T15:56:28Z</time>
      </trkpt>
      <trkpt lat="44.15807" lon="7.1934">
        <ele>1992.1958207837</ele>
        <time>2016-09-25T15:56:32Z</time>
      </trkpt>
      <trkpt lat="44.15795" lon="7.19333">
        <ele>1991.7323531065</ele>
        <time>2016-09-25T15:56:43Z</time>
      </trkpt>
      <trkpt lat="44.1579" lon="7.19331">
        <ele>1991.7323531065</ele>
        <time>2016-09-25T15:56:48Z</time>
      </trkpt>
      <trkpt lat="44.15779" lon="7.19325">
        <ele>1991.6903210641</ele>
        <time>2016-09-25T15:56:57Z</time>
      </trkpt>
      <trkpt lat="44.15776" lon="7.19323">
        <ele>1991.6903210641</ele>
        <time>2016-09-25T15:57:03Z</time>
      </trkpt>
      <trkpt lat="44.15777" lon="7.19326">
        <ele>1991.6903210641</ele>
        <time>2016-09-25T15:57:12Z</time>
      </trkpt>
      <trkpt lat="44.15777" lon="7.19325">
        <ele>1991.6903210641</ele>
        <time>2016-09-25T15:57:17Z</time>
      </trkpt>
      <trkpt lat="44.15777" lon="7.19324">
        <ele>1991.6903210641</ele>
        <time>2016-09-25T15:57:22Z</time>
      </trkpt>
      <trkpt lat="44.15775" lon="7.19322">
        <ele>1991.0136863438</ele>
        <time>2016-09-25T15:57:27Z</time>
      </trkpt>
      <trkpt lat="44.15775" lon="7.19322">
        <ele>1991.0136863438</ele>
        <time>2016-09-25T15:57:32Z</time>
      </trkpt>
      <trkpt lat="44.15776" lon="7.1932">
        <ele>1991.0136863438</ele>
        <time>2016-09-25T15:57:37Z</time>
      </trkpt>
      <trkpt lat="44.15773" lon="7.19319">
        <ele>1991.0136863438</ele>
        <time>2016-09-25T15:57:42Z</time>
      </trkpt>
      <trkpt lat="44.15772" lon="7.1932">
        <ele>1991.0136863438</ele>
        <time>2016-09-25T15:57:52Z</time>
      </trkpt>
      <trkpt lat="44.15772" lon="7.1932">
        <ele>1991.0136863438</ele>
        <time>2016-09-25T15:57:58Z</time>
      </trkpt>
      <trkpt lat="44.15773" lon="7.19318">
        <ele>1991.0136863438</ele>
        <time>2016-09-25T15:58:07Z</time>
      </trkpt>
      <trkpt lat="44.15773" lon="7.19317">
        <ele>1991.0136863438</ele>
        <time>2016-09-25T15:58:12Z</time>
      </trkpt>
      <trkpt lat="44.15773" lon="7.19318">
        <ele>1991.0136863438</ele>
        <time>2016-09-25T15:58:22Z</time>
      </trkpt>
      <trkpt lat="44.15773" lon="7.19317">
        <ele>1991.0136863438</ele>
        <time>2016-09-25T15:58:27Z</time>
      </trkpt>
      <trkpt lat="44.15773" lon="7.19318">
        <ele>1991.0136863438</ele>
        <time>2016-09-25T15:58:37Z</time>
      </trkpt>
      <trkpt lat="44.15773" lon="7.19317">
        <ele>1991.0136863438</ele>
        <time>2016-09-25T15:58:43Z</time>
      </trkpt>
      <trkpt lat="44.15773" lon="7.19317">
        <ele>1991.0136863438</ele>
        <time>2016-09-25T15:58:52Z</time>
      </trkpt>
      <trkpt lat="44.15775" lon="7.19317">
        <ele>1990.5127763376</ele>
        <time>2016-09-25T15:58:58Z</time>
      </trkpt>
      <trkpt lat="44.15794" lon="7.19331">
        <ele>1989.4968177514</ele>
        <time>2016-09-25T15:59:12Z</time>
      </trkpt>
      <trkpt lat="44.15797" lon="7.19332">
        <ele>1989.4968177514</ele>
        <time>2016-09-25T15:59:23Z</time>
      </trkpt>
      <trkpt lat="44.15797" lon="7.19331">
        <ele>1989.4968177514</ele>
        <time>2016-09-25T15:59:27Z</time>
      </trkpt>
      <trkpt lat="44.15797" lon="7.19331">
        <ele>1989.4968177514</ele>
        <time>2016-09-25T15:59:32Z</time>
      </trkpt>
      <trkpt lat="44.15797" lon="7.19331">
        <ele>1989.4968177514</ele>
        <time>2016-09-25T15:59:43Z</time>
      </trkpt>
      <trkpt lat="44.15797" lon="7.19331">
        <ele>1989.4968177514</ele>
        <time>2016-09-25T15:59:47Z</time>
      </trkpt>
      <trkpt lat="44.15797" lon="7.19331">
        <ele>1989.4968177514</ele>
        <time>2016-09-25T15:59:58Z</time>
      </trkpt>
      <trkpt lat="44.15798" lon="7.19333">
        <ele>1989.4968177514</ele>
        <time>2016-09-25T16:00:03Z</time>
      </trkpt>
      <trkpt lat="44.15797" lon="7.19333">
        <ele>1989.4968177514</ele>
        <time>2016-09-25T16:00:12Z</time>
      </trkpt>
      <trkpt lat="44.15797" lon="7.19332">
        <ele>1989.4968177514</ele>
        <time>2016-09-25T16:00:18Z</time>
      </trkpt>
      <trkpt lat="44.15797" lon="7.19328">
        <ele>1988.1775094529</ele>
        <time>2016-09-25T16:00:27Z</time>
      </trkpt>
      <trkpt lat="44.15796" lon="7.19331">
        <ele>1988.1775094529</ele>
        <time>2016-09-25T16:00:32Z</time>
      </trkpt>
      <trkpt lat="44.15788" lon="7.1933">
        <ele>1987.2706741855</ele>
        <time>2016-09-25T16:00:44Z</time>
      </trkpt>
      <trkpt lat="44.15783" lon="7.19328">
        <ele>1987.2706741855</ele>
        <time>2016-09-25T16:00:47Z</time>
      </trkpt>
      <trkpt lat="44.15781" lon="7.19326">
        <ele>1987.2706741855</ele>
        <time>2016-09-25T16:00:58Z</time>
      </trkpt>
      <trkpt lat="44.1578" lon="7.19325">
        <ele>1987.2706741855</ele>
        <time>2016-09-25T16:01:03Z</time>
      </trkpt>
      <trkpt lat="44.1578" lon="7.19325">
        <ele>1987.2706741855</ele>
        <time>2016-09-25T16:01:18Z</time>
      </trkpt>
      <trkpt lat="44.1578" lon="7.19325">
        <ele>1987.2706741855</ele>
        <time>2016-09-25T16:01:28Z</time>
      </trkpt>
      <trkpt lat="44.15777" lon="7.19325">
        <ele>1986.3287572848</ele>
        <time>2016-09-25T16:01:32Z</time>
      </trkpt>
      <trkpt lat="44.15765" lon="7.19322">
        <ele>1985.9027403231</ele>
        <time>2016-09-25T16:01:43Z</time>
      </trkpt>
      <trkpt lat="44.1576" lon="7.1932">
        <ele>1985.9027403231</ele>
        <time>2016-09-25T16:01:48Z</time>
      </trkpt>
      <trkpt lat="44.15756" lon="7.19321">
        <ele>1985.2479287629</ele>
        <time>2016-09-25T16:01:52Z</time>
      </trkpt>
      <trkpt lat="44.15748" lon="7.19319">
        <ele>1985.2479287629</ele>
        <time>2016-09-25T16:01:58Z</time>
      </trkpt>
      <trkpt lat="44.15742" lon="7.19319">
        <ele>1984.6693535712</ele>
        <time>2016-09-25T16:02:02Z</time>
      </trkpt>
      <trkpt lat="44.15732" lon="7.19306">
        <ele>1984.7664813876</ele>
        <time>2016-09-25T16:02:18Z</time>
      </trkpt>
      <trkpt lat="44.15716" lon="7.19299">
        <ele>1986.0640408591</ele>
        <time>2016-09-25T16:02:32Z</time>
      </trkpt>
      <trkpt lat="44.15712" lon="7.19299">
        <ele>1986.0640408591</ele>
        <time>2016-09-25T16:02:38Z</time>
      </trkpt>
      <trkpt lat="44.15704" lon="7.19298">
        <ele>1986.3932222978</ele>
        <time>2016-09-25T16:02:48Z</time>
      </trkpt>
      <trkpt lat="44.157" lon="7.19297">
        <ele>1986.3932222978</ele>
        <time>2016-09-25T16:02:52Z</time>
      </trkpt>
      <trkpt lat="44.1569" lon="7.19291">
        <ele>1988.1138507009</ele>
        <time>2016-09-25T16:03:03Z</time>
      </trkpt>
      <trkpt lat="44.15685" lon="7.1929">
        <ele>1988.1138507009</ele>
        <time>2016-09-25T16:03:07Z</time>
      </trkpt>
      <trkpt lat="44.15675" lon="7.19287">
        <ele>1989.9786927465</ele>
        <time>2016-09-25T16:03:18Z</time>
      </trkpt>
      <trkpt lat="44.15668" lon="7.19287">
        <ele>1989.9786927465</ele>
        <time>2016-09-25T16:03:23Z</time>
      </trkpt>
      <trkpt lat="44.15661" lon="7.1929">
        <ele>1991.4946982256</ele>
        <time>2016-09-25T16:03:32Z</time>
      </trkpt>
      <trkpt lat="44.15657" lon="7.19291">
        <ele>1991.4946982256</ele>
        <time>2016-09-25T16:03:37Z</time>
      </trkpt>
      <trkpt lat="44.15655" lon="7.19294">
        <ele>1991.4946982256</ele>
        <time>2016-09-25T16:03:48Z</time>
      </trkpt>
      <trkpt lat="44.15655" lon="7.19295">
        <ele>1991.4946982256</ele>
        <time>2016-09-25T16:03:53Z</time>
      </trkpt>
      <trkpt lat="44.15652" lon="7.19303">
        <ele>1993.2004505432</ele>
        <time>2016-09-25T16:04:03Z</time>
      </trkpt>
      <trkpt lat="44.15651" lon="7.19309">
        <ele>1993.2004505432</ele>
        <time>2016-09-25T16:04:08Z</time>
      </trkpt>
      <trkpt lat="44.15643" lon="7.19314">
        <ele>1994.3407514447</ele>
        <time>2016-09-25T16:04:17Z</time>
      </trkpt>
      <trkpt lat="44.1564" lon="7.19316">
        <ele>1994.3407514447</ele>
        <time>2016-09-25T16:04:22Z</time>
      </trkpt>
      <trkpt lat="44.15637" lon="7.19319">
        <ele>1994.3407514447</ele>
        <time>2016-09-25T16:04:32Z</time>
      </trkpt>
      <trkpt lat="44.15636" lon="7.19319">
        <ele>1994.3407514447</ele>
        <time>2016-09-25T16:04:37Z</time>
      </trkpt>
      <trkpt lat="44.15629" lon="7.19321">
        <ele>1995.6730811752</ele>
        <time>2016-09-25T16:04:48Z</time>
      </trkpt>
      <trkpt lat="44.15625" lon="7.19323">
        <ele>1995.6730811752</ele>
        <time>2016-09-25T16:04:52Z</time>
      </trkpt>
      <trkpt lat="44.15616" lon="7.19334">
        <ele>1997.5817957994</ele>
        <time>2016-09-25T16:05:03Z</time>
      </trkpt>
      <trkpt lat="44.15615" lon="7.19335">
        <ele>1997.5817957994</ele>
        <time>2016-09-25T16:05:08Z</time>
      </trkpt>
      <trkpt lat="44.15614" lon="7.19346">
        <ele>2000.1477022597</ele>
        <time>2016-09-25T16:05:23Z</time>
      </trkpt>
      <trkpt lat="44.15612" lon="7.19357">
        <ele>2000.1477022597</ele>
        <time>2016-09-25T16:05:37Z</time>
      </trkpt>
      <trkpt lat="44.15613" lon="7.19358">
        <ele>2003.1701420199</ele>
        <time>2016-09-25T16:05:48Z</time>
      </trkpt>
      <trkpt lat="44.15614" lon="7.19363">
        <ele>2003.1701420199</ele>
        <time>2016-09-25T16:05:52Z</time>
      </trkpt>
      <trkpt lat="44.15615" lon="7.19367">
        <ele>2003.1701420199</ele>
        <time>2016-09-25T16:05:57Z</time>
      </trkpt>
      <trkpt lat="44.15617" lon="7.19372">
        <ele>2005.8711990231</ele>
        <time>2016-09-25T16:06:03Z</time>
      </trkpt>
      <trkpt lat="44.1562" lon="7.19378">
        <ele>2005.8711990231</ele>
        <time>2016-09-25T16:06:08Z</time>
      </trkpt>
      <trkpt lat="44.15621" lon="7.19381">
        <ele>2005.8711990231</ele>
        <time>2016-09-25T16:06:12Z</time>
      </trkpt>
      <trkpt lat="44.15622" lon="7.19393">
        <ele>2008.8425693347</ele>
        <time>2016-09-25T16:06:23Z</time>
      </trkpt>
      <trkpt lat="44.15621" lon="7.19407">
        <ele>2012.4589613272</ele>
        <time>2016-09-25T16:06:37Z</time>
      </trkpt>
      <trkpt lat="44.1562" lon="7.1941">
        <ele>2012.4589613272</ele>
        <time>2016-09-25T16:06:43Z</time>
      </trkpt>
      <trkpt lat="44.15619" lon="7.19424">
        <ele>2015.7545211799</ele>
        <time>2016-09-25T16:06:52Z</time>
      </trkpt>
      <trkpt lat="44.15619" lon="7.19431">
        <ele>2015.7545211799</ele>
        <time>2016-09-25T16:06:57Z</time>
      </trkpt>
      <trkpt lat="44.1562" lon="7.19443">
        <ele>2017.9507323139</ele>
        <time>2016-09-25T16:07:08Z</time>
      </trkpt>
      <trkpt lat="44.1562" lon="7.19447">
        <ele>2017.9507323139</ele>
        <time>2016-09-25T16:07:12Z</time>
      </trkpt>
      <trkpt lat="44.15627" lon="7.19452">
        <ele>2020.3615270067</ele>
        <time>2016-09-25T16:07:23Z</time>
      </trkpt>
      <trkpt lat="44.15629" lon="7.19453">
        <ele>2020.3615270067</ele>
        <time>2016-09-25T16:07:28Z</time>
      </trkpt>
      <trkpt lat="44.15635" lon="7.19452">
        <ele>2020.3615270067</ele>
        <time>2016-09-25T16:07:37Z</time>
      </trkpt>
      <trkpt lat="44.15638" lon="7.19452">
        <ele>2023.3536756654</ele>
        <time>2016-09-25T16:07:43Z</time>
      </trkpt>
      <trkpt lat="44.15645" lon="7.19454">
        <ele>2023.3536756654</ele>
        <time>2016-09-25T16:07:52Z</time>
      </trkpt>
      <trkpt lat="44.15647" lon="7.19454">
        <ele>2025.6947848316</ele>
        <time>2016-09-25T16:07:57Z</time>
      </trkpt>
      <trkpt lat="44.15653" lon="7.19457">
        <ele>2025.6947848316</ele>
        <time>2016-09-25T16:08:08Z</time>
      </trkpt>
      <trkpt lat="44.15655" lon="7.19458">
        <ele>2025.6947848316</ele>
        <time>2016-09-25T16:08:12Z</time>
      </trkpt>
      <trkpt lat="44.15662" lon="7.19468">
        <ele>2026.6485516192</ele>
        <time>2016-09-25T16:08:23Z</time>
      </trkpt>
      <trkpt lat="44.15666" lon="7.19472">
        <ele>2026.6485516192</ele>
        <time>2016-09-25T16:08:28Z</time>
      </trkpt>
      <trkpt lat="44.15676" lon="7.19492">
        <ele>2028.9667217335</ele>
        <time>2016-09-25T16:08:43Z</time>
      </trkpt>
      <trkpt lat="44.15679" lon="7.19506">
        <ele>2030.7422565158</ele>
        <time>2016-09-25T16:08:58Z</time>
      </trkpt>
      <trkpt lat="44.15675" lon="7.19512">
        <ele>2030.7422565158</ele>
        <time>2016-09-25T16:09:03Z</time>
      </trkpt>
      <trkpt lat="44.15669" lon="7.1952">
        <ele>2032.5589567208</ele>
        <time>2016-09-25T16:09:12Z</time>
      </trkpt>
      <trkpt lat="44.15664" lon="7.19524">
        <ele>2032.5589567208</ele>
        <time>2016-09-25T16:09:17Z</time>
      </trkpt>
      <trkpt lat="44.15652" lon="7.1953">
        <ele>2034.6263767508</ele>
        <time>2016-09-25T16:09:28Z</time>
      </trkpt>
      <trkpt lat="44.15647" lon="7.1953">
        <ele>2034.6263767508</ele>
        <time>2016-09-25T16:09:32Z</time>
      </trkpt>
      <trkpt lat="44.15636" lon="7.19532">
        <ele>2036.4752688296</ele>
        <time>2016-09-25T16:09:42Z</time>
      </trkpt>
      <trkpt lat="44.15634" lon="7.19535">
        <ele>2036.4752688296</ele>
        <time>2016-09-25T16:09:47Z</time>
      </trkpt>
      <trkpt lat="44.15634" lon="7.19537">
        <ele>2036.4752688296</ele>
        <time>2016-09-25T16:09:58Z</time>
      </trkpt>
      <trkpt lat="44.15634" lon="7.19538">
        <ele>2036.4752688296</ele>
        <time>2016-09-25T16:10:02Z</time>
      </trkpt>
      <trkpt lat="44.15641" lon="7.19547">
        <ele>2037.8301916444</ele>
        <time>2016-09-25T16:10:13Z</time>
      </trkpt>
      <trkpt lat="44.15645" lon="7.19549">
        <ele>2037.8301916444</ele>
        <time>2016-09-25T16:10:17Z</time>
      </trkpt>
      <trkpt lat="44.15653" lon="7.19558">
        <ele>2039.662463078</ele>
        <time>2016-09-25T16:10:27Z</time>
      </trkpt>
      <trkpt lat="44.1566" lon="7.19567">
        <ele>2039.662463078</ele>
        <time>2016-09-25T16:10:33Z</time>
      </trkpt>
      <trkpt lat="44.15667" lon="7.19585">
        <ele>2040.3057171191</ele>
        <time>2016-09-25T16:10:47Z</time>
      </trkpt>
      <trkpt lat="44.15672" lon="7.19598">
        <ele>2040.7702771194</ele>
        <time>2016-09-25T16:10:58Z</time>
      </trkpt>
      <trkpt lat="44.15675" lon="7.19602">
        <ele>2040.7702771194</ele>
        <time>2016-09-25T16:11:02Z</time>
      </trkpt>
      <trkpt lat="44.15676" lon="7.19609">
        <ele>2040.3212220981</ele>
        <time>2016-09-25T16:11:07Z</time>
      </trkpt>
      <trkpt lat="44.15682" lon="7.19616">
        <ele>2040.3212220981</ele>
        <time>2016-09-25T16:11:14Z</time>
      </trkpt>
      <trkpt lat="44.15683" lon="7.19621">
        <ele>2039.5773255982</ele>
        <time>2016-09-25T16:11:17Z</time>
      </trkpt>
      <trkpt lat="44.15686" lon="7.19628">
        <ele>2039.5773255982</ele>
        <time>2016-09-25T16:11:22Z</time>
      </trkpt>
      <trkpt lat="44.15688" lon="7.19635">
        <ele>2038.3490668998</ele>
        <time>2016-09-25T16:11:27Z</time>
      </trkpt>
      <trkpt lat="44.1569" lon="7.19643">
        <ele>2038.3490668998</ele>
        <time>2016-09-25T16:11:32Z</time>
      </trkpt>
      <trkpt lat="44.1569" lon="7.19651">
        <ele>2037.7016620285</ele>
        <time>2016-09-25T16:11:37Z</time>
      </trkpt>
      <trkpt lat="44.15697" lon="7.19667">
        <ele>2037.6838024591</ele>
        <time>2016-09-25T16:11:48Z</time>
      </trkpt>
      <trkpt lat="44.15697" lon="7.19676">
        <ele>2037.6838024591</ele>
        <time>2016-09-25T16:11:52Z</time>
      </trkpt>
      <trkpt lat="44.15696" lon="7.19694">
        <ele>2037.8200943887</ele>
        <time>2016-09-25T16:12:03Z</time>
      </trkpt>
      <trkpt lat="44.15694" lon="7.19702">
        <ele>2037.8200943887</ele>
        <time>2016-09-25T16:12:08Z</time>
      </trkpt>
      <trkpt lat="44.15697" lon="7.19726">
        <ele>2038.1596533975</ele>
        <time>2016-09-25T16:12:22Z</time>
      </trkpt>
      <trkpt lat="44.15703" lon="7.19744">
        <ele>2038.7906800201</ele>
        <time>2016-09-25T16:12:37Z</time>
      </trkpt>
      <trkpt lat="44.15699" lon="7.19754">
        <ele>2038.7906800201</ele>
        <time>2016-09-25T16:12:42Z</time>
      </trkpt>
      <trkpt lat="44.1569" lon="7.19767">
        <ele>2038.9726642891</ele>
        <time>2016-09-25T16:12:53Z</time>
      </trkpt>
      <trkpt lat="44.15689" lon="7.19769">
        <ele>2038.9726642891</ele>
        <time>2016-09-25T16:12:57Z</time>
      </trkpt>
      <trkpt lat="44.15683" lon="7.19769">
        <ele>2038.9726642891</ele>
        <time>2016-09-25T16:13:08Z</time>
      </trkpt>
      <trkpt lat="44.15678" lon="7.19768">
        <ele>2038.4963304576</ele>
        <time>2016-09-25T16:13:13Z</time>
      </trkpt>
      <trkpt lat="44.15677" lon="7.19766">
        <ele>2038.4963304576</ele>
        <time>2016-09-25T16:13:17Z</time>
      </trkpt>
      <trkpt lat="44.15677" lon="7.19766">
        <ele>2038.4963304576</ele>
        <time>2016-09-25T16:13:22Z</time>
      </trkpt>
      <trkpt lat="44.15677" lon="7.19766">
        <ele>2038.4963304576</ele>
        <time>2016-09-25T16:13:27Z</time>
      </trkpt>
      <trkpt lat="44.15677" lon="7.19766">
        <ele>2038.4963304576</ele>
        <time>2016-09-25T16:13:32Z</time>
      </trkpt>
      <trkpt lat="44.15677" lon="7.19766">
        <ele>2038.4963304576</ele>
        <time>2016-09-25T16:13:37Z</time>
      </trkpt>
      <trkpt lat="44.15676" lon="7.19766">
        <ele>2038.4963304576</ele>
        <time>2016-09-25T16:13:42Z</time>
      </trkpt>
      <trkpt lat="44.15671" lon="7.19765">
        <ele>2038.4963304576</ele>
        <time>2016-09-25T16:13:48Z</time>
      </trkpt>
      <trkpt lat="44.15655" lon="7.19759">
        <ele>2038.0487012895</ele>
        <time>2016-09-25T16:14:02Z</time>
      </trkpt>
      <trkpt lat="44.15646" lon="7.19757">
        <ele>2038.0487012895</ele>
        <time>2016-09-25T16:14:17Z</time>
      </trkpt>
      <trkpt lat="44.15636" lon="7.19756">
        <ele>2038.1941855657</ele>
        <time>2016-09-25T16:14:22Z</time>
      </trkpt>
      <trkpt lat="44.15614" lon="7.19753">
        <ele>2039.2955266511</ele>
        <time>2016-09-25T16:14:33Z</time>
      </trkpt>
      <trkpt lat="44.15605" lon="7.19751">
        <ele>2039.2955266511</ele>
        <time>2016-09-25T16:14:37Z</time>
      </trkpt>
      <trkpt lat="44.15592" lon="7.19742">
        <ele>2040.7205709671</ele>
        <time>2016-09-25T16:14:48Z</time>
      </trkpt>
      <trkpt lat="44.15586" lon="7.19743">
        <ele>2040.7205709671</ele>
        <time>2016-09-25T16:14:53Z</time>
      </trkpt>
      <trkpt lat="44.15577" lon="7.19738">
        <ele>2041.9835467702</ele>
        <time>2016-09-25T16:15:02Z</time>
      </trkpt>
      <trkpt lat="44.15571" lon="7.19735">
        <ele>2041.9835467702</ele>
        <time>2016-09-25T16:15:08Z</time>
      </trkpt>
      <trkpt lat="44.15559" lon="7.19737">
        <ele>2042.5915630535</ele>
        <time>2016-09-25T16:15:18Z</time>
      </trkpt>
      <trkpt lat="44.15555" lon="7.19735">
        <ele>2042.5915630535</ele>
        <time>2016-09-25T16:15:22Z</time>
      </trkpt>
      <trkpt lat="44.15541" lon="7.19736">
        <ele>2043.833496025</ele>
        <time>2016-09-25T16:15:33Z</time>
      </trkpt>
      <trkpt lat="44.15539" lon="7.19737">
        <ele>2043.833496025</ele>
        <time>2016-09-25T16:15:37Z</time>
      </trkpt>
      <trkpt lat="44.15536" lon="7.1974">
        <ele>2043.833496025</ele>
        <time>2016-09-25T16:15:47Z</time>
      </trkpt>
      <trkpt lat="44.15535" lon="7.19741">
        <ele>2043.833496025</ele>
        <time>2016-09-25T16:15:52Z</time>
      </trkpt>
      <trkpt lat="44.15522" lon="7.19753">
        <ele>2044.3509736797</ele>
        <time>2016-09-25T16:16:02Z</time>
      </trkpt>
      <trkpt lat="44.15516" lon="7.19759">
        <ele>2044.3509736797</ele>
        <time>2016-09-25T16:16:07Z</time>
      </trkpt>
      <trkpt lat="44.15495" lon="7.19768">
        <ele>2044.3285295175</ele>
        <time>2016-09-25T16:16:22Z</time>
      </trkpt>
      <trkpt lat="44.15486" lon="7.19772">
        <ele>2044.990641803</ele>
        <time>2016-09-25T16:16:27Z</time>
      </trkpt>
      <trkpt lat="44.15473" lon="7.19772">
        <ele>2045.3514560895</ele>
        <time>2016-09-25T16:16:37Z</time>
      </trkpt>
      <trkpt lat="44.15467" lon="7.19772">
        <ele>2045.3514560895</ele>
        <time>2016-09-25T16:16:42Z</time>
      </trkpt>
      <trkpt lat="44.15457" lon="7.19768">
        <ele>2045.0315610592</ele>
        <time>2016-09-25T16:16:52Z</time>
      </trkpt>
      <trkpt lat="44.15452" lon="7.19766">
        <ele>2045.0315610592</ele>
        <time>2016-09-25T16:16:57Z</time>
      </trkpt>
      <trkpt lat="44.15441" lon="7.19771">
        <ele>2044.373020224</ele>
        <time>2016-09-25T16:17:07Z</time>
      </trkpt>
      <trkpt lat="44.15437" lon="7.19774">
        <ele>2044.373020224</ele>
        <time>2016-09-25T16:17:12Z</time>
      </trkpt>
      <trkpt lat="44.15436" lon="7.1978">
        <ele>2043.636028081</ele>
        <time>2016-09-25T16:17:22Z</time>
      </trkpt>
      <trkpt lat="44.15433" lon="7.19784">
        <ele>2043.636028081</ele>
        <time>2016-09-25T16:17:27Z</time>
      </trkpt>
      <trkpt lat="44.15422" lon="7.19801">
        <ele>2042.5430289284</ele>
        <time>2016-09-25T16:17:42Z</time>
      </trkpt>
      <trkpt lat="44.15416" lon="7.19807">
        <ele>2042.5430289284</ele>
        <time>2016-09-25T16:17:47Z</time>
      </trkpt>
      <trkpt lat="44.15408" lon="7.1982">
        <ele>2041.6880438841</ele>
        <time>2016-09-25T16:17:57Z</time>
      </trkpt>
      <trkpt lat="44.15404" lon="7.19828">
        <ele>2041.6880438841</ele>
        <time>2016-09-25T16:18:02Z</time>
      </trkpt>
      <trkpt lat="44.154" lon="7.19836">
        <ele>2040.8425122655</ele>
        <time>2016-09-25T16:18:12Z</time>
      </trkpt>
      <trkpt lat="44.15398" lon="7.19844">
        <ele>2040.8425122655</ele>
        <time>2016-09-25T16:18:17Z</time>
      </trkpt>
      <trkpt lat="44.15397" lon="7.19858">
        <ele>2039.7945493025</ele>
        <time>2016-09-25T16:18:27Z</time>
      </trkpt>
      <trkpt lat="44.15397" lon="7.19859">
        <ele>2039.7945493025</ele>
        <time>2016-09-25T16:18:32Z</time>
      </trkpt>
      <trkpt lat="44.15396" lon="7.19859">
        <ele>2039.7945493025</ele>
        <time>2016-09-25T16:18:42Z</time>
      </trkpt>
      <trkpt lat="44.15395" lon="7.19864">
        <ele>2039.7945493025</ele>
        <time>2016-09-25T16:18:47Z</time>
      </trkpt>
      <trkpt lat="44.15391" lon="7.19869">
        <ele>2038.088904924</ele>
        <time>2016-09-25T16:18:57Z</time>
      </trkpt>
      <trkpt lat="44.15391" lon="7.19869">
        <ele>2038.088904924</ele>
        <time>2016-09-25T16:19:02Z</time>
      </trkpt>
      <trkpt lat="44.15391" lon="7.19869">
        <ele>2038.088904924</ele>
        <time>2016-09-25T16:19:12Z</time>
      </trkpt>
      <trkpt lat="44.15391" lon="7.19869">
        <ele>2038.088904924</ele>
        <time>2016-09-25T16:19:18Z</time>
      </trkpt>
      <trkpt lat="44.15378" lon="7.19875">
        <ele>2035.9828298597</ele>
        <time>2016-09-25T16:19:33Z</time>
      </trkpt>
      <trkpt lat="44.15371" lon="7.19884">
        <ele>2034.4506473782</ele>
        <time>2016-09-25T16:19:42Z</time>
      </trkpt>
      <trkpt lat="44.1537" lon="7.19887">
        <ele>2034.4506473782</ele>
        <time>2016-09-25T16:19:47Z</time>
      </trkpt>
      <trkpt lat="44.15368" lon="7.19905">
        <ele>2033.6007555202</ele>
        <time>2016-09-25T16:19:58Z</time>
      </trkpt>
      <trkpt lat="44.15368" lon="7.19912">
        <ele>2033.6007555202</ele>
        <time>2016-09-25T16:20:02Z</time>
      </trkpt>
      <trkpt lat="44.15367" lon="7.1992">
        <ele>2032.2921791362</ele>
        <time>2016-09-25T16:20:07Z</time>
      </trkpt>
      <trkpt lat="44.15364" lon="7.19939">
        <ele>2032.1493675664</ele>
        <time>2016-09-25T16:20:18Z</time>
      </trkpt>
      <trkpt lat="44.15363" lon="7.19948">
        <ele>2032.1493675664</ele>
        <time>2016-09-25T16:20:22Z</time>
      </trkpt>
      <trkpt lat="44.1537" lon="7.19966">
        <ele>2030.9847743289</ele>
        <time>2016-09-25T16:20:33Z</time>
      </trkpt>
      <trkpt lat="44.15375" lon="7.19975">
        <ele>2030.9847743289</ele>
        <time>2016-09-25T16:20:39Z</time>
      </trkpt>
      <trkpt lat="44.15376" lon="7.19988">
        <ele>2030.0167667581</ele>
        <time>2016-09-25T16:20:47Z</time>
      </trkpt>
      <trkpt lat="44.15372" lon="7.19996">
        <ele>2030.0167667581</ele>
        <time>2016-09-25T16:20:53Z</time>
      </trkpt>
      <trkpt lat="44.15364" lon="7.2001">
        <ele>2028.8747532644</ele>
        <time>2016-09-25T16:21:02Z</time>
      </trkpt>
      <trkpt lat="44.15365" lon="7.20018">
        <ele>2028.8747532644</ele>
        <time>2016-09-25T16:21:07Z</time>
      </trkpt>
      <trkpt lat="44.15368" lon="7.20029">
        <ele>2028.2388924346</ele>
        <time>2016-09-25T16:21:18Z</time>
      </trkpt>
      <trkpt lat="44.15372" lon="7.20037">
        <ele>2028.2388924346</ele>
        <time>2016-09-25T16:21:22Z</time>
      </trkpt>
      <trkpt lat="44.15374" lon="7.20052">
        <ele>2028.1613643728</ele>
        <time>2016-09-25T16:21:33Z</time>
      </trkpt>
      <trkpt lat="44.15377" lon="7.20056">
        <ele>2028.1613643728</ele>
        <time>2016-09-25T16:21:38Z</time>
      </trkpt>
      <trkpt lat="44.15379" lon="7.20067">
        <ele>2027.1468117307</ele>
        <time>2016-09-25T16:21:47Z</time>
      </trkpt>
      <trkpt lat="44.15375" lon="7.20081">
        <ele>2026.4782647936</ele>
        <time>2016-09-25T16:21:53Z</time>
      </trkpt>
      <trkpt lat="44.15374" lon="7.20093">
        <ele>2026.4782647936</ele>
        <time>2016-09-25T16:22:03Z</time>
      </trkpt>
      <trkpt lat="44.15374" lon="7.20099">
        <ele>2025.3114220529</ele>
        <time>2016-09-25T16:22:07Z</time>
      </trkpt>
      <trkpt lat="44.15372" lon="7.20116">
        <ele>2024.551361839</ele>
        <time>2016-09-25T16:22:17Z</time>
      </trkpt>
      <trkpt lat="44.15371" lon="7.20126">
        <ele>2024.551361839</ele>
        <time>2016-09-25T16:22:23Z</time>
      </trkpt>
      <trkpt lat="44.15368" lon="7.20143">
        <ele>2025.1506871948</ele>
        <time>2016-09-25T16:22:32Z</time>
      </trkpt>
      <trkpt lat="44.15365" lon="7.20146">
        <ele>2025.1506871948</ele>
        <time>2016-09-25T16:22:37Z</time>
      </trkpt>
      <trkpt lat="44.15351" lon="7.20151">
        <ele>2026.2731577607</ele>
        <time>2016-09-25T16:22:48Z</time>
      </trkpt>
      <trkpt lat="44.15348" lon="7.20151">
        <ele>2026.2731577607</ele>
        <time>2016-09-25T16:22:52Z</time>
      </trkpt>
      <trkpt lat="44.15336" lon="7.20155">
        <ele>2026.8109198888</ele>
        <time>2016-09-25T16:23:03Z</time>
      </trkpt>
      <trkpt lat="44.15332" lon="7.20152">
        <ele>2026.8109198888</ele>
        <time>2016-09-25T16:23:08Z</time>
      </trkpt>
      <trkpt lat="44.15329" lon="7.20149">
        <ele>2026.8109198888</ele>
        <time>2016-09-25T16:23:12Z</time>
      </trkpt>
      <trkpt lat="44.1532" lon="7.20148">
        <ele>2026.4307675506</ele>
        <time>2016-09-25T16:23:23Z</time>
      </trkpt>
      <trkpt lat="44.15315" lon="7.20149">
        <ele>2026.4307675506</ele>
        <time>2016-09-25T16:23:27Z</time>
      </trkpt>
      <trkpt lat="44.15307" lon="7.20151">
        <ele>2026.4693174907</ele>
        <time>2016-09-25T16:23:37Z</time>
      </trkpt>
      <trkpt lat="44.15298" lon="7.20155">
        <ele>2027.4143611137</ele>
        <time>2016-09-25T16:23:52Z</time>
      </trkpt>
      <trkpt lat="44.15294" lon="7.20158">
        <ele>2027.4143611137</ele>
        <time>2016-09-25T16:23:58Z</time>
      </trkpt>
      <trkpt lat="44.15293" lon="7.2016">
        <ele>2027.4143611137</ele>
        <time>2016-09-25T16:24:08Z</time>
      </trkpt>
      <trkpt lat="44.15291" lon="7.20162">
        <ele>2027.4143611137</ele>
        <time>2016-09-25T16:24:12Z</time>
      </trkpt>
      <trkpt lat="44.15285" lon="7.2017">
        <ele>2028.5335270228</ele>
        <time>2016-09-25T16:24:23Z</time>
      </trkpt>
      <trkpt lat="44.1528" lon="7.20173">
        <ele>2028.5335270228</ele>
        <time>2016-09-25T16:24:28Z</time>
      </trkpt>
      <trkpt lat="44.15273" lon="7.20184">
        <ele>2029.378268296</ele>
        <time>2016-09-25T16:24:43Z</time>
      </trkpt>
      <trkpt lat="44.15268" lon="7.2019">
        <ele>2029.378268296</ele>
        <time>2016-09-25T16:24:58Z</time>
      </trkpt>
      <trkpt lat="44.15262" lon="7.20204">
        <ele>2030.5424846831</ele>
        <time>2016-09-25T16:25:12Z</time>
      </trkpt>
      <trkpt lat="44.15256" lon="7.20209">
        <ele>2030.5424846831</ele>
        <time>2016-09-25T16:25:17Z</time>
      </trkpt>
      <trkpt lat="44.15247" lon="7.20222">
        <ele>2032.373760147</ele>
        <time>2016-09-25T16:25:28Z</time>
      </trkpt>
      <trkpt lat="44.15243" lon="7.20228">
        <ele>2032.373760147</ele>
        <time>2016-09-25T16:25:32Z</time>
      </trkpt>
      <trkpt lat="44.15243" lon="7.20234">
        <ele>2034.5581642538</ele>
        <time>2016-09-25T16:25:43Z</time>
      </trkpt>
      <trkpt lat="44.15242" lon="7.20236">
        <ele>2034.5581642538</ele>
        <time>2016-09-25T16:25:48Z</time>
      </trkpt>
      <trkpt lat="44.15235" lon="7.20238">
        <ele>2034.5581642538</ele>
        <time>2016-09-25T16:25:57Z</time>
      </trkpt>
      <trkpt lat="44.15234" lon="7.20242">
        <ele>2036.5300215689</ele>
        <time>2016-09-25T16:26:03Z</time>
      </trkpt>
      <trkpt lat="44.15229" lon="7.20246">
        <ele>2036.5300215689</ele>
        <time>2016-09-25T16:26:12Z</time>
      </trkpt>
      <trkpt lat="44.15224" lon="7.20248">
        <ele>2038.1837419536</ele>
        <time>2016-09-25T16:26:17Z</time>
      </trkpt>
      <trkpt lat="44.15211" lon="7.20258">
        <ele>2040.0565025133</ele>
        <time>2016-09-25T16:26:29Z</time>
      </trkpt>
      <trkpt lat="44.15207" lon="7.2026">
        <ele>2040.0565025133</ele>
        <time>2016-09-25T16:26:32Z</time>
      </trkpt>
      <trkpt lat="44.15198" lon="7.20263">
        <ele>2042.3860498396</ele>
        <time>2016-09-25T16:26:43Z</time>
      </trkpt>
      <trkpt lat="44.15193" lon="7.20264">
        <ele>2042.3860498396</ele>
        <time>2016-09-25T16:26:48Z</time>
      </trkpt>
      <trkpt lat="44.15188" lon="7.20265">
        <ele>2044.3250203647</ele>
        <time>2016-09-25T16:26:57Z</time>
      </trkpt>
      <trkpt lat="44.15185" lon="7.20265">
        <ele>2044.3250203647</ele>
        <time>2016-09-25T16:27:03Z</time>
      </trkpt>
      <trkpt lat="44.15179" lon="7.20264">
        <ele>2046.602632523</ele>
        <time>2016-09-25T16:27:12Z</time>
      </trkpt>
      <trkpt lat="44.15176" lon="7.20265">
        <ele>2046.602632523</ele>
        <time>2016-09-25T16:27:18Z</time>
      </trkpt>
      <trkpt lat="44.15174" lon="7.20266">
        <ele>2046.602632523</ele>
        <time>2016-09-25T16:27:28Z</time>
      </trkpt>
      <trkpt lat="44.15172" lon="7.20265">
        <ele>2046.602632523</ele>
        <time>2016-09-25T16:27:32Z</time>
      </trkpt>
      <trkpt lat="44.15165" lon="7.20268">
        <ele>2048.9137163924</ele>
        <time>2016-09-25T16:27:43Z</time>
      </trkpt>
      <trkpt lat="44.1516" lon="7.20268">
        <ele>2048.9137163924</ele>
        <time>2016-09-25T16:27:47Z</time>
      </trkpt>
      <trkpt lat="44.15155" lon="7.20268">
        <ele>2051.4655022575</ele>
        <time>2016-09-25T16:27:52Z</time>
      </trkpt>
      <trkpt lat="44.15151" lon="7.20271">
        <ele>2051.4655022575</ele>
        <time>2016-09-25T16:27:58Z</time>
      </trkpt>
      <trkpt lat="44.15151" lon="7.20272">
        <ele>2051.4655022575</ele>
        <time>2016-09-25T16:28:02Z</time>
      </trkpt>
      <trkpt lat="44.15151" lon="7.20271">
        <ele>2051.4655022575</ele>
        <time>2016-09-25T16:28:07Z</time>
      </trkpt>
      <trkpt lat="44.15151" lon="7.20271">
        <ele>2051.4655022575</ele>
        <time>2016-09-25T16:28:13Z</time>
      </trkpt>
      <trkpt lat="44.15151" lon="7.20267">
        <ele>2051.4655022575</ele>
        <time>2016-09-25T16:28:22Z</time>
      </trkpt>
      <trkpt lat="44.1515" lon="7.20266">
        <ele>2052.7345078295</ele>
        <time>2016-09-25T16:28:27Z</time>
      </trkpt>
      <trkpt lat="44.15149" lon="7.20265">
        <ele>2052.7345078295</ele>
        <time>2016-09-25T16:28:32Z</time>
      </trkpt>
      <trkpt lat="44.15143" lon="7.20263">
        <ele>2052.7345078295</ele>
        <time>2016-09-25T16:28:37Z</time>
      </trkpt>
      <trkpt lat="44.15137" lon="7.20261">
        <ele>2054.5842047981</ele>
        <time>2016-09-25T16:28:42Z</time>
      </trkpt>
      <trkpt lat="44.15131" lon="7.2026">
        <ele>2054.5842047981</ele>
        <time>2016-09-25T16:28:47Z</time>
      </trkpt>
      <trkpt lat="44.15122" lon="7.20257">
        <ele>2056.1312583246</ele>
        <time>2016-09-25T16:28:57Z</time>
      </trkpt>
      <trkpt lat="44.15119" lon="7.20257">
        <ele>2056.1312583246</ele>
        <time>2016-09-25T16:29:02Z</time>
      </trkpt>
      <trkpt lat="44.15111" lon="7.20262">
        <ele>2058.4604687451</ele>
        <time>2016-09-25T16:29:12Z</time>
      </trkpt>
      <trkpt lat="44.15108" lon="7.20264">
        <ele>2058.4604687451</ele>
        <time>2016-09-25T16:29:17Z</time>
      </trkpt>
      <trkpt lat="44.15099" lon="7.2027">
        <ele>2060.1682297956</ele>
        <time>2016-09-25T16:29:29Z</time>
      </trkpt>
      <trkpt lat="44.15097" lon="7.20271">
        <ele>2060.1682297956</ele>
        <time>2016-09-25T16:29:32Z</time>
      </trkpt>
      <trkpt lat="44.15095" lon="7.20289">
        <ele>2061.613201113</ele>
        <time>2016-09-25T16:29:48Z</time>
      </trkpt>
      <trkpt lat="44.15093" lon="7.20298">
        <ele>2061.613201113</ele>
        <time>2016-09-25T16:29:57Z</time>
      </trkpt>
      <trkpt lat="44.15091" lon="7.203">
        <ele>2062.4368360288</ele>
        <time>2016-09-25T16:30:02Z</time>
      </trkpt>
      <trkpt lat="44.15087" lon="7.20308">
        <ele>2062.4368360288</ele>
        <time>2016-09-25T16:30:13Z</time>
      </trkpt>
      <trkpt lat="44.15084" lon="7.20312">
        <ele>2063.3031726058</ele>
        <time>2016-09-25T16:30:17Z</time>
      </trkpt>
      <trkpt lat="44.15081" lon="7.2032">
        <ele>2063.3031726058</ele>
        <time>2016-09-25T16:30:22Z</time>
      </trkpt>
      <trkpt lat="44.1508" lon="7.20326">
        <ele>2064.1357477171</ele>
        <time>2016-09-25T16:30:28Z</time>
      </trkpt>
      <trkpt lat="44.15079" lon="7.20328">
        <ele>2064.1357477171</ele>
        <time>2016-09-25T16:30:33Z</time>
      </trkpt>
      <trkpt lat="44.15079" lon="7.20329">
        <ele>2064.1357477171</ele>
        <time>2016-09-25T16:30:37Z</time>
      </trkpt>
      <trkpt lat="44.15074" lon="7.20336">
        <ele>2064.69100242</ele>
        <time>2016-09-25T16:30:48Z</time>
      </trkpt>
      <trkpt lat="44.15073" lon="7.20337">
        <ele>2064.69100242</ele>
        <time>2016-09-25T16:30:53Z</time>
      </trkpt>
      <trkpt lat="44.15073" lon="7.20338">
        <ele>2064.69100242</ele>
        <time>2016-09-25T16:31:02Z</time>
      </trkpt>
      <trkpt lat="44.15068" lon="7.20345">
        <ele>2064.69100242</ele>
        <time>2016-09-25T16:31:08Z</time>
      </trkpt>
      <trkpt lat="44.15061" lon="7.20357">
        <ele>2064.527998148</ele>
        <time>2016-09-25T16:31:17Z</time>
      </trkpt>
      <trkpt lat="44.1506" lon="7.20358">
        <ele>2064.527998148</ele>
        <time>2016-09-25T16:31:22Z</time>
      </trkpt>
      <trkpt lat="44.15057" lon="7.20361">
        <ele>2064.527998148</ele>
        <time>2016-09-25T16:31:32Z</time>
      </trkpt>
      <trkpt lat="44.15048" lon="7.20366">
        <ele>2064.4940774611</ele>
        <time>2016-09-25T16:31:37Z</time>
      </trkpt>
      <trkpt lat="44.15038" lon="7.20382">
        <ele>2064.6679281157</ele>
        <time>2016-09-25T16:31:47Z</time>
      </trkpt>
      <trkpt lat="44.15034" lon="7.20392">
        <ele>2064.6679281157</ele>
        <time>2016-09-25T16:31:52Z</time>
      </trkpt>
      <trkpt lat="44.15022" lon="7.2041">
        <ele>2065.583117597</ele>
        <time>2016-09-25T16:32:02Z</time>
      </trkpt>
      <trkpt lat="44.15017" lon="7.20419">
        <ele>2065.583117597</ele>
        <time>2016-09-25T16:32:07Z</time>
      </trkpt>
      <trkpt lat="44.15009" lon="7.20439">
        <ele>2067.2708620917</ele>
        <time>2016-09-25T16:32:18Z</time>
      </trkpt>
      <trkpt lat="44.15006" lon="7.20445">
        <ele>2067.2708620917</ele>
        <time>2016-09-25T16:32:22Z</time>
      </trkpt>
      <trkpt lat="44.15003" lon="7.20463">
        <ele>2068.6483364947</ele>
        <time>2016-09-25T16:32:38Z</time>
      </trkpt>
      <trkpt lat="44.15002" lon="7.20469">
        <ele>2068.6483364947</ele>
        <time>2016-09-25T16:32:42Z</time>
      </trkpt>
      <trkpt lat="44.15001" lon="7.20473">
        <ele>2068.6483364947</ele>
        <time>2016-09-25T16:32:53Z</time>
      </trkpt>
      <trkpt lat="44.1502" lon="7.20486">
        <ele>2070.3272488959</ele>
        <time>2016-09-25T16:33:07Z</time>
      </trkpt>
      <trkpt lat="44.15018" lon="7.20492">
        <ele>2070.3272488959</ele>
        <time>2016-09-25T16:33:13Z</time>
      </trkpt>
      <trkpt lat="44.15024" lon="7.20506">
        <ele>2071.0001543116</ele>
        <time>2016-09-25T16:33:22Z</time>
      </trkpt>
      <trkpt lat="44.15025" lon="7.20514">
        <ele>2071.0001543116</ele>
        <time>2016-09-25T16:33:27Z</time>
      </trkpt>
      <trkpt lat="44.15026" lon="7.20526">
        <ele>2071.6058026594</ele>
        <time>2016-09-25T16:33:38Z</time>
      </trkpt>
      <trkpt lat="44.15025" lon="7.2053">
        <ele>2071.6058026594</ele>
        <time>2016-09-25T16:33:42Z</time>
      </trkpt>
      <trkpt lat="44.15027" lon="7.20537">
        <ele>2071.6058026594</ele>
        <time>2016-09-25T16:33:53Z</time>
      </trkpt>
      <trkpt lat="44.15028" lon="7.20537">
        <ele>2071.6058026594</ele>
        <time>2016-09-25T16:33:58Z</time>
      </trkpt>
      <trkpt lat="44.15032" lon="7.20544">
        <ele>2071.6307732367</ele>
        <time>2016-09-25T16:34:07Z</time>
      </trkpt>
      <trkpt lat="44.15038" lon="7.2055">
        <ele>2071.6307732367</ele>
        <time>2016-09-25T16:34:12Z</time>
      </trkpt>
      <trkpt lat="44.15043" lon="7.20556">
        <ele>2070.9325055382</ele>
        <time>2016-09-25T16:34:17Z</time>
      </trkpt>
      <trkpt lat="44.15047" lon="7.20561">
        <ele>2070.9325055382</ele>
        <time>2016-09-25T16:34:22Z</time>
      </trkpt>
      <trkpt lat="44.15053" lon="7.20566">
        <ele>2069.3233430729</ele>
        <time>2016-09-25T16:34:27Z</time>
      </trkpt>
      <trkpt lat="44.15061" lon="7.20581">
        <ele>2067.3957897051</ele>
        <time>2016-09-25T16:34:37Z</time>
      </trkpt>
      <trkpt lat="44.15064" lon="7.20589">
        <ele>2067.3957897051</ele>
        <time>2016-09-25T16:34:42Z</time>
      </trkpt>
      <trkpt lat="44.1508" lon="7.20605">
        <ele>2066.6364529813</ele>
        <time>2016-09-25T16:34:52Z</time>
      </trkpt>
      <trkpt lat="44.15085" lon="7.20614">
        <ele>2066.6364529813</ele>
        <time>2016-09-25T16:34:57Z</time>
      </trkpt>
      <trkpt lat="44.15094" lon="7.2062">
        <ele>2065.4507617028</ele>
        <time>2016-09-25T16:35:08Z</time>
      </trkpt>
      <trkpt lat="44.15093" lon="7.20629">
        <ele>2065.4507617028</ele>
        <time>2016-09-25T16:35:13Z</time>
      </trkpt>
      <trkpt lat="44.15095" lon="7.20641">
        <ele>2065.1582112845</ele>
        <time>2016-09-25T16:35:22Z</time>
      </trkpt>
      <trkpt lat="44.151" lon="7.20643">
        <ele>2065.1582112845</ele>
        <time>2016-09-25T16:35:27Z</time>
      </trkpt>
      <trkpt lat="44.15099" lon="7.20642">
        <ele>2065.1582112845</ele>
        <time>2016-09-25T16:35:37Z</time>
      </trkpt>
      <trkpt lat="44.15099" lon="7.20643">
        <ele>2065.1582112845</ele>
        <time>2016-09-25T16:35:42Z</time>
      </trkpt>
      <trkpt lat="44.15099" lon="7.20643">
        <ele>2065.1582112845</ele>
        <time>2016-09-25T16:35:47Z</time>
      </trkpt>
      <trkpt lat="44.15099" lon="7.20643">
        <ele>2065.1582112845</ele>
        <time>2016-09-25T16:35:52Z</time>
      </trkpt>
      <trkpt lat="44.15099" lon="7.20643">
        <ele>2065.1582112845</ele>
        <time>2016-09-25T16:35:57Z</time>
      </trkpt>
      <trkpt lat="44.15099" lon="7.20644">
        <ele>2065.1582112845</ele>
        <time>2016-09-25T16:36:02Z</time>
      </trkpt>
      <trkpt lat="44.15097" lon="7.2065">
        <ele>2063.8227909613</ele>
        <time>2016-09-25T16:36:07Z</time>
      </trkpt>
      <trkpt lat="44.15096" lon="7.20674">
        <ele>2064.1642673779</ele>
        <time>2016-09-25T16:36:18Z</time>
      </trkpt>
      <trkpt lat="44.15097" lon="7.20682">
        <ele>2064.1642673779</ele>
        <time>2016-09-25T16:36:23Z</time>
      </trkpt>
      <trkpt lat="44.15099" lon="7.20704">
        <ele>2064.0430661938</ele>
        <time>2016-09-25T16:36:38Z</time>
      </trkpt>
      <trkpt lat="44.15096" lon="7.20718">
        <ele>2064.9511050683</ele>
        <time>2016-09-25T16:36:52Z</time>
      </trkpt>
      <trkpt lat="44.15098" lon="7.20737">
        <ele>2066.0340387348</ele>
        <time>2016-09-25T16:37:07Z</time>
      </trkpt>
      <trkpt lat="44.15098" lon="7.20749">
        <ele>2066.0340387348</ele>
        <time>2016-09-25T16:37:12Z</time>
      </trkpt>
      <trkpt lat="44.15099" lon="7.20769">
        <ele>2067.9552618078</ele>
        <time>2016-09-25T16:37:23Z</time>
      </trkpt>
      <trkpt lat="44.151" lon="7.20776">
        <ele>2067.9552618078</ele>
        <time>2016-09-25T16:37:27Z</time>
      </trkpt>
      <trkpt lat="44.15097" lon="7.20794">
        <ele>2071.2261650633</ele>
        <time>2016-09-25T16:37:38Z</time>
      </trkpt>
      <trkpt lat="44.15096" lon="7.20801">
        <ele>2071.2261650633</ele>
        <time>2016-09-25T16:37:43Z</time>
      </trkpt>
      <trkpt lat="44.15092" lon="7.20814">
        <ele>2073.6074680984</ele>
        <time>2016-09-25T16:37:52Z</time>
      </trkpt>
      <trkpt lat="44.15092" lon="7.20821">
        <ele>2073.6074680984</ele>
        <time>2016-09-25T16:37:58Z</time>
      </trkpt>
      <trkpt lat="44.15092" lon="7.20832">
        <ele>2076.3270159214</ele>
        <time>2016-09-25T16:38:07Z</time>
      </trkpt>
      <trkpt lat="44.15089" lon="7.20838">
        <ele>2076.3270159214</ele>
        <time>2016-09-25T16:38:12Z</time>
      </trkpt>
      <trkpt lat="44.15084" lon="7.20854">
        <ele>2078.5471895821</ele>
        <time>2016-09-25T16:38:23Z</time>
      </trkpt>
      <trkpt lat="44.15081" lon="7.20862">
        <ele>2078.5471895821</ele>
        <time>2016-09-25T16:38:27Z</time>
      </trkpt>
      <trkpt lat="44.15077" lon="7.20871">
        <ele>2079.7383094616</ele>
        <time>2016-09-25T16:38:38Z</time>
      </trkpt>
      <trkpt lat="44.15076" lon="7.20875">
        <ele>2079.7383094616</ele>
        <time>2016-09-25T16:38:43Z</time>
      </trkpt>
      <trkpt lat="44.1507" lon="7.20894">
        <ele>2080.6518764434</ele>
        <time>2016-09-25T16:38:58Z</time>
      </trkpt>
      <trkpt lat="44.15066" lon="7.20908">
        <ele>2081.8408876879</ele>
        <time>2016-09-25T16:39:07Z</time>
      </trkpt>
      <trkpt lat="44.15063" lon="7.20915">
        <ele>2081.8408876879</ele>
        <time>2016-09-25T16:39:12Z</time>
      </trkpt>
      <trkpt lat="44.15058" lon="7.20931">
        <ele>2081.7273667022</ele>
        <time>2016-09-25T16:39:23Z</time>
      </trkpt>
      <trkpt lat="44.15056" lon="7.20934">
        <ele>2081.7273667022</ele>
        <time>2016-09-25T16:39:27Z</time>
      </trkpt>
      <trkpt lat="44.15054" lon="7.20941">
        <ele>2081.7273667022</ele>
        <time>2016-09-25T16:39:32Z</time>
      </trkpt>
      <trkpt lat="44.15044" lon="7.20957">
        <ele>2081.9513296079</ele>
        <time>2016-09-25T16:39:43Z</time>
      </trkpt>
      <trkpt lat="44.15043" lon="7.20959">
        <ele>2081.9513296079</ele>
        <time>2016-09-25T16:39:47Z</time>
      </trkpt>
      <trkpt lat="44.15033" lon="7.20969">
        <ele>2082.1003082751</ele>
        <time>2016-09-25T16:39:58Z</time>
      </trkpt>
      <trkpt lat="44.15026" lon="7.20973">
        <ele>2082.1003082751</ele>
        <time>2016-09-25T16:40:03Z</time>
      </trkpt>
      <trkpt lat="44.15015" lon="7.20978">
        <ele>2082.4552771205</ele>
        <time>2016-09-25T16:40:12Z</time>
      </trkpt>
      <trkpt lat="44.15008" lon="7.20979">
        <ele>2082.4552771205</ele>
        <time>2016-09-25T16:40:18Z</time>
      </trkpt>
      <trkpt lat="44.15" lon="7.20982">
        <ele>2083.0166077077</ele>
        <time>2016-09-25T16:40:27Z</time>
      </trkpt>
      <trkpt lat="44.14997" lon="7.20983">
        <ele>2083.0166077077</ele>
        <time>2016-09-25T16:40:32Z</time>
      </trkpt>
      <trkpt lat="44.14991" lon="7.20983">
        <ele>2083.2508644137</ele>
        <time>2016-09-25T16:40:43Z</time>
      </trkpt>
      <trkpt lat="44.14987" lon="7.20982">
        <ele>2083.2508644137</ele>
        <time>2016-09-25T16:40:47Z</time>
      </trkpt>
      <trkpt lat="44.14982" lon="7.20985">
        <ele>2083.7023217757</ele>
        <time>2016-09-25T16:40:59Z</time>
      </trkpt>
      <trkpt lat="44.14976" lon="7.20989">
        <ele>2083.7023217757</ele>
        <time>2016-09-25T16:41:03Z</time>
      </trkpt>
      <trkpt lat="44.14973" lon="7.20991">
        <ele>2083.8802983821</ele>
        <time>2016-09-25T16:41:07Z</time>
      </trkpt>
      <trkpt lat="44.14967" lon="7.20995">
        <ele>2083.8802983821</ele>
        <time>2016-09-25T16:41:17Z</time>
      </trkpt>
      <trkpt lat="44.14966" lon="7.20997">
        <ele>2083.8802983821</ele>
        <time>2016-09-25T16:41:23Z</time>
      </trkpt>
      <trkpt lat="44.14966" lon="7.20996">
        <ele>2083.8802983821</ele>
        <time>2016-09-25T16:41:33Z</time>
      </trkpt>
      <trkpt lat="44.14967" lon="7.20996">
        <ele>2083.8802983821</ele>
        <time>2016-09-25T16:41:37Z</time>
      </trkpt>
      <trkpt lat="44.14966" lon="7.20998">
        <ele>2085.0602595619</ele>
        <time>2016-09-25T16:41:48Z</time>
      </trkpt>
      <trkpt lat="44.14966" lon="7.20998">
        <ele>2085.0602595619</ele>
        <time>2016-09-25T16:41:53Z</time>
      </trkpt>
      <trkpt lat="44.14962" lon="7.20999">
        <ele>2085.0602595619</ele>
        <time>2016-09-25T16:42:02Z</time>
      </trkpt>
      <trkpt lat="44.14961" lon="7.21003">
        <ele>2085.0602595619</ele>
        <time>2016-09-25T16:42:08Z</time>
      </trkpt>
      <trkpt lat="44.14956" lon="7.21008">
        <ele>2085.337183507</ele>
        <time>2016-09-25T16:42:17Z</time>
      </trkpt>
      <trkpt lat="44.14951" lon="7.21013">
        <ele>2085.337183507</ele>
        <time>2016-09-25T16:42:22Z</time>
      </trkpt>
      <trkpt lat="44.14944" lon="7.21028">
        <ele>2085.0237189288</ele>
        <time>2016-09-25T16:42:33Z</time>
      </trkpt>
      <trkpt lat="44.14941" lon="7.21034">
        <ele>2085.0237189288</ele>
        <time>2016-09-25T16:42:37Z</time>
      </trkpt>
      <trkpt lat="44.14933" lon="7.21044">
        <ele>2084.7858838315</ele>
        <time>2016-09-25T16:42:48Z</time>
      </trkpt>
      <trkpt lat="44.14929" lon="7.2105">
        <ele>2084.7858838315</ele>
        <time>2016-09-25T16:42:53Z</time>
      </trkpt>
      <trkpt lat="44.1492" lon="7.2106">
        <ele>2084.5920447613</ele>
        <time>2016-09-25T16:43:02Z</time>
      </trkpt>
      <trkpt lat="44.14913" lon="7.21062">
        <ele>2084.5920447613</ele>
        <time>2016-09-25T16:43:08Z</time>
      </trkpt>
      <trkpt lat="44.14896" lon="7.21062">
        <ele>2084.3695148911</ele>
        <time>2016-09-25T16:43:22Z</time>
      </trkpt>
      <trkpt lat="44.14886" lon="7.21055">
        <ele>2084.5842124563</ele>
        <time>2016-09-25T16:43:33Z</time>
      </trkpt>
      <trkpt lat="44.14881" lon="7.21051">
        <ele>2084.5842124563</ele>
        <time>2016-09-25T16:43:37Z</time>
      </trkpt>
      <trkpt lat="44.14874" lon="7.21043">
        <ele>2084.8883719977</ele>
        <time>2016-09-25T16:43:42Z</time>
      </trkpt>
      <trkpt lat="44.14867" lon="7.21039">
        <ele>2084.8883719977</ele>
        <time>2016-09-25T16:43:49Z</time>
      </trkpt>
      <trkpt lat="44.14862" lon="7.21038">
        <ele>2084.8730226821</ele>
        <time>2016-09-25T16:43:52Z</time>
      </trkpt>
      <trkpt lat="44.14845" lon="7.2103">
        <ele>2084.0880388502</ele>
        <time>2016-09-25T16:44:07Z</time>
      </trkpt>
      <trkpt lat="44.14833" lon="7.21034">
        <ele>2082.9687323845</ele>
        <time>2016-09-25T16:44:22Z</time>
      </trkpt>
      <trkpt lat="44.14827" lon="7.21035">
        <ele>2082.9687323845</ele>
        <time>2016-09-25T16:44:28Z</time>
      </trkpt>
      <trkpt lat="44.14821" lon="7.21038">
        <ele>2081.7896246984</ele>
        <time>2016-09-25T16:44:38Z</time>
      </trkpt>
      <trkpt lat="44.14818" lon="7.21038">
        <ele>2081.7896246984</ele>
        <time>2016-09-25T16:44:42Z</time>
      </trkpt>
      <trkpt lat="44.14803" lon="7.21042">
        <ele>2080.4016674017</ele>
        <time>2016-09-25T16:44:52Z</time>
      </trkpt>
      <trkpt lat="44.14793" lon="7.21047">
        <ele>2078.8834426235</ele>
        <time>2016-09-25T16:44:58Z</time>
      </trkpt>
      <trkpt lat="44.1478" lon="7.21048">
        <ele>2077.6250881001</ele>
        <time>2016-09-25T16:45:07Z</time>
      </trkpt>
      <trkpt lat="44.14771" lon="7.21055">
        <ele>2075.6758486151</ele>
        <time>2016-09-25T16:45:13Z</time>
      </trkpt>
      <trkpt lat="44.14759" lon="7.21065">
        <ele>2073.9580349234</ele>
        <time>2016-09-25T16:45:23Z</time>
      </trkpt>
      <trkpt lat="44.14756" lon="7.21067">
        <ele>2073.9580349234</ele>
        <time>2016-09-25T16:45:27Z</time>
      </trkpt>
      <trkpt lat="44.14747" lon="7.2108">
        <ele>2072.2734307582</ele>
        <time>2016-09-25T16:45:38Z</time>
      </trkpt>
      <trkpt lat="44.14744" lon="7.21086">
        <ele>2072.2734307582</ele>
        <time>2016-09-25T16:45:42Z</time>
      </trkpt>
      <trkpt lat="44.1474" lon="7.21096">
        <ele>2071.0434317495</ele>
        <time>2016-09-25T16:45:53Z</time>
      </trkpt>
      <trkpt lat="44.14738" lon="7.21098">
        <ele>2071.0434317495</ele>
        <time>2016-09-25T16:45:58Z</time>
      </trkpt>
      <trkpt lat="44.14735" lon="7.21116">
        <ele>2068.5818695587</ele>
        <time>2016-09-25T16:46:13Z</time>
      </trkpt>
      <trkpt lat="44.14731" lon="7.2113">
        <ele>2066.4425561427</ele>
        <time>2016-09-25T16:46:23Z</time>
      </trkpt>
      <trkpt lat="44.14731" lon="7.21136">
        <ele>2066.4425561427</ele>
        <time>2016-09-25T16:46:27Z</time>
      </trkpt>
      <trkpt lat="44.14731" lon="7.21149">
        <ele>2064.7959307716</ele>
        <time>2016-09-25T16:46:38Z</time>
      </trkpt>
      <trkpt lat="44.14732" lon="7.2116">
        <ele>2064.7959307716</ele>
        <time>2016-09-25T16:46:42Z</time>
      </trkpt>
      <trkpt lat="44.14731" lon="7.21172">
        <ele>2063.3083971577</ele>
        <time>2016-09-25T16:46:47Z</time>
      </trkpt>
      <trkpt lat="44.14728" lon="7.21193">
        <ele>2062.4052257798</ele>
        <time>2016-09-25T16:46:58Z</time>
      </trkpt>
      <trkpt lat="44.14727" lon="7.212">
        <ele>2062.4052257798</ele>
        <time>2016-09-25T16:47:02Z</time>
      </trkpt>
      <trkpt lat="44.14729" lon="7.21219">
        <ele>2061.4554574351</ele>
        <time>2016-09-25T16:47:13Z</time>
      </trkpt>
      <trkpt lat="44.1473" lon="7.21221">
        <ele>2061.4554574351</ele>
        <time>2016-09-25T16:47:18Z</time>
      </trkpt>
      <trkpt lat="44.14729" lon="7.21228">
        <ele>2061.4554574351</ele>
        <time>2016-09-25T16:47:27Z</time>
      </trkpt>
      <trkpt lat="44.14729" lon="7.2124">
        <ele>2060.580598818</ele>
        <time>2016-09-25T16:47:34Z</time>
      </trkpt>
      <trkpt lat="44.1473" lon="7.21249">
        <ele>2060.580598818</ele>
        <time>2016-09-25T16:47:42Z</time>
      </trkpt>
      <trkpt lat="44.14726" lon="7.21258">
        <ele>2059.2155411976</ele>
        <time>2016-09-25T16:47:47Z</time>
      </trkpt>
      <trkpt lat="44.14718" lon="7.2128">
        <ele>2056.895552295</ele>
        <time>2016-09-25T16:47:58Z</time>
      </trkpt>
      <trkpt lat="44.14714" lon="7.2129">
        <ele>2056.895552295</ele>
        <time>2016-09-25T16:48:02Z</time>
      </trkpt>
      <trkpt lat="44.14706" lon="7.21305">
        <ele>2055.3542302223</ele>
        <time>2016-09-25T16:48:13Z</time>
      </trkpt>
      <trkpt lat="44.14702" lon="7.2131">
        <ele>2055.3542302223</ele>
        <time>2016-09-25T16:48:17Z</time>
      </trkpt>
      <trkpt lat="44.14699" lon="7.21322">
        <ele>2053.745594129</ele>
        <time>2016-09-25T16:48:22Z</time>
      </trkpt>
      <trkpt lat="44.14689" lon="7.2134">
        <ele>2052.6693084918</ele>
        <time>2016-09-25T16:48:33Z</time>
      </trkpt>
      <trkpt lat="44.14679" lon="7.21352">
        <ele>2051.8002606773</ele>
        <time>2016-09-25T16:48:47Z</time>
      </trkpt>
      <trkpt lat="44.14676" lon="7.21362">
        <ele>2051.8002606773</ele>
        <time>2016-09-25T16:48:53Z</time>
      </trkpt>
      <trkpt lat="44.14672" lon="7.21372">
        <ele>2050.908544249</ele>
        <time>2016-09-25T16:49:02Z</time>
      </trkpt>
      <trkpt lat="44.14671" lon="7.21376">
        <ele>2050.908544249</ele>
        <time>2016-09-25T16:49:07Z</time>
      </trkpt>
      <trkpt lat="44.14667" lon="7.21396">
        <ele>2049.8531153533</ele>
        <time>2016-09-25T16:49:18Z</time>
      </trkpt>
      <trkpt lat="44.14666" lon="7.21403">
        <ele>2049.8531153533</ele>
        <time>2016-09-25T16:49:22Z</time>
      </trkpt>
      <trkpt lat="44.14661" lon="7.2142">
        <ele>2048.1721543754</ele>
        <time>2016-09-25T16:49:34Z</time>
      </trkpt>
      <trkpt lat="44.14657" lon="7.21428">
        <ele>2048.1721543754</ele>
        <time>2016-09-25T16:49:38Z</time>
      </trkpt>
      <trkpt lat="44.14651" lon="7.21444">
        <ele>2046.9525533574</ele>
        <time>2016-09-25T16:49:47Z</time>
      </trkpt>
      <trkpt lat="44.14649" lon="7.21452">
        <ele>2046.9525533574</ele>
        <time>2016-09-25T16:49:53Z</time>
      </trkpt>
      <trkpt lat="44.14644" lon="7.21468">
        <ele>2045.5282463182</ele>
        <time>2016-09-25T16:50:02Z</time>
      </trkpt>
      <trkpt lat="44.14643" lon="7.21478">
        <ele>2045.5282463182</ele>
        <time>2016-09-25T16:50:07Z</time>
      </trkpt>
      <trkpt lat="44.14641" lon="7.21493">
        <ele>2044.5218982491</ele>
        <time>2016-09-25T16:50:18Z</time>
      </trkpt>
      <trkpt lat="44.14641" lon="7.21496">
        <ele>2044.5218982491</ele>
        <time>2016-09-25T16:50:22Z</time>
      </trkpt>
      <trkpt lat="44.14639" lon="7.21497">
        <ele>2044.5218982491</ele>
        <time>2016-09-25T16:50:33Z</time>
      </trkpt>
      <trkpt lat="44.14639" lon="7.21497">
        <ele>2044.5218982491</ele>
        <time>2016-09-25T16:50:38Z</time>
      </trkpt>
      <trkpt lat="44.14638" lon="7.21499">
        <ele>2044.5218982491</ele>
        <time>2016-09-25T16:50:53Z</time>
      </trkpt>
      <trkpt lat="44.14638" lon="7.215">
        <ele>2044.5218982491</ele>
        <time>2016-09-25T16:50:57Z</time>
      </trkpt>
      <trkpt lat="44.14636" lon="7.21507">
        <ele>2043.3706584111</ele>
        <time>2016-09-25T16:51:03Z</time>
      </trkpt>
      <trkpt lat="44.14635" lon="7.21511">
        <ele>2043.3706584111</ele>
        <time>2016-09-25T16:51:07Z</time>
      </trkpt>
      <trkpt lat="44.14635" lon="7.21518">
        <ele>2043.3706584111</ele>
        <time>2016-09-25T16:51:12Z</time>
      </trkpt>
      <trkpt lat="44.14633" lon="7.21532">
        <ele>2041.5244860583</ele>
        <time>2016-09-25T16:51:23Z</time>
      </trkpt>
      <trkpt lat="44.14633" lon="7.21541">
        <ele>2041.5244860583</ele>
        <time>2016-09-25T16:51:28Z</time>
      </trkpt>
      <trkpt lat="44.14635" lon="7.21557">
        <ele>2039.7293448359</ele>
        <time>2016-09-25T16:51:37Z</time>
      </trkpt>
      <trkpt lat="44.14632" lon="7.21568">
        <ele>2039.7293448359</ele>
        <time>2016-09-25T16:51:43Z</time>
      </trkpt>
      <trkpt lat="44.14634" lon="7.21583">
        <ele>2038.5464423274</ele>
        <time>2016-09-25T16:51:52Z</time>
      </trkpt>
      <trkpt lat="44.14634" lon="7.21591">
        <ele>2038.5464423274</ele>
        <time>2016-09-25T16:51:57Z</time>
      </trkpt>
      <trkpt lat="44.14634" lon="7.21608">
        <ele>2037.0528181856</ele>
        <time>2016-09-25T16:52:08Z</time>
      </trkpt>
      <trkpt lat="44.14634" lon="7.21614">
        <ele>2037.0528181856</ele>
        <time>2016-09-25T16:52:12Z</time>
      </trkpt>
      <trkpt lat="44.14633" lon="7.21632">
        <ele>2036.1234082723</ele>
        <time>2016-09-25T16:52:23Z</time>
      </trkpt>
      <trkpt lat="44.14632" lon="7.21641">
        <ele>2036.1234082723</ele>
        <time>2016-09-25T16:52:28Z</time>
      </trkpt>
      <trkpt lat="44.14629" lon="7.21651">
        <ele>2034.7946204565</ele>
        <time>2016-09-25T16:52:37Z</time>
      </trkpt>
      <trkpt lat="44.14625" lon="7.21661">
        <ele>2034.7946204565</ele>
        <time>2016-09-25T16:52:43Z</time>
      </trkpt>
      <trkpt lat="44.14628" lon="7.21676">
        <ele>2033.5437233752</ele>
        <time>2016-09-25T16:52:52Z</time>
      </trkpt>
      <trkpt lat="44.14632" lon="7.21683">
        <ele>2033.5437233752</ele>
        <time>2016-09-25T16:52:58Z</time>
      </trkpt>
      <trkpt lat="44.14646" lon="7.2169">
        <ele>2032.9279016186</ele>
        <time>2016-09-25T16:53:08Z</time>
      </trkpt>
      <trkpt lat="44.1465" lon="7.21694">
        <ele>2032.9279016186</ele>
        <time>2016-09-25T16:53:12Z</time>
      </trkpt>
      <trkpt lat="44.14656" lon="7.21701">
        <ele>2032.4383508977</ele>
        <time>2016-09-25T16:53:23Z</time>
      </trkpt>
      <trkpt lat="44.14657" lon="7.21706">
        <ele>2032.4383508977</ele>
        <time>2016-09-25T16:53:28Z</time>
      </trkpt>
      <trkpt lat="44.14646" lon="7.21711">
        <ele>2032.5543441884</ele>
        <time>2016-09-25T16:53:43Z</time>
      </trkpt>
      <trkpt lat="44.14628" lon="7.21725">
        <ele>2032.4355910683</ele>
        <time>2016-09-25T16:53:57Z</time>
      </trkpt>
      <trkpt lat="44.14622" lon="7.21742">
        <ele>2032.0967416925</ele>
        <time>2016-09-25T16:54:12Z</time>
      </trkpt>
      <trkpt lat="44.14619" lon="7.21742">
        <ele>2032.0967416925</ele>
        <time>2016-09-25T16:54:27Z</time>
      </trkpt>
      <trkpt lat="44.14619" lon="7.21747">
        <ele>2032.0967416925</ele>
        <time>2016-09-25T16:54:33Z</time>
      </trkpt>
      <trkpt lat="44.14616" lon="7.21767">
        <ele>2031.1772522581</ele>
        <time>2016-09-25T16:54:42Z</time>
      </trkpt>
      <trkpt lat="44.14615" lon="7.21776">
        <ele>2031.1772522581</ele>
        <time>2016-09-25T16:54:47Z</time>
      </trkpt>
      <trkpt lat="44.14611" lon="7.21795">
        <ele>2030.0652114052</ele>
        <time>2016-09-25T16:54:58Z</time>
      </trkpt>
      <trkpt lat="44.14609" lon="7.21801">
        <ele>2030.0652114052</ele>
        <time>2016-09-25T16:55:02Z</time>
      </trkpt>
      <trkpt lat="44.14605" lon="7.21819">
        <ele>2029.7692090743</ele>
        <time>2016-09-25T16:55:13Z</time>
      </trkpt>
      <trkpt lat="44.14603" lon="7.21822">
        <ele>2029.7692090743</ele>
        <time>2016-09-25T16:55:18Z</time>
      </trkpt>
      <trkpt lat="44.14602" lon="7.21824">
        <ele>2029.7692090743</ele>
        <time>2016-09-25T16:55:27Z</time>
      </trkpt>
      <trkpt lat="44.14601" lon="7.2183">
        <ele>2028.685073329</ele>
        <time>2016-09-25T16:55:33Z</time>
      </trkpt>
      <trkpt lat="44.14601" lon="7.21855">
        <ele>2028.4558766396</ele>
        <time>2016-09-25T16:55:47Z</time>
      </trkpt>
      <trkpt lat="44.14598" lon="7.21869">
        <ele>2028.22374521</ele>
        <time>2016-09-25T16:55:58Z</time>
      </trkpt>
      <trkpt lat="44.14596" lon="7.21873">
        <ele>2028.22374521</ele>
        <time>2016-09-25T16:56:02Z</time>
      </trkpt>
      <trkpt lat="44.14596" lon="7.21877">
        <ele>2028.22374521</ele>
        <time>2016-09-25T16:56:07Z</time>
      </trkpt>
      <trkpt lat="44.14592" lon="7.21883">
        <ele>2028.0584917168</ele>
        <time>2016-09-25T16:56:13Z</time>
      </trkpt>
      <trkpt lat="44.14589" lon="7.21891">
        <ele>2028.0584917168</ele>
        <time>2016-09-25T16:56:17Z</time>
      </trkpt>
      <trkpt lat="44.14585" lon="7.21895">
        <ele>2027.8084453443</ele>
        <time>2016-09-25T16:56:22Z</time>
      </trkpt>
      <trkpt lat="44.14572" lon="7.21907">
        <ele>2028.4573903081</ele>
        <time>2016-09-25T16:56:33Z</time>
      </trkpt>
      <trkpt lat="44.14567" lon="7.21915">
        <ele>2028.4573903081</ele>
        <time>2016-09-25T16:56:38Z</time>
      </trkpt>
      <trkpt lat="44.14562" lon="7.21926">
        <ele>2029.7758616271</ele>
        <time>2016-09-25T16:56:48Z</time>
      </trkpt>
      <trkpt lat="44.1456" lon="7.21933">
        <ele>2029.7758616271</ele>
        <time>2016-09-25T16:56:53Z</time>
      </trkpt>
      <trkpt lat="44.14558" lon="7.21944">
        <ele>2029.8488902392</ele>
        <time>2016-09-25T16:57:02Z</time>
      </trkpt>
      <trkpt lat="44.14552" lon="7.21949">
        <ele>2029.8488902392</ele>
        <time>2016-09-25T16:57:07Z</time>
      </trkpt>
      <trkpt lat="44.14546" lon="7.21963">
        <ele>2030.047337485</ele>
        <time>2016-09-25T16:57:18Z</time>
      </trkpt>
      <trkpt lat="44.14542" lon="7.21972">
        <ele>2030.047337485</ele>
        <time>2016-09-25T16:57:23Z</time>
      </trkpt>
      <trkpt lat="44.14537" lon="7.21995">
        <ele>2029.9549599733</ele>
        <time>2016-09-25T16:57:32Z</time>
      </trkpt>
      <trkpt lat="44.14535" lon="7.22005">
        <ele>2029.9549599733</ele>
        <time>2016-09-25T16:57:39Z</time>
      </trkpt>
      <trkpt lat="44.14533" lon="7.22011">
        <ele>2029.9507540931</ele>
        <time>2016-09-25T16:57:47Z</time>
      </trkpt>
      <trkpt lat="44.14532" lon="7.22012">
        <ele>2029.9507540931</ele>
        <time>2016-09-25T16:57:53Z</time>
      </trkpt>
      <trkpt lat="44.14527" lon="7.2203">
        <ele>2029.2183887506</ele>
        <time>2016-09-25T16:58:02Z</time>
      </trkpt>
      <trkpt lat="44.14526" lon="7.22035">
        <ele>2029.2183887506</ele>
        <time>2016-09-25T16:58:07Z</time>
      </trkpt>
      <trkpt lat="44.14522" lon="7.2205">
        <ele>2028.3726615677</ele>
        <time>2016-09-25T16:58:18Z</time>
      </trkpt>
      <trkpt lat="44.14522" lon="7.22053">
        <ele>2028.3726615677</ele>
        <time>2016-09-25T16:58:22Z</time>
      </trkpt>
      <trkpt lat="44.1452" lon="7.22059">
        <ele>2028.3726615677</ele>
        <time>2016-09-25T16:58:27Z</time>
      </trkpt>
      <trkpt lat="44.14512" lon="7.22084">
        <ele>2027.4359650315</ele>
        <time>2016-09-25T16:58:38Z</time>
      </trkpt>
      <trkpt lat="44.14511" lon="7.22095">
        <ele>2027.4359650315</ele>
        <time>2016-09-25T16:58:42Z</time>
      </trkpt>
      <trkpt lat="44.14507" lon="7.22113">
        <ele>2026.5878836921</ele>
        <time>2016-09-25T16:58:53Z</time>
      </trkpt>
      <trkpt lat="44.14499" lon="7.22129">
        <ele>2025.6343390434</ele>
        <time>2016-09-25T16:58:58Z</time>
      </trkpt>
      <trkpt lat="44.14506" lon="7.22147">
        <ele>2025.130824626</ele>
        <time>2016-09-25T16:59:08Z</time>
      </trkpt>
      <trkpt lat="44.14509" lon="7.22148">
        <ele>2025.130824626</ele>
        <time>2016-09-25T16:59:13Z</time>
      </trkpt>
      <trkpt lat="44.14519" lon="7.22153">
        <ele>2024.6829146331</ele>
        <time>2016-09-25T16:59:22Z</time>
      </trkpt>
      <trkpt lat="44.1452" lon="7.22159">
        <ele>2024.6829146331</ele>
        <time>2016-09-25T16:59:28Z</time>
      </trkpt>
      <trkpt lat="44.14525" lon="7.22172">
        <ele>2023.9106378886</ele>
        <time>2016-09-25T16:59:37Z</time>
      </trkpt>
      <trkpt lat="44.14529" lon="7.22177">
        <ele>2023.9106378886</ele>
        <time>2016-09-25T16:59:42Z</time>
      </trkpt>
      <trkpt lat="44.14529" lon="7.22194">
        <ele>2022.578179234</ele>
        <time>2016-09-25T16:59:53Z</time>
      </trkpt>
      <trkpt lat="44.14528" lon="7.22202">
        <ele>2022.578179234</ele>
        <time>2016-09-25T16:59:57Z</time>
      </trkpt>
      <trkpt lat="44.14531" lon="7.22219">
        <ele>2020.8001140329</ele>
        <time>2016-09-25T17:00:08Z</time>
      </trkpt>
      <trkpt lat="44.1453" lon="7.22226">
        <ele>2020.8001140329</ele>
        <time>2016-09-25T17:00:12Z</time>
      </trkpt>
      <trkpt lat="44.14522" lon="7.22244">
        <ele>2017.7759827847</ele>
        <time>2016-09-25T17:00:27Z</time>
      </trkpt>
      <trkpt lat="44.1452" lon="7.22262">
        <ele>2015.0157775268</ele>
        <time>2016-09-25T17:00:38Z</time>
      </trkpt>
      <trkpt lat="44.14522" lon="7.22267">
        <ele>2015.0157775268</ele>
        <time>2016-09-25T17:00:42Z</time>
      </trkpt>
      <trkpt lat="44.14523" lon="7.22273">
        <ele>2015.0157775268</ele>
        <time>2016-09-25T17:00:47Z</time>
      </trkpt>
      <trkpt lat="44.14522" lon="7.22278">
        <ele>2012.5775993333</ele>
        <time>2016-09-25T17:00:54Z</time>
      </trkpt>
      <trkpt lat="44.14523" lon="7.22283">
        <ele>2012.5775993333</ele>
        <time>2016-09-25T17:00:57Z</time>
      </trkpt>
      <trkpt lat="44.14524" lon="7.22288">
        <ele>2012.5775993333</ele>
        <time>2016-09-25T17:01:02Z</time>
      </trkpt>
      <trkpt lat="44.1452" lon="7.22303">
        <ele>2010.1252689252</ele>
        <time>2016-09-25T17:01:13Z</time>
      </trkpt>
      <trkpt lat="44.14516" lon="7.22308">
        <ele>2010.1252689252</ele>
        <time>2016-09-25T17:01:18Z</time>
      </trkpt>
      <trkpt lat="44.14502" lon="7.22309">
        <ele>2008.4713874955</ele>
        <time>2016-09-25T17:01:28Z</time>
      </trkpt>
      <trkpt lat="44.14496" lon="7.22316">
        <ele>2008.4713874955</ele>
        <time>2016-09-25T17:01:33Z</time>
      </trkpt>
      <trkpt lat="44.14487" lon="7.22327">
        <ele>2007.0407689432</ele>
        <time>2016-09-25T17:01:42Z</time>
      </trkpt>
      <trkpt lat="44.14481" lon="7.22331">
        <ele>2007.0407689432</ele>
        <time>2016-09-25T17:01:48Z</time>
      </trkpt>
      <trkpt lat="44.14471" lon="7.22339">
        <ele>2005.6600937817</ele>
        <time>2016-09-25T17:01:58Z</time>
      </trkpt>
      <trkpt lat="44.14469" lon="7.22346">
        <ele>2005.6600937817</ele>
        <time>2016-09-25T17:02:02Z</time>
      </trkpt>
      <trkpt lat="44.14473" lon="7.22361">
        <ele>2004.3415264091</ele>
        <time>2016-09-25T17:02:13Z</time>
      </trkpt>
      <trkpt lat="44.14472" lon="7.22367">
        <ele>2004.3415264091</ele>
        <time>2016-09-25T17:02:17Z</time>
      </trkpt>
      <trkpt lat="44.14469" lon="7.22375">
        <ele>2002.9808316114</ele>
        <time>2016-09-25T17:02:22Z</time>
      </trkpt>
      <trkpt lat="44.1447" lon="7.22386">
        <ele>2002.9808316114</ele>
        <time>2016-09-25T17:02:28Z</time>
      </trkpt>
      <trkpt lat="44.1447" lon="7.22393">
        <ele>2001.4238609603</ele>
        <time>2016-09-25T17:02:33Z</time>
      </trkpt>
      <trkpt lat="44.1447" lon="7.22398">
        <ele>2001.4238609603</ele>
        <time>2016-09-25T17:02:37Z</time>
      </trkpt>
      <trkpt lat="44.14471" lon="7.22412">
        <ele>1999.9606289055</ele>
        <time>2016-09-25T17:02:48Z</time>
      </trkpt>
      <trkpt lat="44.14471" lon="7.22417">
        <ele>1999.9606289055</ele>
        <time>2016-09-25T17:02:53Z</time>
      </trkpt>
      <trkpt lat="44.1447" lon="7.22435">
        <ele>1998.4992588669</ele>
        <time>2016-09-25T17:03:02Z</time>
      </trkpt>
      <trkpt lat="44.14473" lon="7.22442">
        <ele>1998.4992588669</ele>
        <time>2016-09-25T17:03:07Z</time>
      </trkpt>
      <trkpt lat="44.14476" lon="7.2246">
        <ele>1996.7384040997</ele>
        <time>2016-09-25T17:03:18Z</time>
      </trkpt>
      <trkpt lat="44.14477" lon="7.22467">
        <ele>1996.7384040997</ele>
        <time>2016-09-25T17:03:22Z</time>
      </trkpt>
      <trkpt lat="44.14479" lon="7.22485">
        <ele>1994.9905014215</ele>
        <time>2016-09-25T17:03:33Z</time>
      </trkpt>
      <trkpt lat="44.1448" lon="7.2249">
        <ele>1994.9905014215</ele>
        <time>2016-09-25T17:03:38Z</time>
      </trkpt>
      <trkpt lat="44.14486" lon="7.22504">
        <ele>1993.3864268238</ele>
        <time>2016-09-25T17:03:47Z</time>
      </trkpt>
      <trkpt lat="44.14492" lon="7.22508">
        <ele>1993.3864268238</ele>
        <time>2016-09-25T17:03:53Z</time>
      </trkpt>
      <trkpt lat="44.14501" lon="7.22515">
        <ele>1992.1046312295</ele>
        <time>2016-09-25T17:04:02Z</time>
      </trkpt>
      <trkpt lat="44.14505" lon="7.22522">
        <ele>1992.1046312295</ele>
        <time>2016-09-25T17:04:07Z</time>
      </trkpt>
      <trkpt lat="44.14518" lon="7.22532">
        <ele>1992.3326918968</ele>
        <time>2016-09-25T17:04:18Z</time>
      </trkpt>
      <trkpt lat="44.14519" lon="7.22533">
        <ele>1992.3326918968</ele>
        <time>2016-09-25T17:04:22Z</time>
      </trkpt>
      <trkpt lat="44.14514" lon="7.22539">
        <ele>1992.3326918968</ele>
        <time>2016-09-25T17:04:33Z</time>
      </trkpt>
      <trkpt lat="44.14513" lon="7.22541">
        <ele>1992.7744218246</ele>
        <time>2016-09-25T17:04:38Z</time>
      </trkpt>
      <trkpt lat="44.14495" lon="7.22555">
        <ele>1992.1273367953</ele>
        <time>2016-09-25T17:04:53Z</time>
      </trkpt>
      <trkpt lat="44.14493" lon="7.22586">
        <ele>1990.6431803765</ele>
        <time>2016-09-25T17:05:07Z</time>
      </trkpt>
      <trkpt lat="44.14495" lon="7.22597">
        <ele>1990.6431803765</ele>
        <time>2016-09-25T17:05:17Z</time>
      </trkpt>
      <trkpt lat="44.14494" lon="7.22606">
        <ele>1989.2780848611</ele>
        <time>2016-09-25T17:05:22Z</time>
      </trkpt>
      <trkpt lat="44.14497" lon="7.22623">
        <ele>1988.1393921868</ele>
        <time>2016-09-25T17:05:33Z</time>
      </trkpt>
      <trkpt lat="44.14498" lon="7.22633">
        <ele>1988.1393921868</ele>
        <time>2016-09-25T17:05:37Z</time>
      </trkpt>
      <trkpt lat="44.14498" lon="7.22643">
        <ele>1987.8591180354</ele>
        <time>2016-09-25T17:05:42Z</time>
      </trkpt>
      <trkpt lat="44.14498" lon="7.22659">
        <ele>1987.204626541</ele>
        <time>2016-09-25T17:05:53Z</time>
      </trkpt>
      <trkpt lat="44.14498" lon="7.22664">
        <ele>1987.204626541</ele>
        <time>2016-09-25T17:05:57Z</time>
      </trkpt>
      <trkpt lat="44.14499" lon="7.22675">
        <ele>1987.1677151533</ele>
        <time>2016-09-25T17:06:07Z</time>
      </trkpt>
      <trkpt lat="44.14499" lon="7.22678">
        <ele>1987.1677151533</ele>
        <time>2016-09-25T17:06:13Z</time>
      </trkpt>
      <trkpt lat="44.14499" lon="7.22683">
        <ele>1987.1677151533</ele>
        <time>2016-09-25T17:06:22Z</time>
      </trkpt>
      <trkpt lat="44.14498" lon="7.22693">
        <ele>1987.5847550962</ele>
        <time>2016-09-25T17:06:27Z</time>
      </trkpt>
      <trkpt lat="44.14498" lon="7.22711">
        <ele>1987.0058679161</ele>
        <time>2016-09-25T17:06:39Z</time>
      </trkpt>
      <trkpt lat="44.14494" lon="7.22714">
        <ele>1987.0058679161</ele>
        <time>2016-09-25T17:06:42Z</time>
      </trkpt>
      <trkpt lat="44.14483" lon="7.22717">
        <ele>1986.9294784035</ele>
        <time>2016-09-25T17:06:54Z</time>
      </trkpt>
      <trkpt lat="44.14478" lon="7.22718">
        <ele>1986.9294784035</ele>
        <time>2016-09-25T17:06:58Z</time>
      </trkpt>
      <trkpt lat="44.14465" lon="7.22717">
        <ele>1986.9555698664</ele>
        <time>2016-09-25T17:07:07Z</time>
      </trkpt>
      <trkpt lat="44.1446" lon="7.22719">
        <ele>1986.9555698664</ele>
        <time>2016-09-25T17:07:13Z</time>
      </trkpt>
      <trkpt lat="44.14447" lon="7.22732">
        <ele>1986.6988385533</ele>
        <time>2016-09-25T17:07:27Z</time>
      </trkpt>
      <trkpt lat="44.14439" lon="7.2274">
        <ele>1985.5148863297</ele>
        <time>2016-09-25T17:07:38Z</time>
      </trkpt>
      <trkpt lat="44.14438" lon="7.22743">
        <ele>1985.5148863297</ele>
        <time>2016-09-25T17:07:42Z</time>
      </trkpt>
      <trkpt lat="44.14436" lon="7.22747">
        <ele>1985.5148863297</ele>
        <time>2016-09-25T17:07:47Z</time>
      </trkpt>
      <trkpt lat="44.14424" lon="7.22753">
        <ele>1984.8412544793</ele>
        <time>2016-09-25T17:07:58Z</time>
      </trkpt>
      <trkpt lat="44.14421" lon="7.22759">
        <ele>1984.8412544793</ele>
        <time>2016-09-25T17:08:02Z</time>
      </trkpt>
      <trkpt lat="44.14415" lon="7.22767">
        <ele>1983.9909302097</ele>
        <time>2016-09-25T17:08:13Z</time>
      </trkpt>
      <trkpt lat="44.14411" lon="7.22772">
        <ele>1983.9909302097</ele>
        <time>2016-09-25T17:08:18Z</time>
      </trkpt>
      <trkpt lat="44.14404" lon="7.22785">
        <ele>1983.6393106864</ele>
        <time>2016-09-25T17:08:28Z</time>
      </trkpt>
      <trkpt lat="44.14399" lon="7.22791">
        <ele>1983.6393106864</ele>
        <time>2016-09-25T17:08:33Z</time>
      </trkpt>
      <trkpt lat="44.14396" lon="7.22798">
        <ele>1982.8111803697</ele>
        <time>2016-09-25T17:08:42Z</time>
      </trkpt>
      <trkpt lat="44.14394" lon="7.228">
        <ele>1982.8111803697</ele>
        <time>2016-09-25T17:08:48Z</time>
      </trkpt>
      <trkpt lat="44.14391" lon="7.2281">
        <ele>1982.2904350435</ele>
        <time>2016-09-25T17:08:58Z</time>
      </trkpt>
      <trkpt lat="44.14388" lon="7.22814">
        <ele>1982.2904350435</ele>
        <time>2016-09-25T17:09:02Z</time>
      </trkpt>
      <trkpt lat="44.14377" lon="7.22824">
        <ele>1982.3846381678</ele>
        <time>2016-09-25T17:09:13Z</time>
      </trkpt>
      <trkpt lat="44.14374" lon="7.22824">
        <ele>1982.3846381678</ele>
        <time>2016-09-25T17:09:18Z</time>
      </trkpt>
      <trkpt lat="44.1437" lon="7.22827">
        <ele>1982.3846381678</ele>
        <time>2016-09-25T17:09:22Z</time>
      </trkpt>
      <trkpt lat="44.14363" lon="7.22831">
        <ele>1981.6477387733</ele>
        <time>2016-09-25T17:09:28Z</time>
      </trkpt>
      <trkpt lat="44.14357" lon="7.22832">
        <ele>1981.6477387733</ele>
        <time>2016-09-25T17:09:33Z</time>
      </trkpt>
      <trkpt lat="44.14338" lon="7.22844">
        <ele>1980.1978042166</ele>
        <time>2016-09-25T17:09:48Z</time>
      </trkpt>
      <trkpt lat="44.14335" lon="7.22852">
        <ele>1980.1978042166</ele>
        <time>2016-09-25T17:09:52Z</time>
      </trkpt>
      <trkpt lat="44.1433" lon="7.22861">
        <ele>1978.9100551973</ele>
        <time>2016-09-25T17:10:02Z</time>
      </trkpt>
      <trkpt lat="44.14325" lon="7.22864">
        <ele>1978.9100551973</ele>
        <time>2016-09-25T17:10:07Z</time>
      </trkpt>
      <trkpt lat="44.14316" lon="7.22873">
        <ele>1977.615042272</ele>
        <time>2016-09-25T17:10:18Z</time>
      </trkpt>
      <trkpt lat="44.1431" lon="7.22878">
        <ele>1977.615042272</ele>
        <time>2016-09-25T17:10:22Z</time>
      </trkpt>
      <trkpt lat="44.14297" lon="7.22898">
        <ele>1976.0693456867</ele>
        <time>2016-09-25T17:10:34Z</time>
      </trkpt>
      <trkpt lat="44.14293" lon="7.22902">
        <ele>1976.0693456867</ele>
        <time>2016-09-25T17:10:38Z</time>
      </trkpt>
      <trkpt lat="44.14286" lon="7.22909">
        <ele>1974.7254753261</ele>
        <time>2016-09-25T17:10:47Z</time>
      </trkpt>
      <trkpt lat="44.14284" lon="7.22919">
        <ele>1974.7254753261</ele>
        <time>2016-09-25T17:10:54Z</time>
      </trkpt>
      <trkpt lat="44.14278" lon="7.22926">
        <ele>1973.8868626009</ele>
        <time>2016-09-25T17:11:02Z</time>
      </trkpt>
      <trkpt lat="44.14277" lon="7.22934">
        <ele>1973.8868626009</ele>
        <time>2016-09-25T17:11:07Z</time>
      </trkpt>
      <trkpt lat="44.14274" lon="7.22949">
        <ele>1971.5995199794</ele>
        <time>2016-09-25T17:11:18Z</time>
      </trkpt>
      <trkpt lat="44.14272" lon="7.22957">
        <ele>1971.5995199794</ele>
        <time>2016-09-25T17:11:22Z</time>
      </trkpt>
      <trkpt lat="44.14269" lon="7.22974">
        <ele>1969.0257570638</ele>
        <time>2016-09-25T17:11:34Z</time>
      </trkpt>
      <trkpt lat="44.14269" lon="7.2298">
        <ele>1969.0257570638</ele>
        <time>2016-09-25T17:11:37Z</time>
      </trkpt>
      <trkpt lat="44.14271" lon="7.22994">
        <ele>1966.9118449382</ele>
        <time>2016-09-25T17:11:48Z</time>
      </trkpt>
      <trkpt lat="44.14269" lon="7.23002">
        <ele>1966.9118449382</ele>
        <time>2016-09-25T17:11:53Z</time>
      </trkpt>
      <trkpt lat="44.14259" lon="7.2302">
        <ele>1965.2850202498</ele>
        <time>2016-09-25T17:12:07Z</time>
      </trkpt>
      <trkpt lat="44.14257" lon="7.23044">
        <ele>1962.9009515227</ele>
        <time>2016-09-25T17:12:22Z</time>
      </trkpt>
      <trkpt lat="44.1424" lon="7.23052">
        <ele>1960.3381416083</ele>
        <time>2016-09-25T17:12:37Z</time>
      </trkpt>
      <trkpt lat="44.14235" lon="7.23053">
        <ele>1960.3381416083</ele>
        <time>2016-09-25T17:12:42Z</time>
      </trkpt>
      <trkpt lat="44.14232" lon="7.23059">
        <ele>1958.1042362348</ele>
        <time>2016-09-25T17:12:47Z</time>
      </trkpt>
      <trkpt lat="44.14228" lon="7.23065">
        <ele>1958.1042362348</ele>
        <time>2016-09-25T17:12:52Z</time>
      </trkpt>
      <trkpt lat="44.14224" lon="7.23078">
        <ele>1956.4524534762</ele>
        <time>2016-09-25T17:13:02Z</time>
      </trkpt>
      <trkpt lat="44.14221" lon="7.23082">
        <ele>1956.4524534762</ele>
        <time>2016-09-25T17:13:08Z</time>
      </trkpt>
      <trkpt lat="44.14214" lon="7.23091">
        <ele>1954.2034334962</ele>
        <time>2016-09-25T17:13:17Z</time>
      </trkpt>
      <trkpt lat="44.14211" lon="7.23093">
        <ele>1954.2034334962</ele>
        <time>2016-09-25T17:13:23Z</time>
      </trkpt>
      <trkpt lat="44.14202" lon="7.23096">
        <ele>1952.225979305</ele>
        <time>2016-09-25T17:13:32Z</time>
      </trkpt>
      <trkpt lat="44.14199" lon="7.23099">
        <ele>1952.225979305</ele>
        <time>2016-09-25T17:13:37Z</time>
      </trkpt>
      <trkpt lat="44.14189" lon="7.23099">
        <ele>1950.531635888</ele>
        <time>2016-09-25T17:13:48Z</time>
      </trkpt>
      <trkpt lat="44.14186" lon="7.23094">
        <ele>1950.531635888</ele>
        <time>2016-09-25T17:13:52Z</time>
      </trkpt>
      <trkpt lat="44.14185" lon="7.23092">
        <ele>1950.531635888</ele>
        <time>2016-09-25T17:13:57Z</time>
      </trkpt>
      <trkpt lat="44.14182" lon="7.23081">
        <ele>1948.4096838231</ele>
        <time>2016-09-25T17:14:08Z</time>
      </trkpt>
      <trkpt lat="44.14181" lon="7.23077">
        <ele>1948.4096838231</ele>
        <time>2016-09-25T17:14:12Z</time>
      </trkpt>
      <trkpt lat="44.14176" lon="7.23067">
        <ele>1947.4652903091</ele>
        <time>2016-09-25T17:14:23Z</time>
      </trkpt>
      <trkpt lat="44.14174" lon="7.2306">
        <ele>1947.4652903091</ele>
        <time>2016-09-25T17:14:28Z</time>
      </trkpt>
      <trkpt lat="44.14173" lon="7.23046">
        <ele>1946.7756820755</ele>
        <time>2016-09-25T17:14:37Z</time>
      </trkpt>
      <trkpt lat="44.14181" lon="7.23042">
        <ele>1946.7756820755</ele>
        <time>2016-09-25T17:14:43Z</time>
      </trkpt>
      <trkpt lat="44.14185" lon="7.23036">
        <ele>1945.7300836356</ele>
        <time>2016-09-25T17:14:52Z</time>
      </trkpt>
      <trkpt lat="44.14185" lon="7.23031">
        <ele>1945.7300836356</ele>
        <time>2016-09-25T17:14:57Z</time>
      </trkpt>
      <trkpt lat="44.14181" lon="7.23023">
        <ele>1945.6513853803</ele>
        <time>2016-09-25T17:15:07Z</time>
      </trkpt>
      <trkpt lat="44.14177" lon="7.23018">
        <ele>1945.6513853803</ele>
        <time>2016-09-25T17:15:13Z</time>
      </trkpt>
      <trkpt lat="44.14169" lon="7.23006">
        <ele>1945.9467390983</ele>
        <time>2016-09-25T17:15:28Z</time>
      </trkpt>
      <trkpt lat="44.14167" lon="7.23006">
        <ele>1945.9467390983</ele>
        <time>2016-09-25T17:15:32Z</time>
      </trkpt>
      <trkpt lat="44.14159" lon="7.23005">
        <ele>1946.2819287354</ele>
        <time>2016-09-25T17:15:43Z</time>
      </trkpt>
      <trkpt lat="44.14146" lon="7.22997">
        <ele>1947.2982898247</ele>
        <time>2016-09-25T17:15:57Z</time>
      </trkpt>
      <trkpt lat="44.14134" lon="7.23004">
        <ele>1948.709051712</ele>
        <time>2016-09-25T17:16:12Z</time>
      </trkpt>
      <trkpt lat="44.14133" lon="7.23007">
        <ele>1948.709051712</ele>
        <time>2016-09-25T17:16:17Z</time>
      </trkpt>
      <trkpt lat="44.14133" lon="7.23012">
        <ele>1948.709051712</ele>
        <time>2016-09-25T17:16:28Z</time>
      </trkpt>
      <trkpt lat="44.14133" lon="7.23014">
        <ele>1948.709051712</ele>
        <time>2016-09-25T17:16:32Z</time>
      </trkpt>
      <trkpt lat="44.14134" lon="7.23026">
        <ele>1949.4836258812</ele>
        <time>2016-09-25T17:16:43Z</time>
      </trkpt>
      <trkpt lat="44.14134" lon="7.23033">
        <ele>1949.4836258812</ele>
        <time>2016-09-25T17:16:48Z</time>
      </trkpt>
      <trkpt lat="44.14135" lon="7.2304">
        <ele>1950.585622584</ele>
        <time>2016-09-25T17:16:57Z</time>
      </trkpt>
      <trkpt lat="44.14135" lon="7.23042">
        <ele>1950.585622584</ele>
        <time>2016-09-25T17:17:03Z</time>
      </trkpt>
      <trkpt lat="44.14131" lon="7.23055">
        <ele>1952.4458388621</ele>
        <time>2016-09-25T17:17:17Z</time>
      </trkpt>
      <trkpt lat="44.14122" lon="7.23062">
        <ele>1953.3429276715</ele>
        <time>2016-09-25T17:17:28Z</time>
      </trkpt>
      <trkpt lat="44.14121" lon="7.23061">
        <ele>1953.3429276715</ele>
        <time>2016-09-25T17:17:32Z</time>
      </trkpt>
      <trkpt lat="44.14118" lon="7.23066">
        <ele>1953.3429276715</ele>
        <time>2016-09-25T17:17:37Z</time>
      </trkpt>
      <trkpt lat="44.14115" lon="7.23072">
        <ele>1954.62463918</ele>
        <time>2016-09-25T17:17:43Z</time>
      </trkpt>
      <trkpt lat="44.1411" lon="7.23079">
        <ele>1954.62463918</ele>
        <time>2016-09-25T17:17:48Z</time>
      </trkpt>
      <trkpt lat="44.14107" lon="7.23083">
        <ele>1955.953509627</ele>
        <time>2016-09-25T17:17:52Z</time>
      </trkpt>
      <trkpt lat="44.141" lon="7.23096">
        <ele>1957.2906498829</ele>
        <time>2016-09-25T17:18:03Z</time>
      </trkpt>
      <trkpt lat="44.14097" lon="7.231">
        <ele>1957.2906498829</ele>
        <time>2016-09-25T17:18:08Z</time>
      </trkpt>
      <trkpt lat="44.14092" lon="7.23106">
        <ele>1958.7442328367</ele>
        <time>2016-09-25T17:18:17Z</time>
      </trkpt>
      <trkpt lat="44.14088" lon="7.23108">
        <ele>1958.7442328367</ele>
        <time>2016-09-25T17:18:23Z</time>
      </trkpt>
      <trkpt lat="44.14082" lon="7.23115">
        <ele>1960.1837088128</ele>
        <time>2016-09-25T17:18:32Z</time>
      </trkpt>
      <trkpt lat="44.14079" lon="7.23119">
        <ele>1960.1837088128</ele>
        <time>2016-09-25T17:18:37Z</time>
      </trkpt>
      <trkpt lat="44.14071" lon="7.23125">
        <ele>1962.1512084403</ele>
        <time>2016-09-25T17:18:47Z</time>
      </trkpt>
      <trkpt lat="44.14068" lon="7.23127">
        <ele>1962.1512084403</ele>
        <time>2016-09-25T17:18:52Z</time>
      </trkpt>
      <trkpt lat="44.1406" lon="7.23133">
        <ele>1964.138928273</ele>
        <time>2016-09-25T17:19:03Z</time>
      </trkpt>
      <trkpt lat="44.14058" lon="7.23139">
        <ele>1964.138928273</ele>
        <time>2016-09-25T17:19:08Z</time>
      </trkpt>
      <trkpt lat="44.14055" lon="7.23142">
        <ele>1964.138928273</ele>
        <time>2016-09-25T17:19:17Z</time>
      </trkpt>
      <trkpt lat="44.1405" lon="7.23143">
        <ele>1965.9791048871</ele>
        <time>2016-09-25T17:19:24Z</time>
      </trkpt>
      <trkpt lat="44.14047" lon="7.23144">
        <ele>1965.9791048871</ele>
        <time>2016-09-25T17:19:27Z</time>
      </trkpt>
      <trkpt lat="44.14043" lon="7.23149">
        <ele>1965.9791048871</ele>
        <time>2016-09-25T17:19:38Z</time>
      </trkpt>
      <trkpt lat="44.14037" lon="7.23155">
        <ele>1967.4736489702</ele>
        <time>2016-09-25T17:19:52Z</time>
      </trkpt>
      <trkpt lat="44.1403" lon="7.23165">
        <ele>1968.6419253201</ele>
        <time>2016-09-25T17:20:08Z</time>
      </trkpt>
      <trkpt lat="44.14028" lon="7.23169">
        <ele>1968.6419253201</ele>
        <time>2016-09-25T17:20:12Z</time>
      </trkpt>
      <trkpt lat="44.14021" lon="7.23176">
        <ele>1969.9208964751</ele>
        <time>2016-09-25T17:20:23Z</time>
      </trkpt>
      <trkpt lat="44.14018" lon="7.23177">
        <ele>1969.9208964751</ele>
        <time>2016-09-25T17:20:27Z</time>
      </trkpt>
      <trkpt lat="44.14013" lon="7.23184">
        <ele>1971.5567792655</ele>
        <time>2016-09-25T17:20:38Z</time>
      </trkpt>
      <trkpt lat="44.14011" lon="7.23188">
        <ele>1971.5567792655</ele>
        <time>2016-09-25T17:20:43Z</time>
      </trkpt>
      <trkpt lat="44.14009" lon="7.23193">
        <ele>1971.5567792655</ele>
        <time>2016-09-25T17:20:52Z</time>
      </trkpt>
      <trkpt lat="44.14009" lon="7.23194">
        <ele>1971.5567792655</ele>
        <time>2016-09-25T17:20:58Z</time>
      </trkpt>
      <trkpt lat="44.14001" lon="7.23201">
        <ele>1973.459846619</ele>
        <time>2016-09-25T17:21:07Z</time>
      </trkpt>
      <trkpt lat="44.13998" lon="7.23206">
        <ele>1973.459846619</ele>
        <time>2016-09-25T17:21:12Z</time>
      </trkpt>
      <trkpt lat="44.13992" lon="7.23216">
        <ele>1974.897903843</ele>
        <time>2016-09-25T17:21:23Z</time>
      </trkpt>
      <trkpt lat="44.13988" lon="7.23217">
        <ele>1974.897903843</ele>
        <time>2016-09-25T17:21:27Z</time>
      </trkpt>
      <trkpt lat="44.13979" lon="7.23221">
        <ele>1976.5342744529</ele>
        <time>2016-09-25T17:21:38Z</time>
      </trkpt>
      <trkpt lat="44.13978" lon="7.23225">
        <ele>1976.5342744529</ele>
        <time>2016-09-25T17:21:42Z</time>
      </trkpt>
      <trkpt lat="44.13971" lon="7.23236">
        <ele>1978.8679058098</ele>
        <time>2016-09-25T17:21:57Z</time>
      </trkpt>
      <trkpt lat="44.13965" lon="7.23242">
        <ele>1978.8679058098</ele>
        <time>2016-09-25T17:22:08Z</time>
      </trkpt>
      <trkpt lat="44.13962" lon="7.23246">
        <ele>1980.8317574533</ele>
        <time>2016-09-25T17:22:12Z</time>
      </trkpt>
      <trkpt lat="44.13959" lon="7.2325">
        <ele>1980.8317574533</ele>
        <time>2016-09-25T17:22:17Z</time>
      </trkpt>
      <trkpt lat="44.13955" lon="7.23256">
        <ele>1983.2542132649</ele>
        <time>2016-09-25T17:22:28Z</time>
      </trkpt>
      <trkpt lat="44.13952" lon="7.2326">
        <ele>1983.2542132649</ele>
        <time>2016-09-25T17:22:32Z</time>
      </trkpt>
      <trkpt lat="44.13949" lon="7.23266">
        <ele>1983.2542132649</ele>
        <time>2016-09-25T17:22:43Z</time>
      </trkpt>
      <trkpt lat="44.13948" lon="7.23267">
        <ele>1986.2099913287</ele>
        <time>2016-09-25T17:22:48Z</time>
      </trkpt>
      <trkpt lat="44.13944" lon="7.23273">
        <ele>1986.2099913287</ele>
        <time>2016-09-25T17:22:57Z</time>
      </trkpt>
      <trkpt lat="44.13941" lon="7.23278">
        <ele>1988.6862028451</ele>
        <time>2016-09-25T17:23:03Z</time>
      </trkpt>
      <trkpt lat="44.13938" lon="7.2328">
        <ele>1988.6862028451</ele>
        <time>2016-09-25T17:23:12Z</time>
      </trkpt>
      <trkpt lat="44.13937" lon="7.2328">
        <ele>1988.6862028451</ele>
        <time>2016-09-25T17:23:17Z</time>
      </trkpt>
      <trkpt lat="44.13925" lon="7.23282">
        <ele>1990.8411712799</ele>
        <time>2016-09-25T17:23:28Z</time>
      </trkpt>
      <trkpt lat="44.13921" lon="7.23281">
        <ele>1990.8411712799</ele>
        <time>2016-09-25T17:23:32Z</time>
      </trkpt>
      <trkpt lat="44.1391" lon="7.23289">
        <ele>1993.1685773122</ele>
        <time>2016-09-25T17:23:43Z</time>
      </trkpt>
      <trkpt lat="44.13906" lon="7.2329">
        <ele>1993.1685773122</ele>
        <time>2016-09-25T17:23:48Z</time>
      </trkpt>
      <trkpt lat="44.13903" lon="7.23294">
        <ele>1993.1685773122</ele>
        <time>2016-09-25T17:23:52Z</time>
      </trkpt>
      <trkpt lat="44.13899" lon="7.23296">
        <ele>1995.6211852185</ele>
        <time>2016-09-25T17:23:57Z</time>
      </trkpt>
      <trkpt lat="44.13896" lon="7.23298">
        <ele>1995.6211852185</ele>
        <time>2016-09-25T17:24:02Z</time>
      </trkpt>
      <trkpt lat="44.13893" lon="7.23297">
        <ele>1995.6211852185</ele>
        <time>2016-09-25T17:24:07Z</time>
      </trkpt>
      <trkpt lat="44.13892" lon="7.23294">
        <ele>1997.65071076</ele>
        <time>2016-09-25T17:24:12Z</time>
      </trkpt>
      <trkpt lat="44.1389" lon="7.23293">
        <ele>1997.65071076</ele>
        <time>2016-09-25T17:24:22Z</time>
      </trkpt>
      <trkpt lat="44.1389" lon="7.23294">
        <ele>1997.65071076</ele>
        <time>2016-09-25T17:24:28Z</time>
      </trkpt>
      <trkpt lat="44.13889" lon="7.23299">
        <ele>1997.65071076</ele>
        <time>2016-09-25T17:24:37Z</time>
      </trkpt>
      <trkpt lat="44.13887" lon="7.23302">
        <ele>2000.0043217103</ele>
        <time>2016-09-25T17:24:43Z</time>
      </trkpt>
      <trkpt lat="44.13886" lon="7.23305">
        <ele>2000.0043217103</ele>
        <time>2016-09-25T17:24:52Z</time>
      </trkpt>
      <trkpt lat="44.13886" lon="7.23308">
        <ele>2000.0043217103</ele>
        <time>2016-09-25T17:24:57Z</time>
      </trkpt>
      <trkpt lat="44.13884" lon="7.23324">
        <ele>2001.9036757352</ele>
        <time>2016-09-25T17:25:07Z</time>
      </trkpt>
      <trkpt lat="44.13883" lon="7.23329">
        <ele>2001.9036757352</ele>
        <time>2016-09-25T17:25:13Z</time>
      </trkpt>
      <trkpt lat="44.13882" lon="7.23334">
        <ele>2001.9036757352</ele>
        <time>2016-09-25T17:25:28Z</time>
      </trkpt>
      <trkpt lat="44.1388" lon="7.23345">
        <ele>2003.5514088371</ele>
        <time>2016-09-25T17:25:42Z</time>
      </trkpt>
      <trkpt lat="44.1388" lon="7.23355">
        <ele>2003.5514088371</ele>
        <time>2016-09-25T17:25:57Z</time>
      </trkpt>
      <trkpt lat="44.13879" lon="7.23358">
        <ele>2005.3955887193</ele>
        <time>2016-09-25T17:26:02Z</time>
      </trkpt>
      <trkpt lat="44.13877" lon="7.23369">
        <ele>2005.3955887193</ele>
        <time>2016-09-25T17:26:13Z</time>
      </trkpt>
      <trkpt lat="44.13876" lon="7.23371">
        <ele>2006.6837213187</ele>
        <time>2016-09-25T17:26:17Z</time>
      </trkpt>
      <trkpt lat="44.13872" lon="7.2339">
        <ele>2008.3632145037</ele>
        <time>2016-09-25T17:26:29Z</time>
      </trkpt>
      <trkpt lat="44.1387" lon="7.23396">
        <ele>2008.3632145037</ele>
        <time>2016-09-25T17:26:33Z</time>
      </trkpt>
      <trkpt lat="44.13868" lon="7.23403">
        <ele>2010.186904208</ele>
        <time>2016-09-25T17:26:42Z</time>
      </trkpt>
      <trkpt lat="44.13866" lon="7.23411">
        <ele>2010.186904208</ele>
        <time>2016-09-25T17:26:48Z</time>
      </trkpt>
      <trkpt lat="44.13863" lon="7.2342">
        <ele>2012.0552598508</ele>
        <time>2016-09-25T17:26:57Z</time>
      </trkpt>
      <trkpt lat="44.13863" lon="7.23423">
        <ele>2012.0552598508</ele>
        <time>2016-09-25T17:27:02Z</time>
      </trkpt>
      <trkpt lat="44.13857" lon="7.23432">
        <ele>2013.9481668237</ele>
        <time>2016-09-25T17:27:13Z</time>
      </trkpt>
      <trkpt lat="44.13855" lon="7.23436">
        <ele>2013.9481668237</ele>
        <time>2016-09-25T17:27:17Z</time>
      </trkpt>
      <trkpt lat="44.13852" lon="7.23442">
        <ele>2016.4523552208</ele>
        <time>2016-09-25T17:27:28Z</time>
      </trkpt>
      <trkpt lat="44.1385" lon="7.23447">
        <ele>2016.4523552208</ele>
        <time>2016-09-25T17:27:33Z</time>
      </trkpt>
      <trkpt lat="44.13848" lon="7.23454">
        <ele>2018.625558818</ele>
        <time>2016-09-25T17:27:48Z</time>
      </trkpt>
      <trkpt lat="44.13846" lon="7.23461">
        <ele>2018.625558818</ele>
        <time>2016-09-25T17:28:02Z</time>
      </trkpt>
      <trkpt lat="44.13846" lon="7.23462">
        <ele>2018.625558818</ele>
        <time>2016-09-25T17:28:07Z</time>
      </trkpt>
      <trkpt lat="44.13846" lon="7.23465">
        <ele>2018.625558818</ele>
        <time>2016-09-25T17:28:18Z</time>
      </trkpt>
      <trkpt lat="44.13846" lon="7.23468">
        <ele>2020.5757742216</ele>
        <time>2016-09-25T17:28:22Z</time>
      </trkpt>
      <trkpt lat="44.13842" lon="7.23479">
        <ele>2020.5757742216</ele>
        <time>2016-09-25T17:28:32Z</time>
      </trkpt>
      <trkpt lat="44.1384" lon="7.23484">
        <ele>2022.5335461585</ele>
        <time>2016-09-25T17:28:38Z</time>
      </trkpt>
      <trkpt lat="44.13837" lon="7.23494">
        <ele>2022.5335461585</ele>
        <time>2016-09-25T17:28:47Z</time>
      </trkpt>
      <trkpt lat="44.13836" lon="7.23497">
        <ele>2024.1217573353</ele>
        <time>2016-09-25T17:28:52Z</time>
      </trkpt>
      <trkpt lat="44.1383" lon="7.23501">
        <ele>2024.1217573353</ele>
        <time>2016-09-25T17:29:03Z</time>
      </trkpt>
      <trkpt lat="44.13829" lon="7.23503">
        <ele>2024.1217573353</ele>
        <time>2016-09-25T17:29:07Z</time>
      </trkpt>
      <trkpt lat="44.13825" lon="7.23509">
        <ele>2026.1738863339</ele>
        <time>2016-09-25T17:29:18Z</time>
      </trkpt>
      <trkpt lat="44.13824" lon="7.23511">
        <ele>2026.1738863339</ele>
        <time>2016-09-25T17:29:23Z</time>
      </trkpt>
      <trkpt lat="44.13824" lon="7.23512">
        <ele>2026.1738863339</ele>
        <time>2016-09-25T17:29:32Z</time>
      </trkpt>
      <trkpt lat="44.13824" lon="7.23512">
        <ele>2026.1738863339</ele>
        <time>2016-09-25T17:29:38Z</time>
      </trkpt>
      <trkpt lat="44.13819" lon="7.23517">
        <ele>2026.1738863339</ele>
        <time>2016-09-25T17:29:47Z</time>
      </trkpt>
      <trkpt lat="44.13816" lon="7.23524">
        <ele>2026.5932068903</ele>
        <time>2016-09-25T17:29:52Z</time>
      </trkpt>
      <trkpt lat="44.13811" lon="7.23531">
        <ele>2026.5932068903</ele>
        <time>2016-09-25T17:30:02Z</time>
      </trkpt>
      <trkpt lat="44.1381" lon="7.23535">
        <ele>2027.2894909926</ele>
        <time>2016-09-25T17:30:07Z</time>
      </trkpt>
      <trkpt lat="44.13803" lon="7.23542">
        <ele>2027.2894909926</ele>
        <time>2016-09-25T17:30:17Z</time>
      </trkpt>
      <trkpt lat="44.138" lon="7.23546">
        <ele>2028.2301666179</ele>
        <time>2016-09-25T17:30:22Z</time>
      </trkpt>
      <trkpt lat="44.13798" lon="7.23549">
        <ele>2028.2301666179</ele>
        <time>2016-09-25T17:30:27Z</time>
      </trkpt>
      <trkpt lat="44.13796" lon="7.23551">
        <ele>2028.2301666179</ele>
        <time>2016-09-25T17:30:33Z</time>
      </trkpt>
      <trkpt lat="44.13794" lon="7.23553">
        <ele>2028.2301666179</ele>
        <time>2016-09-25T17:30:38Z</time>
      </trkpt>
      <trkpt lat="44.13789" lon="7.23552">
        <ele>2030.9985171748</ele>
        <time>2016-09-25T17:30:42Z</time>
      </trkpt>
      <trkpt lat="44.13788" lon="7.23552">
        <ele>2030.9985171748</ele>
        <time>2016-09-25T17:30:53Z</time>
      </trkpt>
      <trkpt lat="44.13788" lon="7.23552">
        <ele>2030.9985171748</ele>
        <time>2016-09-25T17:31:07Z</time>
      </trkpt>
      <trkpt lat="44.13788" lon="7.23552">
        <ele>2030.9985171748</ele>
        <time>2016-09-25T17:31:22Z</time>
      </trkpt>
      <trkpt lat="44.13788" lon="7.23552">
        <ele>2030.9985171748</ele>
        <time>2016-09-25T17:31:27Z</time>
      </trkpt>
      <trkpt lat="44.13788" lon="7.23552">
        <ele>2030.9985171748</ele>
        <time>2016-09-25T17:31:37Z</time>
      </trkpt>
      <trkpt lat="44.13788" lon="7.23552">
        <ele>2030.9985171748</ele>
        <time>2016-09-25T17:31:43Z</time>
      </trkpt>
      <trkpt lat="44.13787" lon="7.23552">
        <ele>2030.9985171748</ele>
        <time>2016-09-25T17:31:53Z</time>
      </trkpt>
      <trkpt lat="44.13784" lon="7.23551">
        <ele>2030.9985171748</ele>
        <time>2016-09-25T17:31:57Z</time>
      </trkpt>
      <trkpt lat="44.13773" lon="7.23546">
        <ele>2033.079017393</ele>
        <time>2016-09-25T17:32:08Z</time>
      </trkpt>
      <trkpt lat="44.13767" lon="7.23546">
        <ele>2033.079017393</ele>
        <time>2016-09-25T17:32:12Z</time>
      </trkpt>
      <trkpt lat="44.13754" lon="7.23548">
        <ele>2034.6793047386</ele>
        <time>2016-09-25T17:32:23Z</time>
      </trkpt>
      <trkpt lat="44.13752" lon="7.23546">
        <ele>2034.6793047386</ele>
        <time>2016-09-25T17:32:28Z</time>
      </trkpt>
      <trkpt lat="44.13753" lon="7.23543">
        <ele>2034.6793047386</ele>
        <time>2016-09-25T17:32:32Z</time>
      </trkpt>
      <trkpt lat="44.13753" lon="7.23544">
        <ele>2034.6793047386</ele>
        <time>2016-09-25T17:32:43Z</time>
      </trkpt>
      <trkpt lat="44.13753" lon="7.23543">
        <ele>2034.6793047386</ele>
        <time>2016-09-25T17:32:47Z</time>
      </trkpt>
      <trkpt lat="44.13755" lon="7.23531">
        <ele>2034.9844139921</ele>
        <time>2016-09-25T17:32:57Z</time>
      </trkpt>
      <trkpt lat="44.13758" lon="7.23523">
        <ele>2034.9844139921</ele>
        <time>2016-09-25T17:33:03Z</time>
      </trkpt>
      <trkpt lat="44.1376" lon="7.23512">
        <ele>2034.7272977754</ele>
        <time>2016-09-25T17:33:12Z</time>
      </trkpt>
      <trkpt lat="44.13759" lon="7.23505">
        <ele>2034.7272977754</ele>
        <time>2016-09-25T17:33:17Z</time>
      </trkpt>
      <trkpt lat="44.13757" lon="7.2349">
        <ele>2034.4445915088</ele>
        <time>2016-09-25T17:33:28Z</time>
      </trkpt>
      <trkpt lat="44.13757" lon="7.23482">
        <ele>2034.4445915088</ele>
        <time>2016-09-25T17:33:32Z</time>
      </trkpt>
      <trkpt lat="44.13759" lon="7.2347">
        <ele>2034.1148230762</ele>
        <time>2016-09-25T17:33:43Z</time>
      </trkpt>
      <trkpt lat="44.13756" lon="7.23459">
        <ele>2034.1148230762</ele>
        <time>2016-09-25T17:33:48Z</time>
      </trkpt>
      <trkpt lat="44.13747" lon="7.23446">
        <ele>2034.0641197589</ele>
        <time>2016-09-25T17:33:57Z</time>
      </trkpt>
      <trkpt lat="44.13742" lon="7.2344">
        <ele>2034.0641197589</ele>
        <time>2016-09-25T17:34:03Z</time>
      </trkpt>
      <trkpt lat="44.13737" lon="7.23432">
        <ele>2034.1183076945</ele>
        <time>2016-09-25T17:34:12Z</time>
      </trkpt>
      <trkpt lat="44.13737" lon="7.23426">
        <ele>2034.1183076945</ele>
        <time>2016-09-25T17:34:17Z</time>
      </trkpt>
      <trkpt lat="44.13739" lon="7.23412">
        <ele>2032.8187006566</ele>
        <time>2016-09-25T17:34:28Z</time>
      </trkpt>
      <trkpt lat="44.13741" lon="7.23405">
        <ele>2032.8187006566</ele>
        <time>2016-09-25T17:34:33Z</time>
      </trkpt>
      <trkpt lat="44.13742" lon="7.23385">
        <ele>2031.0368455425</ele>
        <time>2016-09-25T17:34:47Z</time>
      </trkpt>
      <trkpt lat="44.1374" lon="7.23378">
        <ele>2031.0368455425</ele>
        <time>2016-09-25T17:34:52Z</time>
      </trkpt>
      <trkpt lat="44.13735" lon="7.2337">
        <ele>2029.7256800117</ele>
        <time>2016-09-25T17:34:59Z</time>
      </trkpt>
      <trkpt lat="44.13733" lon="7.23369">
        <ele>2029.7256800117</ele>
        <time>2016-09-25T17:35:02Z</time>
      </trkpt>
      <trkpt lat="44.13731" lon="7.23369">
        <ele>2029.7256800117</ele>
        <time>2016-09-25T17:35:07Z</time>
      </trkpt>
      <trkpt lat="44.13726" lon="7.2337">
        <ele>2029.7256800117</ele>
        <time>2016-09-25T17:35:18Z</time>
      </trkpt>
      <trkpt lat="44.13723" lon="7.23371">
        <ele>2027.7924246939</ele>
        <time>2016-09-25T17:35:23Z</time>
      </trkpt>
      <trkpt lat="44.13717" lon="7.23372">
        <ele>2027.7924246939</ele>
        <time>2016-09-25T17:35:32Z</time>
      </trkpt>
      <trkpt lat="44.13718" lon="7.2337">
        <ele>2027.7924246939</ele>
        <time>2016-09-25T17:35:38Z</time>
      </trkpt>
      <trkpt lat="44.13716" lon="7.23372">
        <ele>2026.2293724969</ele>
        <time>2016-09-25T17:35:47Z</time>
      </trkpt>
      <trkpt lat="44.13713" lon="7.2338">
        <ele>2026.2293724969</ele>
        <time>2016-09-25T17:35:53Z</time>
      </trkpt>
      <trkpt lat="44.13708" lon="7.23386">
        <ele>2024.1677920068</ele>
        <time>2016-09-25T17:36:03Z</time>
      </trkpt>
      <trkpt lat="44.13706" lon="7.23386">
        <ele>2024.1677920068</ele>
        <time>2016-09-25T17:36:07Z</time>
      </trkpt>
      <trkpt lat="44.13697" lon="7.23404">
        <ele>2021.0057868536</ele>
        <time>2016-09-25T17:36:18Z</time>
      </trkpt>
      <trkpt lat="44.13694" lon="7.23409">
        <ele>2021.0057868536</ele>
        <time>2016-09-25T17:36:23Z</time>
      </trkpt>
      <trkpt lat="44.1369" lon="7.23416">
        <ele>2017.4135491078</ele>
        <time>2016-09-25T17:36:32Z</time>
      </trkpt>
      <trkpt lat="44.13686" lon="7.23418">
        <ele>2017.4135491078</ele>
        <time>2016-09-25T17:36:37Z</time>
      </trkpt>
      <trkpt lat="44.13682" lon="7.23421">
        <ele>2017.4135491078</ele>
        <time>2016-09-25T17:36:42Z</time>
      </trkpt>
      <trkpt lat="44.13681" lon="7.23426">
        <ele>2013.6239629683</ele>
        <time>2016-09-25T17:36:47Z</time>
      </trkpt>
      <trkpt lat="44.13677" lon="7.2343">
        <ele>2013.6239629683</ele>
        <time>2016-09-25T17:36:52Z</time>
      </trkpt>
      <trkpt lat="44.13675" lon="7.23435">
        <ele>2010.400773493</ele>
        <time>2016-09-25T17:36:57Z</time>
      </trkpt>
      <trkpt lat="44.13667" lon="7.23452">
        <ele>2007.7004233609</ele>
        <time>2016-09-25T17:37:12Z</time>
      </trkpt>
      <trkpt lat="44.13662" lon="7.23468">
        <ele>2005.4376043943</ele>
        <time>2016-09-25T17:37:28Z</time>
      </trkpt>
      <trkpt lat="44.13662" lon="7.2347">
        <ele>2005.4376043943</ele>
        <time>2016-09-25T17:37:32Z</time>
      </trkpt>
      <trkpt lat="44.13669" lon="7.23482">
        <ele>2003.2723826999</ele>
        <time>2016-09-25T17:37:43Z</time>
      </trkpt>
      <trkpt lat="44.13669" lon="7.23483">
        <ele>2003.2723826999</ele>
        <time>2016-09-25T17:37:48Z</time>
      </trkpt>
      <trkpt lat="44.1367" lon="7.23484">
        <ele>2003.2723826999</ele>
        <time>2016-09-25T17:37:58Z</time>
      </trkpt>
      <trkpt lat="44.1367" lon="7.23484">
        <ele>2003.2723826999</ele>
        <time>2016-09-25T17:38:03Z</time>
      </trkpt>
      <trkpt lat="44.13669" lon="7.23496">
        <ele>2000.6730798618</ele>
        <time>2016-09-25T17:38:12Z</time>
      </trkpt>
      <trkpt lat="44.13664" lon="7.23508">
        <ele>1998.5026547576</ele>
        <time>2016-09-25T17:38:18Z</time>
      </trkpt>
      <trkpt lat="44.13655" lon="7.23528">
        <ele>1997.2277293724</ele>
        <time>2016-09-25T17:38:28Z</time>
      </trkpt>
      <trkpt lat="44.13653" lon="7.23533">
        <ele>1997.2277293724</ele>
        <time>2016-09-25T17:38:32Z</time>
      </trkpt>
      <trkpt lat="44.13652" lon="7.23544">
        <ele>1995.3323473478</ele>
        <time>2016-09-25T17:38:43Z</time>
      </trkpt>
      <trkpt lat="44.13652" lon="7.23544">
        <ele>1995.3323473478</ele>
        <time>2016-09-25T17:38:47Z</time>
      </trkpt>
      <trkpt lat="44.1365" lon="7.23549">
        <ele>1995.3323473478</ele>
        <time>2016-09-25T17:38:58Z</time>
      </trkpt>
      <trkpt lat="44.13647" lon="7.23557">
        <ele>1991.9033420272</ele>
        <time>2016-09-25T17:39:03Z</time>
      </trkpt>
      <trkpt lat="44.13637" lon="7.23572">
        <ele>1988.1306041468</ele>
        <time>2016-09-25T17:39:18Z</time>
      </trkpt>
      <trkpt lat="44.13629" lon="7.23584">
        <ele>1983.445590473</ele>
        <time>2016-09-25T17:39:32Z</time>
      </trkpt>
      <trkpt lat="44.13616" lon="7.23599">
        <ele>1978.519892638</ele>
        <time>2016-09-25T17:39:48Z</time>
      </trkpt>
      <trkpt lat="44.13614" lon="7.23601">
        <ele>1978.519892638</ele>
        <time>2016-09-25T17:39:52Z</time>
      </trkpt>
      <trkpt lat="44.13607" lon="7.23619">
        <ele>1973.4140820488</ele>
        <time>2016-09-25T17:40:03Z</time>
      </trkpt>
      <trkpt lat="44.13602" lon="7.23627">
        <ele>1973.4140820488</ele>
        <time>2016-09-25T17:40:08Z</time>
      </trkpt>
      <trkpt lat="44.13593" lon="7.23648">
        <ele>1969.4093893938</ele>
        <time>2016-09-25T17:40:18Z</time>
      </trkpt>
      <trkpt lat="44.13591" lon="7.23657">
        <ele>1969.4093893938</ele>
        <time>2016-09-25T17:40:23Z</time>
      </trkpt>
      <trkpt lat="44.13586" lon="7.23666">
        <ele>1965.4557608749</ele>
        <time>2016-09-25T17:40:32Z</time>
      </trkpt>
      <trkpt lat="44.13581" lon="7.23693">
        <ele>1961.0409277705</ele>
        <time>2016-09-25T17:40:47Z</time>
      </trkpt>
      <trkpt lat="44.13578" lon="7.23698">
        <ele>1961.0409277705</ele>
        <time>2016-09-25T17:40:52Z</time>
      </trkpt>
      <trkpt lat="44.1357" lon="7.23713">
        <ele>1958.544580357</ele>
        <time>2016-09-25T17:41:03Z</time>
      </trkpt>
      <trkpt lat="44.13569" lon="7.23722">
        <ele>1958.544580357</ele>
        <time>2016-09-25T17:41:07Z</time>
      </trkpt>
      <trkpt lat="44.13563" lon="7.23741">
        <ele>1956.1019161075</ele>
        <time>2016-09-25T17:41:18Z</time>
      </trkpt>
      <trkpt lat="44.13562" lon="7.23745">
        <ele>1956.1019161075</ele>
        <time>2016-09-25T17:41:23Z</time>
      </trkpt>
      <trkpt lat="44.1356" lon="7.23757">
        <ele>1953.8292327715</ele>
        <time>2016-09-25T17:41:32Z</time>
      </trkpt>
      <trkpt lat="44.1356" lon="7.23763">
        <ele>1953.8292327715</ele>
        <time>2016-09-25T17:41:38Z</time>
      </trkpt>
      <trkpt lat="44.13563" lon="7.23779">
        <ele>1950.666156889</ele>
        <time>2016-09-25T17:41:47Z</time>
      </trkpt>
      <trkpt lat="44.13563" lon="7.23787">
        <ele>1950.666156889</ele>
        <time>2016-09-25T17:41:53Z</time>
      </trkpt>
      <trkpt lat="44.13557" lon="7.23798">
        <ele>1948.3128364581</ele>
        <time>2016-09-25T17:42:03Z</time>
      </trkpt>
      <trkpt lat="44.13555" lon="7.23803">
        <ele>1948.3128364581</ele>
        <time>2016-09-25T17:42:07Z</time>
      </trkpt>
      <trkpt lat="44.13552" lon="7.23808">
        <ele>1948.3128364581</ele>
        <time>2016-09-25T17:42:12Z</time>
      </trkpt>
      <trkpt lat="44.13547" lon="7.23814">
        <ele>1946.3820184477</ele>
        <time>2016-09-25T17:42:18Z</time>
      </trkpt>
      <trkpt lat="44.13543" lon="7.2382">
        <ele>1946.3820184477</ele>
        <time>2016-09-25T17:42:23Z</time>
      </trkpt>
      <trkpt lat="44.1354" lon="7.23825">
        <ele>1943.8937207633</ele>
        <time>2016-09-25T17:42:27Z</time>
      </trkpt>
      <trkpt lat="44.13533" lon="7.23842">
        <ele>1941.1517473136</ele>
        <time>2016-09-25T17:42:39Z</time>
      </trkpt>
      <trkpt lat="44.1353" lon="7.23845">
        <ele>1941.1517473136</ele>
        <time>2016-09-25T17:42:42Z</time>
      </trkpt>
      <trkpt lat="44.13523" lon="7.23857">
        <ele>1939.0144544942</ele>
        <time>2016-09-25T17:42:53Z</time>
      </trkpt>
      <trkpt lat="44.13521" lon="7.23864">
        <ele>1939.0144544942</ele>
        <time>2016-09-25T17:42:58Z</time>
      </trkpt>
      <trkpt lat="44.13518" lon="7.23873">
        <ele>1937.6699095471</ele>
        <time>2016-09-25T17:43:07Z</time>
      </trkpt>
      <trkpt lat="44.13516" lon="7.23882">
        <ele>1937.6699095471</ele>
        <time>2016-09-25T17:43:13Z</time>
      </trkpt>
      <trkpt lat="44.13506" lon="7.23891">
        <ele>1936.3099286575</ele>
        <time>2016-09-25T17:43:23Z</time>
      </trkpt>
      <trkpt lat="44.13503" lon="7.23896">
        <ele>1936.3099286575</ele>
        <time>2016-09-25T17:43:27Z</time>
      </trkpt>
      <trkpt lat="44.13499" lon="7.23906">
        <ele>1935.3528029627</ele>
        <time>2016-09-25T17:43:38Z</time>
      </trkpt>
      <trkpt lat="44.13498" lon="7.23911">
        <ele>1935.3528029627</ele>
        <time>2016-09-25T17:43:42Z</time>
      </trkpt>
      <trkpt lat="44.13494" lon="7.23921">
        <ele>1934.3056709143</ele>
        <time>2016-09-25T17:43:53Z</time>
      </trkpt>
      <trkpt lat="44.13489" lon="7.23926">
        <ele>1934.3056709143</ele>
        <time>2016-09-25T17:43:58Z</time>
      </trkpt>
      <trkpt lat="44.1348" lon="7.23942">
        <ele>1934.8591922552</ele>
        <time>2016-09-25T17:44:13Z</time>
      </trkpt>
      <trkpt lat="44.13477" lon="7.2395">
        <ele>1934.8591922552</ele>
        <time>2016-09-25T17:44:27Z</time>
      </trkpt>
      <trkpt lat="44.13476" lon="7.23951">
        <ele>1934.8591922552</ele>
        <time>2016-09-25T17:44:42Z</time>
      </trkpt>
      <trkpt lat="44.13476" lon="7.23951">
        <ele>1934.8591922552</ele>
        <time>2016-09-25T17:44:47Z</time>
      </trkpt>
      <trkpt lat="44.13476" lon="7.23955">
        <ele>1934.2806595248</ele>
        <time>2016-09-25T17:44:58Z</time>
      </trkpt>
      <trkpt lat="44.13476" lon="7.23958">
        <ele>1934.2806595248</ele>
        <time>2016-09-25T17:45:02Z</time>
      </trkpt>
      <trkpt lat="44.13474" lon="7.23976">
        <ele>1934.2347751877</ele>
        <time>2016-09-25T17:45:13Z</time>
      </trkpt>
      <trkpt lat="44.13476" lon="7.23982">
        <ele>1934.2347751877</ele>
        <time>2016-09-25T17:45:18Z</time>
      </trkpt>
      <trkpt lat="44.13481" lon="7.24002">
        <ele>1933.0486599302</ele>
        <time>2016-09-25T17:45:27Z</time>
      </trkpt>
      <trkpt lat="44.1348" lon="7.24011">
        <ele>1933.0486599302</ele>
        <time>2016-09-25T17:45:33Z</time>
      </trkpt>
      <trkpt lat="44.13477" lon="7.24026">
        <ele>1932.2161690671</ele>
        <time>2016-09-25T17:45:47Z</time>
      </trkpt>
      <trkpt lat="44.13475" lon="7.24041">
        <ele>1931.92422635</ele>
        <time>2016-09-25T17:45:58Z</time>
      </trkpt>
      <trkpt lat="44.13474" lon="7.24045">
        <ele>1931.92422635</ele>
        <time>2016-09-25T17:46:02Z</time>
      </trkpt>
      <trkpt lat="44.13476" lon="7.24053">
        <ele>1931.92422635</ele>
        <time>2016-09-25T17:46:07Z</time>
      </trkpt>
      <trkpt lat="44.13475" lon="7.24066">
        <ele>1930.499821743</ele>
        <time>2016-09-25T17:46:13Z</time>
      </trkpt>
      <trkpt lat="44.13476" lon="7.24074">
        <ele>1930.499821743</ele>
        <time>2016-09-25T17:46:17Z</time>
      </trkpt>
      <trkpt lat="44.13477" lon="7.24081">
        <ele>1929.3214280892</ele>
        <time>2016-09-25T17:46:22Z</time>
      </trkpt>
      <trkpt lat="44.13478" lon="7.24102">
        <ele>1928.2964742099</ele>
        <time>2016-09-25T17:46:34Z</time>
      </trkpt>
      <trkpt lat="44.13478" lon="7.24107">
        <ele>1928.2964742099</ele>
        <time>2016-09-25T17:46:37Z</time>
      </trkpt>
      <trkpt lat="44.13475" lon="7.24121">
        <ele>1926.7190550553</ele>
        <time>2016-09-25T17:46:47Z</time>
      </trkpt>
      <trkpt lat="44.13471" lon="7.24132">
        <ele>1926.7190550553</ele>
        <time>2016-09-25T17:46:53Z</time>
      </trkpt>
      <trkpt lat="44.13466" lon="7.24146">
        <ele>1925.5939325192</ele>
        <time>2016-09-25T17:47:02Z</time>
      </trkpt>
      <trkpt lat="44.13464" lon="7.24154">
        <ele>1925.5939325192</ele>
        <time>2016-09-25T17:47:07Z</time>
      </trkpt>
      <trkpt lat="44.13461" lon="7.24162">
        <ele>1925.0437606936</ele>
        <time>2016-09-25T17:47:13Z</time>
      </trkpt>
      <trkpt lat="44.13457" lon="7.24166">
        <ele>1925.0437606936</ele>
        <time>2016-09-25T17:47:17Z</time>
      </trkpt>
      <trkpt lat="44.13449" lon="7.24181">
        <ele>1924.3014945448</ele>
        <time>2016-09-25T17:47:28Z</time>
      </trkpt>
      <trkpt lat="44.13445" lon="7.24185">
        <ele>1924.3014945448</ele>
        <time>2016-09-25T17:47:32Z</time>
      </trkpt>
      <trkpt lat="44.1344" lon="7.24194">
        <ele>1923.089318861</ele>
        <time>2016-09-25T17:47:43Z</time>
      </trkpt>
      <trkpt lat="44.13437" lon="7.24195">
        <ele>1923.089318861</ele>
        <time>2016-09-25T17:47:48Z</time>
      </trkpt>
      <trkpt lat="44.13432" lon="7.24199">
        <ele>1921.1511631129</ele>
        <time>2016-09-25T17:47:57Z</time>
      </trkpt>
      <trkpt lat="44.13428" lon="7.24205">
        <ele>1921.1511631129</ele>
        <time>2016-09-25T17:48:03Z</time>
      </trkpt>
      <trkpt lat="44.1342" lon="7.24216">
        <ele>1919.4191286309</ele>
        <time>2016-09-25T17:48:12Z</time>
      </trkpt>
      <trkpt lat="44.13418" lon="7.24223">
        <ele>1919.4191286309</ele>
        <time>2016-09-25T17:48:17Z</time>
      </trkpt>
      <trkpt lat="44.13412" lon="7.24232">
        <ele>1918.2086722071</ele>
        <time>2016-09-25T17:48:28Z</time>
      </trkpt>
      <trkpt lat="44.13408" lon="7.24236">
        <ele>1918.2086722071</ele>
        <time>2016-09-25T17:48:32Z</time>
      </trkpt>
      <trkpt lat="44.13391" lon="7.24251">
        <ele>1916.6289320982</ele>
        <time>2016-09-25T17:48:44Z</time>
      </trkpt>
      <trkpt lat="44.13385" lon="7.24254">
        <ele>1916.6289320982</ele>
        <time>2016-09-25T17:48:48Z</time>
      </trkpt>
      <trkpt lat="44.13381" lon="7.24257">
        <ele>1916.2333919966</ele>
        <time>2016-09-25T17:48:52Z</time>
      </trkpt>
      <trkpt lat="44.13374" lon="7.24268">
        <ele>1916.5558678291</ele>
        <time>2016-09-25T17:49:03Z</time>
      </trkpt>
      <trkpt lat="44.13372" lon="7.24274">
        <ele>1916.5558678291</ele>
        <time>2016-09-25T17:49:08Z</time>
      </trkpt>
      <trkpt lat="44.13368" lon="7.2428">
        <ele>1916.1536764708</ele>
        <time>2016-09-25T17:49:17Z</time>
      </trkpt>
      <trkpt lat="44.13364" lon="7.24285">
        <ele>1916.1536764708</ele>
        <time>2016-09-25T17:49:23Z</time>
      </trkpt>
      <trkpt lat="44.13358" lon="7.24297">
        <ele>1914.513635299</ele>
        <time>2016-09-25T17:49:32Z</time>
      </trkpt>
      <trkpt lat="44.13355" lon="7.24303">
        <ele>1914.513635299</ele>
        <time>2016-09-25T17:49:37Z</time>
      </trkpt>
      <trkpt lat="44.13351" lon="7.2431">
        <ele>1914.5215873446</ele>
        <time>2016-09-25T17:49:47Z</time>
      </trkpt>
      <trkpt lat="44.13346" lon="7.24315">
        <ele>1914.5215873446</ele>
        <time>2016-09-25T17:49:52Z</time>
      </trkpt>
      <trkpt lat="44.13341" lon="7.24328">
        <ele>1914.1632193193</ele>
        <time>2016-09-25T17:50:03Z</time>
      </trkpt>
      <trkpt lat="44.13339" lon="7.24333">
        <ele>1914.1632193193</ele>
        <time>2016-09-25T17:50:08Z</time>
      </trkpt>
      <trkpt lat="44.13338" lon="7.24337">
        <ele>1914.1632193193</ele>
        <time>2016-09-25T17:50:12Z</time>
      </trkpt>
      <trkpt lat="44.13334" lon="7.24354">
        <ele>1913.5043828488</ele>
        <time>2016-09-25T17:50:23Z</time>
      </trkpt>
      <trkpt lat="44.13332" lon="7.2436">
        <ele>1913.5043828488</ele>
        <time>2016-09-25T17:50:27Z</time>
      </trkpt>
      <trkpt lat="44.13328" lon="7.24375">
        <ele>1912.3332054596</ele>
        <time>2016-09-25T17:50:37Z</time>
      </trkpt>
      <trkpt lat="44.13324" lon="7.24384">
        <ele>1912.3332054596</ele>
        <time>2016-09-25T17:50:43Z</time>
      </trkpt>
      <trkpt lat="44.13318" lon="7.24393">
        <ele>1910.829589954</ele>
        <time>2016-09-25T17:50:52Z</time>
      </trkpt>
      <trkpt lat="44.13318" lon="7.24399">
        <ele>1910.829589954</ele>
        <time>2016-09-25T17:50:58Z</time>
      </trkpt>
      <trkpt lat="44.13312" lon="7.24409">
        <ele>1908.8297847757</ele>
        <time>2016-09-25T17:51:08Z</time>
      </trkpt>
      <trkpt lat="44.13307" lon="7.24412">
        <ele>1908.8297847757</ele>
        <time>2016-09-25T17:51:12Z</time>
      </trkpt>
      <trkpt lat="44.13301" lon="7.24421">
        <ele>1907.4228971336</ele>
        <time>2016-09-25T17:51:23Z</time>
      </trkpt>
      <trkpt lat="44.13299" lon="7.24427">
        <ele>1907.4228971336</ele>
        <time>2016-09-25T17:51:28Z</time>
      </trkpt>
      <trkpt lat="44.13286" lon="7.24437">
        <ele>1906.6941329053</ele>
        <time>2016-09-25T17:51:43Z</time>
      </trkpt>
      <trkpt lat="44.13284" lon="7.24442">
        <ele>1906.6941329053</ele>
        <time>2016-09-25T17:51:47Z</time>
      </trkpt>
      <trkpt lat="44.13281" lon="7.2445">
        <ele>1905.4236112583</ele>
        <time>2016-09-25T17:51:58Z</time>
      </trkpt>
      <trkpt lat="44.1328" lon="7.24453">
        <ele>1905.4236112583</ele>
        <time>2016-09-25T17:52:03Z</time>
      </trkpt>
      <trkpt lat="44.13277" lon="7.24464">
        <ele>1903.9093561822</ele>
        <time>2016-09-25T17:52:12Z</time>
      </trkpt>
      <trkpt lat="44.13276" lon="7.24474">
        <ele>1903.9093561822</ele>
        <time>2016-09-25T17:52:18Z</time>
      </trkpt>
      <trkpt lat="44.13276" lon="7.24487">
        <ele>1901.4338849253</ele>
        <time>2016-09-25T17:52:27Z</time>
      </trkpt>
      <trkpt lat="44.13275" lon="7.24495">
        <ele>1901.4338849253</ele>
        <time>2016-09-25T17:52:32Z</time>
      </trkpt>
      <trkpt lat="44.13269" lon="7.24508">
        <ele>1898.6898254064</ele>
        <time>2016-09-25T17:52:42Z</time>
      </trkpt>
      <trkpt lat="44.13265" lon="7.2451">
        <ele>1898.6898254064</ele>
        <time>2016-09-25T17:52:47Z</time>
      </trkpt>
      <trkpt lat="44.13261" lon="7.24516">
        <ele>1896.5359009131</ele>
        <time>2016-09-25T17:52:57Z</time>
      </trkpt>
      <trkpt lat="44.13261" lon="7.24521">
        <ele>1896.5359009131</ele>
        <time>2016-09-25T17:53:03Z</time>
      </trkpt>
      <trkpt lat="44.13258" lon="7.24529">
        <ele>1894.4114984868</ele>
        <time>2016-09-25T17:53:12Z</time>
      </trkpt>
      <trkpt lat="44.13255" lon="7.24535">
        <ele>1894.4114984868</ele>
        <time>2016-09-25T17:53:17Z</time>
      </trkpt>
      <trkpt lat="44.13247" lon="7.24545">
        <ele>1892.4024076298</ele>
        <time>2016-09-25T17:53:28Z</time>
      </trkpt>
      <trkpt lat="44.13245" lon="7.24549">
        <ele>1892.4024076298</ele>
        <time>2016-09-25T17:53:32Z</time>
      </trkpt>
      <trkpt lat="44.13243" lon="7.24555">
        <ele>1892.4024076298</ele>
        <time>2016-09-25T17:53:37Z</time>
      </trkpt>
      <trkpt lat="44.13239" lon="7.2456">
        <ele>1890.4437095067</ele>
        <time>2016-09-25T17:53:43Z</time>
      </trkpt>
      <trkpt lat="44.13239" lon="7.24564">
        <ele>1890.4437095067</ele>
        <time>2016-09-25T17:53:48Z</time>
      </trkpt>
      <trkpt lat="44.13237" lon="7.24574">
        <ele>1889.2245144714</ele>
        <time>2016-09-25T17:53:52Z</time>
      </trkpt>
      <trkpt lat="44.13232" lon="7.24592">
        <ele>1887.1331214774</ele>
        <time>2016-09-25T17:54:03Z</time>
      </trkpt>
      <trkpt lat="44.13227" lon="7.24608">
        <ele>1884.6962418327</ele>
        <time>2016-09-25T17:54:17Z</time>
      </trkpt>
      <trkpt lat="44.13222" lon="7.24613">
        <ele>1884.6962418327</ele>
        <time>2016-09-25T17:54:23Z</time>
      </trkpt>
      <trkpt lat="44.13213" lon="7.24618">
        <ele>1882.8207973787</ele>
        <time>2016-09-25T17:54:32Z</time>
      </trkpt>
      <trkpt lat="44.1321" lon="7.24624">
        <ele>1882.8207973787</ele>
        <time>2016-09-25T17:54:37Z</time>
      </trkpt>
      <trkpt lat="44.13201" lon="7.24633">
        <ele>1880.1694397044</ele>
        <time>2016-09-25T17:54:48Z</time>
      </trkpt>
      <trkpt lat="44.13197" lon="7.24641">
        <ele>1880.1694397044</ele>
        <time>2016-09-25T17:54:52Z</time>
      </trkpt>
      <trkpt lat="44.13193" lon="7.24654">
        <ele>1878.012771434</ele>
        <time>2016-09-25T17:55:05Z</time>
      </trkpt>
      <trkpt lat="44.13192" lon="7.24659">
        <ele>1878.012771434</ele>
        <time>2016-09-25T17:55:08Z</time>
      </trkpt>
      <trkpt lat="44.13182" lon="7.24659">
        <ele>1876.1431963921</ele>
        <time>2016-09-25T17:55:17Z</time>
      </trkpt>
      <trkpt lat="44.13177" lon="7.24663">
        <ele>1876.1431963921</ele>
        <time>2016-09-25T17:55:22Z</time>
      </trkpt>
      <trkpt lat="44.1317" lon="7.2467">
        <ele>1874.0505075044</ele>
        <time>2016-09-25T17:55:32Z</time>
      </trkpt>
      <trkpt lat="44.13169" lon="7.24673">
        <ele>1874.0505075044</ele>
        <time>2016-09-25T17:55:38Z</time>
      </trkpt>
      <trkpt lat="44.13161" lon="7.24685">
        <ele>1871.9831440422</ele>
        <time>2016-09-25T17:55:54Z</time>
      </trkpt>
      <trkpt lat="44.13146" lon="7.24697">
        <ele>1870.2144401173</ele>
        <time>2016-09-25T17:56:07Z</time>
      </trkpt>
      <trkpt lat="44.13138" lon="7.24708">
        <ele>1868.1033042296</ele>
        <time>2016-09-25T17:56:18Z</time>
      </trkpt>
      <trkpt lat="44.13133" lon="7.24708">
        <ele>1868.1033042296</ele>
        <time>2016-09-25T17:56:22Z</time>
      </trkpt>
      <trkpt lat="44.13121" lon="7.24715">
        <ele>1865.9645782314</ele>
        <time>2016-09-25T17:56:33Z</time>
      </trkpt>
      <trkpt lat="44.13116" lon="7.24718">
        <ele>1865.9645782314</ele>
        <time>2016-09-25T17:56:38Z</time>
      </trkpt>
      <trkpt lat="44.13111" lon="7.24722">
        <ele>1864.8394091687</ele>
        <time>2016-09-25T17:56:42Z</time>
      </trkpt>
      <trkpt lat="44.13104" lon="7.24727">
        <ele>1864.8394091687</ele>
        <time>2016-09-25T17:56:48Z</time>
      </trkpt>
      <trkpt lat="44.131" lon="7.24728">
        <ele>1864.8537545249</ele>
        <time>2016-09-25T17:56:53Z</time>
      </trkpt>
      <trkpt lat="44.13095" lon="7.24739">
        <ele>1864.4350072196</ele>
        <time>2016-09-25T17:57:08Z</time>
      </trkpt>
      <trkpt lat="44.13092" lon="7.24747">
        <ele>1864.4350072196</ele>
        <time>2016-09-25T17:57:22Z</time>
      </trkpt>
      <trkpt lat="44.13092" lon="7.24747">
        <ele>1864.4350072196</ele>
        <time>2016-09-25T17:57:28Z</time>
      </trkpt>
      <trkpt lat="44.13087" lon="7.24764">
        <ele>1863.6404583879</ele>
        <time>2016-09-25T17:57:38Z</time>
      </trkpt>
      <trkpt lat="44.13083" lon="7.24769">
        <ele>1863.6404583879</ele>
        <time>2016-09-25T17:57:42Z</time>
      </trkpt>
      <trkpt lat="44.13081" lon="7.24787">
        <ele>1862.1783794766</ele>
        <time>2016-09-25T17:57:53Z</time>
      </trkpt>
      <trkpt lat="44.1308" lon="7.24797">
        <ele>1862.1783794766</ele>
        <time>2016-09-25T17:57:58Z</time>
      </trkpt>
      <trkpt lat="44.13077" lon="7.24804">
        <ele>1859.6938843433</ele>
        <time>2016-09-25T17:58:07Z</time>
      </trkpt>
      <trkpt lat="44.13071" lon="7.24809">
        <ele>1859.6938843433</ele>
        <time>2016-09-25T17:58:13Z</time>
      </trkpt>
      <trkpt lat="44.1306" lon="7.24817">
        <ele>1856.9995092507</ele>
        <time>2016-09-25T17:58:22Z</time>
      </trkpt>
      <trkpt lat="44.13057" lon="7.24821">
        <ele>1856.9995092507</ele>
        <time>2016-09-25T17:58:27Z</time>
      </trkpt>
      <trkpt lat="44.1305" lon="7.24833">
        <ele>1854.6325266571</ele>
        <time>2016-09-25T17:58:38Z</time>
      </trkpt>
      <trkpt lat="44.13048" lon="7.2484">
        <ele>1854.6325266571</ele>
        <time>2016-09-25T17:58:42Z</time>
      </trkpt>
      <trkpt lat="44.13038" lon="7.24847">
        <ele>1852.5998417485</ele>
        <time>2016-09-25T17:58:53Z</time>
      </trkpt>
      <trkpt lat="44.13035" lon="7.24853">
        <ele>1852.5998417485</ele>
        <time>2016-09-25T17:58:58Z</time>
      </trkpt>
      <trkpt lat="44.13031" lon="7.24863">
        <ele>1851.223951214</ele>
        <time>2016-09-25T17:59:07Z</time>
      </trkpt>
      <trkpt lat="44.13029" lon="7.24866">
        <ele>1851.223951214</ele>
        <time>2016-09-25T17:59:12Z</time>
      </trkpt>
      <trkpt lat="44.1302" lon="7.24877">
        <ele>1848.7121944004</ele>
        <time>2016-09-25T17:59:23Z</time>
      </trkpt>
      <trkpt lat="44.13019" lon="7.24882">
        <ele>1848.7121944004</ele>
        <time>2016-09-25T17:59:27Z</time>
      </trkpt>
      <trkpt lat="44.13016" lon="7.24892">
        <ele>1846.6204489483</ele>
        <time>2016-09-25T17:59:37Z</time>
      </trkpt>
      <trkpt lat="44.13015" lon="7.24895">
        <ele>1846.6204489483</ele>
        <time>2016-09-25T17:59:43Z</time>
      </trkpt>
      <trkpt lat="44.13012" lon="7.24898">
        <ele>1846.6204489483</ele>
        <time>2016-09-25T17:59:53Z</time>
      </trkpt>
      <trkpt lat="44.13009" lon="7.24903">
        <ele>1844.4580134465</ele>
        <time>2016-09-25T17:59:58Z</time>
      </trkpt>
      <trkpt lat="44.12997" lon="7.24913">
        <ele>1841.7127659185</ele>
        <time>2016-09-25T18:00:13Z</time>
      </trkpt>
      <trkpt lat="44.12982" lon="7.24922">
        <ele>1839.9293714686</ele>
        <time>2016-09-25T18:00:27Z</time>
      </trkpt>
      <trkpt lat="44.12978" lon="7.24926">
        <ele>1839.9293714686</ele>
        <time>2016-09-25T18:00:33Z</time>
      </trkpt>
      <trkpt lat="44.12966" lon="7.24934">
        <ele>1837.8702427829</ele>
        <time>2016-09-25T18:00:42Z</time>
      </trkpt>
      <trkpt lat="44.12965" lon="7.24939">
        <ele>1837.8702427829</ele>
        <time>2016-09-25T18:00:47Z</time>
      </trkpt>
      <trkpt lat="44.12959" lon="7.24944">
        <ele>1835.8737939428</ele>
        <time>2016-09-25T18:00:58Z</time>
      </trkpt>
      <trkpt lat="44.12954" lon="7.24949">
        <ele>1835.8737939428</ele>
        <time>2016-09-25T18:01:02Z</time>
      </trkpt>
      <trkpt lat="44.12947" lon="7.24957">
        <ele>1833.8642724444</ele>
        <time>2016-09-25T18:01:13Z</time>
      </trkpt>
      <trkpt lat="44.12944" lon="7.24962">
        <ele>1833.8642724444</ele>
        <time>2016-09-25T18:01:17Z</time>
      </trkpt>
      <trkpt lat="44.12938" lon="7.24973">
        <ele>1830.9356496601</ele>
        <time>2016-09-25T18:01:27Z</time>
      </trkpt>
      <trkpt lat="44.12936" lon="7.24978">
        <ele>1830.9356496601</ele>
        <time>2016-09-25T18:01:32Z</time>
      </trkpt>
      <trkpt lat="44.12929" lon="7.24992">
        <ele>1828.6288310746</ele>
        <time>2016-09-25T18:01:43Z</time>
      </trkpt>
      <trkpt lat="44.12926" lon="7.24997">
        <ele>1828.6288310746</ele>
        <time>2016-09-25T18:01:47Z</time>
      </trkpt>
      <trkpt lat="44.1292" lon="7.25008">
        <ele>1826.7701130456</ele>
        <time>2016-09-25T18:01:58Z</time>
      </trkpt>
      <trkpt lat="44.12917" lon="7.25014">
        <ele>1826.7701130456</ele>
        <time>2016-09-25T18:02:03Z</time>
      </trkpt>
      <trkpt lat="44.12904" lon="7.25028">
        <ele>1824.029954527</ele>
        <time>2016-09-25T18:02:18Z</time>
      </trkpt>
      <trkpt lat="44.12904" lon="7.25032">
        <ele>1824.029954527</ele>
        <time>2016-09-25T18:02:28Z</time>
      </trkpt>
      <trkpt lat="44.12906" lon="7.25037">
        <ele>1824.029954527</ele>
        <time>2016-09-25T18:02:32Z</time>
      </trkpt>
      <trkpt lat="44.12897" lon="7.25054">
        <ele>1819.7553532598</ele>
        <time>2016-09-25T18:02:48Z</time>
      </trkpt>
      <trkpt lat="44.12896" lon="7.25058">
        <ele>1819.7553532598</ele>
        <time>2016-09-25T18:02:52Z</time>
      </trkpt>
      <trkpt lat="44.12889" lon="7.25073">
        <ele>1817.4238768542</ele>
        <time>2016-09-25T18:03:04Z</time>
      </trkpt>
      <trkpt lat="44.12886" lon="7.25078">
        <ele>1817.4238768542</ele>
        <time>2016-09-25T18:03:08Z</time>
      </trkpt>
      <trkpt lat="44.1288" lon="7.25089">
        <ele>1816.1305491517</ele>
        <time>2016-09-25T18:03:18Z</time>
      </trkpt>
      <trkpt lat="44.12875" lon="7.25096">
        <ele>1816.1305491517</ele>
        <time>2016-09-25T18:03:22Z</time>
      </trkpt>
      <trkpt lat="44.12866" lon="7.25105">
        <ele>1814.4142267805</ele>
        <time>2016-09-25T18:03:32Z</time>
      </trkpt>
      <trkpt lat="44.12861" lon="7.25111">
        <ele>1814.4142267805</ele>
        <time>2016-09-25T18:03:37Z</time>
      </trkpt>
      <trkpt lat="44.1286" lon="7.25115">
        <ele>1812.2480548974</ele>
        <time>2016-09-25T18:03:43Z</time>
      </trkpt>
      <trkpt lat="44.1286" lon="7.25121">
        <ele>1812.2480548974</ele>
        <time>2016-09-25T18:03:57Z</time>
      </trkpt>
      <trkpt lat="44.1286" lon="7.25125">
        <ele>1812.2480548974</ele>
        <time>2016-09-25T18:04:03Z</time>
      </trkpt>
      <trkpt lat="44.12857" lon="7.25136">
        <ele>1810.3000954937</ele>
        <time>2016-09-25T18:04:13Z</time>
      </trkpt>
      <trkpt lat="44.12853" lon="7.25149">
        <ele>1808.4681197453</ele>
        <time>2016-09-25T18:04:17Z</time>
      </trkpt>
      <trkpt lat="44.12848" lon="7.25158">
        <ele>1808.4681197453</ele>
        <time>2016-09-25T18:04:28Z</time>
      </trkpt>
      <trkpt lat="44.12846" lon="7.25165">
        <ele>1806.152648855</ele>
        <time>2016-09-25T18:04:32Z</time>
      </trkpt>
      <trkpt lat="44.12842" lon="7.25174">
        <ele>1806.152648855</ele>
        <time>2016-09-25T18:04:43Z</time>
      </trkpt>
      <trkpt lat="44.12839" lon="7.2518">
        <ele>1803.4768759802</ele>
        <time>2016-09-25T18:04:48Z</time>
      </trkpt>
      <trkpt lat="44.12838" lon="7.25183">
        <ele>1803.4768759802</ele>
        <time>2016-09-25T18:04:52Z</time>
      </trkpt>
      <trkpt lat="44.12832" lon="7.252">
        <ele>1801.5502795185</ele>
        <time>2016-09-25T18:05:03Z</time>
      </trkpt>
      <trkpt lat="44.12831" lon="7.2521">
        <ele>1801.5502795185</ele>
        <time>2016-09-25T18:05:08Z</time>
      </trkpt>
      <trkpt lat="44.12824" lon="7.25222">
        <ele>1799.1361464015</ele>
        <time>2016-09-25T18:05:17Z</time>
      </trkpt>
      <trkpt lat="44.12821" lon="7.25226">
        <ele>1799.1361464015</ele>
        <time>2016-09-25T18:05:23Z</time>
      </trkpt>
      <trkpt lat="44.12819" lon="7.25234">
        <ele>1796.5742810039</ele>
        <time>2016-09-25T18:05:32Z</time>
      </trkpt>
      <trkpt lat="44.12818" lon="7.25237">
        <ele>1796.5742810039</ele>
        <time>2016-09-25T18:05:37Z</time>
      </trkpt>
      <trkpt lat="44.12812" lon="7.25248">
        <ele>1794.3816524783</ele>
        <time>2016-09-25T18:05:48Z</time>
      </trkpt>
      <trkpt lat="44.12812" lon="7.25251">
        <ele>1794.3816524783</ele>
        <time>2016-09-25T18:05:52Z</time>
      </trkpt>
      <trkpt lat="44.1281" lon="7.25257">
        <ele>1794.3816524783</ele>
        <time>2016-09-25T18:06:04Z</time>
      </trkpt>
      <trkpt lat="44.12809" lon="7.25255">
        <ele>1794.3816524783</ele>
        <time>2016-09-25T18:06:07Z</time>
      </trkpt>
      <trkpt lat="44.12804" lon="7.25262">
        <ele>1789.2172237512</ele>
        <time>2016-09-25T18:06:17Z</time>
      </trkpt>
      <trkpt lat="44.12803" lon="7.25265">
        <ele>1789.2172237512</ele>
        <time>2016-09-25T18:06:23Z</time>
      </trkpt>
      <trkpt lat="44.12801" lon="7.25276">
        <ele>1783.5707697451</ele>
        <time>2016-09-25T18:06:37Z</time>
      </trkpt>
      <trkpt lat="44.12801" lon="7.25278">
        <ele>1783.5707697451</ele>
        <time>2016-09-25T18:06:48Z</time>
      </trkpt>
      <trkpt lat="44.128" lon="7.25279">
        <ele>1783.5707697451</ele>
        <time>2016-09-25T18:06:52Z</time>
      </trkpt>
      <trkpt lat="44.12795" lon="7.25284">
        <ele>1783.5707697451</ele>
        <time>2016-09-25T18:06:57Z</time>
      </trkpt>
      <trkpt lat="44.12782" lon="7.25312">
        <ele>1777.1852679712</ele>
        <time>2016-09-25T18:07:08Z</time>
      </trkpt>
      <trkpt lat="44.12781" lon="7.25323">
        <ele>1777.1852679712</ele>
        <time>2016-09-25T18:07:12Z</time>
      </trkpt>
      <trkpt lat="44.12781" lon="7.25335">
        <ele>1772.5194363504</ele>
        <time>2016-09-25T18:07:23Z</time>
      </trkpt>
      <trkpt lat="44.12778" lon="7.25339">
        <ele>1772.5194363504</ele>
        <time>2016-09-25T18:07:28Z</time>
      </trkpt>
      <trkpt lat="44.12769" lon="7.2535">
        <ele>1768.01308213</ele>
        <time>2016-09-25T18:07:37Z</time>
      </trkpt>
      <trkpt lat="44.12765" lon="7.25361">
        <ele>1768.01308213</ele>
        <time>2016-09-25T18:07:43Z</time>
      </trkpt>
      <trkpt lat="44.12761" lon="7.25374">
        <ele>1764.3384805847</ele>
        <time>2016-09-25T18:07:52Z</time>
      </trkpt>
      <trkpt lat="44.12757" lon="7.25385">
        <ele>1764.3384805847</ele>
        <time>2016-09-25T18:07:58Z</time>
      </trkpt>
      <trkpt lat="44.12754" lon="7.254">
        <ele>1762.0007619347</ele>
        <time>2016-09-25T18:08:08Z</time>
      </trkpt>
      <trkpt lat="44.12751" lon="7.25403">
        <ele>1762.0007619347</ele>
        <time>2016-09-25T18:08:12Z</time>
      </trkpt>
      <trkpt lat="44.12747" lon="7.25406">
        <ele>1762.0007619347</ele>
        <time>2016-09-25T18:08:17Z</time>
      </trkpt>
      <trkpt lat="44.12741" lon="7.25414">
        <ele>1759.4176815521</ele>
        <time>2016-09-25T18:08:28Z</time>
      </trkpt>
      <trkpt lat="44.1274" lon="7.25415">
        <ele>1759.4176815521</ele>
        <time>2016-09-25T18:08:32Z</time>
      </trkpt>
      <trkpt lat="44.12736" lon="7.2543">
        <ele>1756.7522338871</ele>
        <time>2016-09-25T18:08:42Z</time>
      </trkpt>
      <trkpt lat="44.12734" lon="7.25436">
        <ele>1756.7522338871</ele>
        <time>2016-09-25T18:08:48Z</time>
      </trkpt>
      <trkpt lat="44.12728" lon="7.25445">
        <ele>1754.6022868515</ele>
        <time>2016-09-25T18:08:57Z</time>
      </trkpt>
      <trkpt lat="44.12728" lon="7.25448">
        <ele>1754.6022868515</ele>
        <time>2016-09-25T18:09:04Z</time>
      </trkpt>
      <trkpt lat="44.12723" lon="7.25453">
        <ele>1754.6022868515</ele>
        <time>2016-09-25T18:09:12Z</time>
      </trkpt>
      <trkpt lat="44.12723" lon="7.25457">
        <ele>1752.929368609</ele>
        <time>2016-09-25T18:09:17Z</time>
      </trkpt>
      <trkpt lat="44.12721" lon="7.25461">
        <ele>1752.929368609</ele>
        <time>2016-09-25T18:09:28Z</time>
      </trkpt>
      <trkpt lat="44.12717" lon="7.25466">
        <ele>1752.929368609</ele>
        <time>2016-09-25T18:09:32Z</time>
      </trkpt>
      <trkpt lat="44.12717" lon="7.25473">
        <ele>1751.2352313966</ele>
        <time>2016-09-25T18:09:43Z</time>
      </trkpt>
      <trkpt lat="44.12717" lon="7.25474">
        <ele>1751.2352313966</ele>
        <time>2016-09-25T18:09:48Z</time>
      </trkpt>
      <trkpt lat="44.12717" lon="7.25474">
        <ele>1751.2352313966</ele>
        <time>2016-09-25T18:09:52Z</time>
      </trkpt>
      <trkpt lat="44.12718" lon="7.25479">
        <ele>1751.2352313966</ele>
        <time>2016-09-25T18:10:02Z</time>
      </trkpt>
      <trkpt lat="44.12719" lon="7.25493">
        <ele>1750.1678490117</ele>
        <time>2016-09-25T18:10:17Z</time>
      </trkpt>
      <trkpt lat="44.1272" lon="7.25502">
        <ele>1750.1678490117</ele>
        <time>2016-09-25T18:10:22Z</time>
      </trkpt>
      <trkpt lat="44.1272" lon="7.25513">
        <ele>1748.1640880883</ele>
        <time>2016-09-25T18:10:32Z</time>
      </trkpt>
      <trkpt lat="44.12722" lon="7.2552">
        <ele>1748.1640880883</ele>
        <time>2016-09-25T18:10:37Z</time>
      </trkpt>
      <trkpt lat="44.12718" lon="7.25536">
        <ele>1747.2080480102</ele>
        <time>2016-09-25T18:10:48Z</time>
      </trkpt>
      <trkpt lat="44.12717" lon="7.25542">
        <ele>1747.2080480102</ele>
        <time>2016-09-25T18:10:52Z</time>
      </trkpt>
      <trkpt lat="44.12721" lon="7.25546">
        <ele>1747.2080480102</ele>
        <time>2016-09-25T18:11:03Z</time>
      </trkpt>
      <trkpt lat="44.12718" lon="7.25554">
        <ele>1745.0567381712</ele>
        <time>2016-09-25T18:11:08Z</time>
      </trkpt>
      <trkpt lat="44.12716" lon="7.25558">
        <ele>1745.0567381712</ele>
        <time>2016-09-25T18:11:12Z</time>
      </trkpt>
      <trkpt lat="44.12713" lon="7.25567">
        <ele>1742.4021806933</ele>
        <time>2016-09-25T18:11:17Z</time>
      </trkpt>
      <trkpt lat="44.12713" lon="7.25586">
        <ele>1739.829293594</ele>
        <time>2016-09-25T18:11:28Z</time>
      </trkpt>
      <trkpt lat="44.12713" lon="7.25593">
        <ele>1739.829293594</ele>
        <time>2016-09-25T18:11:33Z</time>
      </trkpt>
      <trkpt lat="44.12705" lon="7.25617">
        <ele>1736.4530655506</ele>
        <time>2016-09-25T18:11:48Z</time>
      </trkpt>
      <trkpt lat="44.127" lon="7.2564">
        <ele>1733.4444542197</ele>
        <time>2016-09-25T18:12:02Z</time>
      </trkpt>
      <trkpt lat="44.127" lon="7.25656">
        <ele>1730.5038690673</ele>
        <time>2016-09-25T18:12:17Z</time>
      </trkpt>
      <trkpt lat="44.127" lon="7.25657">
        <ele>1730.5038690673</ele>
        <time>2016-09-25T18:12:22Z</time>
      </trkpt>
      <trkpt lat="44.12699" lon="7.25667">
        <ele>1730.5038690673</ele>
        <time>2016-09-25T18:12:33Z</time>
      </trkpt>
      <trkpt lat="44.12698" lon="7.25674">
        <ele>1728.0596489807</ele>
        <time>2016-09-25T18:12:37Z</time>
      </trkpt>
      <trkpt lat="44.12697" lon="7.25686">
        <ele>1728.0596489807</ele>
        <time>2016-09-25T18:12:48Z</time>
      </trkpt>
      <trkpt lat="44.12695" lon="7.25691">
        <ele>1725.3975865307</ele>
        <time>2016-09-25T18:12:53Z</time>
      </trkpt>
      <trkpt lat="44.1269" lon="7.25706">
        <ele>1723.5426216671</ele>
        <time>2016-09-25T18:13:02Z</time>
      </trkpt>
      <trkpt lat="44.12688" lon="7.25714">
        <ele>1723.5426216671</ele>
        <time>2016-09-25T18:13:08Z</time>
      </trkpt>
      <trkpt lat="44.12684" lon="7.25722">
        <ele>1721.9145354171</ele>
        <time>2016-09-25T18:13:17Z</time>
      </trkpt>
      <trkpt lat="44.12682" lon="7.25725">
        <ele>1721.9145354171</ele>
        <time>2016-09-25T18:13:22Z</time>
      </trkpt>
      <trkpt lat="44.12679" lon="7.25731">
        <ele>1721.9145354171</ele>
        <time>2016-09-25T18:13:33Z</time>
      </trkpt>
      <trkpt lat="44.12678" lon="7.25731">
        <ele>1721.9145354171</ele>
        <time>2016-09-25T18:13:37Z</time>
      </trkpt>
      <trkpt lat="44.12668" lon="7.25744">
        <ele>1719.9174314939</ele>
        <time>2016-09-25T18:13:48Z</time>
      </trkpt>
      <trkpt lat="44.12665" lon="7.25749">
        <ele>1719.9174314939</ele>
        <time>2016-09-25T18:13:53Z</time>
      </trkpt>
      <trkpt lat="44.12649" lon="7.25765">
        <ele>1718.6142572245</ele>
        <time>2016-09-25T18:14:08Z</time>
      </trkpt>
      <trkpt lat="44.12635" lon="7.2577">
        <ele>1717.4027054771</ele>
        <time>2016-09-25T18:14:22Z</time>
      </trkpt>
      <trkpt lat="44.12622" lon="7.25777">
        <ele>1715.8829872963</ele>
        <time>2016-09-25T18:14:37Z</time>
      </trkpt>
      <trkpt lat="44.12616" lon="7.25784">
        <ele>1715.8829872963</ele>
        <time>2016-09-25T18:14:42Z</time>
      </trkpt>
      <trkpt lat="44.1261" lon="7.25797">
        <ele>1714.5934642139</ele>
        <time>2016-09-25T18:14:53Z</time>
      </trkpt>
      <trkpt lat="44.12611" lon="7.25802">
        <ele>1714.5934642139</ele>
        <time>2016-09-25T18:14:58Z</time>
      </trkpt>
      <trkpt lat="44.12612" lon="7.25811">
        <ele>1711.4671492986</ele>
        <time>2016-09-25T18:15:08Z</time>
      </trkpt>
      <trkpt lat="44.12615" lon="7.25816">
        <ele>1711.4671492986</ele>
        <time>2016-09-25T18:15:13Z</time>
      </trkpt>
      <trkpt lat="44.12615" lon="7.25822">
        <ele>1708.9606445844</ele>
        <time>2016-09-25T18:15:22Z</time>
      </trkpt>
      <trkpt lat="44.12618" lon="7.25828">
        <ele>1708.9606445844</ele>
        <time>2016-09-25T18:15:28Z</time>
      </trkpt>
      <trkpt lat="44.1262" lon="7.25848">
        <ele>1706.6390925507</ele>
        <time>2016-09-25T18:15:37Z</time>
      </trkpt>
      <trkpt lat="44.12622" lon="7.25855">
        <ele>1706.6390925507</ele>
        <time>2016-09-25T18:15:42Z</time>
      </trkpt>
      <trkpt lat="44.12622" lon="7.25859">
        <ele>1706.6390925507</ele>
        <time>2016-09-25T18:15:52Z</time>
      </trkpt>
      <trkpt lat="44.12622" lon="7.2586">
        <ele>1706.6390925507</ele>
        <time>2016-09-25T18:15:57Z</time>
      </trkpt>
      <trkpt lat="44.12631" lon="7.25873">
        <ele>1703.7676336467</ele>
        <time>2016-09-25T18:16:12Z</time>
      </trkpt>
      <trkpt lat="44.12636" lon="7.25883">
        <ele>1703.7676336467</ele>
        <time>2016-09-25T18:16:17Z</time>
      </trkpt>
      <trkpt lat="44.12637" lon="7.25898">
        <ele>1700.9207255065</ele>
        <time>2016-09-25T18:16:27Z</time>
      </trkpt>
      <trkpt lat="44.12637" lon="7.25902">
        <ele>1700.9207255065</ele>
        <time>2016-09-25T18:16:32Z</time>
      </trkpt>
      <trkpt lat="44.12636" lon="7.25911">
        <ele>1700.9207255065</ele>
        <time>2016-09-25T18:16:42Z</time>
      </trkpt>
      <trkpt lat="44.12636" lon="7.25921">
        <ele>1698.1406019416</ele>
        <time>2016-09-25T18:16:47Z</time>
      </trkpt>
      <trkpt lat="44.12635" lon="7.25938">
        <ele>1694.7024356854</ele>
        <time>2016-09-25T18:16:57Z</time>
      </trkpt>
      <trkpt lat="44.12635" lon="7.25949">
        <ele>1694.7024356854</ele>
        <time>2016-09-25T18:17:02Z</time>
      </trkpt>
      <trkpt lat="44.12632" lon="7.25962">
        <ele>1691.6514267696</ele>
        <time>2016-09-25T18:17:12Z</time>
      </trkpt>
      <trkpt lat="44.12629" lon="7.25969">
        <ele>1691.6514267696</ele>
        <time>2016-09-25T18:17:17Z</time>
      </trkpt>
      <trkpt lat="44.12619" lon="7.25985">
        <ele>1689.2487735623</ele>
        <time>2016-09-25T18:17:27Z</time>
      </trkpt>
      <trkpt lat="44.12615" lon="7.25988">
        <ele>1689.2487735623</ele>
        <time>2016-09-25T18:17:32Z</time>
      </trkpt>
      <trkpt lat="44.12615" lon="7.25996">
        <ele>1687.5185080935</ele>
        <time>2016-09-25T18:17:42Z</time>
      </trkpt>
      <trkpt lat="44.12613" lon="7.25997">
        <ele>1687.5185080935</ele>
        <time>2016-09-25T18:17:47Z</time>
      </trkpt>
      <trkpt lat="44.12612" lon="7.25999">
        <ele>1687.5185080935</ele>
        <time>2016-09-25T18:17:52Z</time>
      </trkpt>
      <trkpt lat="44.12609" lon="7.26006">
        <ele>1687.5185080935</ele>
        <time>2016-09-25T18:17:57Z</time>
      </trkpt>
      <trkpt lat="44.12606" lon="7.26013">
        <ele>1682.69088848</ele>
        <time>2016-09-25T18:18:02Z</time>
      </trkpt>
      <trkpt lat="44.12602" lon="7.26018">
        <ele>1682.69088848</ele>
        <time>2016-09-25T18:18:07Z</time>
      </trkpt>
    </trkseg>
  </trk>
</gpx>